<?xml version="1.0" encoding="UTF-8"?>
<gpx creator="Garmin Connect" version="1.1" schemaLocation="http://www.topografix.com/GPX/1/1 http://www.topografix.com/GPX/11.xsd" xmlns="http://www.topografix.com/GPX/1/1" xmlns:xsi="http://www.w3.org/2001/XMLSchema-instance" xsi:schemaLocation="http://www.topografix.com/GPX/1/1 http://www.topografix.com/GPX/1/1/gpx.xsd http://www.garmin.com/xmlschemas/GpxExtensions/v3 http://www.garmin.com/xmlschemas/GpxExtensionsv3.xsd http://www.garmin.com/xmlschemas/TrackPointExtension/v1 http://www.garmin.com/xmlschemas/TrackPointExtensionv1.xsd http://www.garmin.com/xmlschemas/PowerExtension/v1 http://www.garmin.com/xmlschemas/PowerExtensionv1.xsd http://www.topografix.com/GPX/gpx_style/0/2 http://www.topografix.com/GPX/gpx_style/0/2/gpx_style.xsd" xmlns:gpxtpx="http://www.garmin.com/xmlschemas/TrackPointExtension/v1" xmlns:gpxx="http://www.garmin.com/xmlschemas/GpxExtensions/v3" xmlns:gpxpx="http://www.garmin.com/xmlschemas/PowerExtension/v1" xmlns:gpx_style="http://www.topografix.com/GPX/gpx_style/0/2">
  <metadata>
    <name>Bohemia_eco_trail_11_04_2026</name>
    <author>
      <name>gpx.studio</name>
      <link href="https://gpx.studio"/>
    </author>
    <time>2026-04-13T13:44:12.000Z</time>
  </metadata>
  <trk>
    <name>Bohemia_eco_trail_11_04_2026</name>
    <type>20260413Outdoor walk</type>
    <trkseg>
      <trkpt lat="42.13185" lon="23.152243">
        <ele>564</ele>
        <time>2026-04-13T13:44:12.000Z</time>
      </trkpt>
      <trkpt lat="42.131841" lon="23.152242">
        <ele>564</ele>
        <time>2026-04-13T13:44:13.000Z</time>
      </trkpt>
      <trkpt lat="42.131843" lon="23.152239">
        <ele>564</ele>
        <time>2026-04-13T13:44:14.000Z</time>
      </trkpt>
      <trkpt lat="42.131839" lon="23.152235">
        <ele>564</ele>
        <time>2026-04-13T13:44:15.000Z</time>
      </trkpt>
      <trkpt lat="42.131838" lon="23.152228">
        <ele>564</ele>
        <time>2026-04-13T13:44:16.000Z</time>
      </trkpt>
      <trkpt lat="42.131834" lon="23.152218">
        <ele>564</ele>
        <time>2026-04-13T13:44:17.000Z</time>
      </trkpt>
      <trkpt lat="42.131833" lon="23.152205">
        <ele>564</ele>
        <time>2026-04-13T13:44:18.000Z</time>
      </trkpt>
      <trkpt lat="42.131833" lon="23.152188">
        <ele>564</ele>
        <time>2026-04-13T13:44:19.000Z</time>
      </trkpt>
      <trkpt lat="42.131832" lon="23.152171">
        <ele>563.8</ele>
        <time>2026-04-13T13:44:20.000Z</time>
      </trkpt>
      <trkpt lat="42.13183" lon="23.152153">
        <ele>563.8</ele>
        <time>2026-04-13T13:44:21.000Z</time>
      </trkpt>
      <trkpt lat="42.131829" lon="23.152138">
        <ele>563.8</ele>
        <time>2026-04-13T13:44:22.000Z</time>
      </trkpt>
      <trkpt lat="42.131829" lon="23.152124">
        <ele>563.8</ele>
        <time>2026-04-13T13:44:23.000Z</time>
      </trkpt>
      <trkpt lat="42.131831" lon="23.152112">
        <ele>563.8</ele>
        <time>2026-04-13T13:44:24.000Z</time>
      </trkpt>
      <trkpt lat="42.131834" lon="23.152102">
        <ele>563.8</ele>
        <time>2026-04-13T13:44:25.000Z</time>
      </trkpt>
      <trkpt lat="42.131838" lon="23.152092">
        <ele>563.8</ele>
        <time>2026-04-13T13:44:26.000Z</time>
      </trkpt>
      <trkpt lat="42.131841" lon="23.15208">
        <ele>563.8</ele>
        <time>2026-04-13T13:44:27.000Z</time>
      </trkpt>
      <trkpt lat="42.131843" lon="23.152067">
        <ele>563.8</ele>
        <time>2026-04-13T13:44:28.000Z</time>
      </trkpt>
      <trkpt lat="42.131845" lon="23.152054">
        <ele>563.8</ele>
        <time>2026-04-13T13:44:29.000Z</time>
      </trkpt>
      <trkpt lat="42.131845" lon="23.15204">
        <ele>563.6</ele>
        <time>2026-04-13T13:44:30.000Z</time>
      </trkpt>
      <trkpt lat="42.131845" lon="23.152027">
        <ele>563.6</ele>
        <time>2026-04-13T13:44:31.000Z</time>
      </trkpt>
      <trkpt lat="42.131845" lon="23.152013">
        <ele>563.6</ele>
        <time>2026-04-13T13:44:32.000Z</time>
      </trkpt>
      <trkpt lat="42.131843" lon="23.152001">
        <ele>563.6</ele>
        <time>2026-04-13T13:44:33.000Z</time>
      </trkpt>
      <trkpt lat="42.13184" lon="23.151989">
        <ele>563.6</ele>
        <time>2026-04-13T13:44:34.000Z</time>
      </trkpt>
      <trkpt lat="42.131836" lon="23.151979">
        <ele>563.3</ele>
        <time>2026-04-13T13:44:35.000Z</time>
      </trkpt>
      <trkpt lat="42.131831" lon="23.151969">
        <ele>563.3</ele>
        <time>2026-04-13T13:44:36.000Z</time>
      </trkpt>
      <trkpt lat="42.131824" lon="23.151959">
        <ele>563.3</ele>
        <time>2026-04-13T13:44:37.000Z</time>
      </trkpt>
      <trkpt lat="42.131819" lon="23.15195">
        <ele>563.3</ele>
        <time>2026-04-13T13:44:38.000Z</time>
      </trkpt>
      <trkpt lat="42.131813" lon="23.15194">
        <ele>563.3</ele>
        <time>2026-04-13T13:44:39.000Z</time>
      </trkpt>
      <trkpt lat="42.131808" lon="23.15193">
        <ele>563.1</ele>
        <time>2026-04-13T13:44:40.000Z</time>
      </trkpt>
      <trkpt lat="42.131803" lon="23.151922">
        <ele>563.1</ele>
        <time>2026-04-13T13:44:41.000Z</time>
      </trkpt>
      <trkpt lat="42.131797" lon="23.151914">
        <ele>563.1</ele>
        <time>2026-04-13T13:44:42.000Z</time>
      </trkpt>
      <trkpt lat="42.131791" lon="23.151907">
        <ele>563.1</ele>
        <time>2026-04-13T13:44:43.000Z</time>
      </trkpt>
      <trkpt lat="42.131786" lon="23.1519">
        <ele>563.1</ele>
        <time>2026-04-13T13:44:44.000Z</time>
      </trkpt>
      <trkpt lat="42.13178" lon="23.151894">
        <ele>563</ele>
        <time>2026-04-13T13:44:45.000Z</time>
      </trkpt>
      <trkpt lat="42.131776" lon="23.151888">
        <ele>563</ele>
        <time>2026-04-13T13:44:46.000Z</time>
      </trkpt>
      <trkpt lat="42.131772" lon="23.151882">
        <ele>563</ele>
        <time>2026-04-13T13:44:47.000Z</time>
      </trkpt>
      <trkpt lat="42.131769" lon="23.151878">
        <ele>563</ele>
        <time>2026-04-13T13:44:48.000Z</time>
      </trkpt>
      <trkpt lat="42.131766" lon="23.151876">
        <ele>563</ele>
        <time>2026-04-13T13:44:49.000Z</time>
      </trkpt>
      <trkpt lat="42.131764" lon="23.151876">
        <ele>563.4</ele>
        <time>2026-04-13T13:44:50.000Z</time>
      </trkpt>
      <trkpt lat="42.131761" lon="23.151879">
        <ele>563.4</ele>
        <time>2026-04-13T13:44:51.000Z</time>
      </trkpt>
      <trkpt lat="42.131759" lon="23.151883">
        <ele>563.4</ele>
        <time>2026-04-13T13:44:52.000Z</time>
      </trkpt>
      <trkpt lat="42.131756" lon="23.151888">
        <ele>563.4</ele>
        <time>2026-04-13T13:44:53.000Z</time>
      </trkpt>
      <trkpt lat="42.131754" lon="23.151894">
        <ele>563.4</ele>
        <time>2026-04-13T13:44:54.000Z</time>
      </trkpt>
      <trkpt lat="42.131751" lon="23.151901">
        <ele>563.8</ele>
        <time>2026-04-13T13:44:55.000Z</time>
      </trkpt>
      <trkpt lat="42.131749" lon="23.151909">
        <ele>563.8</ele>
        <time>2026-04-13T13:44:56.000Z</time>
      </trkpt>
      <trkpt lat="42.131748" lon="23.151917">
        <ele>563.8</ele>
        <time>2026-04-13T13:44:57.000Z</time>
      </trkpt>
      <trkpt lat="42.131747" lon="23.151926">
        <ele>563.8</ele>
        <time>2026-04-13T13:44:58.000Z</time>
      </trkpt>
      <trkpt lat="42.131747" lon="23.151935">
        <ele>563.8</ele>
        <time>2026-04-13T13:44:59.000Z</time>
      </trkpt>
      <trkpt lat="42.131748" lon="23.151944">
        <ele>564.9</ele>
        <time>2026-04-13T13:45:00.000Z</time>
      </trkpt>
      <trkpt lat="42.131749" lon="23.151953">
        <ele>564.9</ele>
        <time>2026-04-13T13:45:01.000Z</time>
      </trkpt>
      <trkpt lat="42.13175" lon="23.151961">
        <ele>564.9</ele>
        <time>2026-04-13T13:45:02.000Z</time>
      </trkpt>
      <trkpt lat="42.13175" lon="23.151969">
        <ele>564.9</ele>
        <time>2026-04-13T13:45:03.000Z</time>
      </trkpt>
      <trkpt lat="42.13175" lon="23.151976">
        <ele>564.9</ele>
        <time>2026-04-13T13:45:04.000Z</time>
      </trkpt>
      <trkpt lat="42.131748" lon="23.151981">
        <ele>566.3</ele>
        <time>2026-04-13T13:45:05.000Z</time>
      </trkpt>
      <trkpt lat="42.131745" lon="23.151984">
        <ele>566.3</ele>
        <time>2026-04-13T13:45:06.000Z</time>
      </trkpt>
      <trkpt lat="42.13174" lon="23.151984">
        <ele>566.3</ele>
        <time>2026-04-13T13:45:07.000Z</time>
      </trkpt>
      <trkpt lat="42.131736" lon="23.151981">
        <ele>566.3</ele>
        <time>2026-04-13T13:45:08.000Z</time>
      </trkpt>
      <trkpt lat="42.131731" lon="23.151977">
        <ele>566.3</ele>
        <time>2026-04-13T13:45:09.000Z</time>
      </trkpt>
      <trkpt lat="42.131727" lon="23.151971">
        <ele>567</ele>
        <time>2026-04-13T13:45:10.000Z</time>
      </trkpt>
      <trkpt lat="42.131724" lon="23.151964">
        <ele>567</ele>
        <time>2026-04-13T13:45:11.000Z</time>
      </trkpt>
      <trkpt lat="42.131721" lon="23.151957">
        <ele>567</ele>
        <time>2026-04-13T13:45:12.000Z</time>
      </trkpt>
      <trkpt lat="42.131718" lon="23.151951">
        <ele>567</ele>
        <time>2026-04-13T13:45:13.000Z</time>
      </trkpt>
      <trkpt lat="42.131715" lon="23.151946">
        <ele>567</ele>
        <time>2026-04-13T13:45:14.000Z</time>
      </trkpt>
      <trkpt lat="42.131713" lon="23.15194">
        <ele>568.1</ele>
        <time>2026-04-13T13:45:15.000Z</time>
      </trkpt>
      <trkpt lat="42.131711" lon="23.151935">
        <ele>568.1</ele>
        <time>2026-04-13T13:45:16.000Z</time>
      </trkpt>
      <trkpt lat="42.131709" lon="23.151929">
        <ele>568.1</ele>
        <time>2026-04-13T13:45:17.000Z</time>
      </trkpt>
      <trkpt lat="42.131706" lon="23.151922">
        <ele>568.1</ele>
        <time>2026-04-13T13:45:18.000Z</time>
      </trkpt>
      <trkpt lat="42.131704" lon="23.151914">
        <ele>568.1</ele>
        <time>2026-04-13T13:45:19.000Z</time>
      </trkpt>
      <trkpt lat="42.1317" lon="23.151905">
        <ele>569.1</ele>
        <time>2026-04-13T13:45:20.000Z</time>
      </trkpt>
      <trkpt lat="42.131696" lon="23.151896">
        <ele>569.1</ele>
        <time>2026-04-13T13:45:21.000Z</time>
      </trkpt>
      <trkpt lat="42.131691" lon="23.151887">
        <ele>569.1</ele>
        <time>2026-04-13T13:45:22.000Z</time>
      </trkpt>
      <trkpt lat="42.131686" lon="23.151877">
        <ele>569.1</ele>
        <time>2026-04-13T13:45:23.000Z</time>
      </trkpt>
      <trkpt lat="42.13168" lon="23.151869">
        <ele>569.1</ele>
        <time>2026-04-13T13:45:24.000Z</time>
      </trkpt>
      <trkpt lat="42.131674" lon="23.15186">
        <ele>569.5</ele>
        <time>2026-04-13T13:45:25.000Z</time>
      </trkpt>
      <trkpt lat="42.131669" lon="23.151851">
        <ele>569.5</ele>
        <time>2026-04-13T13:45:26.000Z</time>
      </trkpt>
      <trkpt lat="42.131664" lon="23.151841">
        <ele>569.5</ele>
        <time>2026-04-13T13:45:27.000Z</time>
      </trkpt>
      <trkpt lat="42.131659" lon="23.151831">
        <ele>569.5</ele>
        <time>2026-04-13T13:45:28.000Z</time>
      </trkpt>
      <trkpt lat="42.131655" lon="23.151822">
        <ele>569.5</ele>
        <time>2026-04-13T13:45:29.000Z</time>
      </trkpt>
      <trkpt lat="42.131652" lon="23.151812">
        <ele>570.4</ele>
        <time>2026-04-13T13:45:30.000Z</time>
      </trkpt>
      <trkpt lat="42.131649" lon="23.151802">
        <ele>570.4</ele>
        <time>2026-04-13T13:45:31.000Z</time>
      </trkpt>
      <trkpt lat="42.131646" lon="23.151792">
        <ele>570.4</ele>
        <time>2026-04-13T13:45:32.000Z</time>
      </trkpt>
      <trkpt lat="42.131644" lon="23.151783">
        <ele>570.4</ele>
        <time>2026-04-13T13:45:33.000Z</time>
      </trkpt>
      <trkpt lat="42.131643" lon="23.151774">
        <ele>570.4</ele>
        <time>2026-04-13T13:45:34.000Z</time>
      </trkpt>
      <trkpt lat="42.131642" lon="23.151765">
        <ele>571.4</ele>
        <time>2026-04-13T13:45:35.000Z</time>
      </trkpt>
      <trkpt lat="42.131641" lon="23.151756">
        <ele>571.4</ele>
        <time>2026-04-13T13:45:36.000Z</time>
      </trkpt>
      <trkpt lat="42.131641" lon="23.151746">
        <ele>571.4</ele>
        <time>2026-04-13T13:45:37.000Z</time>
      </trkpt>
      <trkpt lat="42.131641" lon="23.151736">
        <ele>571.4</ele>
        <time>2026-04-13T13:45:38.000Z</time>
      </trkpt>
      <trkpt lat="42.13164" lon="23.151725">
        <ele>571.4</ele>
        <time>2026-04-13T13:45:39.000Z</time>
      </trkpt>
      <trkpt lat="42.13164" lon="23.151714">
        <ele>572</ele>
        <time>2026-04-13T13:45:40.000Z</time>
      </trkpt>
      <trkpt lat="42.131639" lon="23.151703">
        <ele>572</ele>
        <time>2026-04-13T13:45:41.000Z</time>
      </trkpt>
      <trkpt lat="42.131637" lon="23.151692">
        <ele>572</ele>
        <time>2026-04-13T13:45:42.000Z</time>
      </trkpt>
      <trkpt lat="42.131634" lon="23.151682">
        <ele>572</ele>
        <time>2026-04-13T13:45:43.000Z</time>
      </trkpt>
      <trkpt lat="42.13163" lon="23.151672">
        <ele>572</ele>
        <time>2026-04-13T13:45:44.000Z</time>
      </trkpt>
      <trkpt lat="42.131625" lon="23.151663">
        <ele>573.1</ele>
        <time>2026-04-13T13:45:45.000Z</time>
      </trkpt>
      <trkpt lat="42.13162" lon="23.151654">
        <ele>573.1</ele>
        <time>2026-04-13T13:45:46.000Z</time>
      </trkpt>
      <trkpt lat="42.131614" lon="23.151646">
        <ele>573.1</ele>
        <time>2026-04-13T13:45:47.000Z</time>
      </trkpt>
      <trkpt lat="42.131608" lon="23.151637">
        <ele>573.1</ele>
        <time>2026-04-13T13:45:48.000Z</time>
      </trkpt>
      <trkpt lat="42.131603" lon="23.151629">
        <ele>573.1</ele>
        <time>2026-04-13T13:45:49.000Z</time>
      </trkpt>
      <trkpt lat="42.131597" lon="23.151621">
        <ele>574.1</ele>
        <time>2026-04-13T13:45:50.000Z</time>
      </trkpt>
      <trkpt lat="42.131592" lon="23.151614">
        <ele>574.1</ele>
        <time>2026-04-13T13:45:51.000Z</time>
      </trkpt>
      <trkpt lat="42.131588" lon="23.151607">
        <ele>574.1</ele>
        <time>2026-04-13T13:45:52.000Z</time>
      </trkpt>
      <trkpt lat="42.131585" lon="23.151602">
        <ele>574.1</ele>
        <time>2026-04-13T13:45:53.000Z</time>
      </trkpt>
      <trkpt lat="42.131583" lon="23.151596">
        <ele>574.1</ele>
        <time>2026-04-13T13:45:54.000Z</time>
      </trkpt>
      <trkpt lat="42.131582" lon="23.151592">
        <ele>574.6</ele>
        <time>2026-04-13T13:45:55.000Z</time>
      </trkpt>
      <trkpt lat="42.131582" lon="23.151589">
        <ele>574.6</ele>
        <time>2026-04-13T13:45:56.000Z</time>
      </trkpt>
      <trkpt lat="42.131583" lon="23.151586">
        <ele>574.6</ele>
        <time>2026-04-13T13:45:57.000Z</time>
      </trkpt>
      <trkpt lat="42.131584" lon="23.151585">
        <ele>574.6</ele>
        <time>2026-04-13T13:45:58.000Z</time>
      </trkpt>
      <trkpt lat="42.131585" lon="23.151584">
        <ele>574.6</ele>
        <time>2026-04-13T13:45:59.000Z</time>
      </trkpt>
      <trkpt lat="42.131586" lon="23.151584">
        <ele>575.2</ele>
        <time>2026-04-13T13:46:00.000Z</time>
      </trkpt>
      <trkpt lat="42.131587" lon="23.151584">
        <ele>575.2</ele>
        <time>2026-04-13T13:46:01.000Z</time>
      </trkpt>
      <trkpt lat="42.131588" lon="23.151585">
        <ele>575.2</ele>
        <time>2026-04-13T13:46:02.000Z</time>
      </trkpt>
      <trkpt lat="42.131588" lon="23.151585">
        <ele>575.2</ele>
        <time>2026-04-13T13:46:03.000Z</time>
      </trkpt>
      <trkpt lat="42.131589" lon="23.151585">
        <ele>575.2</ele>
        <time>2026-04-13T13:46:04.000Z</time>
      </trkpt>
      <trkpt lat="42.13159" lon="23.151585">
        <ele>575.6</ele>
        <time>2026-04-13T13:46:05.000Z</time>
      </trkpt>
      <trkpt lat="42.131591" lon="23.151586">
        <ele>575.6</ele>
        <time>2026-04-13T13:46:06.000Z</time>
      </trkpt>
      <trkpt lat="42.131591" lon="23.151586">
        <ele>575.6</ele>
        <time>2026-04-13T13:46:07.000Z</time>
      </trkpt>
      <trkpt lat="42.131592" lon="23.151586">
        <ele>575.6</ele>
        <time>2026-04-13T13:46:08.000Z</time>
      </trkpt>
      <trkpt lat="42.131592" lon="23.151586">
        <ele>575.6</ele>
        <time>2026-04-13T13:46:09.000Z</time>
      </trkpt>
      <trkpt lat="42.131591" lon="23.151586">
        <ele>575.6</ele>
        <time>2026-04-13T13:46:10.000Z</time>
      </trkpt>
      <trkpt lat="42.13159" lon="23.151585">
        <ele>575.6</ele>
        <time>2026-04-13T13:46:11.000Z</time>
      </trkpt>
      <trkpt lat="42.131588" lon="23.151584">
        <ele>575.6</ele>
        <time>2026-04-13T13:46:12.000Z</time>
      </trkpt>
      <trkpt lat="42.131586" lon="23.151583">
        <ele>575.6</ele>
        <time>2026-04-13T13:46:13.000Z</time>
      </trkpt>
      <trkpt lat="42.131584" lon="23.151583">
        <ele>575.6</ele>
        <time>2026-04-13T13:46:14.000Z</time>
      </trkpt>
      <trkpt lat="42.131582" lon="23.151582">
        <ele>575.7</ele>
        <time>2026-04-13T13:46:15.000Z</time>
      </trkpt>
      <trkpt lat="42.131581" lon="23.151582">
        <ele>575.7</ele>
        <time>2026-04-13T13:46:16.000Z</time>
      </trkpt>
      <trkpt lat="42.131579" lon="23.151581">
        <ele>575.7</ele>
        <time>2026-04-13T13:46:17.000Z</time>
      </trkpt>
      <trkpt lat="42.131578" lon="23.151581">
        <ele>575.7</ele>
        <time>2026-04-13T13:46:18.000Z</time>
      </trkpt>
      <trkpt lat="42.131578" lon="23.151581">
        <ele>575.7</ele>
        <time>2026-04-13T13:46:19.000Z</time>
      </trkpt>
      <trkpt lat="42.131578" lon="23.151581">
        <ele>575.8</ele>
        <time>2026-04-13T13:46:20.000Z</time>
      </trkpt>
      <trkpt lat="42.131578" lon="23.151581">
        <ele>575.8</ele>
        <time>2026-04-13T13:46:21.000Z</time>
      </trkpt>
      <trkpt lat="42.131578" lon="23.151581">
        <ele>575.8</ele>
        <time>2026-04-13T13:46:22.000Z</time>
      </trkpt>
      <trkpt lat="42.131579" lon="23.15158">
        <ele>575.8</ele>
        <time>2026-04-13T13:46:23.000Z</time>
      </trkpt>
      <trkpt lat="42.131579" lon="23.151578">
        <ele>575.8</ele>
        <time>2026-04-13T13:46:24.000Z</time>
      </trkpt>
      <trkpt lat="42.131579" lon="23.151575">
        <ele>575.7</ele>
        <time>2026-04-13T13:46:25.000Z</time>
      </trkpt>
      <trkpt lat="42.131579" lon="23.15157">
        <ele>575.7</ele>
        <time>2026-04-13T13:46:26.000Z</time>
      </trkpt>
      <trkpt lat="42.13158" lon="23.151563">
        <ele>575.7</ele>
        <time>2026-04-13T13:46:27.000Z</time>
      </trkpt>
      <trkpt lat="42.131579" lon="23.151554">
        <ele>575.7</ele>
        <time>2026-04-13T13:46:28.000Z</time>
      </trkpt>
      <trkpt lat="42.13158" lon="23.151543">
        <ele>575.7</ele>
        <time>2026-04-13T13:46:29.000Z</time>
      </trkpt>
      <trkpt lat="42.13158" lon="23.151531">
        <ele>575.8</ele>
        <time>2026-04-13T13:46:30.000Z</time>
      </trkpt>
      <trkpt lat="42.131581" lon="23.151518">
        <ele>575.8</ele>
        <time>2026-04-13T13:46:31.000Z</time>
      </trkpt>
      <trkpt lat="42.131581" lon="23.151505">
        <ele>575.8</ele>
        <time>2026-04-13T13:46:32.000Z</time>
      </trkpt>
      <trkpt lat="42.131582" lon="23.151492">
        <ele>575.8</ele>
        <time>2026-04-13T13:46:33.000Z</time>
      </trkpt>
      <trkpt lat="42.131584" lon="23.15148">
        <ele>575.8</ele>
        <time>2026-04-13T13:46:34.000Z</time>
      </trkpt>
      <trkpt lat="42.131586" lon="23.151469">
        <ele>575.8</ele>
        <time>2026-04-13T13:46:35.000Z</time>
      </trkpt>
      <trkpt lat="42.131589" lon="23.151458">
        <ele>575.8</ele>
        <time>2026-04-13T13:46:36.000Z</time>
      </trkpt>
      <trkpt lat="42.131592" lon="23.151448">
        <ele>575.8</ele>
        <time>2026-04-13T13:46:37.000Z</time>
      </trkpt>
      <trkpt lat="42.131597" lon="23.151438">
        <ele>575.8</ele>
        <time>2026-04-13T13:46:38.000Z</time>
      </trkpt>
      <trkpt lat="42.131602" lon="23.151427">
        <ele>575.8</ele>
        <time>2026-04-13T13:46:39.000Z</time>
      </trkpt>
      <trkpt lat="42.131607" lon="23.151416">
        <ele>575.9</ele>
        <time>2026-04-13T13:46:40.000Z</time>
      </trkpt>
      <trkpt lat="42.131612" lon="23.151405">
        <ele>575.9</ele>
        <time>2026-04-13T13:46:41.000Z</time>
      </trkpt>
      <trkpt lat="42.131616" lon="23.151394">
        <ele>575.9</ele>
        <time>2026-04-13T13:46:42.000Z</time>
      </trkpt>
      <trkpt lat="42.13162" lon="23.151382">
        <ele>575.9</ele>
        <time>2026-04-13T13:46:43.000Z</time>
      </trkpt>
      <trkpt lat="42.131623" lon="23.15137">
        <ele>575.9</ele>
        <time>2026-04-13T13:46:44.000Z</time>
      </trkpt>
      <trkpt lat="42.131625" lon="23.151359">
        <ele>576.1</ele>
        <time>2026-04-13T13:46:45.000Z</time>
      </trkpt>
      <trkpt lat="42.131625" lon="23.151348">
        <ele>576.1</ele>
        <time>2026-04-13T13:46:46.000Z</time>
      </trkpt>
      <trkpt lat="42.131625" lon="23.151337">
        <ele>576.1</ele>
        <time>2026-04-13T13:46:47.000Z</time>
      </trkpt>
      <trkpt lat="42.131625" lon="23.151325">
        <ele>576.1</ele>
        <time>2026-04-13T13:46:48.000Z</time>
      </trkpt>
      <trkpt lat="42.131625" lon="23.151313">
        <ele>576.1</ele>
        <time>2026-04-13T13:46:49.000Z</time>
      </trkpt>
      <trkpt lat="42.131626" lon="23.151301">
        <ele>576.7</ele>
        <time>2026-04-13T13:46:50.000Z</time>
      </trkpt>
      <trkpt lat="42.131628" lon="23.151289">
        <ele>576.7</ele>
        <time>2026-04-13T13:46:51.000Z</time>
      </trkpt>
      <trkpt lat="42.131631" lon="23.151278">
        <ele>576.7</ele>
        <time>2026-04-13T13:46:52.000Z</time>
      </trkpt>
      <trkpt lat="42.131633" lon="23.151268">
        <ele>576.7</ele>
        <time>2026-04-13T13:46:53.000Z</time>
      </trkpt>
      <trkpt lat="42.131635" lon="23.151258">
        <ele>576.7</ele>
        <time>2026-04-13T13:46:54.000Z</time>
      </trkpt>
      <trkpt lat="42.131636" lon="23.151247">
        <ele>577.3</ele>
        <time>2026-04-13T13:46:55.000Z</time>
      </trkpt>
      <trkpt lat="42.131635" lon="23.151235">
        <ele>577.3</ele>
        <time>2026-04-13T13:46:56.000Z</time>
      </trkpt>
      <trkpt lat="42.131633" lon="23.151222">
        <ele>577.3</ele>
        <time>2026-04-13T13:46:57.000Z</time>
      </trkpt>
      <trkpt lat="42.131632" lon="23.151208">
        <ele>577.3</ele>
        <time>2026-04-13T13:46:58.000Z</time>
      </trkpt>
      <trkpt lat="42.13163" lon="23.151194">
        <ele>577.3</ele>
        <time>2026-04-13T13:46:59.000Z</time>
      </trkpt>
      <trkpt lat="42.131629" lon="23.151181">
        <ele>578.4</ele>
        <time>2026-04-13T13:47:00.000Z</time>
      </trkpt>
      <trkpt lat="42.13163" lon="23.151168">
        <ele>578.4</ele>
        <time>2026-04-13T13:47:01.000Z</time>
      </trkpt>
      <trkpt lat="42.131633" lon="23.151156">
        <ele>578.4</ele>
        <time>2026-04-13T13:47:02.000Z</time>
      </trkpt>
      <trkpt lat="42.131635" lon="23.151145">
        <ele>578.4</ele>
        <time>2026-04-13T13:47:03.000Z</time>
      </trkpt>
      <trkpt lat="42.131638" lon="23.151136">
        <ele>578.4</ele>
        <time>2026-04-13T13:47:04.000Z</time>
      </trkpt>
      <trkpt lat="42.131641" lon="23.151127">
        <ele>579.6</ele>
        <time>2026-04-13T13:47:05.000Z</time>
      </trkpt>
      <trkpt lat="42.131644" lon="23.151118">
        <ele>579.6</ele>
        <time>2026-04-13T13:47:06.000Z</time>
      </trkpt>
      <trkpt lat="42.131648" lon="23.151109">
        <ele>579.6</ele>
        <time>2026-04-13T13:47:07.000Z</time>
      </trkpt>
      <trkpt lat="42.13165" lon="23.151101">
        <ele>579.6</ele>
        <time>2026-04-13T13:47:08.000Z</time>
      </trkpt>
      <trkpt lat="42.131653" lon="23.151091">
        <ele>579.6</ele>
        <time>2026-04-13T13:47:09.000Z</time>
      </trkpt>
      <trkpt lat="42.131656" lon="23.151082">
        <ele>580.2</ele>
        <time>2026-04-13T13:47:10.000Z</time>
      </trkpt>
      <trkpt lat="42.131658" lon="23.151072">
        <ele>580.2</ele>
        <time>2026-04-13T13:47:11.000Z</time>
      </trkpt>
      <trkpt lat="42.131661" lon="23.151063">
        <ele>580.2</ele>
        <time>2026-04-13T13:47:12.000Z</time>
      </trkpt>
      <trkpt lat="42.131664" lon="23.151053">
        <ele>580.2</ele>
        <time>2026-04-13T13:47:13.000Z</time>
      </trkpt>
      <trkpt lat="42.131666" lon="23.151044">
        <ele>580.2</ele>
        <time>2026-04-13T13:47:14.000Z</time>
      </trkpt>
      <trkpt lat="42.131669" lon="23.151035">
        <ele>581.3</ele>
        <time>2026-04-13T13:47:15.000Z</time>
      </trkpt>
      <trkpt lat="42.131671" lon="23.151026">
        <ele>581.3</ele>
        <time>2026-04-13T13:47:16.000Z</time>
      </trkpt>
      <trkpt lat="42.131673" lon="23.151017">
        <ele>581.3</ele>
        <time>2026-04-13T13:47:17.000Z</time>
      </trkpt>
      <trkpt lat="42.131676" lon="23.151009">
        <ele>581.3</ele>
        <time>2026-04-13T13:47:18.000Z</time>
      </trkpt>
      <trkpt lat="42.131679" lon="23.151002">
        <ele>581.3</ele>
        <time>2026-04-13T13:47:19.000Z</time>
      </trkpt>
      <trkpt lat="42.131683" lon="23.150994">
        <ele>582.3</ele>
        <time>2026-04-13T13:47:20.000Z</time>
      </trkpt>
      <trkpt lat="42.131688" lon="23.150987">
        <ele>582.3</ele>
        <time>2026-04-13T13:47:21.000Z</time>
      </trkpt>
      <trkpt lat="42.131693" lon="23.15098">
        <ele>582.3</ele>
        <time>2026-04-13T13:47:22.000Z</time>
      </trkpt>
      <trkpt lat="42.131699" lon="23.150974">
        <ele>582.3</ele>
        <time>2026-04-13T13:47:23.000Z</time>
      </trkpt>
      <trkpt lat="42.131704" lon="23.150968">
        <ele>582.3</ele>
        <time>2026-04-13T13:47:24.000Z</time>
      </trkpt>
      <trkpt lat="42.13171" lon="23.150961">
        <ele>582.7</ele>
        <time>2026-04-13T13:47:25.000Z</time>
      </trkpt>
      <trkpt lat="42.131717" lon="23.150954">
        <ele>582.7</ele>
        <time>2026-04-13T13:47:26.000Z</time>
      </trkpt>
      <trkpt lat="42.131723" lon="23.150946">
        <ele>582.7</ele>
        <time>2026-04-13T13:47:27.000Z</time>
      </trkpt>
      <trkpt lat="42.13173" lon="23.150938">
        <ele>582.7</ele>
        <time>2026-04-13T13:47:28.000Z</time>
      </trkpt>
      <trkpt lat="42.131737" lon="23.15093">
        <ele>582.7</ele>
        <time>2026-04-13T13:47:29.000Z</time>
      </trkpt>
      <trkpt lat="42.131744" lon="23.150921">
        <ele>583.3</ele>
        <time>2026-04-13T13:47:30.000Z</time>
      </trkpt>
      <trkpt lat="42.131751" lon="23.150912">
        <ele>583.3</ele>
        <time>2026-04-13T13:47:31.000Z</time>
      </trkpt>
      <trkpt lat="42.131759" lon="23.150903">
        <ele>583.3</ele>
        <time>2026-04-13T13:47:32.000Z</time>
      </trkpt>
      <trkpt lat="42.131766" lon="23.150892">
        <ele>583.3</ele>
        <time>2026-04-13T13:47:33.000Z</time>
      </trkpt>
      <trkpt lat="42.131772" lon="23.150881">
        <ele>583.3</ele>
        <time>2026-04-13T13:47:34.000Z</time>
      </trkpt>
      <trkpt lat="42.131778" lon="23.150869">
        <ele>583.2</ele>
        <time>2026-04-13T13:47:35.000Z</time>
      </trkpt>
      <trkpt lat="42.131783" lon="23.150857">
        <ele>583.2</ele>
        <time>2026-04-13T13:47:36.000Z</time>
      </trkpt>
      <trkpt lat="42.131788" lon="23.150844">
        <ele>583.2</ele>
        <time>2026-04-13T13:47:37.000Z</time>
      </trkpt>
      <trkpt lat="42.131791" lon="23.150831">
        <ele>583.2</ele>
        <time>2026-04-13T13:47:38.000Z</time>
      </trkpt>
      <trkpt lat="42.131793" lon="23.150818">
        <ele>583.2</ele>
        <time>2026-04-13T13:47:39.000Z</time>
      </trkpt>
      <trkpt lat="42.131794" lon="23.150805">
        <ele>582.8</ele>
        <time>2026-04-13T13:47:40.000Z</time>
      </trkpt>
      <trkpt lat="42.131794" lon="23.150793">
        <ele>582.8</ele>
        <time>2026-04-13T13:47:41.000Z</time>
      </trkpt>
      <trkpt lat="42.131793" lon="23.15078">
        <ele>582.8</ele>
        <time>2026-04-13T13:47:42.000Z</time>
      </trkpt>
      <trkpt lat="42.131791" lon="23.150768">
        <ele>582.8</ele>
        <time>2026-04-13T13:47:43.000Z</time>
      </trkpt>
      <trkpt lat="42.13179" lon="23.150756">
        <ele>582.8</ele>
        <time>2026-04-13T13:47:44.000Z</time>
      </trkpt>
      <trkpt lat="42.131788" lon="23.150745">
        <ele>581.6</ele>
        <time>2026-04-13T13:47:45.000Z</time>
      </trkpt>
      <trkpt lat="42.131787" lon="23.150733">
        <ele>581.6</ele>
        <time>2026-04-13T13:47:46.000Z</time>
      </trkpt>
      <trkpt lat="42.131787" lon="23.150721">
        <ele>581.6</ele>
        <time>2026-04-13T13:47:47.000Z</time>
      </trkpt>
      <trkpt lat="42.131787" lon="23.150709">
        <ele>581.6</ele>
        <time>2026-04-13T13:47:48.000Z</time>
      </trkpt>
      <trkpt lat="42.131787" lon="23.150697">
        <ele>581.6</ele>
        <time>2026-04-13T13:47:49.000Z</time>
      </trkpt>
      <trkpt lat="42.131787" lon="23.150685">
        <ele>581</ele>
        <time>2026-04-13T13:47:50.000Z</time>
      </trkpt>
      <trkpt lat="42.131787" lon="23.150673">
        <ele>581</ele>
        <time>2026-04-13T13:47:51.000Z</time>
      </trkpt>
      <trkpt lat="42.131787" lon="23.150661">
        <ele>581</ele>
        <time>2026-04-13T13:47:52.000Z</time>
      </trkpt>
      <trkpt lat="42.131787" lon="23.150649">
        <ele>581</ele>
        <time>2026-04-13T13:47:53.000Z</time>
      </trkpt>
      <trkpt lat="42.131787" lon="23.150637">
        <ele>581</ele>
        <time>2026-04-13T13:47:54.000Z</time>
      </trkpt>
      <trkpt lat="42.131787" lon="23.150625">
        <ele>581.2</ele>
        <time>2026-04-13T13:47:55.000Z</time>
      </trkpt>
      <trkpt lat="42.131786" lon="23.150613">
        <ele>581.2</ele>
        <time>2026-04-13T13:47:56.000Z</time>
      </trkpt>
      <trkpt lat="42.131785" lon="23.150602">
        <ele>581.2</ele>
        <time>2026-04-13T13:47:57.000Z</time>
      </trkpt>
      <trkpt lat="42.131782" lon="23.150591">
        <ele>581.2</ele>
        <time>2026-04-13T13:47:58.000Z</time>
      </trkpt>
      <trkpt lat="42.13178" lon="23.150579">
        <ele>581.2</ele>
        <time>2026-04-13T13:47:59.000Z</time>
      </trkpt>
      <trkpt lat="42.131779" lon="23.150568">
        <ele>582</ele>
        <time>2026-04-13T13:48:00.000Z</time>
      </trkpt>
      <trkpt lat="42.131778" lon="23.150557">
        <ele>582</ele>
        <time>2026-04-13T13:48:01.000Z</time>
      </trkpt>
      <trkpt lat="42.131778" lon="23.150545">
        <ele>582</ele>
        <time>2026-04-13T13:48:02.000Z</time>
      </trkpt>
      <trkpt lat="42.131779" lon="23.150534">
        <ele>582</ele>
        <time>2026-04-13T13:48:03.000Z</time>
      </trkpt>
      <trkpt lat="42.13178" lon="23.150521">
        <ele>582</ele>
        <time>2026-04-13T13:48:04.000Z</time>
      </trkpt>
      <trkpt lat="42.131781" lon="23.150509">
        <ele>582.9</ele>
        <time>2026-04-13T13:48:05.000Z</time>
      </trkpt>
      <trkpt lat="42.131782" lon="23.150496">
        <ele>582.9</ele>
        <time>2026-04-13T13:48:06.000Z</time>
      </trkpt>
      <trkpt lat="42.131781" lon="23.150482">
        <ele>582.9</ele>
        <time>2026-04-13T13:48:07.000Z</time>
      </trkpt>
      <trkpt lat="42.131781" lon="23.150468">
        <ele>582.9</ele>
        <time>2026-04-13T13:48:08.000Z</time>
      </trkpt>
      <trkpt lat="42.131781" lon="23.150453">
        <ele>582.9</ele>
        <time>2026-04-13T13:48:09.000Z</time>
      </trkpt>
      <trkpt lat="42.131783" lon="23.150439">
        <ele>583.1</ele>
        <time>2026-04-13T13:48:10.000Z</time>
      </trkpt>
      <trkpt lat="42.131785" lon="23.150423">
        <ele>583.1</ele>
        <time>2026-04-13T13:48:11.000Z</time>
      </trkpt>
      <trkpt lat="42.131786" lon="23.150408">
        <ele>583.1</ele>
        <time>2026-04-13T13:48:12.000Z</time>
      </trkpt>
      <trkpt lat="42.131786" lon="23.150392">
        <ele>583.1</ele>
        <time>2026-04-13T13:48:13.000Z</time>
      </trkpt>
      <trkpt lat="42.131784" lon="23.150377">
        <ele>583.1</ele>
        <time>2026-04-13T13:48:14.000Z</time>
      </trkpt>
      <trkpt lat="42.131779" lon="23.150362">
        <ele>583.4</ele>
        <time>2026-04-13T13:48:15.000Z</time>
      </trkpt>
      <trkpt lat="42.131773" lon="23.150349">
        <ele>583.4</ele>
        <time>2026-04-13T13:48:16.000Z</time>
      </trkpt>
      <trkpt lat="42.131766" lon="23.150336">
        <ele>583.4</ele>
        <time>2026-04-13T13:48:17.000Z</time>
      </trkpt>
      <trkpt lat="42.13176" lon="23.150323">
        <ele>583.4</ele>
        <time>2026-04-13T13:48:18.000Z</time>
      </trkpt>
      <trkpt lat="42.131756" lon="23.15031">
        <ele>583.4</ele>
        <time>2026-04-13T13:48:19.000Z</time>
      </trkpt>
      <trkpt lat="42.131754" lon="23.150296">
        <ele>583</ele>
        <time>2026-04-13T13:48:20.000Z</time>
      </trkpt>
      <trkpt lat="42.131753" lon="23.150282">
        <ele>583</ele>
        <time>2026-04-13T13:48:21.000Z</time>
      </trkpt>
      <trkpt lat="42.131753" lon="23.150269">
        <ele>583</ele>
        <time>2026-04-13T13:48:22.000Z</time>
      </trkpt>
      <trkpt lat="42.131752" lon="23.150256">
        <ele>583</ele>
        <time>2026-04-13T13:48:23.000Z</time>
      </trkpt>
      <trkpt lat="42.131749" lon="23.150244">
        <ele>583</ele>
        <time>2026-04-13T13:48:24.000Z</time>
      </trkpt>
      <trkpt lat="42.131744" lon="23.150233">
        <ele>582.7</ele>
        <time>2026-04-13T13:48:25.000Z</time>
      </trkpt>
      <trkpt lat="42.131739" lon="23.150224">
        <ele>582.7</ele>
        <time>2026-04-13T13:48:26.000Z</time>
      </trkpt>
      <trkpt lat="42.131732" lon="23.150215">
        <ele>582.7</ele>
        <time>2026-04-13T13:48:27.000Z</time>
      </trkpt>
      <trkpt lat="42.131726" lon="23.150206">
        <ele>582.7</ele>
        <time>2026-04-13T13:48:28.000Z</time>
      </trkpt>
      <trkpt lat="42.131719" lon="23.150196">
        <ele>582.7</ele>
        <time>2026-04-13T13:48:29.000Z</time>
      </trkpt>
      <trkpt lat="42.131713" lon="23.150187">
        <ele>581.9</ele>
        <time>2026-04-13T13:48:30.000Z</time>
      </trkpt>
      <trkpt lat="42.131707" lon="23.150178">
        <ele>581.9</ele>
        <time>2026-04-13T13:48:31.000Z</time>
      </trkpt>
      <trkpt lat="42.131702" lon="23.150168">
        <ele>581.9</ele>
        <time>2026-04-13T13:48:32.000Z</time>
      </trkpt>
      <trkpt lat="42.131697" lon="23.15016">
        <ele>581.9</ele>
        <time>2026-04-13T13:48:33.000Z</time>
      </trkpt>
      <trkpt lat="42.131691" lon="23.150151">
        <ele>581.9</ele>
        <time>2026-04-13T13:48:34.000Z</time>
      </trkpt>
      <trkpt lat="42.131685" lon="23.150143">
        <ele>582</ele>
        <time>2026-04-13T13:48:35.000Z</time>
      </trkpt>
      <trkpt lat="42.131678" lon="23.150134">
        <ele>582</ele>
        <time>2026-04-13T13:48:36.000Z</time>
      </trkpt>
      <trkpt lat="42.131671" lon="23.150126">
        <ele>582</ele>
        <time>2026-04-13T13:48:37.000Z</time>
      </trkpt>
      <trkpt lat="42.131664" lon="23.150117">
        <ele>582</ele>
        <time>2026-04-13T13:48:38.000Z</time>
      </trkpt>
      <trkpt lat="42.131658" lon="23.150109">
        <ele>582</ele>
        <time>2026-04-13T13:48:39.000Z</time>
      </trkpt>
      <trkpt lat="42.131653" lon="23.1501">
        <ele>582.4</ele>
        <time>2026-04-13T13:48:40.000Z</time>
      </trkpt>
      <trkpt lat="42.131648" lon="23.150091">
        <ele>582.4</ele>
        <time>2026-04-13T13:48:41.000Z</time>
      </trkpt>
      <trkpt lat="42.131644" lon="23.150082">
        <ele>582.4</ele>
        <time>2026-04-13T13:48:42.000Z</time>
      </trkpt>
      <trkpt lat="42.13164" lon="23.150071">
        <ele>582.4</ele>
        <time>2026-04-13T13:48:43.000Z</time>
      </trkpt>
      <trkpt lat="42.131636" lon="23.150062">
        <ele>582.4</ele>
        <time>2026-04-13T13:48:44.000Z</time>
      </trkpt>
      <trkpt lat="42.131632" lon="23.150052">
        <ele>583.4</ele>
        <time>2026-04-13T13:48:45.000Z</time>
      </trkpt>
      <trkpt lat="42.131628" lon="23.150042">
        <ele>583.4</ele>
        <time>2026-04-13T13:48:46.000Z</time>
      </trkpt>
      <trkpt lat="42.131625" lon="23.150032">
        <ele>583.4</ele>
        <time>2026-04-13T13:48:47.000Z</time>
      </trkpt>
      <trkpt lat="42.131624" lon="23.150023">
        <ele>583.4</ele>
        <time>2026-04-13T13:48:48.000Z</time>
      </trkpt>
      <trkpt lat="42.131624" lon="23.150014">
        <ele>583.4</ele>
        <time>2026-04-13T13:48:49.000Z</time>
      </trkpt>
      <trkpt lat="42.131626" lon="23.150006">
        <ele>584.5</ele>
        <time>2026-04-13T13:48:50.000Z</time>
      </trkpt>
      <trkpt lat="42.131629" lon="23.15">
        <ele>584.5</ele>
        <time>2026-04-13T13:48:51.000Z</time>
      </trkpt>
      <trkpt lat="42.131632" lon="23.149995">
        <ele>584.5</ele>
        <time>2026-04-13T13:48:52.000Z</time>
      </trkpt>
      <trkpt lat="42.131634" lon="23.149993">
        <ele>584.5</ele>
        <time>2026-04-13T13:48:53.000Z</time>
      </trkpt>
      <trkpt lat="42.131634" lon="23.149992">
        <ele>584.5</ele>
        <time>2026-04-13T13:48:54.000Z</time>
      </trkpt>
      <trkpt lat="42.131633" lon="23.149992">
        <ele>584.9</ele>
        <time>2026-04-13T13:48:55.000Z</time>
      </trkpt>
      <trkpt lat="42.131632" lon="23.149992">
        <ele>584.9</ele>
        <time>2026-04-13T13:48:56.000Z</time>
      </trkpt>
      <trkpt lat="42.13163" lon="23.149992">
        <ele>584.9</ele>
        <time>2026-04-13T13:48:57.000Z</time>
      </trkpt>
      <trkpt lat="42.131629" lon="23.149992">
        <ele>584.9</ele>
        <time>2026-04-13T13:48:58.000Z</time>
      </trkpt>
      <trkpt lat="42.131628" lon="23.149992">
        <ele>584.9</ele>
        <time>2026-04-13T13:48:59.000Z</time>
      </trkpt>
      <trkpt lat="42.131628" lon="23.149992">
        <ele>585.3</ele>
        <time>2026-04-13T13:49:00.000Z</time>
      </trkpt>
      <trkpt lat="42.131627" lon="23.149992">
        <ele>585.3</ele>
        <time>2026-04-13T13:49:01.000Z</time>
      </trkpt>
      <trkpt lat="42.131626" lon="23.149992">
        <ele>585.3</ele>
        <time>2026-04-13T13:49:02.000Z</time>
      </trkpt>
      <trkpt lat="42.131625" lon="23.149991">
        <ele>585.3</ele>
        <time>2026-04-13T13:49:03.000Z</time>
      </trkpt>
      <trkpt lat="42.131624" lon="23.149991">
        <ele>585.3</ele>
        <time>2026-04-13T13:49:04.000Z</time>
      </trkpt>
      <trkpt lat="42.131623" lon="23.149991">
        <ele>585.4</ele>
        <time>2026-04-13T13:49:05.000Z</time>
      </trkpt>
      <trkpt lat="42.131622" lon="23.14999">
        <ele>585.4</ele>
        <time>2026-04-13T13:49:06.000Z</time>
      </trkpt>
      <trkpt lat="42.131622" lon="23.149989">
        <ele>585.4</ele>
        <time>2026-04-13T13:49:07.000Z</time>
      </trkpt>
      <trkpt lat="42.131621" lon="23.149988">
        <ele>585.4</ele>
        <time>2026-04-13T13:49:08.000Z</time>
      </trkpt>
      <trkpt lat="42.13162" lon="23.149987">
        <ele>585.4</ele>
        <time>2026-04-13T13:49:09.000Z</time>
      </trkpt>
      <trkpt lat="42.131618" lon="23.149983">
        <ele>585.3</ele>
        <time>2026-04-13T13:49:10.000Z</time>
      </trkpt>
      <trkpt lat="42.131617" lon="23.149979">
        <ele>585.3</ele>
        <time>2026-04-13T13:49:11.000Z</time>
      </trkpt>
      <trkpt lat="42.131614" lon="23.149974">
        <ele>585.3</ele>
        <time>2026-04-13T13:49:12.000Z</time>
      </trkpt>
      <trkpt lat="42.131611" lon="23.149967">
        <ele>585.3</ele>
        <time>2026-04-13T13:49:13.000Z</time>
      </trkpt>
      <trkpt lat="42.131607" lon="23.14996">
        <ele>585.3</ele>
        <time>2026-04-13T13:49:14.000Z</time>
      </trkpt>
      <trkpt lat="42.131602" lon="23.149953">
        <ele>585.3</ele>
        <time>2026-04-13T13:49:15.000Z</time>
      </trkpt>
      <trkpt lat="42.131597" lon="23.149945">
        <ele>585.3</ele>
        <time>2026-04-13T13:49:16.000Z</time>
      </trkpt>
      <trkpt lat="42.131591" lon="23.149938">
        <ele>585.3</ele>
        <time>2026-04-13T13:49:17.000Z</time>
      </trkpt>
      <trkpt lat="42.131585" lon="23.14993">
        <ele>585.3</ele>
        <time>2026-04-13T13:49:18.000Z</time>
      </trkpt>
      <trkpt lat="42.13158" lon="23.149924">
        <ele>585.3</ele>
        <time>2026-04-13T13:49:19.000Z</time>
      </trkpt>
      <trkpt lat="42.131574" lon="23.149918">
        <ele>585.5</ele>
        <time>2026-04-13T13:49:20.000Z</time>
      </trkpt>
      <trkpt lat="42.131569" lon="23.149912">
        <ele>585.5</ele>
        <time>2026-04-13T13:49:21.000Z</time>
      </trkpt>
      <trkpt lat="42.131563" lon="23.149907">
        <ele>585.5</ele>
        <time>2026-04-13T13:49:22.000Z</time>
      </trkpt>
      <trkpt lat="42.131557" lon="23.149902">
        <ele>585.5</ele>
        <time>2026-04-13T13:49:23.000Z</time>
      </trkpt>
      <trkpt lat="42.131552" lon="23.149895">
        <ele>585.5</ele>
        <time>2026-04-13T13:49:24.000Z</time>
      </trkpt>
      <trkpt lat="42.131546" lon="23.149888">
        <ele>585.8</ele>
        <time>2026-04-13T13:49:25.000Z</time>
      </trkpt>
      <trkpt lat="42.131541" lon="23.149879">
        <ele>585.8</ele>
        <time>2026-04-13T13:49:26.000Z</time>
      </trkpt>
      <trkpt lat="42.131538" lon="23.149869">
        <ele>585.8</ele>
        <time>2026-04-13T13:49:27.000Z</time>
      </trkpt>
      <trkpt lat="42.131538" lon="23.149856">
        <ele>585.8</ele>
        <time>2026-04-13T13:49:28.000Z</time>
      </trkpt>
      <trkpt lat="42.131539" lon="23.149845">
        <ele>585.8</ele>
        <time>2026-04-13T13:49:29.000Z</time>
      </trkpt>
      <trkpt lat="42.131542" lon="23.149833">
        <ele>586.5</ele>
        <time>2026-04-13T13:49:30.000Z</time>
      </trkpt>
      <trkpt lat="42.131547" lon="23.149822">
        <ele>586.5</ele>
        <time>2026-04-13T13:49:31.000Z</time>
      </trkpt>
      <trkpt lat="42.131552" lon="23.149811">
        <ele>586.5</ele>
        <time>2026-04-13T13:49:32.000Z</time>
      </trkpt>
      <trkpt lat="42.131556" lon="23.1498">
        <ele>586.5</ele>
        <time>2026-04-13T13:49:33.000Z</time>
      </trkpt>
      <trkpt lat="42.131561" lon="23.149789">
        <ele>586.5</ele>
        <time>2026-04-13T13:49:34.000Z</time>
      </trkpt>
      <trkpt lat="42.131564" lon="23.149777">
        <ele>587.3</ele>
        <time>2026-04-13T13:49:35.000Z</time>
      </trkpt>
      <trkpt lat="42.131567" lon="23.149766">
        <ele>587.3</ele>
        <time>2026-04-13T13:49:36.000Z</time>
      </trkpt>
      <trkpt lat="42.131568" lon="23.149753">
        <ele>587.3</ele>
        <time>2026-04-13T13:49:37.000Z</time>
      </trkpt>
      <trkpt lat="42.131568" lon="23.149741">
        <ele>587.3</ele>
        <time>2026-04-13T13:49:38.000Z</time>
      </trkpt>
      <trkpt lat="42.131568" lon="23.149729">
        <ele>587.3</ele>
        <time>2026-04-13T13:49:39.000Z</time>
      </trkpt>
      <trkpt lat="42.131568" lon="23.149717">
        <ele>587.6</ele>
        <time>2026-04-13T13:49:40.000Z</time>
      </trkpt>
      <trkpt lat="42.131567" lon="23.149706">
        <ele>587.6</ele>
        <time>2026-04-13T13:49:41.000Z</time>
      </trkpt>
      <trkpt lat="42.131566" lon="23.149695">
        <ele>587.6</ele>
        <time>2026-04-13T13:49:42.000Z</time>
      </trkpt>
      <trkpt lat="42.131566" lon="23.149684">
        <ele>587.6</ele>
        <time>2026-04-13T13:49:43.000Z</time>
      </trkpt>
      <trkpt lat="42.131565" lon="23.149673">
        <ele>587.6</ele>
        <time>2026-04-13T13:49:44.000Z</time>
      </trkpt>
      <trkpt lat="42.131564" lon="23.149662">
        <ele>588.3</ele>
        <time>2026-04-13T13:49:45.000Z</time>
      </trkpt>
      <trkpt lat="42.131564" lon="23.149651">
        <ele>588.3</ele>
        <time>2026-04-13T13:49:46.000Z</time>
      </trkpt>
      <trkpt lat="42.131564" lon="23.14964">
        <ele>588.3</ele>
        <time>2026-04-13T13:49:47.000Z</time>
      </trkpt>
      <trkpt lat="42.131564" lon="23.149629">
        <ele>588.3</ele>
        <time>2026-04-13T13:49:48.000Z</time>
      </trkpt>
      <trkpt lat="42.131564" lon="23.149618">
        <ele>588.3</ele>
        <time>2026-04-13T13:49:49.000Z</time>
      </trkpt>
      <trkpt lat="42.131564" lon="23.149607">
        <ele>589.2</ele>
        <time>2026-04-13T13:49:50.000Z</time>
      </trkpt>
      <trkpt lat="42.131563" lon="23.149595">
        <ele>589.2</ele>
        <time>2026-04-13T13:49:51.000Z</time>
      </trkpt>
      <trkpt lat="42.131563" lon="23.149584">
        <ele>589.2</ele>
        <time>2026-04-13T13:49:52.000Z</time>
      </trkpt>
      <trkpt lat="42.131562" lon="23.149575">
        <ele>589.2</ele>
        <time>2026-04-13T13:49:53.000Z</time>
      </trkpt>
      <trkpt lat="42.131561" lon="23.149566">
        <ele>589.2</ele>
        <time>2026-04-13T13:49:54.000Z</time>
      </trkpt>
      <trkpt lat="42.13156" lon="23.149559">
        <ele>589.8</ele>
        <time>2026-04-13T13:49:55.000Z</time>
      </trkpt>
      <trkpt lat="42.13156" lon="23.149554">
        <ele>589.8</ele>
        <time>2026-04-13T13:49:56.000Z</time>
      </trkpt>
      <trkpt lat="42.13156" lon="23.14955">
        <ele>589.8</ele>
        <time>2026-04-13T13:49:57.000Z</time>
      </trkpt>
      <trkpt lat="42.13156" lon="23.149548">
        <ele>589.8</ele>
        <time>2026-04-13T13:49:58.000Z</time>
      </trkpt>
      <trkpt lat="42.131561" lon="23.149547">
        <ele>589.8</ele>
        <time>2026-04-13T13:49:59.000Z</time>
      </trkpt>
      <trkpt lat="42.131561" lon="23.149547">
        <ele>590.7</ele>
        <time>2026-04-13T13:50:00.000Z</time>
      </trkpt>
      <trkpt lat="42.131562" lon="23.149546">
        <ele>590.7</ele>
        <time>2026-04-13T13:50:01.000Z</time>
      </trkpt>
      <trkpt lat="42.131561" lon="23.149546">
        <ele>590.7</ele>
        <time>2026-04-13T13:50:02.000Z</time>
      </trkpt>
      <trkpt lat="42.131561" lon="23.149544">
        <ele>590.7</ele>
        <time>2026-04-13T13:50:03.000Z</time>
      </trkpt>
      <trkpt lat="42.13156" lon="23.149541">
        <ele>590.7</ele>
        <time>2026-04-13T13:50:04.000Z</time>
      </trkpt>
      <trkpt lat="42.131559" lon="23.149537">
        <ele>591</ele>
        <time>2026-04-13T13:50:05.000Z</time>
      </trkpt>
      <trkpt lat="42.131557" lon="23.149531">
        <ele>591</ele>
        <time>2026-04-13T13:50:06.000Z</time>
      </trkpt>
      <trkpt lat="42.131556" lon="23.149525">
        <ele>591</ele>
        <time>2026-04-13T13:50:07.000Z</time>
      </trkpt>
      <trkpt lat="42.131554" lon="23.149519">
        <ele>591</ele>
        <time>2026-04-13T13:50:08.000Z</time>
      </trkpt>
      <trkpt lat="42.131551" lon="23.149512">
        <ele>591</ele>
        <time>2026-04-13T13:50:09.000Z</time>
      </trkpt>
      <trkpt lat="42.131548" lon="23.149506">
        <ele>591</ele>
        <time>2026-04-13T13:50:10.000Z</time>
      </trkpt>
      <trkpt lat="42.131544" lon="23.1495">
        <ele>591</ele>
        <time>2026-04-13T13:50:11.000Z</time>
      </trkpt>
      <trkpt lat="42.131541" lon="23.149496">
        <ele>591</ele>
        <time>2026-04-13T13:50:12.000Z</time>
      </trkpt>
      <trkpt lat="42.131537" lon="23.149493">
        <ele>591</ele>
        <time>2026-04-13T13:50:13.000Z</time>
      </trkpt>
      <trkpt lat="42.131534" lon="23.149492">
        <ele>591</ele>
        <time>2026-04-13T13:50:14.000Z</time>
      </trkpt>
      <trkpt lat="42.131532" lon="23.149492">
        <ele>591</ele>
        <time>2026-04-13T13:50:15.000Z</time>
      </trkpt>
      <trkpt lat="42.131531" lon="23.149492">
        <ele>591</ele>
        <time>2026-04-13T13:50:16.000Z</time>
      </trkpt>
      <trkpt lat="42.13153" lon="23.149493">
        <ele>591</ele>
        <time>2026-04-13T13:50:17.000Z</time>
      </trkpt>
      <trkpt lat="42.13153" lon="23.149494">
        <ele>591</ele>
        <time>2026-04-13T13:50:18.000Z</time>
      </trkpt>
      <trkpt lat="42.13153" lon="23.149494">
        <ele>591</ele>
        <time>2026-04-13T13:50:19.000Z</time>
      </trkpt>
      <trkpt lat="42.13153" lon="23.149494">
        <ele>591.5</ele>
        <time>2026-04-13T13:50:20.000Z</time>
      </trkpt>
      <trkpt lat="42.13153" lon="23.149494">
        <ele>591.5</ele>
        <time>2026-04-13T13:50:21.000Z</time>
      </trkpt>
      <trkpt lat="42.131529" lon="23.149495">
        <ele>591.5</ele>
        <time>2026-04-13T13:50:22.000Z</time>
      </trkpt>
      <trkpt lat="42.131529" lon="23.149495">
        <ele>591.5</ele>
        <time>2026-04-13T13:50:23.000Z</time>
      </trkpt>
      <trkpt lat="42.131529" lon="23.149495">
        <ele>591.5</ele>
        <time>2026-04-13T13:50:24.000Z</time>
      </trkpt>
      <trkpt lat="42.131529" lon="23.149495">
        <ele>591.8</ele>
        <time>2026-04-13T13:50:25.000Z</time>
      </trkpt>
      <trkpt lat="42.131528" lon="23.149495">
        <ele>591.8</ele>
        <time>2026-04-13T13:50:26.000Z</time>
      </trkpt>
      <trkpt lat="42.131528" lon="23.149494">
        <ele>591.8</ele>
        <time>2026-04-13T13:50:27.000Z</time>
      </trkpt>
      <trkpt lat="42.131528" lon="23.149494">
        <ele>591.8</ele>
        <time>2026-04-13T13:50:28.000Z</time>
      </trkpt>
      <trkpt lat="42.131527" lon="23.149494">
        <ele>591.8</ele>
        <time>2026-04-13T13:50:29.000Z</time>
      </trkpt>
      <trkpt lat="42.131526" lon="23.149494">
        <ele>592</ele>
        <time>2026-04-13T13:50:30.000Z</time>
      </trkpt>
      <trkpt lat="42.131526" lon="23.149494">
        <ele>592</ele>
        <time>2026-04-13T13:50:31.000Z</time>
      </trkpt>
      <trkpt lat="42.131526" lon="23.149494">
        <ele>592</ele>
        <time>2026-04-13T13:50:32.000Z</time>
      </trkpt>
      <trkpt lat="42.131525" lon="23.149494">
        <ele>592</ele>
        <time>2026-04-13T13:50:33.000Z</time>
      </trkpt>
      <trkpt lat="42.131525" lon="23.149494">
        <ele>592</ele>
        <time>2026-04-13T13:50:34.000Z</time>
      </trkpt>
      <trkpt lat="42.131525" lon="23.149493">
        <ele>591.9</ele>
        <time>2026-04-13T13:50:35.000Z</time>
      </trkpt>
      <trkpt lat="42.131525" lon="23.149493">
        <ele>591.9</ele>
        <time>2026-04-13T13:50:36.000Z</time>
      </trkpt>
      <trkpt lat="42.131526" lon="23.149493">
        <ele>591.9</ele>
        <time>2026-04-13T13:50:37.000Z</time>
      </trkpt>
      <trkpt lat="42.131526" lon="23.149493">
        <ele>591.9</ele>
        <time>2026-04-13T13:50:38.000Z</time>
      </trkpt>
      <trkpt lat="42.131526" lon="23.149493">
        <ele>591.9</ele>
        <time>2026-04-13T13:50:39.000Z</time>
      </trkpt>
      <trkpt lat="42.131526" lon="23.149493">
        <ele>591.8</ele>
        <time>2026-04-13T13:50:40.000Z</time>
      </trkpt>
      <trkpt lat="42.131526" lon="23.149493">
        <ele>591.8</ele>
        <time>2026-04-13T13:50:41.000Z</time>
      </trkpt>
      <trkpt lat="42.131526" lon="23.149493">
        <ele>591.8</ele>
        <time>2026-04-13T13:50:42.000Z</time>
      </trkpt>
      <trkpt lat="42.131526" lon="23.149494">
        <ele>591.8</ele>
        <time>2026-04-13T13:50:43.000Z</time>
      </trkpt>
      <trkpt lat="42.131526" lon="23.149495">
        <ele>591.8</ele>
        <time>2026-04-13T13:50:44.000Z</time>
      </trkpt>
      <trkpt lat="42.131525" lon="23.149498">
        <ele>591.7</ele>
        <time>2026-04-13T13:50:45.000Z</time>
      </trkpt>
      <trkpt lat="42.131524" lon="23.149502">
        <ele>591.7</ele>
        <time>2026-04-13T13:50:46.000Z</time>
      </trkpt>
      <trkpt lat="42.131524" lon="23.149507">
        <ele>591.7</ele>
        <time>2026-04-13T13:50:47.000Z</time>
      </trkpt>
      <trkpt lat="42.131524" lon="23.149512">
        <ele>591.7</ele>
        <time>2026-04-13T13:50:48.000Z</time>
      </trkpt>
      <trkpt lat="42.131524" lon="23.149516">
        <ele>591.7</ele>
        <time>2026-04-13T13:50:49.000Z</time>
      </trkpt>
      <trkpt lat="42.131526" lon="23.14952">
        <ele>591.9</ele>
        <time>2026-04-13T13:50:50.000Z</time>
      </trkpt>
      <trkpt lat="42.131528" lon="23.149522">
        <ele>591.9</ele>
        <time>2026-04-13T13:50:51.000Z</time>
      </trkpt>
      <trkpt lat="42.13153" lon="23.149523">
        <ele>591.9</ele>
        <time>2026-04-13T13:50:52.000Z</time>
      </trkpt>
      <trkpt lat="42.131532" lon="23.149525">
        <ele>591.9</ele>
        <time>2026-04-13T13:50:53.000Z</time>
      </trkpt>
      <trkpt lat="42.131532" lon="23.149525">
        <ele>591.9</ele>
        <time>2026-04-13T13:50:54.000Z</time>
      </trkpt>
      <trkpt lat="42.131533" lon="23.149526">
        <ele>592</ele>
        <time>2026-04-13T13:50:55.000Z</time>
      </trkpt>
      <trkpt lat="42.131532" lon="23.149526">
        <ele>592</ele>
        <time>2026-04-13T13:50:56.000Z</time>
      </trkpt>
      <trkpt lat="42.131532" lon="23.149526">
        <ele>592</ele>
        <time>2026-04-13T13:50:57.000Z</time>
      </trkpt>
      <trkpt lat="42.131532" lon="23.149525">
        <ele>592</ele>
        <time>2026-04-13T13:50:58.000Z</time>
      </trkpt>
      <trkpt lat="42.131532" lon="23.149525">
        <ele>592</ele>
        <time>2026-04-13T13:50:59.000Z</time>
      </trkpt>
      <trkpt lat="42.131532" lon="23.149524">
        <ele>592.2</ele>
        <time>2026-04-13T13:51:00.000Z</time>
      </trkpt>
      <trkpt lat="42.131532" lon="23.149524">
        <ele>592.2</ele>
        <time>2026-04-13T13:51:01.000Z</time>
      </trkpt>
      <trkpt lat="42.131532" lon="23.149523">
        <ele>592.2</ele>
        <time>2026-04-13T13:51:02.000Z</time>
      </trkpt>
      <trkpt lat="42.131532" lon="23.149523">
        <ele>592.2</ele>
        <time>2026-04-13T13:51:03.000Z</time>
      </trkpt>
      <trkpt lat="42.131532" lon="23.149523">
        <ele>592.2</ele>
        <time>2026-04-13T13:51:04.000Z</time>
      </trkpt>
      <trkpt lat="42.131532" lon="23.149523">
        <ele>592.2</ele>
        <time>2026-04-13T13:51:05.000Z</time>
      </trkpt>
      <trkpt lat="42.131531" lon="23.149523">
        <ele>592.2</ele>
        <time>2026-04-13T13:51:06.000Z</time>
      </trkpt>
      <trkpt lat="42.131529" lon="23.149524">
        <ele>592.2</ele>
        <time>2026-04-13T13:51:07.000Z</time>
      </trkpt>
      <trkpt lat="42.131526" lon="23.149525">
        <ele>592.2</ele>
        <time>2026-04-13T13:51:08.000Z</time>
      </trkpt>
      <trkpt lat="42.131522" lon="23.149528">
        <ele>592.2</ele>
        <time>2026-04-13T13:51:09.000Z</time>
      </trkpt>
      <trkpt lat="42.131517" lon="23.149531">
        <ele>592.1</ele>
        <time>2026-04-13T13:51:10.000Z</time>
      </trkpt>
      <trkpt lat="42.131511" lon="23.149535">
        <ele>592.1</ele>
        <time>2026-04-13T13:51:11.000Z</time>
      </trkpt>
      <trkpt lat="42.131507" lon="23.149539">
        <ele>592.1</ele>
        <time>2026-04-13T13:51:12.000Z</time>
      </trkpt>
      <trkpt lat="42.131502" lon="23.149545">
        <ele>592.1</ele>
        <time>2026-04-13T13:51:13.000Z</time>
      </trkpt>
      <trkpt lat="42.131498" lon="23.149551">
        <ele>592.1</ele>
        <time>2026-04-13T13:51:14.000Z</time>
      </trkpt>
      <trkpt lat="42.131494" lon="23.149559">
        <ele>591.9</ele>
        <time>2026-04-13T13:51:15.000Z</time>
      </trkpt>
      <trkpt lat="42.131489" lon="23.149567">
        <ele>591.9</ele>
        <time>2026-04-13T13:51:16.000Z</time>
      </trkpt>
      <trkpt lat="42.131483" lon="23.149575">
        <ele>591.9</ele>
        <time>2026-04-13T13:51:17.000Z</time>
      </trkpt>
      <trkpt lat="42.131477" lon="23.149583">
        <ele>591.9</ele>
        <time>2026-04-13T13:51:18.000Z</time>
      </trkpt>
      <trkpt lat="42.13147" lon="23.14959">
        <ele>591.9</ele>
        <time>2026-04-13T13:51:19.000Z</time>
      </trkpt>
      <trkpt lat="42.131464" lon="23.149595">
        <ele>591.8</ele>
        <time>2026-04-13T13:51:20.000Z</time>
      </trkpt>
      <trkpt lat="42.131457" lon="23.149598">
        <ele>591.8</ele>
        <time>2026-04-13T13:51:21.000Z</time>
      </trkpt>
      <trkpt lat="42.131452" lon="23.1496">
        <ele>591.8</ele>
        <time>2026-04-13T13:51:22.000Z</time>
      </trkpt>
      <trkpt lat="42.131446" lon="23.149601">
        <ele>591.8</ele>
        <time>2026-04-13T13:51:23.000Z</time>
      </trkpt>
      <trkpt lat="42.13144" lon="23.149601">
        <ele>591.8</ele>
        <time>2026-04-13T13:51:24.000Z</time>
      </trkpt>
      <trkpt lat="42.131435" lon="23.149601">
        <ele>591.9</ele>
        <time>2026-04-13T13:51:25.000Z</time>
      </trkpt>
      <trkpt lat="42.131431" lon="23.149602">
        <ele>591.9</ele>
        <time>2026-04-13T13:51:26.000Z</time>
      </trkpt>
      <trkpt lat="42.131427" lon="23.149603">
        <ele>591.9</ele>
        <time>2026-04-13T13:51:27.000Z</time>
      </trkpt>
      <trkpt lat="42.131424" lon="23.149604">
        <ele>591.9</ele>
        <time>2026-04-13T13:51:28.000Z</time>
      </trkpt>
      <trkpt lat="42.131422" lon="23.149606">
        <ele>591.9</ele>
        <time>2026-04-13T13:51:29.000Z</time>
      </trkpt>
      <trkpt lat="42.131421" lon="23.149607">
        <ele>592.6</ele>
        <time>2026-04-13T13:51:30.000Z</time>
      </trkpt>
      <trkpt lat="42.131421" lon="23.149608">
        <ele>592.6</ele>
        <time>2026-04-13T13:51:31.000Z</time>
      </trkpt>
      <trkpt lat="42.13142" lon="23.149609">
        <ele>592.6</ele>
        <time>2026-04-13T13:51:32.000Z</time>
      </trkpt>
      <trkpt lat="42.13142" lon="23.14961">
        <ele>592.6</ele>
        <time>2026-04-13T13:51:33.000Z</time>
      </trkpt>
      <trkpt lat="42.131419" lon="23.149612">
        <ele>592.6</ele>
        <time>2026-04-13T13:51:34.000Z</time>
      </trkpt>
      <trkpt lat="42.131417" lon="23.149613">
        <ele>593.1</ele>
        <time>2026-04-13T13:51:35.000Z</time>
      </trkpt>
      <trkpt lat="42.131416" lon="23.149613">
        <ele>593.1</ele>
        <time>2026-04-13T13:51:36.000Z</time>
      </trkpt>
      <trkpt lat="42.131415" lon="23.149614">
        <ele>593.1</ele>
        <time>2026-04-13T13:51:37.000Z</time>
      </trkpt>
      <trkpt lat="42.131413" lon="23.149614">
        <ele>593.1</ele>
        <time>2026-04-13T13:51:38.000Z</time>
      </trkpt>
      <trkpt lat="42.131411" lon="23.149614">
        <ele>593.1</ele>
        <time>2026-04-13T13:51:39.000Z</time>
      </trkpt>
      <trkpt lat="42.131408" lon="23.149614">
        <ele>593.1</ele>
        <time>2026-04-13T13:51:40.000Z</time>
      </trkpt>
      <trkpt lat="42.131405" lon="23.149614">
        <ele>593.1</ele>
        <time>2026-04-13T13:51:41.000Z</time>
      </trkpt>
      <trkpt lat="42.131401" lon="23.149614">
        <ele>593.1</ele>
        <time>2026-04-13T13:51:42.000Z</time>
      </trkpt>
      <trkpt lat="42.131397" lon="23.149615">
        <ele>593.1</ele>
        <time>2026-04-13T13:51:43.000Z</time>
      </trkpt>
      <trkpt lat="42.131393" lon="23.149615">
        <ele>593.1</ele>
        <time>2026-04-13T13:51:44.000Z</time>
      </trkpt>
      <trkpt lat="42.13139" lon="23.149616">
        <ele>593</ele>
        <time>2026-04-13T13:51:45.000Z</time>
      </trkpt>
      <trkpt lat="42.131388" lon="23.149617">
        <ele>593</ele>
        <time>2026-04-13T13:51:46.000Z</time>
      </trkpt>
      <trkpt lat="42.131386" lon="23.149619">
        <ele>593</ele>
        <time>2026-04-13T13:51:47.000Z</time>
      </trkpt>
      <trkpt lat="42.131383" lon="23.149622">
        <ele>593</ele>
        <time>2026-04-13T13:51:48.000Z</time>
      </trkpt>
      <trkpt lat="42.131379" lon="23.149626">
        <ele>593</ele>
        <time>2026-04-13T13:51:49.000Z</time>
      </trkpt>
      <trkpt lat="42.131373" lon="23.14963">
        <ele>593.1</ele>
        <time>2026-04-13T13:51:50.000Z</time>
      </trkpt>
      <trkpt lat="42.131366" lon="23.149635">
        <ele>593.1</ele>
        <time>2026-04-13T13:51:51.000Z</time>
      </trkpt>
      <trkpt lat="42.131357" lon="23.149639">
        <ele>593.1</ele>
        <time>2026-04-13T13:51:52.000Z</time>
      </trkpt>
      <trkpt lat="42.131348" lon="23.149642">
        <ele>593.1</ele>
        <time>2026-04-13T13:51:53.000Z</time>
      </trkpt>
      <trkpt lat="42.131339" lon="23.149645">
        <ele>593.1</ele>
        <time>2026-04-13T13:51:54.000Z</time>
      </trkpt>
      <trkpt lat="42.13133" lon="23.149647">
        <ele>593</ele>
        <time>2026-04-13T13:51:55.000Z</time>
      </trkpt>
      <trkpt lat="42.131321" lon="23.14965">
        <ele>593</ele>
        <time>2026-04-13T13:51:56.000Z</time>
      </trkpt>
      <trkpt lat="42.131313" lon="23.149652">
        <ele>593</ele>
        <time>2026-04-13T13:51:57.000Z</time>
      </trkpt>
      <trkpt lat="42.131305" lon="23.149655">
        <ele>593</ele>
        <time>2026-04-13T13:51:58.000Z</time>
      </trkpt>
      <trkpt lat="42.131298" lon="23.149657">
        <ele>593</ele>
        <time>2026-04-13T13:51:59.000Z</time>
      </trkpt>
      <trkpt lat="42.131292" lon="23.149659">
        <ele>592.8</ele>
        <time>2026-04-13T13:52:00.000Z</time>
      </trkpt>
      <trkpt lat="42.131286" lon="23.149659">
        <ele>592.8</ele>
        <time>2026-04-13T13:52:01.000Z</time>
      </trkpt>
      <trkpt lat="42.13128" lon="23.14966">
        <ele>592.8</ele>
        <time>2026-04-13T13:52:02.000Z</time>
      </trkpt>
      <trkpt lat="42.131275" lon="23.14966">
        <ele>592.8</ele>
        <time>2026-04-13T13:52:03.000Z</time>
      </trkpt>
      <trkpt lat="42.131269" lon="23.149659">
        <ele>592.8</ele>
        <time>2026-04-13T13:52:04.000Z</time>
      </trkpt>
      <trkpt lat="42.131264" lon="23.149657">
        <ele>592.7</ele>
        <time>2026-04-13T13:52:05.000Z</time>
      </trkpt>
      <trkpt lat="42.131258" lon="23.149656">
        <ele>592.7</ele>
        <time>2026-04-13T13:52:06.000Z</time>
      </trkpt>
      <trkpt lat="42.131252" lon="23.149654">
        <ele>592.7</ele>
        <time>2026-04-13T13:52:07.000Z</time>
      </trkpt>
      <trkpt lat="42.131247" lon="23.149651">
        <ele>592.7</ele>
        <time>2026-04-13T13:52:08.000Z</time>
      </trkpt>
      <trkpt lat="42.131241" lon="23.149649">
        <ele>592.7</ele>
        <time>2026-04-13T13:52:09.000Z</time>
      </trkpt>
      <trkpt lat="42.131235" lon="23.149647">
        <ele>592.7</ele>
        <time>2026-04-13T13:52:10.000Z</time>
      </trkpt>
      <trkpt lat="42.131229" lon="23.149645">
        <ele>592.7</ele>
        <time>2026-04-13T13:52:11.000Z</time>
      </trkpt>
      <trkpt lat="42.131223" lon="23.149644">
        <ele>592.7</ele>
        <time>2026-04-13T13:52:12.000Z</time>
      </trkpt>
      <trkpt lat="42.131217" lon="23.149643">
        <ele>592.7</ele>
        <time>2026-04-13T13:52:13.000Z</time>
      </trkpt>
      <trkpt lat="42.131211" lon="23.149642">
        <ele>592.7</ele>
        <time>2026-04-13T13:52:14.000Z</time>
      </trkpt>
      <trkpt lat="42.131206" lon="23.14964">
        <ele>592.6</ele>
        <time>2026-04-13T13:52:15.000Z</time>
      </trkpt>
      <trkpt lat="42.131202" lon="23.149639">
        <ele>592.6</ele>
        <time>2026-04-13T13:52:16.000Z</time>
      </trkpt>
      <trkpt lat="42.131199" lon="23.149638">
        <ele>592.6</ele>
        <time>2026-04-13T13:52:17.000Z</time>
      </trkpt>
      <trkpt lat="42.131197" lon="23.149637">
        <ele>592.6</ele>
        <time>2026-04-13T13:52:18.000Z</time>
      </trkpt>
      <trkpt lat="42.131197" lon="23.149636">
        <ele>592.6</ele>
        <time>2026-04-13T13:52:19.000Z</time>
      </trkpt>
      <trkpt lat="42.131196" lon="23.149636">
        <ele>592.3</ele>
        <time>2026-04-13T13:52:20.000Z</time>
      </trkpt>
      <trkpt lat="42.131196" lon="23.149636">
        <ele>592.3</ele>
        <time>2026-04-13T13:52:21.000Z</time>
      </trkpt>
      <trkpt lat="42.131196" lon="23.149636">
        <ele>592.3</ele>
        <time>2026-04-13T13:52:22.000Z</time>
      </trkpt>
      <trkpt lat="42.131197" lon="23.149636">
        <ele>592.3</ele>
        <time>2026-04-13T13:52:23.000Z</time>
      </trkpt>
      <trkpt lat="42.131197" lon="23.149636">
        <ele>592.3</ele>
        <time>2026-04-13T13:52:24.000Z</time>
      </trkpt>
      <trkpt lat="42.131196" lon="23.149635">
        <ele>592.1</ele>
        <time>2026-04-13T13:52:25.000Z</time>
      </trkpt>
      <trkpt lat="42.131193" lon="23.149634">
        <ele>592.1</ele>
        <time>2026-04-13T13:52:26.000Z</time>
      </trkpt>
      <trkpt lat="42.131188" lon="23.149633">
        <ele>592.1</ele>
        <time>2026-04-13T13:52:27.000Z</time>
      </trkpt>
      <trkpt lat="42.131181" lon="23.149631">
        <ele>592.1</ele>
        <time>2026-04-13T13:52:28.000Z</time>
      </trkpt>
      <trkpt lat="42.131174" lon="23.149629">
        <ele>592.1</ele>
        <time>2026-04-13T13:52:29.000Z</time>
      </trkpt>
      <trkpt lat="42.131166" lon="23.149627">
        <ele>592.1</ele>
        <time>2026-04-13T13:52:30.000Z</time>
      </trkpt>
      <trkpt lat="42.131159" lon="23.149624">
        <ele>592.1</ele>
        <time>2026-04-13T13:52:31.000Z</time>
      </trkpt>
      <trkpt lat="42.131152" lon="23.149622">
        <ele>592.1</ele>
        <time>2026-04-13T13:52:32.000Z</time>
      </trkpt>
      <trkpt lat="42.131145" lon="23.149619">
        <ele>592.1</ele>
        <time>2026-04-13T13:52:33.000Z</time>
      </trkpt>
      <trkpt lat="42.131138" lon="23.149617">
        <ele>592.1</ele>
        <time>2026-04-13T13:52:34.000Z</time>
      </trkpt>
      <trkpt lat="42.131131" lon="23.149614">
        <ele>592</ele>
        <time>2026-04-13T13:52:35.000Z</time>
      </trkpt>
      <trkpt lat="42.131124" lon="23.149612">
        <ele>592</ele>
        <time>2026-04-13T13:52:36.000Z</time>
      </trkpt>
      <trkpt lat="42.131116" lon="23.14961">
        <ele>592</ele>
        <time>2026-04-13T13:52:37.000Z</time>
      </trkpt>
      <trkpt lat="42.131109" lon="23.149608">
        <ele>592</ele>
        <time>2026-04-13T13:52:38.000Z</time>
      </trkpt>
      <trkpt lat="42.131102" lon="23.149606">
        <ele>592</ele>
        <time>2026-04-13T13:52:39.000Z</time>
      </trkpt>
      <trkpt lat="42.131094" lon="23.149604">
        <ele>591.8</ele>
        <time>2026-04-13T13:52:40.000Z</time>
      </trkpt>
      <trkpt lat="42.131087" lon="23.149601">
        <ele>591.8</ele>
        <time>2026-04-13T13:52:41.000Z</time>
      </trkpt>
      <trkpt lat="42.13108" lon="23.149597">
        <ele>591.8</ele>
        <time>2026-04-13T13:52:42.000Z</time>
      </trkpt>
      <trkpt lat="42.131073" lon="23.149592">
        <ele>591.8</ele>
        <time>2026-04-13T13:52:43.000Z</time>
      </trkpt>
      <trkpt lat="42.131065" lon="23.149588">
        <ele>591.8</ele>
        <time>2026-04-13T13:52:44.000Z</time>
      </trkpt>
      <trkpt lat="42.131057" lon="23.149584">
        <ele>590.9</ele>
        <time>2026-04-13T13:52:45.000Z</time>
      </trkpt>
      <trkpt lat="42.13105" lon="23.149581">
        <ele>590.9</ele>
        <time>2026-04-13T13:52:46.000Z</time>
      </trkpt>
      <trkpt lat="42.131042" lon="23.149579">
        <ele>590.9</ele>
        <time>2026-04-13T13:52:47.000Z</time>
      </trkpt>
      <trkpt lat="42.131035" lon="23.149577">
        <ele>590.9</ele>
        <time>2026-04-13T13:52:48.000Z</time>
      </trkpt>
      <trkpt lat="42.131027" lon="23.149576">
        <ele>590.9</ele>
        <time>2026-04-13T13:52:49.000Z</time>
      </trkpt>
      <trkpt lat="42.13102" lon="23.149575">
        <ele>589.9</ele>
        <time>2026-04-13T13:52:50.000Z</time>
      </trkpt>
      <trkpt lat="42.131014" lon="23.149574">
        <ele>589.9</ele>
        <time>2026-04-13T13:52:51.000Z</time>
      </trkpt>
      <trkpt lat="42.131008" lon="23.149573">
        <ele>589.9</ele>
        <time>2026-04-13T13:52:52.000Z</time>
      </trkpt>
      <trkpt lat="42.131003" lon="23.149573">
        <ele>589.9</ele>
        <time>2026-04-13T13:52:53.000Z</time>
      </trkpt>
      <trkpt lat="42.130999" lon="23.149573">
        <ele>589.9</ele>
        <time>2026-04-13T13:52:54.000Z</time>
      </trkpt>
      <trkpt lat="42.130996" lon="23.149574">
        <ele>589.4</ele>
        <time>2026-04-13T13:52:55.000Z</time>
      </trkpt>
      <trkpt lat="42.130992" lon="23.149575">
        <ele>589.4</ele>
        <time>2026-04-13T13:52:56.000Z</time>
      </trkpt>
      <trkpt lat="42.130989" lon="23.149576">
        <ele>589.4</ele>
        <time>2026-04-13T13:52:57.000Z</time>
      </trkpt>
      <trkpt lat="42.130987" lon="23.149577">
        <ele>589.4</ele>
        <time>2026-04-13T13:52:58.000Z</time>
      </trkpt>
      <trkpt lat="42.130984" lon="23.149578">
        <ele>589.4</ele>
        <time>2026-04-13T13:52:59.000Z</time>
      </trkpt>
      <trkpt lat="42.130983" lon="23.149579">
        <ele>588.9</ele>
        <time>2026-04-13T13:53:00.000Z</time>
      </trkpt>
      <trkpt lat="42.130982" lon="23.149579">
        <ele>588.9</ele>
        <time>2026-04-13T13:53:01.000Z</time>
      </trkpt>
      <trkpt lat="42.130982" lon="23.14958">
        <ele>588.9</ele>
        <time>2026-04-13T13:53:02.000Z</time>
      </trkpt>
      <trkpt lat="42.130982" lon="23.14958">
        <ele>588.9</ele>
        <time>2026-04-13T13:53:03.000Z</time>
      </trkpt>
      <trkpt lat="42.130982" lon="23.14958">
        <ele>588.9</ele>
        <time>2026-04-13T13:53:04.000Z</time>
      </trkpt>
      <trkpt lat="42.130981" lon="23.14958">
        <ele>588.7</ele>
        <time>2026-04-13T13:53:05.000Z</time>
      </trkpt>
      <trkpt lat="42.13098" lon="23.149579">
        <ele>588.7</ele>
        <time>2026-04-13T13:53:06.000Z</time>
      </trkpt>
      <trkpt lat="42.130979" lon="23.149578">
        <ele>588.7</ele>
        <time>2026-04-13T13:53:07.000Z</time>
      </trkpt>
      <trkpt lat="42.130976" lon="23.149576">
        <ele>588.7</ele>
        <time>2026-04-13T13:53:08.000Z</time>
      </trkpt>
      <trkpt lat="42.130973" lon="23.149573">
        <ele>588.7</ele>
        <time>2026-04-13T13:53:09.000Z</time>
      </trkpt>
      <trkpt lat="42.130967" lon="23.149569">
        <ele>588.7</ele>
        <time>2026-04-13T13:53:10.000Z</time>
      </trkpt>
      <trkpt lat="42.130961" lon="23.149564">
        <ele>588.7</ele>
        <time>2026-04-13T13:53:11.000Z</time>
      </trkpt>
      <trkpt lat="42.130953" lon="23.149559">
        <ele>588.7</ele>
        <time>2026-04-13T13:53:12.000Z</time>
      </trkpt>
      <trkpt lat="42.130945" lon="23.149554">
        <ele>588.7</ele>
        <time>2026-04-13T13:53:13.000Z</time>
      </trkpt>
      <trkpt lat="42.130936" lon="23.149548">
        <ele>588.7</ele>
        <time>2026-04-13T13:53:14.000Z</time>
      </trkpt>
      <trkpt lat="42.130927" lon="23.149543">
        <ele>588.5</ele>
        <time>2026-04-13T13:53:15.000Z</time>
      </trkpt>
      <trkpt lat="42.130918" lon="23.149536">
        <ele>588.5</ele>
        <time>2026-04-13T13:53:16.000Z</time>
      </trkpt>
      <trkpt lat="42.13091" lon="23.149529">
        <ele>588.5</ele>
        <time>2026-04-13T13:53:17.000Z</time>
      </trkpt>
      <trkpt lat="42.130901" lon="23.149522">
        <ele>588.5</ele>
        <time>2026-04-13T13:53:18.000Z</time>
      </trkpt>
      <trkpt lat="42.130892" lon="23.149514">
        <ele>588.5</ele>
        <time>2026-04-13T13:53:19.000Z</time>
      </trkpt>
      <trkpt lat="42.130884" lon="23.149507">
        <ele>588</ele>
        <time>2026-04-13T13:53:20.000Z</time>
      </trkpt>
      <trkpt lat="42.130874" lon="23.149501">
        <ele>588</ele>
        <time>2026-04-13T13:53:21.000Z</time>
      </trkpt>
      <trkpt lat="42.130865" lon="23.149496">
        <ele>588</ele>
        <time>2026-04-13T13:53:22.000Z</time>
      </trkpt>
      <trkpt lat="42.130855" lon="23.149492">
        <ele>588</ele>
        <time>2026-04-13T13:53:23.000Z</time>
      </trkpt>
      <trkpt lat="42.130846" lon="23.149488">
        <ele>588</ele>
        <time>2026-04-13T13:53:24.000Z</time>
      </trkpt>
      <trkpt lat="42.130836" lon="23.149485">
        <ele>587.8</ele>
        <time>2026-04-13T13:53:25.000Z</time>
      </trkpt>
      <trkpt lat="42.130826" lon="23.149483">
        <ele>587.8</ele>
        <time>2026-04-13T13:53:26.000Z</time>
      </trkpt>
      <trkpt lat="42.130817" lon="23.149481">
        <ele>587.8</ele>
        <time>2026-04-13T13:53:27.000Z</time>
      </trkpt>
      <trkpt lat="42.130807" lon="23.149477">
        <ele>587.8</ele>
        <time>2026-04-13T13:53:28.000Z</time>
      </trkpt>
      <trkpt lat="42.130798" lon="23.149475">
        <ele>587.8</ele>
        <time>2026-04-13T13:53:29.000Z</time>
      </trkpt>
      <trkpt lat="42.13079" lon="23.149472">
        <ele>587.1</ele>
        <time>2026-04-13T13:53:30.000Z</time>
      </trkpt>
      <trkpt lat="42.130782" lon="23.149467">
        <ele>587.1</ele>
        <time>2026-04-13T13:53:31.000Z</time>
      </trkpt>
      <trkpt lat="42.130774" lon="23.149463">
        <ele>587.1</ele>
        <time>2026-04-13T13:53:32.000Z</time>
      </trkpt>
      <trkpt lat="42.130767" lon="23.149457">
        <ele>587.1</ele>
        <time>2026-04-13T13:53:33.000Z</time>
      </trkpt>
      <trkpt lat="42.130759" lon="23.149451">
        <ele>587.1</ele>
        <time>2026-04-13T13:53:34.000Z</time>
      </trkpt>
      <trkpt lat="42.130752" lon="23.149444">
        <ele>586.2</ele>
        <time>2026-04-13T13:53:35.000Z</time>
      </trkpt>
      <trkpt lat="42.130743" lon="23.149438">
        <ele>586.2</ele>
        <time>2026-04-13T13:53:36.000Z</time>
      </trkpt>
      <trkpt lat="42.130735" lon="23.149433">
        <ele>586.2</ele>
        <time>2026-04-13T13:53:37.000Z</time>
      </trkpt>
      <trkpt lat="42.130725" lon="23.149429">
        <ele>586.2</ele>
        <time>2026-04-13T13:53:38.000Z</time>
      </trkpt>
      <trkpt lat="42.130716" lon="23.149427">
        <ele>586.2</ele>
        <time>2026-04-13T13:53:39.000Z</time>
      </trkpt>
      <trkpt lat="42.130706" lon="23.149425">
        <ele>585.6</ele>
        <time>2026-04-13T13:53:40.000Z</time>
      </trkpt>
      <trkpt lat="42.130697" lon="23.149425">
        <ele>585.6</ele>
        <time>2026-04-13T13:53:41.000Z</time>
      </trkpt>
      <trkpt lat="42.130688" lon="23.149425">
        <ele>585.6</ele>
        <time>2026-04-13T13:53:42.000Z</time>
      </trkpt>
      <trkpt lat="42.13068" lon="23.149425">
        <ele>585.6</ele>
        <time>2026-04-13T13:53:43.000Z</time>
      </trkpt>
      <trkpt lat="42.130673" lon="23.149426">
        <ele>585.6</ele>
        <time>2026-04-13T13:53:44.000Z</time>
      </trkpt>
      <trkpt lat="42.130666" lon="23.149427">
        <ele>584.3</ele>
        <time>2026-04-13T13:53:45.000Z</time>
      </trkpt>
      <trkpt lat="42.130659" lon="23.149426">
        <ele>584.3</ele>
        <time>2026-04-13T13:53:46.000Z</time>
      </trkpt>
      <trkpt lat="42.130652" lon="23.149426">
        <ele>584.3</ele>
        <time>2026-04-13T13:53:47.000Z</time>
      </trkpt>
      <trkpt lat="42.130646" lon="23.149425">
        <ele>584.3</ele>
        <time>2026-04-13T13:53:48.000Z</time>
      </trkpt>
      <trkpt lat="42.130639" lon="23.149424">
        <ele>584.3</ele>
        <time>2026-04-13T13:53:49.000Z</time>
      </trkpt>
      <trkpt lat="42.130632" lon="23.149423">
        <ele>583.1</ele>
        <time>2026-04-13T13:53:50.000Z</time>
      </trkpt>
      <trkpt lat="42.130626" lon="23.149423">
        <ele>583.1</ele>
        <time>2026-04-13T13:53:51.000Z</time>
      </trkpt>
      <trkpt lat="42.130619" lon="23.149423">
        <ele>583.1</ele>
        <time>2026-04-13T13:53:52.000Z</time>
      </trkpt>
      <trkpt lat="42.130613" lon="23.149424">
        <ele>583.1</ele>
        <time>2026-04-13T13:53:53.000Z</time>
      </trkpt>
      <trkpt lat="42.130605" lon="23.149425">
        <ele>583.1</ele>
        <time>2026-04-13T13:53:54.000Z</time>
      </trkpt>
      <trkpt lat="42.130598" lon="23.149426">
        <ele>582.6</ele>
        <time>2026-04-13T13:53:55.000Z</time>
      </trkpt>
      <trkpt lat="42.13059" lon="23.149427">
        <ele>582.6</ele>
        <time>2026-04-13T13:53:56.000Z</time>
      </trkpt>
      <trkpt lat="42.130582" lon="23.149428">
        <ele>582.6</ele>
        <time>2026-04-13T13:53:57.000Z</time>
      </trkpt>
      <trkpt lat="42.130575" lon="23.149429">
        <ele>582.6</ele>
        <time>2026-04-13T13:53:58.000Z</time>
      </trkpt>
      <trkpt lat="42.130568" lon="23.149428">
        <ele>582.6</ele>
        <time>2026-04-13T13:53:59.000Z</time>
      </trkpt>
      <trkpt lat="42.130562" lon="23.149427">
        <ele>582</ele>
        <time>2026-04-13T13:54:00.000Z</time>
      </trkpt>
      <trkpt lat="42.130555" lon="23.149426">
        <ele>582</ele>
        <time>2026-04-13T13:54:01.000Z</time>
      </trkpt>
      <trkpt lat="42.130549" lon="23.149424">
        <ele>582</ele>
        <time>2026-04-13T13:54:02.000Z</time>
      </trkpt>
      <trkpt lat="42.130543" lon="23.149422">
        <ele>582</ele>
        <time>2026-04-13T13:54:03.000Z</time>
      </trkpt>
      <trkpt lat="42.130538" lon="23.149419">
        <ele>582</ele>
        <time>2026-04-13T13:54:04.000Z</time>
      </trkpt>
      <trkpt lat="42.130533" lon="23.149417">
        <ele>581.9</ele>
        <time>2026-04-13T13:54:05.000Z</time>
      </trkpt>
      <trkpt lat="42.130528" lon="23.149415">
        <ele>581.9</ele>
        <time>2026-04-13T13:54:06.000Z</time>
      </trkpt>
      <trkpt lat="42.130524" lon="23.149413">
        <ele>581.9</ele>
        <time>2026-04-13T13:54:07.000Z</time>
      </trkpt>
      <trkpt lat="42.13052" lon="23.149411">
        <ele>581.9</ele>
        <time>2026-04-13T13:54:08.000Z</time>
      </trkpt>
      <trkpt lat="42.130516" lon="23.149409">
        <ele>581.9</ele>
        <time>2026-04-13T13:54:09.000Z</time>
      </trkpt>
      <trkpt lat="42.130513" lon="23.149408">
        <ele>581.9</ele>
        <time>2026-04-13T13:54:10.000Z</time>
      </trkpt>
      <trkpt lat="42.13051" lon="23.149409">
        <ele>581.9</ele>
        <time>2026-04-13T13:54:11.000Z</time>
      </trkpt>
      <trkpt lat="42.130507" lon="23.149411">
        <ele>581.9</ele>
        <time>2026-04-13T13:54:12.000Z</time>
      </trkpt>
      <trkpt lat="42.130503" lon="23.149414">
        <ele>581.9</ele>
        <time>2026-04-13T13:54:13.000Z</time>
      </trkpt>
      <trkpt lat="42.130499" lon="23.149418">
        <ele>581.9</ele>
        <time>2026-04-13T13:54:14.000Z</time>
      </trkpt>
      <trkpt lat="42.130495" lon="23.149422">
        <ele>582.4</ele>
        <time>2026-04-13T13:54:15.000Z</time>
      </trkpt>
      <trkpt lat="42.13049" lon="23.149425">
        <ele>582.4</ele>
        <time>2026-04-13T13:54:16.000Z</time>
      </trkpt>
      <trkpt lat="42.130486" lon="23.149428">
        <ele>582.4</ele>
        <time>2026-04-13T13:54:17.000Z</time>
      </trkpt>
      <trkpt lat="42.130481" lon="23.149428">
        <ele>582.4</ele>
        <time>2026-04-13T13:54:18.000Z</time>
      </trkpt>
      <trkpt lat="42.130476" lon="23.149427">
        <ele>582.4</ele>
        <time>2026-04-13T13:54:19.000Z</time>
      </trkpt>
      <trkpt lat="42.130471" lon="23.149424">
        <ele>582.8</ele>
        <time>2026-04-13T13:54:20.000Z</time>
      </trkpt>
      <trkpt lat="42.130467" lon="23.149421">
        <ele>582.8</ele>
        <time>2026-04-13T13:54:21.000Z</time>
      </trkpt>
      <trkpt lat="42.130463" lon="23.149418">
        <ele>582.8</ele>
        <time>2026-04-13T13:54:22.000Z</time>
      </trkpt>
      <trkpt lat="42.130458" lon="23.149416">
        <ele>582.8</ele>
        <time>2026-04-13T13:54:23.000Z</time>
      </trkpt>
      <trkpt lat="42.130453" lon="23.149413">
        <ele>582.8</ele>
        <time>2026-04-13T13:54:24.000Z</time>
      </trkpt>
      <trkpt lat="42.130448" lon="23.149411">
        <ele>582.9</ele>
        <time>2026-04-13T13:54:25.000Z</time>
      </trkpt>
      <trkpt lat="42.130443" lon="23.14941">
        <ele>582.9</ele>
        <time>2026-04-13T13:54:26.000Z</time>
      </trkpt>
      <trkpt lat="42.130438" lon="23.149408">
        <ele>582.9</ele>
        <time>2026-04-13T13:54:27.000Z</time>
      </trkpt>
      <trkpt lat="42.130433" lon="23.149407">
        <ele>582.9</ele>
        <time>2026-04-13T13:54:28.000Z</time>
      </trkpt>
      <trkpt lat="42.130428" lon="23.149407">
        <ele>582.9</ele>
        <time>2026-04-13T13:54:29.000Z</time>
      </trkpt>
      <trkpt lat="42.130423" lon="23.149407">
        <ele>583.1</ele>
        <time>2026-04-13T13:54:30.000Z</time>
      </trkpt>
      <trkpt lat="42.130419" lon="23.149407">
        <ele>583.1</ele>
        <time>2026-04-13T13:54:31.000Z</time>
      </trkpt>
      <trkpt lat="42.130415" lon="23.149408">
        <ele>583.1</ele>
        <time>2026-04-13T13:54:32.000Z</time>
      </trkpt>
      <trkpt lat="42.130412" lon="23.149409">
        <ele>583.1</ele>
        <time>2026-04-13T13:54:33.000Z</time>
      </trkpt>
      <trkpt lat="42.13041" lon="23.149411">
        <ele>583.1</ele>
        <time>2026-04-13T13:54:34.000Z</time>
      </trkpt>
      <trkpt lat="42.130407" lon="23.149412">
        <ele>583.7</ele>
        <time>2026-04-13T13:54:35.000Z</time>
      </trkpt>
      <trkpt lat="42.130405" lon="23.149414">
        <ele>583.7</ele>
        <time>2026-04-13T13:54:36.000Z</time>
      </trkpt>
      <trkpt lat="42.130402" lon="23.149415">
        <ele>583.7</ele>
        <time>2026-04-13T13:54:37.000Z</time>
      </trkpt>
      <trkpt lat="42.1304" lon="23.149417">
        <ele>583.7</ele>
        <time>2026-04-13T13:54:38.000Z</time>
      </trkpt>
      <trkpt lat="42.130398" lon="23.149418">
        <ele>583.7</ele>
        <time>2026-04-13T13:54:39.000Z</time>
      </trkpt>
      <trkpt lat="42.130397" lon="23.149419">
        <ele>584.1</ele>
        <time>2026-04-13T13:54:40.000Z</time>
      </trkpt>
      <trkpt lat="42.130397" lon="23.14942">
        <ele>584.1</ele>
        <time>2026-04-13T13:54:41.000Z</time>
      </trkpt>
      <trkpt lat="42.130395" lon="23.14942">
        <ele>584.1</ele>
        <time>2026-04-13T13:54:42.000Z</time>
      </trkpt>
      <trkpt lat="42.130394" lon="23.14942">
        <ele>584.1</ele>
        <time>2026-04-13T13:54:43.000Z</time>
      </trkpt>
      <trkpt lat="42.130391" lon="23.14942">
        <ele>584.1</ele>
        <time>2026-04-13T13:54:44.000Z</time>
      </trkpt>
      <trkpt lat="42.130388" lon="23.149419">
        <ele>584.9</ele>
        <time>2026-04-13T13:54:45.000Z</time>
      </trkpt>
      <trkpt lat="42.130384" lon="23.149418">
        <ele>584.9</ele>
        <time>2026-04-13T13:54:46.000Z</time>
      </trkpt>
      <trkpt lat="42.13038" lon="23.149416">
        <ele>584.9</ele>
        <time>2026-04-13T13:54:47.000Z</time>
      </trkpt>
      <trkpt lat="42.130376" lon="23.149414">
        <ele>584.9</ele>
        <time>2026-04-13T13:54:48.000Z</time>
      </trkpt>
      <trkpt lat="42.130371" lon="23.14941">
        <ele>584.9</ele>
        <time>2026-04-13T13:54:49.000Z</time>
      </trkpt>
      <trkpt lat="42.130366" lon="23.149407">
        <ele>585.3</ele>
        <time>2026-04-13T13:54:50.000Z</time>
      </trkpt>
      <trkpt lat="42.13036" lon="23.149404">
        <ele>585.3</ele>
        <time>2026-04-13T13:54:51.000Z</time>
      </trkpt>
      <trkpt lat="42.130354" lon="23.149402">
        <ele>585.3</ele>
        <time>2026-04-13T13:54:52.000Z</time>
      </trkpt>
      <trkpt lat="42.130348" lon="23.149401">
        <ele>585.3</ele>
        <time>2026-04-13T13:54:53.000Z</time>
      </trkpt>
      <trkpt lat="42.130341" lon="23.149402">
        <ele>585.3</ele>
        <time>2026-04-13T13:54:54.000Z</time>
      </trkpt>
      <trkpt lat="42.130335" lon="23.149404">
        <ele>585.5</ele>
        <time>2026-04-13T13:54:55.000Z</time>
      </trkpt>
      <trkpt lat="42.130329" lon="23.149408">
        <ele>585.5</ele>
        <time>2026-04-13T13:54:56.000Z</time>
      </trkpt>
      <trkpt lat="42.130324" lon="23.149413">
        <ele>585.5</ele>
        <time>2026-04-13T13:54:57.000Z</time>
      </trkpt>
      <trkpt lat="42.13032" lon="23.149419">
        <ele>585.5</ele>
        <time>2026-04-13T13:54:58.000Z</time>
      </trkpt>
      <trkpt lat="42.130316" lon="23.149425">
        <ele>585.5</ele>
        <time>2026-04-13T13:54:59.000Z</time>
      </trkpt>
      <trkpt lat="42.130314" lon="23.149431">
        <ele>586</ele>
        <time>2026-04-13T13:55:00.000Z</time>
      </trkpt>
      <trkpt lat="42.130313" lon="23.149436">
        <ele>586</ele>
        <time>2026-04-13T13:55:01.000Z</time>
      </trkpt>
      <trkpt lat="42.130313" lon="23.14944">
        <ele>586</ele>
        <time>2026-04-13T13:55:02.000Z</time>
      </trkpt>
      <trkpt lat="42.130312" lon="23.149443">
        <ele>586</ele>
        <time>2026-04-13T13:55:03.000Z</time>
      </trkpt>
      <trkpt lat="42.130312" lon="23.149445">
        <ele>586</ele>
        <time>2026-04-13T13:55:04.000Z</time>
      </trkpt>
      <trkpt lat="42.130313" lon="23.149447">
        <ele>586.7</ele>
        <time>2026-04-13T13:55:05.000Z</time>
      </trkpt>
      <trkpt lat="42.130313" lon="23.149448">
        <ele>586.7</ele>
        <time>2026-04-13T13:55:06.000Z</time>
      </trkpt>
      <trkpt lat="42.130313" lon="23.149448">
        <ele>586.7</ele>
        <time>2026-04-13T13:55:07.000Z</time>
      </trkpt>
      <trkpt lat="42.130313" lon="23.149448">
        <ele>586.7</ele>
        <time>2026-04-13T13:55:08.000Z</time>
      </trkpt>
      <trkpt lat="42.130313" lon="23.149448">
        <ele>586.7</ele>
        <time>2026-04-13T13:55:09.000Z</time>
      </trkpt>
      <trkpt lat="42.130312" lon="23.149447">
        <ele>586.8</ele>
        <time>2026-04-13T13:55:10.000Z</time>
      </trkpt>
      <trkpt lat="42.130312" lon="23.149447">
        <ele>586.8</ele>
        <time>2026-04-13T13:55:11.000Z</time>
      </trkpt>
      <trkpt lat="42.130312" lon="23.149446">
        <ele>586.8</ele>
        <time>2026-04-13T13:55:12.000Z</time>
      </trkpt>
      <trkpt lat="42.130312" lon="23.149446">
        <ele>586.8</ele>
        <time>2026-04-13T13:55:13.000Z</time>
      </trkpt>
      <trkpt lat="42.130311" lon="23.149446">
        <ele>586.8</ele>
        <time>2026-04-13T13:55:14.000Z</time>
      </trkpt>
      <trkpt lat="42.130311" lon="23.149446">
        <ele>586.8</ele>
        <time>2026-04-13T13:55:15.000Z</time>
      </trkpt>
      <trkpt lat="42.130311" lon="23.149447">
        <ele>586.8</ele>
        <time>2026-04-13T13:55:16.000Z</time>
      </trkpt>
      <trkpt lat="42.13031" lon="23.149447">
        <ele>586.8</ele>
        <time>2026-04-13T13:55:17.000Z</time>
      </trkpt>
      <trkpt lat="42.13031" lon="23.149447">
        <ele>586.8</ele>
        <time>2026-04-13T13:55:18.000Z</time>
      </trkpt>
      <trkpt lat="42.130309" lon="23.149447">
        <ele>586.8</ele>
        <time>2026-04-13T13:55:19.000Z</time>
      </trkpt>
      <trkpt lat="42.130309" lon="23.149448">
        <ele>586.7</ele>
        <time>2026-04-13T13:55:20.000Z</time>
      </trkpt>
      <trkpt lat="42.130308" lon="23.149448">
        <ele>586.7</ele>
        <time>2026-04-13T13:55:21.000Z</time>
      </trkpt>
      <trkpt lat="42.130307" lon="23.149448">
        <ele>586.7</ele>
        <time>2026-04-13T13:55:22.000Z</time>
      </trkpt>
      <trkpt lat="42.130306" lon="23.149448">
        <ele>586.7</ele>
        <time>2026-04-13T13:55:23.000Z</time>
      </trkpt>
      <trkpt lat="42.130303" lon="23.149447">
        <ele>586.7</ele>
        <time>2026-04-13T13:55:24.000Z</time>
      </trkpt>
      <trkpt lat="42.130299" lon="23.149445">
        <ele>586.7</ele>
        <time>2026-04-13T13:55:25.000Z</time>
      </trkpt>
      <trkpt lat="42.130294" lon="23.149444">
        <ele>586.7</ele>
        <time>2026-04-13T13:55:26.000Z</time>
      </trkpt>
      <trkpt lat="42.130288" lon="23.149443">
        <ele>586.7</ele>
        <time>2026-04-13T13:55:27.000Z</time>
      </trkpt>
      <trkpt lat="42.13028" lon="23.149443">
        <ele>586.7</ele>
        <time>2026-04-13T13:55:28.000Z</time>
      </trkpt>
      <trkpt lat="42.130272" lon="23.149445">
        <ele>586.7</ele>
        <time>2026-04-13T13:55:29.000Z</time>
      </trkpt>
      <trkpt lat="42.130263" lon="23.14945">
        <ele>586.9</ele>
        <time>2026-04-13T13:55:30.000Z</time>
      </trkpt>
      <trkpt lat="42.130255" lon="23.149455">
        <ele>586.9</ele>
        <time>2026-04-13T13:55:31.000Z</time>
      </trkpt>
      <trkpt lat="42.130246" lon="23.149463">
        <ele>586.9</ele>
        <time>2026-04-13T13:55:32.000Z</time>
      </trkpt>
      <trkpt lat="42.130239" lon="23.149472">
        <ele>586.9</ele>
        <time>2026-04-13T13:55:33.000Z</time>
      </trkpt>
      <trkpt lat="42.130233" lon="23.149481">
        <ele>586.9</ele>
        <time>2026-04-13T13:55:34.000Z</time>
      </trkpt>
      <trkpt lat="42.13023" lon="23.149491">
        <ele>587.4</ele>
        <time>2026-04-13T13:55:35.000Z</time>
      </trkpt>
      <trkpt lat="42.130227" lon="23.1495">
        <ele>587.4</ele>
        <time>2026-04-13T13:55:36.000Z</time>
      </trkpt>
      <trkpt lat="42.130225" lon="23.149509">
        <ele>587.4</ele>
        <time>2026-04-13T13:55:37.000Z</time>
      </trkpt>
      <trkpt lat="42.130224" lon="23.149516">
        <ele>587.4</ele>
        <time>2026-04-13T13:55:38.000Z</time>
      </trkpt>
      <trkpt lat="42.130223" lon="23.14952">
        <ele>587.4</ele>
        <time>2026-04-13T13:55:39.000Z</time>
      </trkpt>
      <trkpt lat="42.130223" lon="23.149523">
        <ele>588</ele>
        <time>2026-04-13T13:55:40.000Z</time>
      </trkpt>
      <trkpt lat="42.130223" lon="23.149525">
        <ele>588</ele>
        <time>2026-04-13T13:55:41.000Z</time>
      </trkpt>
      <trkpt lat="42.130224" lon="23.149526">
        <ele>588</ele>
        <time>2026-04-13T13:55:42.000Z</time>
      </trkpt>
      <trkpt lat="42.130225" lon="23.149527">
        <ele>588</ele>
        <time>2026-04-13T13:55:43.000Z</time>
      </trkpt>
      <trkpt lat="42.130225" lon="23.149529">
        <ele>588</ele>
        <time>2026-04-13T13:55:44.000Z</time>
      </trkpt>
      <trkpt lat="42.130224" lon="23.149531">
        <ele>589.3</ele>
        <time>2026-04-13T13:55:45.000Z</time>
      </trkpt>
      <trkpt lat="42.130222" lon="23.149534">
        <ele>589.3</ele>
        <time>2026-04-13T13:55:46.000Z</time>
      </trkpt>
      <trkpt lat="42.130218" lon="23.149538">
        <ele>589.3</ele>
        <time>2026-04-13T13:55:47.000Z</time>
      </trkpt>
      <trkpt lat="42.130213" lon="23.149542">
        <ele>589.3</ele>
        <time>2026-04-13T13:55:48.000Z</time>
      </trkpt>
      <trkpt lat="42.130208" lon="23.149547">
        <ele>589.3</ele>
        <time>2026-04-13T13:55:49.000Z</time>
      </trkpt>
      <trkpt lat="42.130201" lon="23.149551">
        <ele>590</ele>
        <time>2026-04-13T13:55:50.000Z</time>
      </trkpt>
      <trkpt lat="42.130194" lon="23.149554">
        <ele>590</ele>
        <time>2026-04-13T13:55:51.000Z</time>
      </trkpt>
      <trkpt lat="42.130187" lon="23.149555">
        <ele>590</ele>
        <time>2026-04-13T13:55:52.000Z</time>
      </trkpt>
      <trkpt lat="42.13018" lon="23.149555">
        <ele>590</ele>
        <time>2026-04-13T13:55:53.000Z</time>
      </trkpt>
      <trkpt lat="42.130173" lon="23.149552">
        <ele>590</ele>
        <time>2026-04-13T13:55:54.000Z</time>
      </trkpt>
      <trkpt lat="42.130167" lon="23.149549">
        <ele>590.2</ele>
        <time>2026-04-13T13:55:55.000Z</time>
      </trkpt>
      <trkpt lat="42.130161" lon="23.149546">
        <ele>590.2</ele>
        <time>2026-04-13T13:55:56.000Z</time>
      </trkpt>
      <trkpt lat="42.130157" lon="23.149543">
        <ele>590.2</ele>
        <time>2026-04-13T13:55:57.000Z</time>
      </trkpt>
      <trkpt lat="42.130153" lon="23.149541">
        <ele>590.2</ele>
        <time>2026-04-13T13:55:58.000Z</time>
      </trkpt>
      <trkpt lat="42.130151" lon="23.14954">
        <ele>590.2</ele>
        <time>2026-04-13T13:55:59.000Z</time>
      </trkpt>
      <trkpt lat="42.130148" lon="23.149539">
        <ele>590.1</ele>
        <time>2026-04-13T13:56:00.000Z</time>
      </trkpt>
      <trkpt lat="42.130147" lon="23.149539">
        <ele>590.1</ele>
        <time>2026-04-13T13:56:01.000Z</time>
      </trkpt>
      <trkpt lat="42.130144" lon="23.149538">
        <ele>590.1</ele>
        <time>2026-04-13T13:56:02.000Z</time>
      </trkpt>
      <trkpt lat="42.130142" lon="23.149538">
        <ele>590.1</ele>
        <time>2026-04-13T13:56:03.000Z</time>
      </trkpt>
      <trkpt lat="42.130138" lon="23.149537">
        <ele>590.1</ele>
        <time>2026-04-13T13:56:04.000Z</time>
      </trkpt>
      <trkpt lat="42.130134" lon="23.149538">
        <ele>590.3</ele>
        <time>2026-04-13T13:56:05.000Z</time>
      </trkpt>
      <trkpt lat="42.13013" lon="23.149538">
        <ele>590.3</ele>
        <time>2026-04-13T13:56:06.000Z</time>
      </trkpt>
      <trkpt lat="42.130127" lon="23.14954">
        <ele>590.3</ele>
        <time>2026-04-13T13:56:07.000Z</time>
      </trkpt>
      <trkpt lat="42.130124" lon="23.149542">
        <ele>590.3</ele>
        <time>2026-04-13T13:56:08.000Z</time>
      </trkpt>
      <trkpt lat="42.130123" lon="23.149545">
        <ele>590.3</ele>
        <time>2026-04-13T13:56:09.000Z</time>
      </trkpt>
      <trkpt lat="42.130123" lon="23.149547">
        <ele>590.3</ele>
        <time>2026-04-13T13:56:10.000Z</time>
      </trkpt>
      <trkpt lat="42.130124" lon="23.149549">
        <ele>590.3</ele>
        <time>2026-04-13T13:56:11.000Z</time>
      </trkpt>
      <trkpt lat="42.130125" lon="23.14955">
        <ele>590.3</ele>
        <time>2026-04-13T13:56:12.000Z</time>
      </trkpt>
      <trkpt lat="42.130126" lon="23.149551">
        <ele>590.3</ele>
        <time>2026-04-13T13:56:13.000Z</time>
      </trkpt>
      <trkpt lat="42.130126" lon="23.149551">
        <ele>590.3</ele>
        <time>2026-04-13T13:56:14.000Z</time>
      </trkpt>
      <trkpt lat="42.130126" lon="23.149551">
        <ele>590.5</ele>
        <time>2026-04-13T13:56:15.000Z</time>
      </trkpt>
      <trkpt lat="42.130126" lon="23.149551">
        <ele>590.5</ele>
        <time>2026-04-13T13:56:16.000Z</time>
      </trkpt>
      <trkpt lat="42.130126" lon="23.149551">
        <ele>590.5</ele>
        <time>2026-04-13T13:56:17.000Z</time>
      </trkpt>
      <trkpt lat="42.130126" lon="23.14955">
        <ele>590.5</ele>
        <time>2026-04-13T13:56:18.000Z</time>
      </trkpt>
      <trkpt lat="42.130126" lon="23.149551">
        <ele>590.5</ele>
        <time>2026-04-13T13:56:19.000Z</time>
      </trkpt>
      <trkpt lat="42.130127" lon="23.149551">
        <ele>590.4</ele>
        <time>2026-04-13T13:56:20.000Z</time>
      </trkpt>
      <trkpt lat="42.130127" lon="23.149554">
        <ele>590.4</ele>
        <time>2026-04-13T13:56:21.000Z</time>
      </trkpt>
      <trkpt lat="42.130126" lon="23.149558">
        <ele>590.4</ele>
        <time>2026-04-13T13:56:22.000Z</time>
      </trkpt>
      <trkpt lat="42.130125" lon="23.149563">
        <ele>590.4</ele>
        <time>2026-04-13T13:56:23.000Z</time>
      </trkpt>
      <trkpt lat="42.130122" lon="23.149568">
        <ele>590.4</ele>
        <time>2026-04-13T13:56:24.000Z</time>
      </trkpt>
      <trkpt lat="42.130118" lon="23.149573">
        <ele>590.3</ele>
        <time>2026-04-13T13:56:25.000Z</time>
      </trkpt>
      <trkpt lat="42.130113" lon="23.149577">
        <ele>590.3</ele>
        <time>2026-04-13T13:56:26.000Z</time>
      </trkpt>
      <trkpt lat="42.130108" lon="23.149578">
        <ele>590.3</ele>
        <time>2026-04-13T13:56:27.000Z</time>
      </trkpt>
      <trkpt lat="42.130103" lon="23.149579">
        <ele>590.3</ele>
        <time>2026-04-13T13:56:28.000Z</time>
      </trkpt>
      <trkpt lat="42.130099" lon="23.149578">
        <ele>590.3</ele>
        <time>2026-04-13T13:56:29.000Z</time>
      </trkpt>
      <trkpt lat="42.130097" lon="23.149578">
        <ele>590</ele>
        <time>2026-04-13T13:56:30.000Z</time>
      </trkpt>
      <trkpt lat="42.130096" lon="23.149577">
        <ele>590</ele>
        <time>2026-04-13T13:56:31.000Z</time>
      </trkpt>
      <trkpt lat="42.130096" lon="23.149576">
        <ele>590</ele>
        <time>2026-04-13T13:56:32.000Z</time>
      </trkpt>
      <trkpt lat="42.130096" lon="23.149576">
        <ele>590</ele>
        <time>2026-04-13T13:56:33.000Z</time>
      </trkpt>
      <trkpt lat="42.130096" lon="23.149576">
        <ele>590</ele>
        <time>2026-04-13T13:56:34.000Z</time>
      </trkpt>
      <trkpt lat="42.130096" lon="23.149575">
        <ele>589.9</ele>
        <time>2026-04-13T13:56:35.000Z</time>
      </trkpt>
      <trkpt lat="42.130095" lon="23.149574">
        <ele>589.9</ele>
        <time>2026-04-13T13:56:36.000Z</time>
      </trkpt>
      <trkpt lat="42.130094" lon="23.149573">
        <ele>589.9</ele>
        <time>2026-04-13T13:56:37.000Z</time>
      </trkpt>
      <trkpt lat="42.130093" lon="23.149571">
        <ele>589.9</ele>
        <time>2026-04-13T13:56:38.000Z</time>
      </trkpt>
      <trkpt lat="42.130092" lon="23.149568">
        <ele>589.9</ele>
        <time>2026-04-13T13:56:39.000Z</time>
      </trkpt>
      <trkpt lat="42.13009" lon="23.149566">
        <ele>589.8</ele>
        <time>2026-04-13T13:56:40.000Z</time>
      </trkpt>
      <trkpt lat="42.130088" lon="23.149564">
        <ele>589.8</ele>
        <time>2026-04-13T13:56:41.000Z</time>
      </trkpt>
      <trkpt lat="42.130086" lon="23.149563">
        <ele>589.8</ele>
        <time>2026-04-13T13:56:42.000Z</time>
      </trkpt>
      <trkpt lat="42.130083" lon="23.149561">
        <ele>589.8</ele>
        <time>2026-04-13T13:56:43.000Z</time>
      </trkpt>
      <trkpt lat="42.130081" lon="23.149559">
        <ele>589.8</ele>
        <time>2026-04-13T13:56:44.000Z</time>
      </trkpt>
      <trkpt lat="42.130079" lon="23.149558">
        <ele>589.6</ele>
        <time>2026-04-13T13:56:45.000Z</time>
      </trkpt>
      <trkpt lat="42.130078" lon="23.149557">
        <ele>589.6</ele>
        <time>2026-04-13T13:56:46.000Z</time>
      </trkpt>
      <trkpt lat="42.130078" lon="23.149556">
        <ele>589.6</ele>
        <time>2026-04-13T13:56:47.000Z</time>
      </trkpt>
      <trkpt lat="42.130078" lon="23.149556">
        <ele>589.6</ele>
        <time>2026-04-13T13:56:48.000Z</time>
      </trkpt>
      <trkpt lat="42.130078" lon="23.149556">
        <ele>589.6</ele>
        <time>2026-04-13T13:56:49.000Z</time>
      </trkpt>
      <trkpt lat="42.130078" lon="23.149556">
        <ele>589.3</ele>
        <time>2026-04-13T13:56:50.000Z</time>
      </trkpt>
      <trkpt lat="42.130077" lon="23.149556">
        <ele>589.3</ele>
        <time>2026-04-13T13:56:51.000Z</time>
      </trkpt>
      <trkpt lat="42.130075" lon="23.149556">
        <ele>589.3</ele>
        <time>2026-04-13T13:56:52.000Z</time>
      </trkpt>
      <trkpt lat="42.130072" lon="23.149555">
        <ele>589.3</ele>
        <time>2026-04-13T13:56:53.000Z</time>
      </trkpt>
      <trkpt lat="42.130068" lon="23.149555">
        <ele>589.3</ele>
        <time>2026-04-13T13:56:54.000Z</time>
      </trkpt>
      <trkpt lat="42.130063" lon="23.149554">
        <ele>589.3</ele>
        <time>2026-04-13T13:56:55.000Z</time>
      </trkpt>
      <trkpt lat="42.130057" lon="23.149555">
        <ele>589.3</ele>
        <time>2026-04-13T13:56:56.000Z</time>
      </trkpt>
      <trkpt lat="42.130051" lon="23.149557">
        <ele>589.3</ele>
        <time>2026-04-13T13:56:57.000Z</time>
      </trkpt>
      <trkpt lat="42.130045" lon="23.14956">
        <ele>589.3</ele>
        <time>2026-04-13T13:56:58.000Z</time>
      </trkpt>
      <trkpt lat="42.13004" lon="23.149564">
        <ele>589.3</ele>
        <time>2026-04-13T13:56:59.000Z</time>
      </trkpt>
      <trkpt lat="42.130036" lon="23.149569">
        <ele>589.4</ele>
        <time>2026-04-13T13:57:00.000Z</time>
      </trkpt>
      <trkpt lat="42.130034" lon="23.149573">
        <ele>589.4</ele>
        <time>2026-04-13T13:57:01.000Z</time>
      </trkpt>
      <trkpt lat="42.130033" lon="23.149576">
        <ele>589.4</ele>
        <time>2026-04-13T13:57:02.000Z</time>
      </trkpt>
      <trkpt lat="42.130032" lon="23.14958">
        <ele>589.4</ele>
        <time>2026-04-13T13:57:03.000Z</time>
      </trkpt>
      <trkpt lat="42.130033" lon="23.149582">
        <ele>589.4</ele>
        <time>2026-04-13T13:57:04.000Z</time>
      </trkpt>
      <trkpt lat="42.130033" lon="23.149585">
        <ele>590</ele>
        <time>2026-04-13T13:57:05.000Z</time>
      </trkpt>
      <trkpt lat="42.130035" lon="23.149586">
        <ele>590</ele>
        <time>2026-04-13T13:57:06.000Z</time>
      </trkpt>
      <trkpt lat="42.130036" lon="23.149587">
        <ele>590</ele>
        <time>2026-04-13T13:57:07.000Z</time>
      </trkpt>
      <trkpt lat="42.130038" lon="23.149588">
        <ele>590</ele>
        <time>2026-04-13T13:57:08.000Z</time>
      </trkpt>
      <trkpt lat="42.13004" lon="23.149589">
        <ele>590</ele>
        <time>2026-04-13T13:57:09.000Z</time>
      </trkpt>
      <trkpt lat="42.130042" lon="23.149592">
        <ele>590.3</ele>
        <time>2026-04-13T13:57:10.000Z</time>
      </trkpt>
      <trkpt lat="42.130043" lon="23.149595">
        <ele>590.3</ele>
        <time>2026-04-13T13:57:11.000Z</time>
      </trkpt>
      <trkpt lat="42.130043" lon="23.149599">
        <ele>590.3</ele>
        <time>2026-04-13T13:57:12.000Z</time>
      </trkpt>
      <trkpt lat="42.130044" lon="23.149603">
        <ele>590.3</ele>
        <time>2026-04-13T13:57:13.000Z</time>
      </trkpt>
      <trkpt lat="42.130045" lon="23.149605">
        <ele>590.3</ele>
        <time>2026-04-13T13:57:14.000Z</time>
      </trkpt>
      <trkpt lat="42.130045" lon="23.149607">
        <ele>590.7</ele>
        <time>2026-04-13T13:57:15.000Z</time>
      </trkpt>
      <trkpt lat="42.130046" lon="23.149609">
        <ele>590.7</ele>
        <time>2026-04-13T13:57:16.000Z</time>
      </trkpt>
      <trkpt lat="42.130046" lon="23.14961">
        <ele>590.7</ele>
        <time>2026-04-13T13:57:17.000Z</time>
      </trkpt>
      <trkpt lat="42.130047" lon="23.14961">
        <ele>590.7</ele>
        <time>2026-04-13T13:57:18.000Z</time>
      </trkpt>
      <trkpt lat="42.130047" lon="23.14961">
        <ele>590.7</ele>
        <time>2026-04-13T13:57:19.000Z</time>
      </trkpt>
      <trkpt lat="42.130048" lon="23.14961">
        <ele>590.8</ele>
        <time>2026-04-13T13:57:20.000Z</time>
      </trkpt>
      <trkpt lat="42.130049" lon="23.14961">
        <ele>590.8</ele>
        <time>2026-04-13T13:57:21.000Z</time>
      </trkpt>
      <trkpt lat="42.130049" lon="23.14961">
        <ele>590.8</ele>
        <time>2026-04-13T13:57:22.000Z</time>
      </trkpt>
      <trkpt lat="42.13005" lon="23.14961">
        <ele>590.8</ele>
        <time>2026-04-13T13:57:23.000Z</time>
      </trkpt>
      <trkpt lat="42.13005" lon="23.14961">
        <ele>590.8</ele>
        <time>2026-04-13T13:57:24.000Z</time>
      </trkpt>
      <trkpt lat="42.130051" lon="23.14961">
        <ele>590.8</ele>
        <time>2026-04-13T13:57:25.000Z</time>
      </trkpt>
      <trkpt lat="42.130051" lon="23.14961">
        <ele>590.8</ele>
        <time>2026-04-13T13:57:26.000Z</time>
      </trkpt>
      <trkpt lat="42.130051" lon="23.149611">
        <ele>590.8</ele>
        <time>2026-04-13T13:57:27.000Z</time>
      </trkpt>
      <trkpt lat="42.130051" lon="23.149611">
        <ele>590.8</ele>
        <time>2026-04-13T13:57:28.000Z</time>
      </trkpt>
      <trkpt lat="42.130051" lon="23.149611">
        <ele>590.8</ele>
        <time>2026-04-13T13:57:29.000Z</time>
      </trkpt>
      <trkpt lat="42.130051" lon="23.149612">
        <ele>590.8</ele>
        <time>2026-04-13T13:57:30.000Z</time>
      </trkpt>
      <trkpt lat="42.130051" lon="23.149613">
        <ele>590.8</ele>
        <time>2026-04-13T13:57:31.000Z</time>
      </trkpt>
      <trkpt lat="42.130052" lon="23.149613">
        <ele>590.8</ele>
        <time>2026-04-13T13:57:32.000Z</time>
      </trkpt>
      <trkpt lat="42.130052" lon="23.149614">
        <ele>590.8</ele>
        <time>2026-04-13T13:57:33.000Z</time>
      </trkpt>
      <trkpt lat="42.130052" lon="23.149615">
        <ele>590.8</ele>
        <time>2026-04-13T13:57:34.000Z</time>
      </trkpt>
      <trkpt lat="42.130052" lon="23.149615">
        <ele>590.8</ele>
        <time>2026-04-13T13:57:35.000Z</time>
      </trkpt>
      <trkpt lat="42.130053" lon="23.149616">
        <ele>590.8</ele>
        <time>2026-04-13T13:57:36.000Z</time>
      </trkpt>
      <trkpt lat="42.130053" lon="23.149616">
        <ele>590.8</ele>
        <time>2026-04-13T13:57:37.000Z</time>
      </trkpt>
      <trkpt lat="42.130054" lon="23.149616">
        <ele>590.8</ele>
        <time>2026-04-13T13:57:38.000Z</time>
      </trkpt>
      <trkpt lat="42.130054" lon="23.149616">
        <ele>590.8</ele>
        <time>2026-04-13T13:57:39.000Z</time>
      </trkpt>
      <trkpt lat="42.130054" lon="23.149616">
        <ele>590.8</ele>
        <time>2026-04-13T13:57:40.000Z</time>
      </trkpt>
      <trkpt lat="42.130055" lon="23.149616">
        <ele>590.8</ele>
        <time>2026-04-13T13:57:41.000Z</time>
      </trkpt>
      <trkpt lat="42.130055" lon="23.149617">
        <ele>590.8</ele>
        <time>2026-04-13T13:57:42.000Z</time>
      </trkpt>
      <trkpt lat="42.130055" lon="23.149617">
        <ele>590.8</ele>
        <time>2026-04-13T13:57:43.000Z</time>
      </trkpt>
      <trkpt lat="42.130056" lon="23.149617">
        <ele>590.8</ele>
        <time>2026-04-13T13:57:44.000Z</time>
      </trkpt>
      <trkpt lat="42.130056" lon="23.149617">
        <ele>590.6</ele>
        <time>2026-04-13T13:57:45.000Z</time>
      </trkpt>
      <trkpt lat="42.130056" lon="23.149617">
        <ele>590.6</ele>
        <time>2026-04-13T13:57:46.000Z</time>
      </trkpt>
      <trkpt lat="42.130057" lon="23.149617">
        <ele>590.6</ele>
        <time>2026-04-13T13:57:47.000Z</time>
      </trkpt>
      <trkpt lat="42.130057" lon="23.149617">
        <ele>590.6</ele>
        <time>2026-04-13T13:57:48.000Z</time>
      </trkpt>
      <trkpt lat="42.130057" lon="23.149617">
        <ele>590.6</ele>
        <time>2026-04-13T13:57:49.000Z</time>
      </trkpt>
      <trkpt lat="42.130057" lon="23.149617">
        <ele>590.7</ele>
        <time>2026-04-13T13:57:50.000Z</time>
      </trkpt>
      <trkpt lat="42.130057" lon="23.149617">
        <ele>590.7</ele>
        <time>2026-04-13T13:57:51.000Z</time>
      </trkpt>
      <trkpt lat="42.130057" lon="23.149617">
        <ele>590.7</ele>
        <time>2026-04-13T13:57:52.000Z</time>
      </trkpt>
      <trkpt lat="42.130056" lon="23.149618">
        <ele>590.7</ele>
        <time>2026-04-13T13:57:53.000Z</time>
      </trkpt>
      <trkpt lat="42.130055" lon="23.149619">
        <ele>590.7</ele>
        <time>2026-04-13T13:57:54.000Z</time>
      </trkpt>
      <trkpt lat="42.130054" lon="23.149621">
        <ele>590.7</ele>
        <time>2026-04-13T13:57:55.000Z</time>
      </trkpt>
      <trkpt lat="42.130054" lon="23.149624">
        <ele>590.7</ele>
        <time>2026-04-13T13:57:56.000Z</time>
      </trkpt>
      <trkpt lat="42.130053" lon="23.149626">
        <ele>590.7</ele>
        <time>2026-04-13T13:57:57.000Z</time>
      </trkpt>
      <trkpt lat="42.130053" lon="23.149628">
        <ele>590.7</ele>
        <time>2026-04-13T13:57:58.000Z</time>
      </trkpt>
      <trkpt lat="42.130053" lon="23.14963">
        <ele>590.7</ele>
        <time>2026-04-13T13:57:59.000Z</time>
      </trkpt>
      <trkpt lat="42.130054" lon="23.149631">
        <ele>590.7</ele>
        <time>2026-04-13T13:58:00.000Z</time>
      </trkpt>
      <trkpt lat="42.130054" lon="23.149632">
        <ele>590.7</ele>
        <time>2026-04-13T13:58:01.000Z</time>
      </trkpt>
      <trkpt lat="42.130055" lon="23.149633">
        <ele>590.7</ele>
        <time>2026-04-13T13:58:02.000Z</time>
      </trkpt>
      <trkpt lat="42.130055" lon="23.149633">
        <ele>590.7</ele>
        <time>2026-04-13T13:58:03.000Z</time>
      </trkpt>
      <trkpt lat="42.130055" lon="23.149634">
        <ele>590.7</ele>
        <time>2026-04-13T13:58:04.000Z</time>
      </trkpt>
      <trkpt lat="42.130056" lon="23.149634">
        <ele>590.8</ele>
        <time>2026-04-13T13:58:05.000Z</time>
      </trkpt>
      <trkpt lat="42.130056" lon="23.149634">
        <ele>590.8</ele>
        <time>2026-04-13T13:58:06.000Z</time>
      </trkpt>
      <trkpt lat="42.130056" lon="23.149634">
        <ele>590.8</ele>
        <time>2026-04-13T13:58:07.000Z</time>
      </trkpt>
      <trkpt lat="42.130056" lon="23.149634">
        <ele>590.8</ele>
        <time>2026-04-13T13:58:08.000Z</time>
      </trkpt>
      <trkpt lat="42.130057" lon="23.149634">
        <ele>590.8</ele>
        <time>2026-04-13T13:58:09.000Z</time>
      </trkpt>
      <trkpt lat="42.130057" lon="23.149635">
        <ele>590.9</ele>
        <time>2026-04-13T13:58:10.000Z</time>
      </trkpt>
      <trkpt lat="42.130057" lon="23.149635">
        <ele>590.9</ele>
        <time>2026-04-13T13:58:11.000Z</time>
      </trkpt>
      <trkpt lat="42.130058" lon="23.149634">
        <ele>590.9</ele>
        <time>2026-04-13T13:58:12.000Z</time>
      </trkpt>
      <trkpt lat="42.130058" lon="23.149634">
        <ele>590.9</ele>
        <time>2026-04-13T13:58:13.000Z</time>
      </trkpt>
      <trkpt lat="42.130058" lon="23.149634">
        <ele>590.9</ele>
        <time>2026-04-13T13:58:14.000Z</time>
      </trkpt>
      <trkpt lat="42.130058" lon="23.149634">
        <ele>591.2</ele>
        <time>2026-04-13T13:58:15.000Z</time>
      </trkpt>
      <trkpt lat="42.130058" lon="23.149634">
        <ele>591.2</ele>
        <time>2026-04-13T13:58:16.000Z</time>
      </trkpt>
      <trkpt lat="42.130059" lon="23.149634">
        <ele>591.2</ele>
        <time>2026-04-13T13:58:17.000Z</time>
      </trkpt>
      <trkpt lat="42.130059" lon="23.149634">
        <ele>591.2</ele>
        <time>2026-04-13T13:58:18.000Z</time>
      </trkpt>
      <trkpt lat="42.130059" lon="23.149634">
        <ele>591.2</ele>
        <time>2026-04-13T13:58:19.000Z</time>
      </trkpt>
      <trkpt lat="42.130059" lon="23.149634">
        <ele>591.7</ele>
        <time>2026-04-13T13:58:20.000Z</time>
      </trkpt>
      <trkpt lat="42.130059" lon="23.149634">
        <ele>591.7</ele>
        <time>2026-04-13T13:58:21.000Z</time>
      </trkpt>
      <trkpt lat="42.130059" lon="23.149634">
        <ele>591.7</ele>
        <time>2026-04-13T13:58:22.000Z</time>
      </trkpt>
      <trkpt lat="42.130059" lon="23.149634">
        <ele>591.7</ele>
        <time>2026-04-13T13:58:23.000Z</time>
      </trkpt>
      <trkpt lat="42.130059" lon="23.149634">
        <ele>591.7</ele>
        <time>2026-04-13T13:58:24.000Z</time>
      </trkpt>
      <trkpt lat="42.13006" lon="23.149633">
        <ele>592.1</ele>
        <time>2026-04-13T13:58:25.000Z</time>
      </trkpt>
      <trkpt lat="42.13006" lon="23.149632">
        <ele>592.1</ele>
        <time>2026-04-13T13:58:26.000Z</time>
      </trkpt>
      <trkpt lat="42.130061" lon="23.149631">
        <ele>592.1</ele>
        <time>2026-04-13T13:58:27.000Z</time>
      </trkpt>
      <trkpt lat="42.130061" lon="23.14963">
        <ele>592.1</ele>
        <time>2026-04-13T13:58:28.000Z</time>
      </trkpt>
      <trkpt lat="42.130063" lon="23.149628">
        <ele>592.1</ele>
        <time>2026-04-13T13:58:29.000Z</time>
      </trkpt>
      <trkpt lat="42.130064" lon="23.149627">
        <ele>592.9</ele>
        <time>2026-04-13T13:58:30.000Z</time>
      </trkpt>
      <trkpt lat="42.130065" lon="23.149627">
        <ele>592.9</ele>
        <time>2026-04-13T13:58:31.000Z</time>
      </trkpt>
      <trkpt lat="42.130067" lon="23.149628">
        <ele>592.9</ele>
        <time>2026-04-13T13:58:32.000Z</time>
      </trkpt>
      <trkpt lat="42.130069" lon="23.14963">
        <ele>592.9</ele>
        <time>2026-04-13T13:58:33.000Z</time>
      </trkpt>
      <trkpt lat="42.130071" lon="23.149633">
        <ele>592.9</ele>
        <time>2026-04-13T13:58:34.000Z</time>
      </trkpt>
      <trkpt lat="42.130072" lon="23.149637">
        <ele>593.6</ele>
        <time>2026-04-13T13:58:35.000Z</time>
      </trkpt>
      <trkpt lat="42.130073" lon="23.14964">
        <ele>593.6</ele>
        <time>2026-04-13T13:58:36.000Z</time>
      </trkpt>
      <trkpt lat="42.130074" lon="23.149643">
        <ele>593.6</ele>
        <time>2026-04-13T13:58:37.000Z</time>
      </trkpt>
      <trkpt lat="42.130074" lon="23.149646">
        <ele>593.6</ele>
        <time>2026-04-13T13:58:38.000Z</time>
      </trkpt>
      <trkpt lat="42.130074" lon="23.149648">
        <ele>593.6</ele>
        <time>2026-04-13T13:58:39.000Z</time>
      </trkpt>
      <trkpt lat="42.130075" lon="23.149651">
        <ele>594</ele>
        <time>2026-04-13T13:58:40.000Z</time>
      </trkpt>
      <trkpt lat="42.130075" lon="23.149654">
        <ele>594</ele>
        <time>2026-04-13T13:58:41.000Z</time>
      </trkpt>
      <trkpt lat="42.130076" lon="23.149657">
        <ele>594</ele>
        <time>2026-04-13T13:58:42.000Z</time>
      </trkpt>
      <trkpt lat="42.130077" lon="23.14966">
        <ele>594</ele>
        <time>2026-04-13T13:58:43.000Z</time>
      </trkpt>
      <trkpt lat="42.130078" lon="23.149662">
        <ele>594</ele>
        <time>2026-04-13T13:58:44.000Z</time>
      </trkpt>
      <trkpt lat="42.130078" lon="23.149664">
        <ele>594.8</ele>
        <time>2026-04-13T13:58:45.000Z</time>
      </trkpt>
      <trkpt lat="42.130078" lon="23.149665">
        <ele>594.8</ele>
        <time>2026-04-13T13:58:46.000Z</time>
      </trkpt>
      <trkpt lat="42.130078" lon="23.149666">
        <ele>594.8</ele>
        <time>2026-04-13T13:58:47.000Z</time>
      </trkpt>
      <trkpt lat="42.130078" lon="23.149666">
        <ele>594.8</ele>
        <time>2026-04-13T13:58:48.000Z</time>
      </trkpt>
      <trkpt lat="42.130078" lon="23.149666">
        <ele>594.8</ele>
        <time>2026-04-13T13:58:49.000Z</time>
      </trkpt>
      <trkpt lat="42.130078" lon="23.149666">
        <ele>595.3</ele>
        <time>2026-04-13T13:58:50.000Z</time>
      </trkpt>
      <trkpt lat="42.130078" lon="23.149666">
        <ele>595.3</ele>
        <time>2026-04-13T13:58:51.000Z</time>
      </trkpt>
      <trkpt lat="42.130078" lon="23.149666">
        <ele>595.3</ele>
        <time>2026-04-13T13:58:52.000Z</time>
      </trkpt>
      <trkpt lat="42.130078" lon="23.149666">
        <ele>595.3</ele>
        <time>2026-04-13T13:58:53.000Z</time>
      </trkpt>
      <trkpt lat="42.130078" lon="23.149666">
        <ele>595.3</ele>
        <time>2026-04-13T13:58:54.000Z</time>
      </trkpt>
      <trkpt lat="42.130079" lon="23.149666">
        <ele>595.4</ele>
        <time>2026-04-13T13:58:55.000Z</time>
      </trkpt>
      <trkpt lat="42.130079" lon="23.149665">
        <ele>595.4</ele>
        <time>2026-04-13T13:58:56.000Z</time>
      </trkpt>
      <trkpt lat="42.130079" lon="23.149665">
        <ele>595.4</ele>
        <time>2026-04-13T13:58:57.000Z</time>
      </trkpt>
      <trkpt lat="42.130079" lon="23.149665">
        <ele>595.4</ele>
        <time>2026-04-13T13:58:58.000Z</time>
      </trkpt>
      <trkpt lat="42.130079" lon="23.149665">
        <ele>595.4</ele>
        <time>2026-04-13T13:58:59.000Z</time>
      </trkpt>
      <trkpt lat="42.130079" lon="23.149665">
        <ele>595.3</ele>
        <time>2026-04-13T13:59:00.000Z</time>
      </trkpt>
      <trkpt lat="42.130079" lon="23.149665">
        <ele>595.3</ele>
        <time>2026-04-13T13:59:01.000Z</time>
      </trkpt>
      <trkpt lat="42.130078" lon="23.149668">
        <ele>595.3</ele>
        <time>2026-04-13T13:59:02.000Z</time>
      </trkpt>
      <trkpt lat="42.130078" lon="23.149671">
        <ele>595.3</ele>
        <time>2026-04-13T13:59:03.000Z</time>
      </trkpt>
      <trkpt lat="42.130078" lon="23.149675">
        <ele>595.3</ele>
        <time>2026-04-13T13:59:04.000Z</time>
      </trkpt>
      <trkpt lat="42.130079" lon="23.149681">
        <ele>595.2</ele>
        <time>2026-04-13T13:59:05.000Z</time>
      </trkpt>
      <trkpt lat="42.130081" lon="23.149686">
        <ele>595.2</ele>
        <time>2026-04-13T13:59:06.000Z</time>
      </trkpt>
      <trkpt lat="42.130083" lon="23.149692">
        <ele>595.2</ele>
        <time>2026-04-13T13:59:07.000Z</time>
      </trkpt>
      <trkpt lat="42.130085" lon="23.149697">
        <ele>595.2</ele>
        <time>2026-04-13T13:59:08.000Z</time>
      </trkpt>
      <trkpt lat="42.130087" lon="23.149701">
        <ele>595.2</ele>
        <time>2026-04-13T13:59:09.000Z</time>
      </trkpt>
      <trkpt lat="42.130089" lon="23.149705">
        <ele>595.2</ele>
        <time>2026-04-13T13:59:10.000Z</time>
      </trkpt>
      <trkpt lat="42.13009" lon="23.149707">
        <ele>595.2</ele>
        <time>2026-04-13T13:59:11.000Z</time>
      </trkpt>
      <trkpt lat="42.130092" lon="23.149707">
        <ele>595.2</ele>
        <time>2026-04-13T13:59:12.000Z</time>
      </trkpt>
      <trkpt lat="42.130094" lon="23.149707">
        <ele>595.2</ele>
        <time>2026-04-13T13:59:13.000Z</time>
      </trkpt>
      <trkpt lat="42.130095" lon="23.149707">
        <ele>595.2</ele>
        <time>2026-04-13T13:59:14.000Z</time>
      </trkpt>
      <trkpt lat="42.130097" lon="23.149706">
        <ele>595.6</ele>
        <time>2026-04-13T13:59:15.000Z</time>
      </trkpt>
      <trkpt lat="42.130097" lon="23.149705">
        <ele>595.6</ele>
        <time>2026-04-13T13:59:16.000Z</time>
      </trkpt>
      <trkpt lat="42.130098" lon="23.149705">
        <ele>595.6</ele>
        <time>2026-04-13T13:59:17.000Z</time>
      </trkpt>
      <trkpt lat="42.130098" lon="23.149704">
        <ele>595.6</ele>
        <time>2026-04-13T13:59:18.000Z</time>
      </trkpt>
      <trkpt lat="42.130098" lon="23.149704">
        <ele>595.6</ele>
        <time>2026-04-13T13:59:19.000Z</time>
      </trkpt>
      <trkpt lat="42.130098" lon="23.149704">
        <ele>596.2</ele>
        <time>2026-04-13T13:59:20.000Z</time>
      </trkpt>
      <trkpt lat="42.130097" lon="23.149704">
        <ele>596.2</ele>
        <time>2026-04-13T13:59:21.000Z</time>
      </trkpt>
      <trkpt lat="42.130097" lon="23.149705">
        <ele>596.2</ele>
        <time>2026-04-13T13:59:22.000Z</time>
      </trkpt>
      <trkpt lat="42.130095" lon="23.149705">
        <ele>596.2</ele>
        <time>2026-04-13T13:59:23.000Z</time>
      </trkpt>
      <trkpt lat="42.130093" lon="23.149707">
        <ele>596.2</ele>
        <time>2026-04-13T13:59:24.000Z</time>
      </trkpt>
      <trkpt lat="42.130089" lon="23.149709">
        <ele>596.6</ele>
        <time>2026-04-13T13:59:25.000Z</time>
      </trkpt>
      <trkpt lat="42.130085" lon="23.149711">
        <ele>596.6</ele>
        <time>2026-04-13T13:59:26.000Z</time>
      </trkpt>
      <trkpt lat="42.13008" lon="23.149714">
        <ele>596.6</ele>
        <time>2026-04-13T13:59:27.000Z</time>
      </trkpt>
      <trkpt lat="42.130075" lon="23.149717">
        <ele>596.6</ele>
        <time>2026-04-13T13:59:28.000Z</time>
      </trkpt>
      <trkpt lat="42.130069" lon="23.149721">
        <ele>596.6</ele>
        <time>2026-04-13T13:59:29.000Z</time>
      </trkpt>
      <trkpt lat="42.130064" lon="23.149725">
        <ele>596.9</ele>
        <time>2026-04-13T13:59:30.000Z</time>
      </trkpt>
      <trkpt lat="42.130059" lon="23.14973">
        <ele>596.9</ele>
        <time>2026-04-13T13:59:31.000Z</time>
      </trkpt>
      <trkpt lat="42.130054" lon="23.149736">
        <ele>596.9</ele>
        <time>2026-04-13T13:59:32.000Z</time>
      </trkpt>
      <trkpt lat="42.130049" lon="23.149741">
        <ele>596.9</ele>
        <time>2026-04-13T13:59:33.000Z</time>
      </trkpt>
      <trkpt lat="42.130043" lon="23.149746">
        <ele>596.9</ele>
        <time>2026-04-13T13:59:34.000Z</time>
      </trkpt>
      <trkpt lat="42.130038" lon="23.149752">
        <ele>597.2</ele>
        <time>2026-04-13T13:59:35.000Z</time>
      </trkpt>
      <trkpt lat="42.130032" lon="23.149758">
        <ele>597.2</ele>
        <time>2026-04-13T13:59:36.000Z</time>
      </trkpt>
      <trkpt lat="42.130026" lon="23.149765">
        <ele>597.2</ele>
        <time>2026-04-13T13:59:37.000Z</time>
      </trkpt>
      <trkpt lat="42.13002" lon="23.14977">
        <ele>597.2</ele>
        <time>2026-04-13T13:59:38.000Z</time>
      </trkpt>
      <trkpt lat="42.130012" lon="23.149774">
        <ele>597.2</ele>
        <time>2026-04-13T13:59:39.000Z</time>
      </trkpt>
      <trkpt lat="42.130005" lon="23.149777">
        <ele>597.4</ele>
        <time>2026-04-13T13:59:40.000Z</time>
      </trkpt>
      <trkpt lat="42.129996" lon="23.149778">
        <ele>597.4</ele>
        <time>2026-04-13T13:59:41.000Z</time>
      </trkpt>
      <trkpt lat="42.129988" lon="23.149779">
        <ele>597.4</ele>
        <time>2026-04-13T13:59:42.000Z</time>
      </trkpt>
      <trkpt lat="42.12998" lon="23.149778">
        <ele>597.4</ele>
        <time>2026-04-13T13:59:43.000Z</time>
      </trkpt>
      <trkpt lat="42.129972" lon="23.149777">
        <ele>597.4</ele>
        <time>2026-04-13T13:59:44.000Z</time>
      </trkpt>
      <trkpt lat="42.129965" lon="23.149774">
        <ele>598</ele>
        <time>2026-04-13T13:59:45.000Z</time>
      </trkpt>
      <trkpt lat="42.129959" lon="23.149772">
        <ele>598</ele>
        <time>2026-04-13T13:59:46.000Z</time>
      </trkpt>
      <trkpt lat="42.129952" lon="23.149768">
        <ele>598</ele>
        <time>2026-04-13T13:59:47.000Z</time>
      </trkpt>
      <trkpt lat="42.129946" lon="23.149765">
        <ele>598</ele>
        <time>2026-04-13T13:59:48.000Z</time>
      </trkpt>
      <trkpt lat="42.12994" lon="23.149761">
        <ele>598</ele>
        <time>2026-04-13T13:59:49.000Z</time>
      </trkpt>
      <trkpt lat="42.129934" lon="23.149759">
        <ele>598.3</ele>
        <time>2026-04-13T13:59:50.000Z</time>
      </trkpt>
      <trkpt lat="42.129928" lon="23.149758">
        <ele>598.3</ele>
        <time>2026-04-13T13:59:51.000Z</time>
      </trkpt>
      <trkpt lat="42.129922" lon="23.149758">
        <ele>598.3</ele>
        <time>2026-04-13T13:59:52.000Z</time>
      </trkpt>
      <trkpt lat="42.129916" lon="23.14976">
        <ele>598.3</ele>
        <time>2026-04-13T13:59:53.000Z</time>
      </trkpt>
      <trkpt lat="42.129911" lon="23.149763">
        <ele>598.3</ele>
        <time>2026-04-13T13:59:54.000Z</time>
      </trkpt>
      <trkpt lat="42.129905" lon="23.149768">
        <ele>598.3</ele>
        <time>2026-04-13T13:59:55.000Z</time>
      </trkpt>
      <trkpt lat="42.129899" lon="23.149772">
        <ele>598.3</ele>
        <time>2026-04-13T13:59:56.000Z</time>
      </trkpt>
      <trkpt lat="42.129893" lon="23.149775">
        <ele>598.3</ele>
        <time>2026-04-13T13:59:57.000Z</time>
      </trkpt>
      <trkpt lat="42.129887" lon="23.149778">
        <ele>598.3</ele>
        <time>2026-04-13T13:59:58.000Z</time>
      </trkpt>
      <trkpt lat="42.129881" lon="23.14978">
        <ele>598.3</ele>
        <time>2026-04-13T13:59:59.000Z</time>
      </trkpt>
      <trkpt lat="42.129875" lon="23.14978">
        <ele>597.7</ele>
        <time>2026-04-13T14:00:00.000Z</time>
      </trkpt>
      <trkpt lat="42.129869" lon="23.149781">
        <ele>597.7</ele>
        <time>2026-04-13T14:00:01.000Z</time>
      </trkpt>
      <trkpt lat="42.129863" lon="23.149781">
        <ele>597.7</ele>
        <time>2026-04-13T14:00:02.000Z</time>
      </trkpt>
      <trkpt lat="42.129857" lon="23.149782">
        <ele>597.7</ele>
        <time>2026-04-13T14:00:03.000Z</time>
      </trkpt>
      <trkpt lat="42.129852" lon="23.149783">
        <ele>597.7</ele>
        <time>2026-04-13T14:00:04.000Z</time>
      </trkpt>
      <trkpt lat="42.129848" lon="23.149785">
        <ele>597.1</ele>
        <time>2026-04-13T14:00:05.000Z</time>
      </trkpt>
      <trkpt lat="42.129845" lon="23.149786">
        <ele>597.1</ele>
        <time>2026-04-13T14:00:06.000Z</time>
      </trkpt>
      <trkpt lat="42.129842" lon="23.149788">
        <ele>597.1</ele>
        <time>2026-04-13T14:00:07.000Z</time>
      </trkpt>
      <trkpt lat="42.12984" lon="23.14979">
        <ele>597.1</ele>
        <time>2026-04-13T14:00:08.000Z</time>
      </trkpt>
      <trkpt lat="42.129838" lon="23.149791">
        <ele>597.1</ele>
        <time>2026-04-13T14:00:09.000Z</time>
      </trkpt>
      <trkpt lat="42.129837" lon="23.149792">
        <ele>597.1</ele>
        <time>2026-04-13T14:00:10.000Z</time>
      </trkpt>
      <trkpt lat="42.129836" lon="23.149793">
        <ele>597.1</ele>
        <time>2026-04-13T14:00:11.000Z</time>
      </trkpt>
      <trkpt lat="42.129836" lon="23.149793">
        <ele>597.1</ele>
        <time>2026-04-13T14:00:12.000Z</time>
      </trkpt>
      <trkpt lat="42.129835" lon="23.149793">
        <ele>597.1</ele>
        <time>2026-04-13T14:00:13.000Z</time>
      </trkpt>
      <trkpt lat="42.129835" lon="23.149793">
        <ele>597.1</ele>
        <time>2026-04-13T14:00:14.000Z</time>
      </trkpt>
      <trkpt lat="42.129835" lon="23.149794">
        <ele>597.3</ele>
        <time>2026-04-13T14:00:15.000Z</time>
      </trkpt>
      <trkpt lat="42.129835" lon="23.149794">
        <ele>597.3</ele>
        <time>2026-04-13T14:00:16.000Z</time>
      </trkpt>
      <trkpt lat="42.129834" lon="23.149794">
        <ele>597.3</ele>
        <time>2026-04-13T14:00:17.000Z</time>
      </trkpt>
      <trkpt lat="42.129833" lon="23.149795">
        <ele>597.3</ele>
        <time>2026-04-13T14:00:18.000Z</time>
      </trkpt>
      <trkpt lat="42.129831" lon="23.149795">
        <ele>597.3</ele>
        <time>2026-04-13T14:00:19.000Z</time>
      </trkpt>
      <trkpt lat="42.129829" lon="23.149796">
        <ele>597.8</ele>
        <time>2026-04-13T14:00:20.000Z</time>
      </trkpt>
      <trkpt lat="42.129827" lon="23.149795">
        <ele>597.8</ele>
        <time>2026-04-13T14:00:21.000Z</time>
      </trkpt>
      <trkpt lat="42.129824" lon="23.149794">
        <ele>597.8</ele>
        <time>2026-04-13T14:00:22.000Z</time>
      </trkpt>
      <trkpt lat="42.129822" lon="23.149792">
        <ele>597.8</ele>
        <time>2026-04-13T14:00:23.000Z</time>
      </trkpt>
      <trkpt lat="42.12982" lon="23.14979">
        <ele>597.8</ele>
        <time>2026-04-13T14:00:24.000Z</time>
      </trkpt>
      <trkpt lat="42.129818" lon="23.149788">
        <ele>597.9</ele>
        <time>2026-04-13T14:00:25.000Z</time>
      </trkpt>
      <trkpt lat="42.129816" lon="23.149786">
        <ele>597.9</ele>
        <time>2026-04-13T14:00:26.000Z</time>
      </trkpt>
      <trkpt lat="42.129813" lon="23.149783">
        <ele>597.9</ele>
        <time>2026-04-13T14:00:27.000Z</time>
      </trkpt>
      <trkpt lat="42.12981" lon="23.14978">
        <ele>597.9</ele>
        <time>2026-04-13T14:00:28.000Z</time>
      </trkpt>
      <trkpt lat="42.129807" lon="23.149777">
        <ele>597.9</ele>
        <time>2026-04-13T14:00:29.000Z</time>
      </trkpt>
      <trkpt lat="42.129804" lon="23.149774">
        <ele>598.2</ele>
        <time>2026-04-13T14:00:30.000Z</time>
      </trkpt>
      <trkpt lat="42.129801" lon="23.14977">
        <ele>598.2</ele>
        <time>2026-04-13T14:00:31.000Z</time>
      </trkpt>
      <trkpt lat="42.129798" lon="23.149766">
        <ele>598.2</ele>
        <time>2026-04-13T14:00:32.000Z</time>
      </trkpt>
      <trkpt lat="42.129796" lon="23.149762">
        <ele>598.2</ele>
        <time>2026-04-13T14:00:33.000Z</time>
      </trkpt>
      <trkpt lat="42.129793" lon="23.149757">
        <ele>598.2</ele>
        <time>2026-04-13T14:00:34.000Z</time>
      </trkpt>
      <trkpt lat="42.12979" lon="23.149752">
        <ele>599.1</ele>
        <time>2026-04-13T14:00:35.000Z</time>
      </trkpt>
      <trkpt lat="42.129788" lon="23.149748">
        <ele>599.1</ele>
        <time>2026-04-13T14:00:36.000Z</time>
      </trkpt>
      <trkpt lat="42.129786" lon="23.149744">
        <ele>599.1</ele>
        <time>2026-04-13T14:00:37.000Z</time>
      </trkpt>
      <trkpt lat="42.129785" lon="23.149741">
        <ele>599.1</ele>
        <time>2026-04-13T14:00:38.000Z</time>
      </trkpt>
      <trkpt lat="42.129784" lon="23.149739">
        <ele>599.1</ele>
        <time>2026-04-13T14:00:39.000Z</time>
      </trkpt>
      <trkpt lat="42.129784" lon="23.149739">
        <ele>599.8</ele>
        <time>2026-04-13T14:00:40.000Z</time>
      </trkpt>
      <trkpt lat="42.129784" lon="23.149739">
        <ele>599.8</ele>
        <time>2026-04-13T14:00:41.000Z</time>
      </trkpt>
      <trkpt lat="42.129783" lon="23.149739">
        <ele>599.8</ele>
        <time>2026-04-13T14:00:42.000Z</time>
      </trkpt>
      <trkpt lat="42.129782" lon="23.14974">
        <ele>599.8</ele>
        <time>2026-04-13T14:00:43.000Z</time>
      </trkpt>
      <trkpt lat="42.129781" lon="23.149741">
        <ele>599.8</ele>
        <time>2026-04-13T14:00:44.000Z</time>
      </trkpt>
      <trkpt lat="42.12978" lon="23.149742">
        <ele>601.3</ele>
        <time>2026-04-13T14:00:45.000Z</time>
      </trkpt>
      <trkpt lat="42.12978" lon="23.149743">
        <ele>601.3</ele>
        <time>2026-04-13T14:00:46.000Z</time>
      </trkpt>
      <trkpt lat="42.12978" lon="23.149744">
        <ele>601.3</ele>
        <time>2026-04-13T14:00:47.000Z</time>
      </trkpt>
      <trkpt lat="42.12978" lon="23.149745">
        <ele>601.3</ele>
        <time>2026-04-13T14:00:48.000Z</time>
      </trkpt>
      <trkpt lat="42.129781" lon="23.149746">
        <ele>601.3</ele>
        <time>2026-04-13T14:00:49.000Z</time>
      </trkpt>
      <trkpt lat="42.129782" lon="23.149746">
        <ele>602.4</ele>
        <time>2026-04-13T14:00:50.000Z</time>
      </trkpt>
      <trkpt lat="42.129783" lon="23.149746">
        <ele>602.4</ele>
        <time>2026-04-13T14:00:51.000Z</time>
      </trkpt>
      <trkpt lat="42.129783" lon="23.149746">
        <ele>602.4</ele>
        <time>2026-04-13T14:00:52.000Z</time>
      </trkpt>
      <trkpt lat="42.129783" lon="23.149747">
        <ele>602.4</ele>
        <time>2026-04-13T14:00:53.000Z</time>
      </trkpt>
      <trkpt lat="42.129783" lon="23.149747">
        <ele>602.4</ele>
        <time>2026-04-13T14:00:54.000Z</time>
      </trkpt>
      <trkpt lat="42.129783" lon="23.149748">
        <ele>602.7</ele>
        <time>2026-04-13T14:00:55.000Z</time>
      </trkpt>
      <trkpt lat="42.129783" lon="23.149748">
        <ele>602.7</ele>
        <time>2026-04-13T14:00:56.000Z</time>
      </trkpt>
      <trkpt lat="42.129783" lon="23.149747">
        <ele>602.7</ele>
        <time>2026-04-13T14:00:57.000Z</time>
      </trkpt>
      <trkpt lat="42.129783" lon="23.149746">
        <ele>602.7</ele>
        <time>2026-04-13T14:00:58.000Z</time>
      </trkpt>
      <trkpt lat="42.129783" lon="23.149746">
        <ele>602.7</ele>
        <time>2026-04-13T14:00:59.000Z</time>
      </trkpt>
      <trkpt lat="42.129783" lon="23.149746">
        <ele>602.9</ele>
        <time>2026-04-13T14:01:00.000Z</time>
      </trkpt>
      <trkpt lat="42.129783" lon="23.149746">
        <ele>602.9</ele>
        <time>2026-04-13T14:01:01.000Z</time>
      </trkpt>
      <trkpt lat="42.129783" lon="23.149747">
        <ele>602.9</ele>
        <time>2026-04-13T14:01:02.000Z</time>
      </trkpt>
      <trkpt lat="42.129783" lon="23.149747">
        <ele>602.9</ele>
        <time>2026-04-13T14:01:03.000Z</time>
      </trkpt>
      <trkpt lat="42.129783" lon="23.149748">
        <ele>602.9</ele>
        <time>2026-04-13T14:01:04.000Z</time>
      </trkpt>
      <trkpt lat="42.129784" lon="23.149749">
        <ele>602.8</ele>
        <time>2026-04-13T14:01:05.000Z</time>
      </trkpt>
      <trkpt lat="42.129784" lon="23.14975">
        <ele>602.8</ele>
        <time>2026-04-13T14:01:06.000Z</time>
      </trkpt>
      <trkpt lat="42.129784" lon="23.14975">
        <ele>602.8</ele>
        <time>2026-04-13T14:01:07.000Z</time>
      </trkpt>
      <trkpt lat="42.129784" lon="23.149751">
        <ele>602.8</ele>
        <time>2026-04-13T14:01:08.000Z</time>
      </trkpt>
      <trkpt lat="42.129784" lon="23.149752">
        <ele>602.8</ele>
        <time>2026-04-13T14:01:09.000Z</time>
      </trkpt>
      <trkpt lat="42.129785" lon="23.149753">
        <ele>602.8</ele>
        <time>2026-04-13T14:01:10.000Z</time>
      </trkpt>
      <trkpt lat="42.129785" lon="23.149754">
        <ele>602.8</ele>
        <time>2026-04-13T14:01:11.000Z</time>
      </trkpt>
      <trkpt lat="42.129785" lon="23.149754">
        <ele>602.8</ele>
        <time>2026-04-13T14:01:12.000Z</time>
      </trkpt>
      <trkpt lat="42.129785" lon="23.149755">
        <ele>602.8</ele>
        <time>2026-04-13T14:01:13.000Z</time>
      </trkpt>
      <trkpt lat="42.129785" lon="23.149756">
        <ele>602.8</ele>
        <time>2026-04-13T14:01:14.000Z</time>
      </trkpt>
      <trkpt lat="42.129785" lon="23.149756">
        <ele>602.7</ele>
        <time>2026-04-13T14:01:15.000Z</time>
      </trkpt>
      <trkpt lat="42.129785" lon="23.149757">
        <ele>602.7</ele>
        <time>2026-04-13T14:01:16.000Z</time>
      </trkpt>
      <trkpt lat="42.129786" lon="23.149758">
        <ele>602.7</ele>
        <time>2026-04-13T14:01:17.000Z</time>
      </trkpt>
      <trkpt lat="42.129786" lon="23.149758">
        <ele>602.7</ele>
        <time>2026-04-13T14:01:18.000Z</time>
      </trkpt>
      <trkpt lat="42.129786" lon="23.149759">
        <ele>602.7</ele>
        <time>2026-04-13T14:01:19.000Z</time>
      </trkpt>
      <trkpt lat="42.129786" lon="23.149759">
        <ele>602.7</ele>
        <time>2026-04-13T14:01:20.000Z</time>
      </trkpt>
      <trkpt lat="42.129786" lon="23.14976">
        <ele>602.7</ele>
        <time>2026-04-13T14:01:21.000Z</time>
      </trkpt>
      <trkpt lat="42.129786" lon="23.14976">
        <ele>602.7</ele>
        <time>2026-04-13T14:01:22.000Z</time>
      </trkpt>
      <trkpt lat="42.129786" lon="23.14976">
        <ele>602.7</ele>
        <time>2026-04-13T14:01:23.000Z</time>
      </trkpt>
      <trkpt lat="42.129786" lon="23.149761">
        <ele>602.7</ele>
        <time>2026-04-13T14:01:24.000Z</time>
      </trkpt>
      <trkpt lat="42.129786" lon="23.149761">
        <ele>602.6</ele>
        <time>2026-04-13T14:01:25.000Z</time>
      </trkpt>
      <trkpt lat="42.129786" lon="23.14976">
        <ele>602.6</ele>
        <time>2026-04-13T14:01:26.000Z</time>
      </trkpt>
      <trkpt lat="42.129786" lon="23.14976">
        <ele>602.6</ele>
        <time>2026-04-13T14:01:27.000Z</time>
      </trkpt>
      <trkpt lat="42.129786" lon="23.14976">
        <ele>602.6</ele>
        <time>2026-04-13T14:01:28.000Z</time>
      </trkpt>
      <trkpt lat="42.129786" lon="23.14976">
        <ele>602.6</ele>
        <time>2026-04-13T14:01:29.000Z</time>
      </trkpt>
      <trkpt lat="42.129786" lon="23.14976">
        <ele>602.5</ele>
        <time>2026-04-13T14:01:30.000Z</time>
      </trkpt>
      <trkpt lat="42.129786" lon="23.149761">
        <ele>602.5</ele>
        <time>2026-04-13T14:01:31.000Z</time>
      </trkpt>
      <trkpt lat="42.129786" lon="23.149763">
        <ele>602.5</ele>
        <time>2026-04-13T14:01:32.000Z</time>
      </trkpt>
      <trkpt lat="42.129785" lon="23.149765">
        <ele>602.5</ele>
        <time>2026-04-13T14:01:33.000Z</time>
      </trkpt>
      <trkpt lat="42.129783" lon="23.149768">
        <ele>602.5</ele>
        <time>2026-04-13T14:01:34.000Z</time>
      </trkpt>
      <trkpt lat="42.129781" lon="23.149772">
        <ele>602.4</ele>
        <time>2026-04-13T14:01:35.000Z</time>
      </trkpt>
      <trkpt lat="42.129778" lon="23.149776">
        <ele>602.4</ele>
        <time>2026-04-13T14:01:36.000Z</time>
      </trkpt>
      <trkpt lat="42.129773" lon="23.14978">
        <ele>602.4</ele>
        <time>2026-04-13T14:01:37.000Z</time>
      </trkpt>
      <trkpt lat="42.129768" lon="23.149785">
        <ele>602.4</ele>
        <time>2026-04-13T14:01:38.000Z</time>
      </trkpt>
      <trkpt lat="42.129762" lon="23.14979">
        <ele>602.4</ele>
        <time>2026-04-13T14:01:39.000Z</time>
      </trkpt>
      <trkpt lat="42.129755" lon="23.149795">
        <ele>602.3</ele>
        <time>2026-04-13T14:01:40.000Z</time>
      </trkpt>
      <trkpt lat="42.129749" lon="23.149799">
        <ele>602.3</ele>
        <time>2026-04-13T14:01:41.000Z</time>
      </trkpt>
      <trkpt lat="42.129743" lon="23.149803">
        <ele>602.3</ele>
        <time>2026-04-13T14:01:42.000Z</time>
      </trkpt>
      <trkpt lat="42.129738" lon="23.149808">
        <ele>602.3</ele>
        <time>2026-04-13T14:01:43.000Z</time>
      </trkpt>
      <trkpt lat="42.129732" lon="23.149812">
        <ele>602.3</ele>
        <time>2026-04-13T14:01:44.000Z</time>
      </trkpt>
      <trkpt lat="42.129727" lon="23.149817">
        <ele>602.1</ele>
        <time>2026-04-13T14:01:45.000Z</time>
      </trkpt>
      <trkpt lat="42.129723" lon="23.149823">
        <ele>602.1</ele>
        <time>2026-04-13T14:01:46.000Z</time>
      </trkpt>
      <trkpt lat="42.129719" lon="23.149826">
        <ele>602.1</ele>
        <time>2026-04-13T14:01:47.000Z</time>
      </trkpt>
      <trkpt lat="42.129715" lon="23.149828">
        <ele>602.1</ele>
        <time>2026-04-13T14:01:48.000Z</time>
      </trkpt>
      <trkpt lat="42.129712" lon="23.149827">
        <ele>602.1</ele>
        <time>2026-04-13T14:01:49.000Z</time>
      </trkpt>
      <trkpt lat="42.129709" lon="23.149824">
        <ele>601.8</ele>
        <time>2026-04-13T14:01:50.000Z</time>
      </trkpt>
      <trkpt lat="42.129707" lon="23.149818">
        <ele>601.8</ele>
        <time>2026-04-13T14:01:51.000Z</time>
      </trkpt>
      <trkpt lat="42.129706" lon="23.149813">
        <ele>601.8</ele>
        <time>2026-04-13T14:01:52.000Z</time>
      </trkpt>
      <trkpt lat="42.129705" lon="23.149807">
        <ele>601.8</ele>
        <time>2026-04-13T14:01:53.000Z</time>
      </trkpt>
      <trkpt lat="42.129704" lon="23.149799">
        <ele>601.8</ele>
        <time>2026-04-13T14:01:54.000Z</time>
      </trkpt>
      <trkpt lat="42.129704" lon="23.149792">
        <ele>601.8</ele>
        <time>2026-04-13T14:01:55.000Z</time>
      </trkpt>
      <trkpt lat="42.129702" lon="23.149786">
        <ele>601.8</ele>
        <time>2026-04-13T14:01:56.000Z</time>
      </trkpt>
      <trkpt lat="42.129699" lon="23.149779">
        <ele>601.8</ele>
        <time>2026-04-13T14:01:57.000Z</time>
      </trkpt>
      <trkpt lat="42.129695" lon="23.149774">
        <ele>601.8</ele>
        <time>2026-04-13T14:01:58.000Z</time>
      </trkpt>
      <trkpt lat="42.12969" lon="23.14977">
        <ele>601.8</ele>
        <time>2026-04-13T14:01:59.000Z</time>
      </trkpt>
      <trkpt lat="42.129684" lon="23.149767">
        <ele>602</ele>
        <time>2026-04-13T14:02:00.000Z</time>
      </trkpt>
      <trkpt lat="42.129677" lon="23.149763">
        <ele>602</ele>
        <time>2026-04-13T14:02:01.000Z</time>
      </trkpt>
      <trkpt lat="42.129671" lon="23.14976">
        <ele>602</ele>
        <time>2026-04-13T14:02:02.000Z</time>
      </trkpt>
      <trkpt lat="42.129665" lon="23.149757">
        <ele>602</ele>
        <time>2026-04-13T14:02:03.000Z</time>
      </trkpt>
      <trkpt lat="42.12966" lon="23.149756">
        <ele>602</ele>
        <time>2026-04-13T14:02:04.000Z</time>
      </trkpt>
      <trkpt lat="42.129656" lon="23.149755">
        <ele>602.7</ele>
        <time>2026-04-13T14:02:05.000Z</time>
      </trkpt>
      <trkpt lat="42.129653" lon="23.149755">
        <ele>602.7</ele>
        <time>2026-04-13T14:02:06.000Z</time>
      </trkpt>
      <trkpt lat="42.129651" lon="23.149755">
        <ele>602.7</ele>
        <time>2026-04-13T14:02:07.000Z</time>
      </trkpt>
      <trkpt lat="42.129649" lon="23.149755">
        <ele>602.7</ele>
        <time>2026-04-13T14:02:08.000Z</time>
      </trkpt>
      <trkpt lat="42.129648" lon="23.149755">
        <ele>602.7</ele>
        <time>2026-04-13T14:02:09.000Z</time>
      </trkpt>
      <trkpt lat="42.129647" lon="23.149755">
        <ele>602.9</ele>
        <time>2026-04-13T14:02:10.000Z</time>
      </trkpt>
      <trkpt lat="42.129645" lon="23.149756">
        <ele>602.9</ele>
        <time>2026-04-13T14:02:11.000Z</time>
      </trkpt>
      <trkpt lat="42.129644" lon="23.149756">
        <ele>602.9</ele>
        <time>2026-04-13T14:02:12.000Z</time>
      </trkpt>
      <trkpt lat="42.129643" lon="23.149756">
        <ele>602.9</ele>
        <time>2026-04-13T14:02:13.000Z</time>
      </trkpt>
      <trkpt lat="42.129641" lon="23.149757">
        <ele>602.9</ele>
        <time>2026-04-13T14:02:14.000Z</time>
      </trkpt>
      <trkpt lat="42.12964" lon="23.149757">
        <ele>603.2</ele>
        <time>2026-04-13T14:02:15.000Z</time>
      </trkpt>
      <trkpt lat="42.12964" lon="23.149758">
        <ele>603.2</ele>
        <time>2026-04-13T14:02:16.000Z</time>
      </trkpt>
      <trkpt lat="42.129639" lon="23.149758">
        <ele>603.2</ele>
        <time>2026-04-13T14:02:17.000Z</time>
      </trkpt>
      <trkpt lat="42.129639" lon="23.149758">
        <ele>603.2</ele>
        <time>2026-04-13T14:02:18.000Z</time>
      </trkpt>
      <trkpt lat="42.129639" lon="23.149758">
        <ele>603.2</ele>
        <time>2026-04-13T14:02:19.000Z</time>
      </trkpt>
      <trkpt lat="42.129639" lon="23.149758">
        <ele>603.2</ele>
        <time>2026-04-13T14:02:20.000Z</time>
      </trkpt>
      <trkpt lat="42.129639" lon="23.149757">
        <ele>603.2</ele>
        <time>2026-04-13T14:02:21.000Z</time>
      </trkpt>
      <trkpt lat="42.12964" lon="23.149757">
        <ele>603.2</ele>
        <time>2026-04-13T14:02:22.000Z</time>
      </trkpt>
      <trkpt lat="42.129639" lon="23.149756">
        <ele>603.2</ele>
        <time>2026-04-13T14:02:23.000Z</time>
      </trkpt>
      <trkpt lat="42.129639" lon="23.149756">
        <ele>603.2</ele>
        <time>2026-04-13T14:02:24.000Z</time>
      </trkpt>
      <trkpt lat="42.129639" lon="23.149756">
        <ele>603.2</ele>
        <time>2026-04-13T14:02:25.000Z</time>
      </trkpt>
      <trkpt lat="42.129638" lon="23.149757">
        <ele>603.2</ele>
        <time>2026-04-13T14:02:26.000Z</time>
      </trkpt>
      <trkpt lat="42.129638" lon="23.149758">
        <ele>603.2</ele>
        <time>2026-04-13T14:02:27.000Z</time>
      </trkpt>
      <trkpt lat="42.129638" lon="23.149758">
        <ele>603.2</ele>
        <time>2026-04-13T14:02:28.000Z</time>
      </trkpt>
      <trkpt lat="42.129638" lon="23.149759">
        <ele>603.2</ele>
        <time>2026-04-13T14:02:29.000Z</time>
      </trkpt>
      <trkpt lat="42.129638" lon="23.149759">
        <ele>603.2</ele>
        <time>2026-04-13T14:02:30.000Z</time>
      </trkpt>
      <trkpt lat="42.129637" lon="23.149759">
        <ele>603.2</ele>
        <time>2026-04-13T14:02:31.000Z</time>
      </trkpt>
      <trkpt lat="42.129637" lon="23.14976">
        <ele>603.2</ele>
        <time>2026-04-13T14:02:32.000Z</time>
      </trkpt>
      <trkpt lat="42.129635" lon="23.149761">
        <ele>603.2</ele>
        <time>2026-04-13T14:02:33.000Z</time>
      </trkpt>
      <trkpt lat="42.129633" lon="23.149763">
        <ele>603.2</ele>
        <time>2026-04-13T14:02:34.000Z</time>
      </trkpt>
      <trkpt lat="42.129632" lon="23.149767">
        <ele>603.3</ele>
        <time>2026-04-13T14:02:35.000Z</time>
      </trkpt>
      <trkpt lat="42.129631" lon="23.149773">
        <ele>603.3</ele>
        <time>2026-04-13T14:02:36.000Z</time>
      </trkpt>
      <trkpt lat="42.129632" lon="23.14978">
        <ele>603.3</ele>
        <time>2026-04-13T14:02:37.000Z</time>
      </trkpt>
      <trkpt lat="42.129633" lon="23.149787">
        <ele>603.3</ele>
        <time>2026-04-13T14:02:38.000Z</time>
      </trkpt>
      <trkpt lat="42.129637" lon="23.149794">
        <ele>603.3</ele>
        <time>2026-04-13T14:02:39.000Z</time>
      </trkpt>
      <trkpt lat="42.12964" lon="23.149801">
        <ele>603.3</ele>
        <time>2026-04-13T14:02:40.000Z</time>
      </trkpt>
      <trkpt lat="42.129643" lon="23.149807">
        <ele>603.3</ele>
        <time>2026-04-13T14:02:41.000Z</time>
      </trkpt>
      <trkpt lat="42.129646" lon="23.149813">
        <ele>603.3</ele>
        <time>2026-04-13T14:02:42.000Z</time>
      </trkpt>
      <trkpt lat="42.129648" lon="23.14982">
        <ele>603.3</ele>
        <time>2026-04-13T14:02:43.000Z</time>
      </trkpt>
      <trkpt lat="42.12965" lon="23.149827">
        <ele>603.3</ele>
        <time>2026-04-13T14:02:44.000Z</time>
      </trkpt>
      <trkpt lat="42.129651" lon="23.149834">
        <ele>603.4</ele>
        <time>2026-04-13T14:02:45.000Z</time>
      </trkpt>
      <trkpt lat="42.129652" lon="23.149842">
        <ele>603.4</ele>
        <time>2026-04-13T14:02:46.000Z</time>
      </trkpt>
      <trkpt lat="42.129652" lon="23.149849">
        <ele>603.4</ele>
        <time>2026-04-13T14:02:47.000Z</time>
      </trkpt>
      <trkpt lat="42.129653" lon="23.149855">
        <ele>603.4</ele>
        <time>2026-04-13T14:02:48.000Z</time>
      </trkpt>
      <trkpt lat="42.129654" lon="23.149862">
        <ele>603.4</ele>
        <time>2026-04-13T14:02:49.000Z</time>
      </trkpt>
      <trkpt lat="42.129655" lon="23.149869">
        <ele>603.6</ele>
        <time>2026-04-13T14:02:50.000Z</time>
      </trkpt>
      <trkpt lat="42.129656" lon="23.149875">
        <ele>603.6</ele>
        <time>2026-04-13T14:02:51.000Z</time>
      </trkpt>
      <trkpt lat="42.129657" lon="23.14988">
        <ele>603.6</ele>
        <time>2026-04-13T14:02:52.000Z</time>
      </trkpt>
      <trkpt lat="42.129658" lon="23.149884">
        <ele>603.6</ele>
        <time>2026-04-13T14:02:53.000Z</time>
      </trkpt>
      <trkpt lat="42.129658" lon="23.149886">
        <ele>603.6</ele>
        <time>2026-04-13T14:02:54.000Z</time>
      </trkpt>
      <trkpt lat="42.129659" lon="23.149887">
        <ele>603.7</ele>
        <time>2026-04-13T14:02:55.000Z</time>
      </trkpt>
      <trkpt lat="42.129659" lon="23.149888">
        <ele>603.7</ele>
        <time>2026-04-13T14:02:56.000Z</time>
      </trkpt>
      <trkpt lat="42.129659" lon="23.149888">
        <ele>603.7</ele>
        <time>2026-04-13T14:02:57.000Z</time>
      </trkpt>
      <trkpt lat="42.129658" lon="23.149888">
        <ele>603.7</ele>
        <time>2026-04-13T14:02:58.000Z</time>
      </trkpt>
      <trkpt lat="42.129658" lon="23.149888">
        <ele>603.7</ele>
        <time>2026-04-13T14:02:59.000Z</time>
      </trkpt>
      <trkpt lat="42.129658" lon="23.149889">
        <ele>603.9</ele>
        <time>2026-04-13T14:03:00.000Z</time>
      </trkpt>
      <trkpt lat="42.129657" lon="23.149889">
        <ele>603.9</ele>
        <time>2026-04-13T14:03:01.000Z</time>
      </trkpt>
      <trkpt lat="42.129656" lon="23.149891">
        <ele>603.9</ele>
        <time>2026-04-13T14:03:02.000Z</time>
      </trkpt>
      <trkpt lat="42.129655" lon="23.149892">
        <ele>603.9</ele>
        <time>2026-04-13T14:03:03.000Z</time>
      </trkpt>
      <trkpt lat="42.129653" lon="23.149894">
        <ele>603.9</ele>
        <time>2026-04-13T14:03:04.000Z</time>
      </trkpt>
      <trkpt lat="42.12965" lon="23.149895">
        <ele>604</ele>
        <time>2026-04-13T14:03:05.000Z</time>
      </trkpt>
      <trkpt lat="42.129648" lon="23.149896">
        <ele>604</ele>
        <time>2026-04-13T14:03:06.000Z</time>
      </trkpt>
      <trkpt lat="42.129644" lon="23.149896">
        <ele>604</ele>
        <time>2026-04-13T14:03:07.000Z</time>
      </trkpt>
      <trkpt lat="42.129642" lon="23.149895">
        <ele>604</ele>
        <time>2026-04-13T14:03:08.000Z</time>
      </trkpt>
      <trkpt lat="42.12964" lon="23.149894">
        <ele>604</ele>
        <time>2026-04-13T14:03:09.000Z</time>
      </trkpt>
      <trkpt lat="42.129638" lon="23.149894">
        <ele>604</ele>
        <time>2026-04-13T14:03:10.000Z</time>
      </trkpt>
      <trkpt lat="42.129636" lon="23.149894">
        <ele>604</ele>
        <time>2026-04-13T14:03:11.000Z</time>
      </trkpt>
      <trkpt lat="42.129634" lon="23.149895">
        <ele>604</ele>
        <time>2026-04-13T14:03:12.000Z</time>
      </trkpt>
      <trkpt lat="42.129633" lon="23.149898">
        <ele>604</ele>
        <time>2026-04-13T14:03:13.000Z</time>
      </trkpt>
      <trkpt lat="42.129631" lon="23.149902">
        <ele>604</ele>
        <time>2026-04-13T14:03:14.000Z</time>
      </trkpt>
      <trkpt lat="42.129629" lon="23.149908">
        <ele>603.9</ele>
        <time>2026-04-13T14:03:15.000Z</time>
      </trkpt>
      <trkpt lat="42.129627" lon="23.149916">
        <ele>603.9</ele>
        <time>2026-04-13T14:03:16.000Z</time>
      </trkpt>
      <trkpt lat="42.129625" lon="23.149926">
        <ele>603.9</ele>
        <time>2026-04-13T14:03:17.000Z</time>
      </trkpt>
      <trkpt lat="42.129624" lon="23.149936">
        <ele>603.9</ele>
        <time>2026-04-13T14:03:18.000Z</time>
      </trkpt>
      <trkpt lat="42.129622" lon="23.149947">
        <ele>603.9</ele>
        <time>2026-04-13T14:03:19.000Z</time>
      </trkpt>
      <trkpt lat="42.129619" lon="23.149956">
        <ele>603.9</ele>
        <time>2026-04-13T14:03:20.000Z</time>
      </trkpt>
      <trkpt lat="42.129615" lon="23.149963">
        <ele>603.9</ele>
        <time>2026-04-13T14:03:21.000Z</time>
      </trkpt>
      <trkpt lat="42.12961" lon="23.149967">
        <ele>603.9</ele>
        <time>2026-04-13T14:03:22.000Z</time>
      </trkpt>
      <trkpt lat="42.129604" lon="23.149968">
        <ele>603.9</ele>
        <time>2026-04-13T14:03:23.000Z</time>
      </trkpt>
      <trkpt lat="42.129598" lon="23.149968">
        <ele>603.9</ele>
        <time>2026-04-13T14:03:24.000Z</time>
      </trkpt>
      <trkpt lat="42.129591" lon="23.149968">
        <ele>604</ele>
        <time>2026-04-13T14:03:25.000Z</time>
      </trkpt>
      <trkpt lat="42.129584" lon="23.149967">
        <ele>604</ele>
        <time>2026-04-13T14:03:26.000Z</time>
      </trkpt>
      <trkpt lat="42.129576" lon="23.149966">
        <ele>604</ele>
        <time>2026-04-13T14:03:27.000Z</time>
      </trkpt>
      <trkpt lat="42.129568" lon="23.149966">
        <ele>604</ele>
        <time>2026-04-13T14:03:28.000Z</time>
      </trkpt>
      <trkpt lat="42.12956" lon="23.149965">
        <ele>604</ele>
        <time>2026-04-13T14:03:29.000Z</time>
      </trkpt>
      <trkpt lat="42.129551" lon="23.149965">
        <ele>604.9</ele>
        <time>2026-04-13T14:03:30.000Z</time>
      </trkpt>
      <trkpt lat="42.129543" lon="23.149963">
        <ele>604.9</ele>
        <time>2026-04-13T14:03:31.000Z</time>
      </trkpt>
      <trkpt lat="42.129536" lon="23.14996">
        <ele>604.9</ele>
        <time>2026-04-13T14:03:32.000Z</time>
      </trkpt>
      <trkpt lat="42.12953" lon="23.149955">
        <ele>604.9</ele>
        <time>2026-04-13T14:03:33.000Z</time>
      </trkpt>
      <trkpt lat="42.129526" lon="23.14995">
        <ele>604.9</ele>
        <time>2026-04-13T14:03:34.000Z</time>
      </trkpt>
      <trkpt lat="42.129522" lon="23.149943">
        <ele>606.2</ele>
        <time>2026-04-13T14:03:35.000Z</time>
      </trkpt>
      <trkpt lat="42.129519" lon="23.149937">
        <ele>606.2</ele>
        <time>2026-04-13T14:03:36.000Z</time>
      </trkpt>
      <trkpt lat="42.129517" lon="23.149933">
        <ele>606.2</ele>
        <time>2026-04-13T14:03:37.000Z</time>
      </trkpt>
      <trkpt lat="42.129514" lon="23.149928">
        <ele>606.2</ele>
        <time>2026-04-13T14:03:38.000Z</time>
      </trkpt>
      <trkpt lat="42.129512" lon="23.149927">
        <ele>606.2</ele>
        <time>2026-04-13T14:03:39.000Z</time>
      </trkpt>
      <trkpt lat="42.129511" lon="23.149927">
        <ele>607</ele>
        <time>2026-04-13T14:03:40.000Z</time>
      </trkpt>
      <trkpt lat="42.12951" lon="23.149929">
        <ele>607</ele>
        <time>2026-04-13T14:03:41.000Z</time>
      </trkpt>
      <trkpt lat="42.12951" lon="23.149931">
        <ele>607</ele>
        <time>2026-04-13T14:03:42.000Z</time>
      </trkpt>
      <trkpt lat="42.129509" lon="23.149935">
        <ele>607</ele>
        <time>2026-04-13T14:03:43.000Z</time>
      </trkpt>
      <trkpt lat="42.129508" lon="23.149937">
        <ele>607</ele>
        <time>2026-04-13T14:03:44.000Z</time>
      </trkpt>
      <trkpt lat="42.129506" lon="23.149939">
        <ele>608.1</ele>
        <time>2026-04-13T14:03:45.000Z</time>
      </trkpt>
      <trkpt lat="42.129505" lon="23.14994">
        <ele>608.1</ele>
        <time>2026-04-13T14:03:46.000Z</time>
      </trkpt>
      <trkpt lat="42.129504" lon="23.149942">
        <ele>608.1</ele>
        <time>2026-04-13T14:03:47.000Z</time>
      </trkpt>
      <trkpt lat="42.129504" lon="23.149944">
        <ele>608.1</ele>
        <time>2026-04-13T14:03:48.000Z</time>
      </trkpt>
      <trkpt lat="42.129505" lon="23.149947">
        <ele>608.1</ele>
        <time>2026-04-13T14:03:49.000Z</time>
      </trkpt>
      <trkpt lat="42.129505" lon="23.14995">
        <ele>608.5</ele>
        <time>2026-04-13T14:03:50.000Z</time>
      </trkpt>
      <trkpt lat="42.129506" lon="23.149953">
        <ele>608.5</ele>
        <time>2026-04-13T14:03:51.000Z</time>
      </trkpt>
      <trkpt lat="42.129507" lon="23.149956">
        <ele>608.5</ele>
        <time>2026-04-13T14:03:52.000Z</time>
      </trkpt>
      <trkpt lat="42.129508" lon="23.149957">
        <ele>608.5</ele>
        <time>2026-04-13T14:03:53.000Z</time>
      </trkpt>
      <trkpt lat="42.129508" lon="23.149958">
        <ele>608.5</ele>
        <time>2026-04-13T14:03:54.000Z</time>
      </trkpt>
      <trkpt lat="42.129507" lon="23.149958">
        <ele>608.4</ele>
        <time>2026-04-13T14:03:55.000Z</time>
      </trkpt>
      <trkpt lat="42.129507" lon="23.149959">
        <ele>608.4</ele>
        <time>2026-04-13T14:03:56.000Z</time>
      </trkpt>
      <trkpt lat="42.129505" lon="23.149958">
        <ele>608.4</ele>
        <time>2026-04-13T14:03:57.000Z</time>
      </trkpt>
      <trkpt lat="42.129503" lon="23.149958">
        <ele>608.4</ele>
        <time>2026-04-13T14:03:58.000Z</time>
      </trkpt>
      <trkpt lat="42.129501" lon="23.149959">
        <ele>608.4</ele>
        <time>2026-04-13T14:03:59.000Z</time>
      </trkpt>
      <trkpt lat="42.129497" lon="23.149959">
        <ele>608.2</ele>
        <time>2026-04-13T14:04:00.000Z</time>
      </trkpt>
      <trkpt lat="42.129493" lon="23.149958">
        <ele>608.2</ele>
        <time>2026-04-13T14:04:01.000Z</time>
      </trkpt>
      <trkpt lat="42.129488" lon="23.149957">
        <ele>608.2</ele>
        <time>2026-04-13T14:04:02.000Z</time>
      </trkpt>
      <trkpt lat="42.129484" lon="23.149955">
        <ele>608.2</ele>
        <time>2026-04-13T14:04:03.000Z</time>
      </trkpt>
      <trkpt lat="42.129481" lon="23.149951">
        <ele>608.2</ele>
        <time>2026-04-13T14:04:04.000Z</time>
      </trkpt>
      <trkpt lat="42.129481" lon="23.149946">
        <ele>608.3</ele>
        <time>2026-04-13T14:04:05.000Z</time>
      </trkpt>
      <trkpt lat="42.129484" lon="23.14994">
        <ele>608.3</ele>
        <time>2026-04-13T14:04:06.000Z</time>
      </trkpt>
      <trkpt lat="42.129489" lon="23.149934">
        <ele>608.3</ele>
        <time>2026-04-13T14:04:07.000Z</time>
      </trkpt>
      <trkpt lat="42.129495" lon="23.149929">
        <ele>608.3</ele>
        <time>2026-04-13T14:04:08.000Z</time>
      </trkpt>
      <trkpt lat="42.129499" lon="23.149926">
        <ele>608.3</ele>
        <time>2026-04-13T14:04:09.000Z</time>
      </trkpt>
      <trkpt lat="42.1295" lon="23.149925">
        <ele>608.3</ele>
        <time>2026-04-13T14:04:10.000Z</time>
      </trkpt>
      <trkpt lat="42.129499" lon="23.149926">
        <ele>608.3</ele>
        <time>2026-04-13T14:04:11.000Z</time>
      </trkpt>
      <trkpt lat="42.129494" lon="23.14993">
        <ele>608.3</ele>
        <time>2026-04-13T14:04:12.000Z</time>
      </trkpt>
      <trkpt lat="42.129487" lon="23.149935">
        <ele>608.3</ele>
        <time>2026-04-13T14:04:13.000Z</time>
      </trkpt>
      <trkpt lat="42.12948" lon="23.149941">
        <ele>608.3</ele>
        <time>2026-04-13T14:04:14.000Z</time>
      </trkpt>
      <trkpt lat="42.129473" lon="23.149945">
        <ele>608.1</ele>
        <time>2026-04-13T14:04:15.000Z</time>
      </trkpt>
      <trkpt lat="42.129466" lon="23.149949">
        <ele>608.1</ele>
        <time>2026-04-13T14:04:16.000Z</time>
      </trkpt>
      <trkpt lat="42.129458" lon="23.149952">
        <ele>608.1</ele>
        <time>2026-04-13T14:04:17.000Z</time>
      </trkpt>
      <trkpt lat="42.12945" lon="23.149952">
        <ele>608.1</ele>
        <time>2026-04-13T14:04:18.000Z</time>
      </trkpt>
      <trkpt lat="42.129442" lon="23.149951">
        <ele>608.1</ele>
        <time>2026-04-13T14:04:19.000Z</time>
      </trkpt>
      <trkpt lat="42.129437" lon="23.149948">
        <ele>608</ele>
        <time>2026-04-13T14:04:20.000Z</time>
      </trkpt>
      <trkpt lat="42.129434" lon="23.149945">
        <ele>608</ele>
        <time>2026-04-13T14:04:21.000Z</time>
      </trkpt>
      <trkpt lat="42.129434" lon="23.149941">
        <ele>608</ele>
        <time>2026-04-13T14:04:22.000Z</time>
      </trkpt>
      <trkpt lat="42.129437" lon="23.149937">
        <ele>608</ele>
        <time>2026-04-13T14:04:23.000Z</time>
      </trkpt>
      <trkpt lat="42.129441" lon="23.149934">
        <ele>608</ele>
        <time>2026-04-13T14:04:24.000Z</time>
      </trkpt>
      <trkpt lat="42.129445" lon="23.149932">
        <ele>607.9</ele>
        <time>2026-04-13T14:04:25.000Z</time>
      </trkpt>
      <trkpt lat="42.129448" lon="23.14993">
        <ele>607.9</ele>
        <time>2026-04-13T14:04:26.000Z</time>
      </trkpt>
      <trkpt lat="42.129451" lon="23.149928">
        <ele>607.9</ele>
        <time>2026-04-13T14:04:27.000Z</time>
      </trkpt>
      <trkpt lat="42.129454" lon="23.149927">
        <ele>607.9</ele>
        <time>2026-04-13T14:04:28.000Z</time>
      </trkpt>
      <trkpt lat="42.129455" lon="23.149926">
        <ele>607.9</ele>
        <time>2026-04-13T14:04:29.000Z</time>
      </trkpt>
      <trkpt lat="42.129456" lon="23.149925">
        <ele>607.9</ele>
        <time>2026-04-13T14:04:30.000Z</time>
      </trkpt>
      <trkpt lat="42.129456" lon="23.149924">
        <ele>607.9</ele>
        <time>2026-04-13T14:04:31.000Z</time>
      </trkpt>
      <trkpt lat="42.129455" lon="23.149924">
        <ele>607.9</ele>
        <time>2026-04-13T14:04:32.000Z</time>
      </trkpt>
      <trkpt lat="42.129452" lon="23.149924">
        <ele>607.9</ele>
        <time>2026-04-13T14:04:33.000Z</time>
      </trkpt>
      <trkpt lat="42.129451" lon="23.149924">
        <ele>607.9</ele>
        <time>2026-04-13T14:04:34.000Z</time>
      </trkpt>
      <trkpt lat="42.129449" lon="23.149925">
        <ele>608.2</ele>
        <time>2026-04-13T14:04:35.000Z</time>
      </trkpt>
      <trkpt lat="42.129448" lon="23.149925">
        <ele>608.2</ele>
        <time>2026-04-13T14:04:36.000Z</time>
      </trkpt>
      <trkpt lat="42.129447" lon="23.149925">
        <ele>608.2</ele>
        <time>2026-04-13T14:04:37.000Z</time>
      </trkpt>
      <trkpt lat="42.129446" lon="23.149925">
        <ele>608.2</ele>
        <time>2026-04-13T14:04:38.000Z</time>
      </trkpt>
      <trkpt lat="42.129445" lon="23.149923">
        <ele>608.2</ele>
        <time>2026-04-13T14:04:39.000Z</time>
      </trkpt>
      <trkpt lat="42.129443" lon="23.14992">
        <ele>608.3</ele>
        <time>2026-04-13T14:04:40.000Z</time>
      </trkpt>
      <trkpt lat="42.129441" lon="23.149916">
        <ele>608.3</ele>
        <time>2026-04-13T14:04:41.000Z</time>
      </trkpt>
      <trkpt lat="42.129438" lon="23.149912">
        <ele>608.3</ele>
        <time>2026-04-13T14:04:42.000Z</time>
      </trkpt>
      <trkpt lat="42.129435" lon="23.149906">
        <ele>608.3</ele>
        <time>2026-04-13T14:04:43.000Z</time>
      </trkpt>
      <trkpt lat="42.129432" lon="23.149901">
        <ele>608.3</ele>
        <time>2026-04-13T14:04:44.000Z</time>
      </trkpt>
      <trkpt lat="42.129429" lon="23.149895">
        <ele>608.2</ele>
        <time>2026-04-13T14:04:45.000Z</time>
      </trkpt>
      <trkpt lat="42.129427" lon="23.149891">
        <ele>608.2</ele>
        <time>2026-04-13T14:04:46.000Z</time>
      </trkpt>
      <trkpt lat="42.129426" lon="23.149887">
        <ele>608</ele>
        <time>2026-04-13T14:05:09.000Z</time>
      </trkpt>
      <trkpt lat="42.129436" lon="23.149882">
        <ele>608</ele>
        <time>2026-04-13T14:05:10.000Z</time>
      </trkpt>
      <trkpt lat="42.129439" lon="23.149905">
        <ele>608.1</ele>
        <time>2026-04-13T14:05:11.000Z</time>
      </trkpt>
      <trkpt lat="42.129446" lon="23.14992">
        <ele>608.6</ele>
        <time>2026-04-13T14:05:12.000Z</time>
      </trkpt>
      <trkpt lat="42.12945" lon="23.149938">
        <ele>608.9</ele>
        <time>2026-04-13T14:05:13.000Z</time>
      </trkpt>
      <trkpt lat="42.129454" lon="23.149955">
        <ele>608.9</ele>
        <time>2026-04-13T14:05:14.000Z</time>
      </trkpt>
      <trkpt lat="42.129454" lon="23.149966">
        <ele>609.6</ele>
        <time>2026-04-13T14:05:15.000Z</time>
      </trkpt>
      <trkpt lat="42.129453" lon="23.149972">
        <ele>609.6</ele>
        <time>2026-04-13T14:05:16.000Z</time>
      </trkpt>
      <trkpt lat="42.129449" lon="23.149975">
        <ele>609.6</ele>
        <time>2026-04-13T14:05:17.000Z</time>
      </trkpt>
      <trkpt lat="42.129445" lon="23.149976">
        <ele>609.6</ele>
        <time>2026-04-13T14:05:18.000Z</time>
      </trkpt>
      <trkpt lat="42.129441" lon="23.149974">
        <ele>609.6</ele>
        <time>2026-04-13T14:05:19.000Z</time>
      </trkpt>
      <trkpt lat="42.129436" lon="23.149974">
        <ele>610.3</ele>
        <time>2026-04-13T14:05:20.000Z</time>
      </trkpt>
      <trkpt lat="42.129433" lon="23.149973">
        <ele>610.3</ele>
        <time>2026-04-13T14:05:21.000Z</time>
      </trkpt>
      <trkpt lat="42.129431" lon="23.149971">
        <ele>610.3</ele>
        <time>2026-04-13T14:05:22.000Z</time>
      </trkpt>
      <trkpt lat="42.129429" lon="23.149969">
        <ele>610.3</ele>
        <time>2026-04-13T14:05:23.000Z</time>
      </trkpt>
      <trkpt lat="42.129429" lon="23.149967">
        <ele>610.3</ele>
        <time>2026-04-13T14:05:24.000Z</time>
      </trkpt>
      <trkpt lat="42.129428" lon="23.149965">
        <ele>610.5</ele>
        <time>2026-04-13T14:05:25.000Z</time>
      </trkpt>
      <trkpt lat="42.129427" lon="23.149964">
        <ele>610.5</ele>
        <time>2026-04-13T14:05:26.000Z</time>
      </trkpt>
      <trkpt lat="42.129426" lon="23.149964">
        <ele>610.5</ele>
        <time>2026-04-13T14:05:27.000Z</time>
      </trkpt>
      <trkpt lat="42.129425" lon="23.149966">
        <ele>610.5</ele>
        <time>2026-04-13T14:05:28.000Z</time>
      </trkpt>
      <trkpt lat="42.129424" lon="23.149969">
        <ele>610.5</ele>
        <time>2026-04-13T14:05:29.000Z</time>
      </trkpt>
      <trkpt lat="42.129424" lon="23.149973">
        <ele>610.6</ele>
        <time>2026-04-13T14:05:30.000Z</time>
      </trkpt>
      <trkpt lat="42.129425" lon="23.149978">
        <ele>610.6</ele>
        <time>2026-04-13T14:05:31.000Z</time>
      </trkpt>
      <trkpt lat="42.129426" lon="23.149982">
        <ele>610.6</ele>
        <time>2026-04-13T14:05:32.000Z</time>
      </trkpt>
      <trkpt lat="42.129426" lon="23.149985">
        <ele>610.6</ele>
        <time>2026-04-13T14:05:33.000Z</time>
      </trkpt>
      <trkpt lat="42.129424" lon="23.149987">
        <ele>610.6</ele>
        <time>2026-04-13T14:05:34.000Z</time>
      </trkpt>
      <trkpt lat="42.12942" lon="23.149988">
        <ele>611</ele>
        <time>2026-04-13T14:05:35.000Z</time>
      </trkpt>
      <trkpt lat="42.129416" lon="23.149987">
        <ele>611</ele>
        <time>2026-04-13T14:05:36.000Z</time>
      </trkpt>
      <trkpt lat="42.129412" lon="23.149986">
        <ele>611</ele>
        <time>2026-04-13T14:05:37.000Z</time>
      </trkpt>
      <trkpt lat="42.129407" lon="23.149986">
        <ele>611</ele>
        <time>2026-04-13T14:05:38.000Z</time>
      </trkpt>
      <trkpt lat="42.129402" lon="23.149986">
        <ele>611</ele>
        <time>2026-04-13T14:05:39.000Z</time>
      </trkpt>
      <trkpt lat="42.129397" lon="23.149988">
        <ele>611.4</ele>
        <time>2026-04-13T14:05:40.000Z</time>
      </trkpt>
      <trkpt lat="42.129393" lon="23.149992">
        <ele>611.4</ele>
        <time>2026-04-13T14:05:41.000Z</time>
      </trkpt>
      <trkpt lat="42.129391" lon="23.149998">
        <ele>611.4</ele>
        <time>2026-04-13T14:05:42.000Z</time>
      </trkpt>
      <trkpt lat="42.12939" lon="23.150003">
        <ele>611.4</ele>
        <time>2026-04-13T14:05:43.000Z</time>
      </trkpt>
      <trkpt lat="42.12939" lon="23.150009">
        <ele>611.4</ele>
        <time>2026-04-13T14:05:44.000Z</time>
      </trkpt>
      <trkpt lat="42.12939" lon="23.150015">
        <ele>611.9</ele>
        <time>2026-04-13T14:05:45.000Z</time>
      </trkpt>
      <trkpt lat="42.12939" lon="23.15002">
        <ele>611.9</ele>
        <time>2026-04-13T14:05:46.000Z</time>
      </trkpt>
      <trkpt lat="42.12939" lon="23.150023">
        <ele>611.9</ele>
        <time>2026-04-13T14:05:47.000Z</time>
      </trkpt>
      <trkpt lat="42.129389" lon="23.150026">
        <ele>611.9</ele>
        <time>2026-04-13T14:05:48.000Z</time>
      </trkpt>
      <trkpt lat="42.129389" lon="23.150028">
        <ele>611.9</ele>
        <time>2026-04-13T14:05:49.000Z</time>
      </trkpt>
      <trkpt lat="42.129388" lon="23.150029">
        <ele>611.9</ele>
        <time>2026-04-13T14:05:50.000Z</time>
      </trkpt>
      <trkpt lat="42.129388" lon="23.150031">
        <ele>611.9</ele>
        <time>2026-04-13T14:05:51.000Z</time>
      </trkpt>
      <trkpt lat="42.129387" lon="23.150034">
        <ele>611.9</ele>
        <time>2026-04-13T14:05:52.000Z</time>
      </trkpt>
      <trkpt lat="42.129386" lon="23.150037">
        <ele>611.9</ele>
        <time>2026-04-13T14:05:53.000Z</time>
      </trkpt>
      <trkpt lat="42.129385" lon="23.150042">
        <ele>611.9</ele>
        <time>2026-04-13T14:05:54.000Z</time>
      </trkpt>
      <trkpt lat="42.129385" lon="23.150046">
        <ele>611.8</ele>
        <time>2026-04-13T14:05:55.000Z</time>
      </trkpt>
      <trkpt lat="42.129384" lon="23.150051">
        <ele>611.8</ele>
        <time>2026-04-13T14:05:56.000Z</time>
      </trkpt>
      <trkpt lat="42.129383" lon="23.150055">
        <ele>611.8</ele>
        <time>2026-04-13T14:05:57.000Z</time>
      </trkpt>
      <trkpt lat="42.12938" lon="23.150058">
        <ele>611.8</ele>
        <time>2026-04-13T14:05:58.000Z</time>
      </trkpt>
      <trkpt lat="42.129376" lon="23.150059">
        <ele>611.8</ele>
        <time>2026-04-13T14:05:59.000Z</time>
      </trkpt>
      <trkpt lat="42.129371" lon="23.15006">
        <ele>611.6</ele>
        <time>2026-04-13T14:06:00.000Z</time>
      </trkpt>
      <trkpt lat="42.129365" lon="23.15006">
        <ele>611.6</ele>
        <time>2026-04-13T14:06:01.000Z</time>
      </trkpt>
      <trkpt lat="42.12936" lon="23.15006">
        <ele>611.6</ele>
        <time>2026-04-13T14:06:02.000Z</time>
      </trkpt>
      <trkpt lat="42.129355" lon="23.15006">
        <ele>611.6</ele>
        <time>2026-04-13T14:06:03.000Z</time>
      </trkpt>
      <trkpt lat="42.129352" lon="23.150059">
        <ele>611.6</ele>
        <time>2026-04-13T14:06:04.000Z</time>
      </trkpt>
      <trkpt lat="42.129348" lon="23.150057">
        <ele>611.4</ele>
        <time>2026-04-13T14:06:05.000Z</time>
      </trkpt>
      <trkpt lat="42.129345" lon="23.150055">
        <ele>611.4</ele>
        <time>2026-04-13T14:06:06.000Z</time>
      </trkpt>
      <trkpt lat="42.129341" lon="23.150052">
        <ele>611.4</ele>
        <time>2026-04-13T14:06:07.000Z</time>
      </trkpt>
      <trkpt lat="42.129338" lon="23.150049">
        <ele>611.4</ele>
        <time>2026-04-13T14:06:08.000Z</time>
      </trkpt>
      <trkpt lat="42.12939" lon="23.150129">
        <ele>611.3</ele>
        <time>2026-04-13T14:06:16.000Z</time>
      </trkpt>
      <trkpt lat="42.129379" lon="23.150122">
        <ele>611.1</ele>
        <time>2026-04-13T14:06:17.000Z</time>
      </trkpt>
      <trkpt lat="42.129389" lon="23.150109">
        <ele>611.1</ele>
        <time>2026-04-13T14:06:18.000Z</time>
      </trkpt>
      <trkpt lat="42.129388" lon="23.150098">
        <ele>611.1</ele>
        <time>2026-04-13T14:06:19.000Z</time>
      </trkpt>
      <trkpt lat="42.129388" lon="23.150087">
        <ele>611.2</ele>
        <time>2026-04-13T14:06:20.000Z</time>
      </trkpt>
      <trkpt lat="42.129382" lon="23.150078">
        <ele>611.2</ele>
        <time>2026-04-13T14:06:21.000Z</time>
      </trkpt>
      <trkpt lat="42.129373" lon="23.150068">
        <ele>611.2</ele>
        <time>2026-04-13T14:06:22.000Z</time>
      </trkpt>
      <trkpt lat="42.129364" lon="23.150058">
        <ele>611.2</ele>
        <time>2026-04-13T14:06:23.000Z</time>
      </trkpt>
      <trkpt lat="42.129355" lon="23.150045">
        <ele>611.2</ele>
        <time>2026-04-13T14:06:24.000Z</time>
      </trkpt>
      <trkpt lat="42.129349" lon="23.150029">
        <ele>611.3</ele>
        <time>2026-04-13T14:06:25.000Z</time>
      </trkpt>
      <trkpt lat="42.129346" lon="23.150012">
        <ele>611.3</ele>
        <time>2026-04-13T14:06:26.000Z</time>
      </trkpt>
      <trkpt lat="42.129347" lon="23.149997">
        <ele>611.3</ele>
        <time>2026-04-13T14:06:27.000Z</time>
      </trkpt>
      <trkpt lat="42.129352" lon="23.149981">
        <ele>611.3</ele>
        <time>2026-04-13T14:06:28.000Z</time>
      </trkpt>
      <trkpt lat="42.12936" lon="23.149967">
        <ele>611.3</ele>
        <time>2026-04-13T14:06:29.000Z</time>
      </trkpt>
      <trkpt lat="42.12937" lon="23.149954">
        <ele>612</ele>
        <time>2026-04-13T14:06:30.000Z</time>
      </trkpt>
      <trkpt lat="42.129379" lon="23.149939">
        <ele>612</ele>
        <time>2026-04-13T14:06:31.000Z</time>
      </trkpt>
      <trkpt lat="42.129389" lon="23.149925">
        <ele>612</ele>
        <time>2026-04-13T14:06:32.000Z</time>
      </trkpt>
      <trkpt lat="42.129398" lon="23.149912">
        <ele>612</ele>
        <time>2026-04-13T14:06:33.000Z</time>
      </trkpt>
      <trkpt lat="42.129406" lon="23.149901">
        <ele>612</ele>
        <time>2026-04-13T14:06:34.000Z</time>
      </trkpt>
      <trkpt lat="42.129413" lon="23.149892">
        <ele>612.7</ele>
        <time>2026-04-13T14:06:35.000Z</time>
      </trkpt>
      <trkpt lat="42.12942" lon="23.149884">
        <ele>612.7</ele>
        <time>2026-04-13T14:06:36.000Z</time>
      </trkpt>
      <trkpt lat="42.129425" lon="23.149878">
        <ele>612.7</ele>
        <time>2026-04-13T14:06:37.000Z</time>
      </trkpt>
      <trkpt lat="42.129428" lon="23.149873">
        <ele>612.7</ele>
        <time>2026-04-13T14:06:38.000Z</time>
      </trkpt>
      <trkpt lat="42.12943" lon="23.14987">
        <ele>612.7</ele>
        <time>2026-04-13T14:06:39.000Z</time>
      </trkpt>
      <trkpt lat="42.129431" lon="23.149868">
        <ele>613</ele>
        <time>2026-04-13T14:06:40.000Z</time>
      </trkpt>
      <trkpt lat="42.129431" lon="23.149867">
        <ele>613</ele>
        <time>2026-04-13T14:06:41.000Z</time>
      </trkpt>
      <trkpt lat="42.129431" lon="23.149866">
        <ele>613</ele>
        <time>2026-04-13T14:06:42.000Z</time>
      </trkpt>
      <trkpt lat="42.129431" lon="23.149866">
        <ele>613</ele>
        <time>2026-04-13T14:06:43.000Z</time>
      </trkpt>
      <trkpt lat="42.129431" lon="23.149866">
        <ele>613</ele>
        <time>2026-04-13T14:06:44.000Z</time>
      </trkpt>
      <trkpt lat="42.129431" lon="23.149866">
        <ele>613.7</ele>
        <time>2026-04-13T14:06:45.000Z</time>
      </trkpt>
      <trkpt lat="42.12943" lon="23.149866">
        <ele>613.7</ele>
        <time>2026-04-13T14:06:46.000Z</time>
      </trkpt>
      <trkpt lat="42.12943" lon="23.149865">
        <ele>613.7</ele>
        <time>2026-04-13T14:06:47.000Z</time>
      </trkpt>
      <trkpt lat="42.12943" lon="23.149865">
        <ele>613.7</ele>
        <time>2026-04-13T14:06:48.000Z</time>
      </trkpt>
      <trkpt lat="42.12943" lon="23.149866">
        <ele>613.7</ele>
        <time>2026-04-13T14:06:49.000Z</time>
      </trkpt>
      <trkpt lat="42.129429" lon="23.149866">
        <ele>614.3</ele>
        <time>2026-04-13T14:06:50.000Z</time>
      </trkpt>
      <trkpt lat="42.129429" lon="23.149866">
        <ele>614.3</ele>
        <time>2026-04-13T14:06:51.000Z</time>
      </trkpt>
      <trkpt lat="42.129429" lon="23.149866">
        <ele>614.3</ele>
        <time>2026-04-13T14:06:52.000Z</time>
      </trkpt>
      <trkpt lat="42.129429" lon="23.149867">
        <ele>614.3</ele>
        <time>2026-04-13T14:06:53.000Z</time>
      </trkpt>
      <trkpt lat="42.129429" lon="23.149867">
        <ele>614.3</ele>
        <time>2026-04-13T14:06:54.000Z</time>
      </trkpt>
      <trkpt lat="42.129429" lon="23.149868">
        <ele>614.7</ele>
        <time>2026-04-13T14:06:55.000Z</time>
      </trkpt>
      <trkpt lat="42.129429" lon="23.14987">
        <ele>614.7</ele>
        <time>2026-04-13T14:06:56.000Z</time>
      </trkpt>
      <trkpt lat="42.129429" lon="23.14987">
        <ele>614.7</ele>
        <time>2026-04-13T14:06:57.000Z</time>
      </trkpt>
      <trkpt lat="42.129429" lon="23.149871">
        <ele>614.7</ele>
        <time>2026-04-13T14:06:58.000Z</time>
      </trkpt>
      <trkpt lat="42.129429" lon="23.149871">
        <ele>614.7</ele>
        <time>2026-04-13T14:06:59.000Z</time>
      </trkpt>
      <trkpt lat="42.129428" lon="23.149872">
        <ele>615.4</ele>
        <time>2026-04-13T14:07:00.000Z</time>
      </trkpt>
      <trkpt lat="42.129427" lon="23.149872">
        <ele>615.4</ele>
        <time>2026-04-13T14:07:01.000Z</time>
      </trkpt>
      <trkpt lat="42.129425" lon="23.149871">
        <ele>615.4</ele>
        <time>2026-04-13T14:07:02.000Z</time>
      </trkpt>
      <trkpt lat="42.129423" lon="23.149871">
        <ele>615.4</ele>
        <time>2026-04-13T14:07:03.000Z</time>
      </trkpt>
      <trkpt lat="42.129419" lon="23.14987">
        <ele>615.4</ele>
        <time>2026-04-13T14:07:04.000Z</time>
      </trkpt>
      <trkpt lat="42.129415" lon="23.149868">
        <ele>616.2</ele>
        <time>2026-04-13T14:07:05.000Z</time>
      </trkpt>
      <trkpt lat="42.129411" lon="23.149866">
        <ele>616.2</ele>
        <time>2026-04-13T14:07:06.000Z</time>
      </trkpt>
      <trkpt lat="42.129407" lon="23.149865">
        <ele>616.2</ele>
        <time>2026-04-13T14:07:07.000Z</time>
      </trkpt>
      <trkpt lat="42.129403" lon="23.149863">
        <ele>616.2</ele>
        <time>2026-04-13T14:07:08.000Z</time>
      </trkpt>
      <trkpt lat="42.1294" lon="23.149862">
        <ele>616.2</ele>
        <time>2026-04-13T14:07:09.000Z</time>
      </trkpt>
      <trkpt lat="42.129397" lon="23.149861">
        <ele>616.6</ele>
        <time>2026-04-13T14:07:10.000Z</time>
      </trkpt>
      <trkpt lat="42.129395" lon="23.14986">
        <ele>616.6</ele>
        <time>2026-04-13T14:07:11.000Z</time>
      </trkpt>
      <trkpt lat="42.129393" lon="23.149859">
        <ele>616.6</ele>
        <time>2026-04-13T14:07:12.000Z</time>
      </trkpt>
      <trkpt lat="42.129392" lon="23.149858">
        <ele>616.6</ele>
        <time>2026-04-13T14:07:13.000Z</time>
      </trkpt>
      <trkpt lat="42.129392" lon="23.149857">
        <ele>616.6</ele>
        <time>2026-04-13T14:07:14.000Z</time>
      </trkpt>
      <trkpt lat="42.129391" lon="23.149857">
        <ele>617.6</ele>
        <time>2026-04-13T14:07:15.000Z</time>
      </trkpt>
      <trkpt lat="42.129391" lon="23.149858">
        <ele>617.6</ele>
        <time>2026-04-13T14:07:16.000Z</time>
      </trkpt>
      <trkpt lat="42.12939" lon="23.14986">
        <ele>617.6</ele>
        <time>2026-04-13T14:07:17.000Z</time>
      </trkpt>
      <trkpt lat="42.12939" lon="23.149862">
        <ele>617.6</ele>
        <time>2026-04-13T14:07:18.000Z</time>
      </trkpt>
      <trkpt lat="42.129389" lon="23.149865">
        <ele>617.6</ele>
        <time>2026-04-13T14:07:19.000Z</time>
      </trkpt>
      <trkpt lat="42.129388" lon="23.149868">
        <ele>618.3</ele>
        <time>2026-04-13T14:07:20.000Z</time>
      </trkpt>
      <trkpt lat="42.129386" lon="23.149872">
        <ele>618.3</ele>
        <time>2026-04-13T14:07:21.000Z</time>
      </trkpt>
      <trkpt lat="42.129384" lon="23.149876">
        <ele>618.3</ele>
        <time>2026-04-13T14:07:22.000Z</time>
      </trkpt>
      <trkpt lat="42.129382" lon="23.14988">
        <ele>618.3</ele>
        <time>2026-04-13T14:07:23.000Z</time>
      </trkpt>
      <trkpt lat="42.129379" lon="23.149884">
        <ele>618.3</ele>
        <time>2026-04-13T14:07:24.000Z</time>
      </trkpt>
      <trkpt lat="42.129374" lon="23.149887">
        <ele>618.6</ele>
        <time>2026-04-13T14:07:25.000Z</time>
      </trkpt>
      <trkpt lat="42.129369" lon="23.149891">
        <ele>618.6</ele>
        <time>2026-04-13T14:07:26.000Z</time>
      </trkpt>
      <trkpt lat="42.129363" lon="23.149896">
        <ele>618.6</ele>
        <time>2026-04-13T14:07:27.000Z</time>
      </trkpt>
      <trkpt lat="42.129356" lon="23.149901">
        <ele>618.6</ele>
        <time>2026-04-13T14:07:28.000Z</time>
      </trkpt>
      <trkpt lat="42.12935" lon="23.149907">
        <ele>618.6</ele>
        <time>2026-04-13T14:07:29.000Z</time>
      </trkpt>
      <trkpt lat="42.129344" lon="23.149913">
        <ele>619.2</ele>
        <time>2026-04-13T14:07:30.000Z</time>
      </trkpt>
      <trkpt lat="42.129338" lon="23.14992">
        <ele>619.2</ele>
        <time>2026-04-13T14:07:31.000Z</time>
      </trkpt>
      <trkpt lat="42.129334" lon="23.149927">
        <ele>619.2</ele>
        <time>2026-04-13T14:07:32.000Z</time>
      </trkpt>
      <trkpt lat="42.12933" lon="23.149935">
        <ele>619.2</ele>
        <time>2026-04-13T14:07:33.000Z</time>
      </trkpt>
      <trkpt lat="42.129328" lon="23.149942">
        <ele>619.2</ele>
        <time>2026-04-13T14:07:34.000Z</time>
      </trkpt>
      <trkpt lat="42.129327" lon="23.14995">
        <ele>620.1</ele>
        <time>2026-04-13T14:07:35.000Z</time>
      </trkpt>
      <trkpt lat="42.129327" lon="23.149957">
        <ele>620.1</ele>
        <time>2026-04-13T14:07:36.000Z</time>
      </trkpt>
      <trkpt lat="42.12933" lon="23.149963">
        <ele>620.1</ele>
        <time>2026-04-13T14:07:37.000Z</time>
      </trkpt>
      <trkpt lat="42.129333" lon="23.149969">
        <ele>620.1</ele>
        <time>2026-04-13T14:07:38.000Z</time>
      </trkpt>
      <trkpt lat="42.129337" lon="23.149976">
        <ele>620.1</ele>
        <time>2026-04-13T14:07:39.000Z</time>
      </trkpt>
      <trkpt lat="42.129341" lon="23.149982">
        <ele>620.6</ele>
        <time>2026-04-13T14:07:40.000Z</time>
      </trkpt>
      <trkpt lat="42.129344" lon="23.149987">
        <ele>620.6</ele>
        <time>2026-04-13T14:07:41.000Z</time>
      </trkpt>
      <trkpt lat="42.129347" lon="23.149991">
        <ele>620.6</ele>
        <time>2026-04-13T14:07:42.000Z</time>
      </trkpt>
      <trkpt lat="42.129348" lon="23.149993">
        <ele>620.6</ele>
        <time>2026-04-13T14:07:43.000Z</time>
      </trkpt>
      <trkpt lat="42.129349" lon="23.149994">
        <ele>620.6</ele>
        <time>2026-04-13T14:07:44.000Z</time>
      </trkpt>
      <trkpt lat="42.129351" lon="23.149995">
        <ele>621</ele>
        <time>2026-04-13T14:07:45.000Z</time>
      </trkpt>
      <trkpt lat="42.129353" lon="23.149995">
        <ele>621</ele>
        <time>2026-04-13T14:07:46.000Z</time>
      </trkpt>
      <trkpt lat="42.129355" lon="23.149996">
        <ele>621</ele>
        <time>2026-04-13T14:07:47.000Z</time>
      </trkpt>
      <trkpt lat="42.129358" lon="23.149998">
        <ele>621</ele>
        <time>2026-04-13T14:07:48.000Z</time>
      </trkpt>
      <trkpt lat="42.129359" lon="23.150001">
        <ele>621</ele>
        <time>2026-04-13T14:07:49.000Z</time>
      </trkpt>
      <trkpt lat="42.129359" lon="23.150006">
        <ele>620.5</ele>
        <time>2026-04-13T14:07:50.000Z</time>
      </trkpt>
      <trkpt lat="42.129358" lon="23.150012">
        <ele>620.5</ele>
        <time>2026-04-13T14:07:51.000Z</time>
      </trkpt>
      <trkpt lat="42.129356" lon="23.150018">
        <ele>620.5</ele>
        <time>2026-04-13T14:07:52.000Z</time>
      </trkpt>
      <trkpt lat="42.129353" lon="23.150024">
        <ele>620.5</ele>
        <time>2026-04-13T14:07:53.000Z</time>
      </trkpt>
      <trkpt lat="42.12935" lon="23.150029">
        <ele>620.5</ele>
        <time>2026-04-13T14:07:54.000Z</time>
      </trkpt>
      <trkpt lat="42.129348" lon="23.150033">
        <ele>620</ele>
        <time>2026-04-13T14:07:55.000Z</time>
      </trkpt>
      <trkpt lat="42.129347" lon="23.150035">
        <ele>620</ele>
        <time>2026-04-13T14:07:56.000Z</time>
      </trkpt>
      <trkpt lat="42.129347" lon="23.150036">
        <ele>620</ele>
        <time>2026-04-13T14:07:57.000Z</time>
      </trkpt>
      <trkpt lat="42.129346" lon="23.150037">
        <ele>620</ele>
        <time>2026-04-13T14:07:58.000Z</time>
      </trkpt>
      <trkpt lat="42.129347" lon="23.150037">
        <ele>620</ele>
        <time>2026-04-13T14:07:59.000Z</time>
      </trkpt>
      <trkpt lat="42.129347" lon="23.150035">
        <ele>618.5</ele>
        <time>2026-04-13T14:08:00.000Z</time>
      </trkpt>
      <trkpt lat="42.129347" lon="23.150034">
        <ele>618.5</ele>
        <time>2026-04-13T14:08:01.000Z</time>
      </trkpt>
      <trkpt lat="42.129347" lon="23.150032">
        <ele>618.5</ele>
        <time>2026-04-13T14:08:02.000Z</time>
      </trkpt>
      <trkpt lat="42.129348" lon="23.15003">
        <ele>618.5</ele>
        <time>2026-04-13T14:08:03.000Z</time>
      </trkpt>
      <trkpt lat="42.129348" lon="23.150029">
        <ele>618.5</ele>
        <time>2026-04-13T14:08:04.000Z</time>
      </trkpt>
      <trkpt lat="42.129349" lon="23.150028">
        <ele>617.5</ele>
        <time>2026-04-13T14:08:05.000Z</time>
      </trkpt>
      <trkpt lat="42.129349" lon="23.150028">
        <ele>617.5</ele>
        <time>2026-04-13T14:08:06.000Z</time>
      </trkpt>
      <trkpt lat="42.129349" lon="23.150028">
        <ele>617.5</ele>
        <time>2026-04-13T14:08:07.000Z</time>
      </trkpt>
      <trkpt lat="42.129349" lon="23.150028">
        <ele>617.5</ele>
        <time>2026-04-13T14:08:08.000Z</time>
      </trkpt>
      <trkpt lat="42.129348" lon="23.150028">
        <ele>617.5</ele>
        <time>2026-04-13T14:08:09.000Z</time>
      </trkpt>
      <trkpt lat="42.129348" lon="23.150028">
        <ele>617.2</ele>
        <time>2026-04-13T14:08:10.000Z</time>
      </trkpt>
      <trkpt lat="42.129347" lon="23.150029">
        <ele>617.2</ele>
        <time>2026-04-13T14:08:11.000Z</time>
      </trkpt>
      <trkpt lat="42.129345" lon="23.15003">
        <ele>617.2</ele>
        <time>2026-04-13T14:08:12.000Z</time>
      </trkpt>
      <trkpt lat="42.129343" lon="23.150031">
        <ele>617.2</ele>
        <time>2026-04-13T14:08:13.000Z</time>
      </trkpt>
      <trkpt lat="42.129341" lon="23.150033">
        <ele>617.2</ele>
        <time>2026-04-13T14:08:14.000Z</time>
      </trkpt>
      <trkpt lat="42.12934" lon="23.150035">
        <ele>616.9</ele>
        <time>2026-04-13T14:08:15.000Z</time>
      </trkpt>
      <trkpt lat="42.129338" lon="23.150037">
        <ele>616.9</ele>
        <time>2026-04-13T14:08:16.000Z</time>
      </trkpt>
      <trkpt lat="42.129337" lon="23.150038">
        <ele>616.9</ele>
        <time>2026-04-13T14:08:17.000Z</time>
      </trkpt>
      <trkpt lat="42.129337" lon="23.150039">
        <ele>616.9</ele>
        <time>2026-04-13T14:08:18.000Z</time>
      </trkpt>
      <trkpt lat="42.129336" lon="23.15004">
        <ele>616.9</ele>
        <time>2026-04-13T14:08:19.000Z</time>
      </trkpt>
      <trkpt lat="42.129336" lon="23.15004">
        <ele>616.8</ele>
        <time>2026-04-13T14:08:20.000Z</time>
      </trkpt>
      <trkpt lat="42.129336" lon="23.150041">
        <ele>616.8</ele>
        <time>2026-04-13T14:08:21.000Z</time>
      </trkpt>
      <trkpt lat="42.129336" lon="23.150041">
        <ele>616.8</ele>
        <time>2026-04-13T14:08:22.000Z</time>
      </trkpt>
      <trkpt lat="42.129337" lon="23.150041">
        <ele>616.8</ele>
        <time>2026-04-13T14:08:23.000Z</time>
      </trkpt>
      <trkpt lat="42.129339" lon="23.15004">
        <ele>616.8</ele>
        <time>2026-04-13T14:08:24.000Z</time>
      </trkpt>
      <trkpt lat="42.129341" lon="23.150039">
        <ele>616.6</ele>
        <time>2026-04-13T14:08:25.000Z</time>
      </trkpt>
      <trkpt lat="42.129345" lon="23.150039">
        <ele>616.6</ele>
        <time>2026-04-13T14:08:26.000Z</time>
      </trkpt>
      <trkpt lat="42.12935" lon="23.150038">
        <ele>616.6</ele>
        <time>2026-04-13T14:08:27.000Z</time>
      </trkpt>
      <trkpt lat="42.129355" lon="23.150035">
        <ele>616.6</ele>
        <time>2026-04-13T14:08:28.000Z</time>
      </trkpt>
      <trkpt lat="42.12936" lon="23.150033">
        <ele>616.6</ele>
        <time>2026-04-13T14:08:29.000Z</time>
      </trkpt>
      <trkpt lat="42.129365" lon="23.150031">
        <ele>616.2</ele>
        <time>2026-04-13T14:08:30.000Z</time>
      </trkpt>
      <trkpt lat="42.12937" lon="23.150027">
        <ele>616.2</ele>
        <time>2026-04-13T14:08:31.000Z</time>
      </trkpt>
      <trkpt lat="42.129376" lon="23.150023">
        <ele>616.2</ele>
        <time>2026-04-13T14:08:32.000Z</time>
      </trkpt>
      <trkpt lat="42.129382" lon="23.150021">
        <ele>616.2</ele>
        <time>2026-04-13T14:08:33.000Z</time>
      </trkpt>
      <trkpt lat="42.129387" lon="23.150018">
        <ele>616.2</ele>
        <time>2026-04-13T14:08:34.000Z</time>
      </trkpt>
      <trkpt lat="42.129393" lon="23.150017">
        <ele>616</ele>
        <time>2026-04-13T14:08:35.000Z</time>
      </trkpt>
      <trkpt lat="42.129399" lon="23.150015">
        <ele>616</ele>
        <time>2026-04-13T14:08:36.000Z</time>
      </trkpt>
      <trkpt lat="42.129404" lon="23.150014">
        <ele>616</ele>
        <time>2026-04-13T14:08:37.000Z</time>
      </trkpt>
      <trkpt lat="42.129408" lon="23.150014">
        <ele>616</ele>
        <time>2026-04-13T14:08:38.000Z</time>
      </trkpt>
      <trkpt lat="42.129413" lon="23.150014">
        <ele>616</ele>
        <time>2026-04-13T14:08:39.000Z</time>
      </trkpt>
      <trkpt lat="42.129416" lon="23.150014">
        <ele>616.2</ele>
        <time>2026-04-13T14:08:40.000Z</time>
      </trkpt>
      <trkpt lat="42.129419" lon="23.150015">
        <ele>616.2</ele>
        <time>2026-04-13T14:08:41.000Z</time>
      </trkpt>
      <trkpt lat="42.12942" lon="23.150016">
        <ele>616.2</ele>
        <time>2026-04-13T14:08:42.000Z</time>
      </trkpt>
      <trkpt lat="42.129421" lon="23.150016">
        <ele>616.2</ele>
        <time>2026-04-13T14:08:43.000Z</time>
      </trkpt>
      <trkpt lat="42.129422" lon="23.150017">
        <ele>616.2</ele>
        <time>2026-04-13T14:08:44.000Z</time>
      </trkpt>
      <trkpt lat="42.129422" lon="23.150017">
        <ele>617</ele>
        <time>2026-04-13T14:08:45.000Z</time>
      </trkpt>
      <trkpt lat="42.129422" lon="23.150017">
        <ele>617</ele>
        <time>2026-04-13T14:08:46.000Z</time>
      </trkpt>
      <trkpt lat="42.129422" lon="23.150018">
        <ele>617</ele>
        <time>2026-04-13T14:08:47.000Z</time>
      </trkpt>
      <trkpt lat="42.12942" lon="23.150019">
        <ele>617</ele>
        <time>2026-04-13T14:08:48.000Z</time>
      </trkpt>
      <trkpt lat="42.129418" lon="23.150021">
        <ele>617</ele>
        <time>2026-04-13T14:08:49.000Z</time>
      </trkpt>
      <trkpt lat="42.129414" lon="23.150023">
        <ele>617.5</ele>
        <time>2026-04-13T14:08:50.000Z</time>
      </trkpt>
      <trkpt lat="42.129409" lon="23.150026">
        <ele>617.5</ele>
        <time>2026-04-13T14:08:51.000Z</time>
      </trkpt>
      <trkpt lat="42.129404" lon="23.15003">
        <ele>617.5</ele>
        <time>2026-04-13T14:08:52.000Z</time>
      </trkpt>
      <trkpt lat="42.129399" lon="23.150033">
        <ele>617.5</ele>
        <time>2026-04-13T14:08:53.000Z</time>
      </trkpt>
      <trkpt lat="42.129395" lon="23.150036">
        <ele>617.5</ele>
        <time>2026-04-13T14:08:54.000Z</time>
      </trkpt>
      <trkpt lat="42.129392" lon="23.150039">
        <ele>617.5</ele>
        <time>2026-04-13T14:08:55.000Z</time>
      </trkpt>
      <trkpt lat="42.12939" lon="23.150041">
        <ele>617.5</ele>
        <time>2026-04-13T14:08:56.000Z</time>
      </trkpt>
      <trkpt lat="42.129388" lon="23.150042">
        <ele>617.5</ele>
        <time>2026-04-13T14:08:57.000Z</time>
      </trkpt>
      <trkpt lat="42.129388" lon="23.150043">
        <ele>617.5</ele>
        <time>2026-04-13T14:08:58.000Z</time>
      </trkpt>
      <trkpt lat="42.129387" lon="23.150043">
        <ele>617.5</ele>
        <time>2026-04-13T14:08:59.000Z</time>
      </trkpt>
      <trkpt lat="42.129387" lon="23.150043">
        <ele>617.3</ele>
        <time>2026-04-13T14:09:00.000Z</time>
      </trkpt>
      <trkpt lat="42.129387" lon="23.150043">
        <ele>617.3</ele>
        <time>2026-04-13T14:09:01.000Z</time>
      </trkpt>
      <trkpt lat="42.129387" lon="23.150043">
        <ele>617.3</ele>
        <time>2026-04-13T14:09:02.000Z</time>
      </trkpt>
      <trkpt lat="42.129387" lon="23.150043">
        <ele>617.3</ele>
        <time>2026-04-13T14:09:03.000Z</time>
      </trkpt>
      <trkpt lat="42.129386" lon="23.150043">
        <ele>617.3</ele>
        <time>2026-04-13T14:09:04.000Z</time>
      </trkpt>
      <trkpt lat="42.129384" lon="23.150042">
        <ele>617</ele>
        <time>2026-04-13T14:09:05.000Z</time>
      </trkpt>
      <trkpt lat="42.129382" lon="23.150038">
        <ele>617</ele>
        <time>2026-04-13T14:09:06.000Z</time>
      </trkpt>
      <trkpt lat="42.129377" lon="23.150035">
        <ele>617</ele>
        <time>2026-04-13T14:09:07.000Z</time>
      </trkpt>
      <trkpt lat="42.129371" lon="23.150031">
        <ele>617</ele>
        <time>2026-04-13T14:09:08.000Z</time>
      </trkpt>
      <trkpt lat="42.129364" lon="23.150029">
        <ele>617</ele>
        <time>2026-04-13T14:09:09.000Z</time>
      </trkpt>
      <trkpt lat="42.129356" lon="23.150029">
        <ele>617</ele>
        <time>2026-04-13T14:09:10.000Z</time>
      </trkpt>
      <trkpt lat="42.129347" lon="23.150032">
        <ele>617</ele>
        <time>2026-04-13T14:09:11.000Z</time>
      </trkpt>
      <trkpt lat="42.129339" lon="23.150037">
        <ele>617</ele>
        <time>2026-04-13T14:09:12.000Z</time>
      </trkpt>
      <trkpt lat="42.129331" lon="23.150043">
        <ele>617</ele>
        <time>2026-04-13T14:09:13.000Z</time>
      </trkpt>
      <trkpt lat="42.129325" lon="23.15005">
        <ele>617</ele>
        <time>2026-04-13T14:09:14.000Z</time>
      </trkpt>
      <trkpt lat="42.129318" lon="23.150059">
        <ele>616.8</ele>
        <time>2026-04-13T14:09:15.000Z</time>
      </trkpt>
      <trkpt lat="42.129315" lon="23.150067">
        <ele>616.8</ele>
        <time>2026-04-13T14:09:16.000Z</time>
      </trkpt>
      <trkpt lat="42.129315" lon="23.150073">
        <ele>616.8</ele>
        <time>2026-04-13T14:09:17.000Z</time>
      </trkpt>
      <trkpt lat="42.129315" lon="23.150081">
        <ele>616.8</ele>
        <time>2026-04-13T14:09:18.000Z</time>
      </trkpt>
      <trkpt lat="42.129317" lon="23.150087">
        <ele>616.8</ele>
        <time>2026-04-13T14:09:19.000Z</time>
      </trkpt>
      <trkpt lat="42.129319" lon="23.150093">
        <ele>616.7</ele>
        <time>2026-04-13T14:09:20.000Z</time>
      </trkpt>
      <trkpt lat="42.129319" lon="23.1501">
        <ele>616.7</ele>
        <time>2026-04-13T14:09:21.000Z</time>
      </trkpt>
      <trkpt lat="42.129317" lon="23.150109">
        <ele>616.7</ele>
        <time>2026-04-13T14:09:22.000Z</time>
      </trkpt>
      <trkpt lat="42.129314" lon="23.150117">
        <ele>616.7</ele>
        <time>2026-04-13T14:09:23.000Z</time>
      </trkpt>
      <trkpt lat="42.12931" lon="23.150123">
        <ele>616.7</ele>
        <time>2026-04-13T14:09:24.000Z</time>
      </trkpt>
      <trkpt lat="42.129305" lon="23.15013">
        <ele>616.7</ele>
        <time>2026-04-13T14:09:25.000Z</time>
      </trkpt>
      <trkpt lat="42.129301" lon="23.150135">
        <ele>616.7</ele>
        <time>2026-04-13T14:09:26.000Z</time>
      </trkpt>
      <trkpt lat="42.129297" lon="23.150141">
        <ele>616.7</ele>
        <time>2026-04-13T14:09:27.000Z</time>
      </trkpt>
      <trkpt lat="42.129293" lon="23.150146">
        <ele>616.7</ele>
        <time>2026-04-13T14:09:28.000Z</time>
      </trkpt>
      <trkpt lat="42.12929" lon="23.150152">
        <ele>616.7</ele>
        <time>2026-04-13T14:09:29.000Z</time>
      </trkpt>
      <trkpt lat="42.129288" lon="23.150156">
        <ele>616.8</ele>
        <time>2026-04-13T14:09:30.000Z</time>
      </trkpt>
      <trkpt lat="42.129288" lon="23.150159">
        <ele>616.8</ele>
        <time>2026-04-13T14:09:31.000Z</time>
      </trkpt>
      <trkpt lat="42.129287" lon="23.150162">
        <ele>616.8</ele>
        <time>2026-04-13T14:09:32.000Z</time>
      </trkpt>
      <trkpt lat="42.129288" lon="23.150164">
        <ele>616.8</ele>
        <time>2026-04-13T14:09:33.000Z</time>
      </trkpt>
      <trkpt lat="42.129288" lon="23.150165">
        <ele>616.8</ele>
        <time>2026-04-13T14:09:34.000Z</time>
      </trkpt>
      <trkpt lat="42.129288" lon="23.150165">
        <ele>617</ele>
        <time>2026-04-13T14:09:35.000Z</time>
      </trkpt>
      <trkpt lat="42.129288" lon="23.150164">
        <ele>617</ele>
        <time>2026-04-13T14:09:36.000Z</time>
      </trkpt>
      <trkpt lat="42.129288" lon="23.150164">
        <ele>617</ele>
        <time>2026-04-13T14:09:37.000Z</time>
      </trkpt>
      <trkpt lat="42.129289" lon="23.150163">
        <ele>617</ele>
        <time>2026-04-13T14:09:38.000Z</time>
      </trkpt>
      <trkpt lat="42.129289" lon="23.150163">
        <ele>617</ele>
        <time>2026-04-13T14:09:39.000Z</time>
      </trkpt>
      <trkpt lat="42.12929" lon="23.150163">
        <ele>617.2</ele>
        <time>2026-04-13T14:09:40.000Z</time>
      </trkpt>
      <trkpt lat="42.129291" lon="23.150164">
        <ele>617.2</ele>
        <time>2026-04-13T14:09:41.000Z</time>
      </trkpt>
      <trkpt lat="42.129292" lon="23.150165">
        <ele>617.2</ele>
        <time>2026-04-13T14:09:42.000Z</time>
      </trkpt>
      <trkpt lat="42.129293" lon="23.150165">
        <ele>617.2</ele>
        <time>2026-04-13T14:09:43.000Z</time>
      </trkpt>
      <trkpt lat="42.129295" lon="23.150165">
        <ele>617.2</ele>
        <time>2026-04-13T14:09:44.000Z</time>
      </trkpt>
      <trkpt lat="42.129296" lon="23.150165">
        <ele>617.5</ele>
        <time>2026-04-13T14:09:45.000Z</time>
      </trkpt>
      <trkpt lat="42.129299" lon="23.150165">
        <ele>617.5</ele>
        <time>2026-04-13T14:09:46.000Z</time>
      </trkpt>
      <trkpt lat="42.129301" lon="23.150164">
        <ele>617.5</ele>
        <time>2026-04-13T14:09:47.000Z</time>
      </trkpt>
      <trkpt lat="42.129305" lon="23.150164">
        <ele>617.5</ele>
        <time>2026-04-13T14:09:48.000Z</time>
      </trkpt>
      <trkpt lat="42.129309" lon="23.150163">
        <ele>617.5</ele>
        <time>2026-04-13T14:09:49.000Z</time>
      </trkpt>
      <trkpt lat="42.129313" lon="23.150163">
        <ele>617.7</ele>
        <time>2026-04-13T14:09:50.000Z</time>
      </trkpt>
      <trkpt lat="42.129318" lon="23.150163">
        <ele>617.7</ele>
        <time>2026-04-13T14:09:51.000Z</time>
      </trkpt>
      <trkpt lat="42.129322" lon="23.150163">
        <ele>617.7</ele>
        <time>2026-04-13T14:09:52.000Z</time>
      </trkpt>
      <trkpt lat="42.129328" lon="23.150163">
        <ele>617.7</ele>
        <time>2026-04-13T14:09:53.000Z</time>
      </trkpt>
      <trkpt lat="42.129333" lon="23.150162">
        <ele>617.7</ele>
        <time>2026-04-13T14:09:54.000Z</time>
      </trkpt>
      <trkpt lat="42.129338" lon="23.150162">
        <ele>617.7</ele>
        <time>2026-04-13T14:09:55.000Z</time>
      </trkpt>
      <trkpt lat="42.129343" lon="23.150161">
        <ele>617.7</ele>
        <time>2026-04-13T14:09:56.000Z</time>
      </trkpt>
      <trkpt lat="42.129347" lon="23.150161">
        <ele>617.7</ele>
        <time>2026-04-13T14:09:57.000Z</time>
      </trkpt>
      <trkpt lat="42.12935" lon="23.150162">
        <ele>617.7</ele>
        <time>2026-04-13T14:09:58.000Z</time>
      </trkpt>
      <trkpt lat="42.129353" lon="23.150164">
        <ele>617.7</ele>
        <time>2026-04-13T14:09:59.000Z</time>
      </trkpt>
      <trkpt lat="42.129354" lon="23.150168">
        <ele>617.3</ele>
        <time>2026-04-13T14:10:00.000Z</time>
      </trkpt>
      <trkpt lat="42.129354" lon="23.150171">
        <ele>617.3</ele>
        <time>2026-04-13T14:10:01.000Z</time>
      </trkpt>
      <trkpt lat="42.129354" lon="23.150174">
        <ele>617.3</ele>
        <time>2026-04-13T14:10:02.000Z</time>
      </trkpt>
      <trkpt lat="42.129354" lon="23.150176">
        <ele>617.3</ele>
        <time>2026-04-13T14:10:03.000Z</time>
      </trkpt>
      <trkpt lat="42.129354" lon="23.150177">
        <ele>617.3</ele>
        <time>2026-04-13T14:10:04.000Z</time>
      </trkpt>
      <trkpt lat="42.129354" lon="23.150177">
        <ele>616.9</ele>
        <time>2026-04-13T14:10:05.000Z</time>
      </trkpt>
      <trkpt lat="42.129354" lon="23.150177">
        <ele>616.9</ele>
        <time>2026-04-13T14:10:06.000Z</time>
      </trkpt>
      <trkpt lat="42.129355" lon="23.150177">
        <ele>616.9</ele>
        <time>2026-04-13T14:10:07.000Z</time>
      </trkpt>
      <trkpt lat="42.129355" lon="23.150179">
        <ele>616.9</ele>
        <time>2026-04-13T14:10:08.000Z</time>
      </trkpt>
      <trkpt lat="42.129355" lon="23.150181">
        <ele>616.9</ele>
        <time>2026-04-13T14:10:09.000Z</time>
      </trkpt>
      <trkpt lat="42.129355" lon="23.150185">
        <ele>616.8</ele>
        <time>2026-04-13T14:10:10.000Z</time>
      </trkpt>
      <trkpt lat="42.129355" lon="23.150189">
        <ele>616.8</ele>
        <time>2026-04-13T14:10:11.000Z</time>
      </trkpt>
      <trkpt lat="42.129355" lon="23.150192">
        <ele>616.8</ele>
        <time>2026-04-13T14:10:12.000Z</time>
      </trkpt>
      <trkpt lat="42.129355" lon="23.150194">
        <ele>616.8</ele>
        <time>2026-04-13T14:10:13.000Z</time>
      </trkpt>
      <trkpt lat="42.129354" lon="23.150195">
        <ele>616.8</ele>
        <time>2026-04-13T14:10:14.000Z</time>
      </trkpt>
      <trkpt lat="42.129354" lon="23.150195">
        <ele>617</ele>
        <time>2026-04-13T14:10:15.000Z</time>
      </trkpt>
      <trkpt lat="42.129355" lon="23.150194">
        <ele>617</ele>
        <time>2026-04-13T14:10:16.000Z</time>
      </trkpt>
      <trkpt lat="42.129356" lon="23.150192">
        <ele>617</ele>
        <time>2026-04-13T14:10:17.000Z</time>
      </trkpt>
      <trkpt lat="42.129358" lon="23.150191">
        <ele>617</ele>
        <time>2026-04-13T14:10:18.000Z</time>
      </trkpt>
      <trkpt lat="42.129359" lon="23.150189">
        <ele>617</ele>
        <time>2026-04-13T14:10:19.000Z</time>
      </trkpt>
      <trkpt lat="42.12936" lon="23.150189">
        <ele>617.4</ele>
        <time>2026-04-13T14:10:20.000Z</time>
      </trkpt>
      <trkpt lat="42.129361" lon="23.150188">
        <ele>617.4</ele>
        <time>2026-04-13T14:10:21.000Z</time>
      </trkpt>
      <trkpt lat="42.129362" lon="23.150187">
        <ele>617.4</ele>
        <time>2026-04-13T14:10:22.000Z</time>
      </trkpt>
      <trkpt lat="42.129361" lon="23.150187">
        <ele>617.4</ele>
        <time>2026-04-13T14:10:23.000Z</time>
      </trkpt>
      <trkpt lat="42.129361" lon="23.150186">
        <ele>617.4</ele>
        <time>2026-04-13T14:10:24.000Z</time>
      </trkpt>
      <trkpt lat="42.12936" lon="23.150186">
        <ele>617.4</ele>
        <time>2026-04-13T14:10:25.000Z</time>
      </trkpt>
      <trkpt lat="42.12936" lon="23.150187">
        <ele>617.4</ele>
        <time>2026-04-13T14:10:26.000Z</time>
      </trkpt>
      <trkpt lat="42.129359" lon="23.150189">
        <ele>617.4</ele>
        <time>2026-04-13T14:10:27.000Z</time>
      </trkpt>
      <trkpt lat="42.129359" lon="23.150191">
        <ele>617.4</ele>
        <time>2026-04-13T14:10:28.000Z</time>
      </trkpt>
      <trkpt lat="42.12936" lon="23.150194">
        <ele>617.4</ele>
        <time>2026-04-13T14:10:29.000Z</time>
      </trkpt>
      <trkpt lat="42.12936" lon="23.150196">
        <ele>617.4</ele>
        <time>2026-04-13T14:10:30.000Z</time>
      </trkpt>
      <trkpt lat="42.12936" lon="23.150197">
        <ele>617.4</ele>
        <time>2026-04-13T14:10:31.000Z</time>
      </trkpt>
      <trkpt lat="42.12936" lon="23.150197">
        <ele>617.4</ele>
        <time>2026-04-13T14:10:32.000Z</time>
      </trkpt>
      <trkpt lat="42.12936" lon="23.150197">
        <ele>617.4</ele>
        <time>2026-04-13T14:10:33.000Z</time>
      </trkpt>
      <trkpt lat="42.129359" lon="23.150197">
        <ele>617.4</ele>
        <time>2026-04-13T14:10:34.000Z</time>
      </trkpt>
      <trkpt lat="42.129358" lon="23.150196">
        <ele>617.4</ele>
        <time>2026-04-13T14:10:35.000Z</time>
      </trkpt>
      <trkpt lat="42.129357" lon="23.150195">
        <ele>617.4</ele>
        <time>2026-04-13T14:10:36.000Z</time>
      </trkpt>
      <trkpt lat="42.129356" lon="23.150194">
        <ele>617.4</ele>
        <time>2026-04-13T14:10:37.000Z</time>
      </trkpt>
      <trkpt lat="42.129355" lon="23.150193">
        <ele>617.4</ele>
        <time>2026-04-13T14:10:38.000Z</time>
      </trkpt>
      <trkpt lat="42.129354" lon="23.150193">
        <ele>617.4</ele>
        <time>2026-04-13T14:10:39.000Z</time>
      </trkpt>
      <trkpt lat="42.129353" lon="23.150193">
        <ele>617.5</ele>
        <time>2026-04-13T14:10:40.000Z</time>
      </trkpt>
      <trkpt lat="42.129353" lon="23.150195">
        <ele>617.5</ele>
        <time>2026-04-13T14:10:41.000Z</time>
      </trkpt>
      <trkpt lat="42.129354" lon="23.150197">
        <ele>617.5</ele>
        <time>2026-04-13T14:10:42.000Z</time>
      </trkpt>
      <trkpt lat="42.129355" lon="23.1502">
        <ele>617.5</ele>
        <time>2026-04-13T14:10:43.000Z</time>
      </trkpt>
      <trkpt lat="42.129357" lon="23.150203">
        <ele>617.5</ele>
        <time>2026-04-13T14:10:44.000Z</time>
      </trkpt>
      <trkpt lat="42.129358" lon="23.150206">
        <ele>617.5</ele>
        <time>2026-04-13T14:10:45.000Z</time>
      </trkpt>
      <trkpt lat="42.129358" lon="23.150207">
        <ele>617.5</ele>
        <time>2026-04-13T14:10:46.000Z</time>
      </trkpt>
      <trkpt lat="42.129358" lon="23.150207">
        <ele>617.5</ele>
        <time>2026-04-13T14:10:47.000Z</time>
      </trkpt>
      <trkpt lat="42.129358" lon="23.150207">
        <ele>617.5</ele>
        <time>2026-04-13T14:10:48.000Z</time>
      </trkpt>
      <trkpt lat="42.129357" lon="23.150206">
        <ele>617.5</ele>
        <time>2026-04-13T14:10:49.000Z</time>
      </trkpt>
      <trkpt lat="42.129357" lon="23.150205">
        <ele>617.4</ele>
        <time>2026-04-13T14:10:50.000Z</time>
      </trkpt>
      <trkpt lat="42.129356" lon="23.150204">
        <ele>617.4</ele>
        <time>2026-04-13T14:10:51.000Z</time>
      </trkpt>
      <trkpt lat="42.129356" lon="23.150203">
        <ele>617.4</ele>
        <time>2026-04-13T14:10:52.000Z</time>
      </trkpt>
      <trkpt lat="42.129356" lon="23.150202">
        <ele>617.4</ele>
        <time>2026-04-13T14:10:53.000Z</time>
      </trkpt>
      <trkpt lat="42.129356" lon="23.150202">
        <ele>617.4</ele>
        <time>2026-04-13T14:10:54.000Z</time>
      </trkpt>
      <trkpt lat="42.129357" lon="23.150202">
        <ele>617.4</ele>
        <time>2026-04-13T14:10:55.000Z</time>
      </trkpt>
      <trkpt lat="42.129357" lon="23.150203">
        <ele>617.4</ele>
        <time>2026-04-13T14:10:56.000Z</time>
      </trkpt>
      <trkpt lat="42.129358" lon="23.150205">
        <ele>617.4</ele>
        <time>2026-04-13T14:10:57.000Z</time>
      </trkpt>
      <trkpt lat="42.129358" lon="23.150208">
        <ele>617.4</ele>
        <time>2026-04-13T14:10:58.000Z</time>
      </trkpt>
      <trkpt lat="42.129358" lon="23.150213">
        <ele>617.4</ele>
        <time>2026-04-13T14:10:59.000Z</time>
      </trkpt>
      <trkpt lat="42.129358" lon="23.150219">
        <ele>617.3</ele>
        <time>2026-04-13T14:11:00.000Z</time>
      </trkpt>
      <trkpt lat="42.129356" lon="23.150223">
        <ele>617.3</ele>
        <time>2026-04-13T14:11:01.000Z</time>
      </trkpt>
      <trkpt lat="42.129353" lon="23.150228">
        <ele>617.3</ele>
        <time>2026-04-13T14:11:02.000Z</time>
      </trkpt>
      <trkpt lat="42.129349" lon="23.150231">
        <ele>617.3</ele>
        <time>2026-04-13T14:11:03.000Z</time>
      </trkpt>
      <trkpt lat="42.129346" lon="23.150234">
        <ele>617.3</ele>
        <time>2026-04-13T14:11:04.000Z</time>
      </trkpt>
      <trkpt lat="42.129343" lon="23.150237">
        <ele>617.3</ele>
        <time>2026-04-13T14:11:05.000Z</time>
      </trkpt>
      <trkpt lat="42.129341" lon="23.150239">
        <ele>617.3</ele>
        <time>2026-04-13T14:11:06.000Z</time>
      </trkpt>
      <trkpt lat="42.12934" lon="23.150241">
        <ele>617.3</ele>
        <time>2026-04-13T14:11:07.000Z</time>
      </trkpt>
      <trkpt lat="42.129339" lon="23.150243">
        <ele>617.3</ele>
        <time>2026-04-13T14:11:08.000Z</time>
      </trkpt>
      <trkpt lat="42.129338" lon="23.150243">
        <ele>617.3</ele>
        <time>2026-04-13T14:11:09.000Z</time>
      </trkpt>
      <trkpt lat="42.129338" lon="23.150243">
        <ele>617.4</ele>
        <time>2026-04-13T14:11:10.000Z</time>
      </trkpt>
      <trkpt lat="42.129337" lon="23.150242">
        <ele>617.4</ele>
        <time>2026-04-13T14:11:11.000Z</time>
      </trkpt>
      <trkpt lat="42.129337" lon="23.15024">
        <ele>617.4</ele>
        <time>2026-04-13T14:11:12.000Z</time>
      </trkpt>
      <trkpt lat="42.129336" lon="23.150237">
        <ele>617.4</ele>
        <time>2026-04-13T14:11:13.000Z</time>
      </trkpt>
      <trkpt lat="42.129335" lon="23.150234">
        <ele>617.4</ele>
        <time>2026-04-13T14:11:14.000Z</time>
      </trkpt>
      <trkpt lat="42.129334" lon="23.150231">
        <ele>617.4</ele>
        <time>2026-04-13T14:11:15.000Z</time>
      </trkpt>
      <trkpt lat="42.129335" lon="23.150229">
        <ele>617.4</ele>
        <time>2026-04-13T14:11:16.000Z</time>
      </trkpt>
      <trkpt lat="42.129336" lon="23.150228">
        <ele>617.4</ele>
        <time>2026-04-13T14:11:17.000Z</time>
      </trkpt>
      <trkpt lat="42.129338" lon="23.150229">
        <ele>617.4</ele>
        <time>2026-04-13T14:11:18.000Z</time>
      </trkpt>
      <trkpt lat="42.129339" lon="23.15023">
        <ele>617.4</ele>
        <time>2026-04-13T14:11:19.000Z</time>
      </trkpt>
      <trkpt lat="42.12934" lon="23.150232">
        <ele>617.3</ele>
        <time>2026-04-13T14:11:20.000Z</time>
      </trkpt>
      <trkpt lat="42.129341" lon="23.150232">
        <ele>617.3</ele>
        <time>2026-04-13T14:11:21.000Z</time>
      </trkpt>
      <trkpt lat="42.12934" lon="23.15023">
        <ele>617.3</ele>
        <time>2026-04-13T14:11:22.000Z</time>
      </trkpt>
      <trkpt lat="42.129339" lon="23.150228">
        <ele>617.3</ele>
        <time>2026-04-13T14:11:23.000Z</time>
      </trkpt>
      <trkpt lat="42.129338" lon="23.150225">
        <ele>617.3</ele>
        <time>2026-04-13T14:11:24.000Z</time>
      </trkpt>
      <trkpt lat="42.129337" lon="23.150223">
        <ele>617.3</ele>
        <time>2026-04-13T14:11:25.000Z</time>
      </trkpt>
      <trkpt lat="42.129337" lon="23.150221">
        <ele>617.3</ele>
        <time>2026-04-13T14:11:26.000Z</time>
      </trkpt>
      <trkpt lat="42.129337" lon="23.150219">
        <ele>617.3</ele>
        <time>2026-04-13T14:11:27.000Z</time>
      </trkpt>
      <trkpt lat="42.129339" lon="23.150219">
        <ele>617.3</ele>
        <time>2026-04-13T14:11:28.000Z</time>
      </trkpt>
      <trkpt lat="42.129341" lon="23.150219">
        <ele>617.3</ele>
        <time>2026-04-13T14:11:29.000Z</time>
      </trkpt>
      <trkpt lat="42.129343" lon="23.15022">
        <ele>617.3</ele>
        <time>2026-04-13T14:11:30.000Z</time>
      </trkpt>
      <trkpt lat="42.129345" lon="23.150218">
        <ele>617.3</ele>
        <time>2026-04-13T14:11:31.000Z</time>
      </trkpt>
      <trkpt lat="42.129346" lon="23.150216">
        <ele>617.3</ele>
        <time>2026-04-13T14:11:32.000Z</time>
      </trkpt>
      <trkpt lat="42.129347" lon="23.150213">
        <ele>617.3</ele>
        <time>2026-04-13T14:11:33.000Z</time>
      </trkpt>
      <trkpt lat="42.129347" lon="23.15021">
        <ele>617.3</ele>
        <time>2026-04-13T14:11:34.000Z</time>
      </trkpt>
      <trkpt lat="42.129348" lon="23.150206">
        <ele>617.2</ele>
        <time>2026-04-13T14:11:35.000Z</time>
      </trkpt>
      <trkpt lat="42.12935" lon="23.150203">
        <ele>617.2</ele>
        <time>2026-04-13T14:11:36.000Z</time>
      </trkpt>
      <trkpt lat="42.129351" lon="23.150201">
        <ele>617.2</ele>
        <time>2026-04-13T14:11:37.000Z</time>
      </trkpt>
      <trkpt lat="42.129352" lon="23.150199">
        <ele>617.2</ele>
        <time>2026-04-13T14:11:38.000Z</time>
      </trkpt>
      <trkpt lat="42.129353" lon="23.150197">
        <ele>617.2</ele>
        <time>2026-04-13T14:11:39.000Z</time>
      </trkpt>
      <trkpt lat="42.129353" lon="23.150194">
        <ele>617.1</ele>
        <time>2026-04-13T14:11:40.000Z</time>
      </trkpt>
      <trkpt lat="42.129352" lon="23.150191">
        <ele>617.1</ele>
        <time>2026-04-13T14:11:41.000Z</time>
      </trkpt>
      <trkpt lat="42.129352" lon="23.150188">
        <ele>617.1</ele>
        <time>2026-04-13T14:11:42.000Z</time>
      </trkpt>
      <trkpt lat="42.129352" lon="23.150184">
        <ele>617.1</ele>
        <time>2026-04-13T14:11:43.000Z</time>
      </trkpt>
      <trkpt lat="42.129351" lon="23.150181">
        <ele>617.1</ele>
        <time>2026-04-13T14:11:44.000Z</time>
      </trkpt>
      <trkpt lat="42.129351" lon="23.150177">
        <ele>617</ele>
        <time>2026-04-13T14:11:45.000Z</time>
      </trkpt>
      <trkpt lat="42.129352" lon="23.150173">
        <ele>617</ele>
        <time>2026-04-13T14:11:46.000Z</time>
      </trkpt>
      <trkpt lat="42.129353" lon="23.15017">
        <ele>617</ele>
        <time>2026-04-13T14:11:47.000Z</time>
      </trkpt>
      <trkpt lat="42.129356" lon="23.150168">
        <ele>617</ele>
        <time>2026-04-13T14:11:48.000Z</time>
      </trkpt>
      <trkpt lat="42.129358" lon="23.150166">
        <ele>617</ele>
        <time>2026-04-13T14:11:49.000Z</time>
      </trkpt>
      <trkpt lat="42.129361" lon="23.150165">
        <ele>616.9</ele>
        <time>2026-04-13T14:11:50.000Z</time>
      </trkpt>
      <trkpt lat="42.129363" lon="23.150166">
        <ele>616.9</ele>
        <time>2026-04-13T14:11:51.000Z</time>
      </trkpt>
      <trkpt lat="42.129365" lon="23.150166">
        <ele>616.9</ele>
        <time>2026-04-13T14:11:52.000Z</time>
      </trkpt>
      <trkpt lat="42.129366" lon="23.150167">
        <ele>616.9</ele>
        <time>2026-04-13T14:11:53.000Z</time>
      </trkpt>
      <trkpt lat="42.129367" lon="23.150168">
        <ele>616.9</ele>
        <time>2026-04-13T14:11:54.000Z</time>
      </trkpt>
      <trkpt lat="42.129367" lon="23.15017">
        <ele>617</ele>
        <time>2026-04-13T14:11:55.000Z</time>
      </trkpt>
      <trkpt lat="42.129368" lon="23.150171">
        <ele>617</ele>
        <time>2026-04-13T14:11:56.000Z</time>
      </trkpt>
      <trkpt lat="42.129369" lon="23.150173">
        <ele>617</ele>
        <time>2026-04-13T14:11:57.000Z</time>
      </trkpt>
      <trkpt lat="42.129371" lon="23.150174">
        <ele>617</ele>
        <time>2026-04-13T14:11:58.000Z</time>
      </trkpt>
      <trkpt lat="42.129374" lon="23.150175">
        <ele>617</ele>
        <time>2026-04-13T14:11:59.000Z</time>
      </trkpt>
      <trkpt lat="42.129377" lon="23.150175">
        <ele>616.9</ele>
        <time>2026-04-13T14:12:00.000Z</time>
      </trkpt>
      <trkpt lat="42.12938" lon="23.150175">
        <ele>616.9</ele>
        <time>2026-04-13T14:12:01.000Z</time>
      </trkpt>
      <trkpt lat="42.129383" lon="23.150174">
        <ele>616.9</ele>
        <time>2026-04-13T14:12:02.000Z</time>
      </trkpt>
      <trkpt lat="42.129387" lon="23.150172">
        <ele>616.9</ele>
        <time>2026-04-13T14:12:03.000Z</time>
      </trkpt>
      <trkpt lat="42.129392" lon="23.15017">
        <ele>616.9</ele>
        <time>2026-04-13T14:12:04.000Z</time>
      </trkpt>
      <trkpt lat="42.129396" lon="23.150167">
        <ele>616.8</ele>
        <time>2026-04-13T14:12:05.000Z</time>
      </trkpt>
      <trkpt lat="42.129401" lon="23.150164">
        <ele>616.8</ele>
        <time>2026-04-13T14:12:06.000Z</time>
      </trkpt>
      <trkpt lat="42.129405" lon="23.150161">
        <ele>616.8</ele>
        <time>2026-04-13T14:12:07.000Z</time>
      </trkpt>
      <trkpt lat="42.129408" lon="23.150159">
        <ele>616.8</ele>
        <time>2026-04-13T14:12:08.000Z</time>
      </trkpt>
      <trkpt lat="42.129411" lon="23.150156">
        <ele>616.8</ele>
        <time>2026-04-13T14:12:09.000Z</time>
      </trkpt>
      <trkpt lat="42.129415" lon="23.150154">
        <ele>617</ele>
        <time>2026-04-13T14:12:10.000Z</time>
      </trkpt>
      <trkpt lat="42.129418" lon="23.150154">
        <ele>617</ele>
        <time>2026-04-13T14:12:11.000Z</time>
      </trkpt>
      <trkpt lat="42.129423" lon="23.150156">
        <ele>617</ele>
        <time>2026-04-13T14:12:12.000Z</time>
      </trkpt>
      <trkpt lat="42.129428" lon="23.150159">
        <ele>617</ele>
        <time>2026-04-13T14:12:13.000Z</time>
      </trkpt>
      <trkpt lat="42.129435" lon="23.150163">
        <ele>617</ele>
        <time>2026-04-13T14:12:14.000Z</time>
      </trkpt>
      <trkpt lat="42.129441" lon="23.150169">
        <ele>617.8</ele>
        <time>2026-04-13T14:12:15.000Z</time>
      </trkpt>
      <trkpt lat="42.129447" lon="23.150173">
        <ele>617.8</ele>
        <time>2026-04-13T14:12:16.000Z</time>
      </trkpt>
      <trkpt lat="42.129453" lon="23.150177">
        <ele>617.8</ele>
        <time>2026-04-13T14:12:17.000Z</time>
      </trkpt>
      <trkpt lat="42.129459" lon="23.150179">
        <ele>617.8</ele>
        <time>2026-04-13T14:12:18.000Z</time>
      </trkpt>
      <trkpt lat="42.129465" lon="23.150181">
        <ele>617.8</ele>
        <time>2026-04-13T14:12:19.000Z</time>
      </trkpt>
      <trkpt lat="42.129471" lon="23.150182">
        <ele>619.4</ele>
        <time>2026-04-13T14:12:20.000Z</time>
      </trkpt>
      <trkpt lat="42.129477" lon="23.150183">
        <ele>619.4</ele>
        <time>2026-04-13T14:12:21.000Z</time>
      </trkpt>
      <trkpt lat="42.129484" lon="23.150184">
        <ele>619.4</ele>
        <time>2026-04-13T14:12:22.000Z</time>
      </trkpt>
      <trkpt lat="42.12949" lon="23.150185">
        <ele>619.4</ele>
        <time>2026-04-13T14:12:23.000Z</time>
      </trkpt>
      <trkpt lat="42.129497" lon="23.150187">
        <ele>619.4</ele>
        <time>2026-04-13T14:12:24.000Z</time>
      </trkpt>
      <trkpt lat="42.129504" lon="23.150189">
        <ele>620.3</ele>
        <time>2026-04-13T14:12:25.000Z</time>
      </trkpt>
      <trkpt lat="42.12951" lon="23.150193">
        <ele>620.3</ele>
        <time>2026-04-13T14:12:26.000Z</time>
      </trkpt>
      <trkpt lat="42.129514" lon="23.150197">
        <ele>620.3</ele>
        <time>2026-04-13T14:12:27.000Z</time>
      </trkpt>
      <trkpt lat="42.129518" lon="23.1502">
        <ele>620.3</ele>
        <time>2026-04-13T14:12:28.000Z</time>
      </trkpt>
      <trkpt lat="42.129522" lon="23.150202">
        <ele>620.3</ele>
        <time>2026-04-13T14:12:29.000Z</time>
      </trkpt>
      <trkpt lat="42.129525" lon="23.150201">
        <ele>622.1</ele>
        <time>2026-04-13T14:12:30.000Z</time>
      </trkpt>
      <trkpt lat="42.129529" lon="23.1502">
        <ele>622.1</ele>
        <time>2026-04-13T14:12:31.000Z</time>
      </trkpt>
      <trkpt lat="42.129534" lon="23.150198">
        <ele>622.1</ele>
        <time>2026-04-13T14:12:32.000Z</time>
      </trkpt>
      <trkpt lat="42.129539" lon="23.150196">
        <ele>622.1</ele>
        <time>2026-04-13T14:12:33.000Z</time>
      </trkpt>
      <trkpt lat="42.129543" lon="23.150196">
        <ele>622.1</ele>
        <time>2026-04-13T14:12:34.000Z</time>
      </trkpt>
      <trkpt lat="42.129548" lon="23.150197">
        <ele>623.3</ele>
        <time>2026-04-13T14:12:35.000Z</time>
      </trkpt>
      <trkpt lat="42.129551" lon="23.150198">
        <ele>623.3</ele>
        <time>2026-04-13T14:12:36.000Z</time>
      </trkpt>
      <trkpt lat="42.129553" lon="23.150198">
        <ele>623.3</ele>
        <time>2026-04-13T14:12:37.000Z</time>
      </trkpt>
      <trkpt lat="42.129554" lon="23.150197">
        <ele>623.3</ele>
        <time>2026-04-13T14:12:38.000Z</time>
      </trkpt>
      <trkpt lat="42.129553" lon="23.150195">
        <ele>623.3</ele>
        <time>2026-04-13T14:12:39.000Z</time>
      </trkpt>
      <trkpt lat="42.129551" lon="23.150192">
        <ele>623.6</ele>
        <time>2026-04-13T14:12:40.000Z</time>
      </trkpt>
      <trkpt lat="42.12955" lon="23.150189">
        <ele>623.6</ele>
        <time>2026-04-13T14:12:41.000Z</time>
      </trkpt>
      <trkpt lat="42.12955" lon="23.150184">
        <ele>623.6</ele>
        <time>2026-04-13T14:12:42.000Z</time>
      </trkpt>
      <trkpt lat="42.12955" lon="23.15018">
        <ele>623.6</ele>
        <time>2026-04-13T14:12:43.000Z</time>
      </trkpt>
      <trkpt lat="42.129551" lon="23.150176">
        <ele>623.6</ele>
        <time>2026-04-13T14:12:44.000Z</time>
      </trkpt>
      <trkpt lat="42.129554" lon="23.150172">
        <ele>623.7</ele>
        <time>2026-04-13T14:12:45.000Z</time>
      </trkpt>
      <trkpt lat="42.129557" lon="23.150169">
        <ele>623.7</ele>
        <time>2026-04-13T14:12:46.000Z</time>
      </trkpt>
      <trkpt lat="42.12956" lon="23.150167">
        <ele>623.7</ele>
        <time>2026-04-13T14:12:47.000Z</time>
      </trkpt>
      <trkpt lat="42.129564" lon="23.150166">
        <ele>623.7</ele>
        <time>2026-04-13T14:12:48.000Z</time>
      </trkpt>
      <trkpt lat="42.129567" lon="23.150166">
        <ele>623.7</ele>
        <time>2026-04-13T14:12:49.000Z</time>
      </trkpt>
      <trkpt lat="42.129568" lon="23.150168">
        <ele>624.4</ele>
        <time>2026-04-13T14:12:50.000Z</time>
      </trkpt>
      <trkpt lat="42.129568" lon="23.150169">
        <ele>624.4</ele>
        <time>2026-04-13T14:12:51.000Z</time>
      </trkpt>
      <trkpt lat="42.129566" lon="23.150171">
        <ele>624.4</ele>
        <time>2026-04-13T14:12:52.000Z</time>
      </trkpt>
      <trkpt lat="42.129562" lon="23.150171">
        <ele>624.4</ele>
        <time>2026-04-13T14:12:53.000Z</time>
      </trkpt>
      <trkpt lat="42.129557" lon="23.15017">
        <ele>624.4</ele>
        <time>2026-04-13T14:12:54.000Z</time>
      </trkpt>
      <trkpt lat="42.129552" lon="23.150168">
        <ele>624.9</ele>
        <time>2026-04-13T14:12:55.000Z</time>
      </trkpt>
      <trkpt lat="42.129548" lon="23.150166">
        <ele>624.9</ele>
        <time>2026-04-13T14:12:56.000Z</time>
      </trkpt>
      <trkpt lat="42.129544" lon="23.150164">
        <ele>624.9</ele>
        <time>2026-04-13T14:12:57.000Z</time>
      </trkpt>
      <trkpt lat="42.129541" lon="23.150163">
        <ele>624.9</ele>
        <time>2026-04-13T14:12:58.000Z</time>
      </trkpt>
      <trkpt lat="42.12954" lon="23.150163">
        <ele>624.9</ele>
        <time>2026-04-13T14:12:59.000Z</time>
      </trkpt>
      <trkpt lat="42.129539" lon="23.150163">
        <ele>626.1</ele>
        <time>2026-04-13T14:13:00.000Z</time>
      </trkpt>
      <trkpt lat="42.129538" lon="23.150163">
        <ele>626.1</ele>
        <time>2026-04-13T14:13:01.000Z</time>
      </trkpt>
      <trkpt lat="42.129538" lon="23.150162">
        <ele>626.1</ele>
        <time>2026-04-13T14:13:02.000Z</time>
      </trkpt>
      <trkpt lat="42.129538" lon="23.150162">
        <ele>626.1</ele>
        <time>2026-04-13T14:13:03.000Z</time>
      </trkpt>
      <trkpt lat="42.129538" lon="23.150163">
        <ele>626.1</ele>
        <time>2026-04-13T14:13:04.000Z</time>
      </trkpt>
      <trkpt lat="42.129538" lon="23.150163">
        <ele>626.7</ele>
        <time>2026-04-13T14:13:05.000Z</time>
      </trkpt>
      <trkpt lat="42.129539" lon="23.150163">
        <ele>626.7</ele>
        <time>2026-04-13T14:13:06.000Z</time>
      </trkpt>
      <trkpt lat="42.129539" lon="23.150164">
        <ele>626.7</ele>
        <time>2026-04-13T14:13:07.000Z</time>
      </trkpt>
      <trkpt lat="42.12954" lon="23.150163">
        <ele>626.7</ele>
        <time>2026-04-13T14:13:08.000Z</time>
      </trkpt>
      <trkpt lat="42.129542" lon="23.150162">
        <ele>626.7</ele>
        <time>2026-04-13T14:13:09.000Z</time>
      </trkpt>
      <trkpt lat="42.129545" lon="23.15016">
        <ele>626.8</ele>
        <time>2026-04-13T14:13:10.000Z</time>
      </trkpt>
      <trkpt lat="42.129548" lon="23.150159">
        <ele>626.8</ele>
        <time>2026-04-13T14:13:11.000Z</time>
      </trkpt>
      <trkpt lat="42.129551" lon="23.150159">
        <ele>626.8</ele>
        <time>2026-04-13T14:13:12.000Z</time>
      </trkpt>
      <trkpt lat="42.129555" lon="23.15016">
        <ele>626.8</ele>
        <time>2026-04-13T14:13:13.000Z</time>
      </trkpt>
      <trkpt lat="42.129557" lon="23.150164">
        <ele>626.8</ele>
        <time>2026-04-13T14:13:14.000Z</time>
      </trkpt>
      <trkpt lat="42.12956" lon="23.150169">
        <ele>626.7</ele>
        <time>2026-04-13T14:13:15.000Z</time>
      </trkpt>
      <trkpt lat="42.129562" lon="23.150174">
        <ele>626.7</ele>
        <time>2026-04-13T14:13:16.000Z</time>
      </trkpt>
      <trkpt lat="42.129563" lon="23.150178">
        <ele>626.7</ele>
        <time>2026-04-13T14:13:17.000Z</time>
      </trkpt>
      <trkpt lat="42.129563" lon="23.150182">
        <ele>626.7</ele>
        <time>2026-04-13T14:13:18.000Z</time>
      </trkpt>
      <trkpt lat="42.129564" lon="23.150185">
        <ele>626.7</ele>
        <time>2026-04-13T14:13:19.000Z</time>
      </trkpt>
      <trkpt lat="42.129564" lon="23.150187">
        <ele>626.7</ele>
        <time>2026-04-13T14:13:20.000Z</time>
      </trkpt>
      <trkpt lat="42.129564" lon="23.150188">
        <ele>626.7</ele>
        <time>2026-04-13T14:13:21.000Z</time>
      </trkpt>
      <trkpt lat="42.129564" lon="23.150189">
        <ele>626.7</ele>
        <time>2026-04-13T14:13:22.000Z</time>
      </trkpt>
      <trkpt lat="42.129565" lon="23.15019">
        <ele>626.7</ele>
        <time>2026-04-13T14:13:23.000Z</time>
      </trkpt>
      <trkpt lat="42.129565" lon="23.15019">
        <ele>626.7</ele>
        <time>2026-04-13T14:13:24.000Z</time>
      </trkpt>
      <trkpt lat="42.129565" lon="23.150191">
        <ele>626.6</ele>
        <time>2026-04-13T14:13:25.000Z</time>
      </trkpt>
      <trkpt lat="42.129565" lon="23.150191">
        <ele>626.6</ele>
        <time>2026-04-13T14:13:26.000Z</time>
      </trkpt>
      <trkpt lat="42.129565" lon="23.150191">
        <ele>626.6</ele>
        <time>2026-04-13T14:13:27.000Z</time>
      </trkpt>
      <trkpt lat="42.129565" lon="23.150191">
        <ele>626.6</ele>
        <time>2026-04-13T14:13:28.000Z</time>
      </trkpt>
      <trkpt lat="42.129565" lon="23.150191">
        <ele>626.6</ele>
        <time>2026-04-13T14:13:29.000Z</time>
      </trkpt>
      <trkpt lat="42.129565" lon="23.150191">
        <ele>626.5</ele>
        <time>2026-04-13T14:13:30.000Z</time>
      </trkpt>
      <trkpt lat="42.129565" lon="23.150191">
        <ele>626.5</ele>
        <time>2026-04-13T14:13:31.000Z</time>
      </trkpt>
      <trkpt lat="42.129565" lon="23.150191">
        <ele>626.5</ele>
        <time>2026-04-13T14:13:32.000Z</time>
      </trkpt>
      <trkpt lat="42.129565" lon="23.150191">
        <ele>626.5</ele>
        <time>2026-04-13T14:13:33.000Z</time>
      </trkpt>
      <trkpt lat="42.129565" lon="23.150191">
        <ele>626.5</ele>
        <time>2026-04-13T14:13:34.000Z</time>
      </trkpt>
      <trkpt lat="42.129565" lon="23.150191">
        <ele>626.1</ele>
        <time>2026-04-13T14:13:35.000Z</time>
      </trkpt>
      <trkpt lat="42.129565" lon="23.15019">
        <ele>626.1</ele>
        <time>2026-04-13T14:13:36.000Z</time>
      </trkpt>
      <trkpt lat="42.129566" lon="23.15019">
        <ele>626.1</ele>
        <time>2026-04-13T14:13:37.000Z</time>
      </trkpt>
      <trkpt lat="42.129567" lon="23.150188">
        <ele>626.1</ele>
        <time>2026-04-13T14:13:38.000Z</time>
      </trkpt>
      <trkpt lat="42.129568" lon="23.150186">
        <ele>626.1</ele>
        <time>2026-04-13T14:13:39.000Z</time>
      </trkpt>
      <trkpt lat="42.12957" lon="23.150185">
        <ele>626</ele>
        <time>2026-04-13T14:13:40.000Z</time>
      </trkpt>
      <trkpt lat="42.129571" lon="23.150183">
        <ele>626</ele>
        <time>2026-04-13T14:13:41.000Z</time>
      </trkpt>
      <trkpt lat="42.129573" lon="23.15018">
        <ele>626</ele>
        <time>2026-04-13T14:13:42.000Z</time>
      </trkpt>
      <trkpt lat="42.129574" lon="23.150178">
        <ele>626</ele>
        <time>2026-04-13T14:13:43.000Z</time>
      </trkpt>
      <trkpt lat="42.129576" lon="23.150177">
        <ele>626</ele>
        <time>2026-04-13T14:13:44.000Z</time>
      </trkpt>
      <trkpt lat="42.129578" lon="23.150174">
        <ele>625.9</ele>
        <time>2026-04-13T14:13:45.000Z</time>
      </trkpt>
      <trkpt lat="42.129579" lon="23.150172">
        <ele>625.9</ele>
        <time>2026-04-13T14:13:46.000Z</time>
      </trkpt>
      <trkpt lat="42.129581" lon="23.150171">
        <ele>625.9</ele>
        <time>2026-04-13T14:13:47.000Z</time>
      </trkpt>
      <trkpt lat="42.129582" lon="23.15017">
        <ele>625.9</ele>
        <time>2026-04-13T14:13:48.000Z</time>
      </trkpt>
      <trkpt lat="42.129583" lon="23.150171">
        <ele>625.9</ele>
        <time>2026-04-13T14:13:49.000Z</time>
      </trkpt>
      <trkpt lat="42.129583" lon="23.150174">
        <ele>626</ele>
        <time>2026-04-13T14:13:50.000Z</time>
      </trkpt>
      <trkpt lat="42.129582" lon="23.150178">
        <ele>626</ele>
        <time>2026-04-13T14:13:51.000Z</time>
      </trkpt>
      <trkpt lat="42.12958" lon="23.150183">
        <ele>626</ele>
        <time>2026-04-13T14:13:52.000Z</time>
      </trkpt>
      <trkpt lat="42.129579" lon="23.150187">
        <ele>626</ele>
        <time>2026-04-13T14:13:53.000Z</time>
      </trkpt>
      <trkpt lat="42.129578" lon="23.150189">
        <ele>626</ele>
        <time>2026-04-13T14:13:54.000Z</time>
      </trkpt>
      <trkpt lat="42.129576" lon="23.150191">
        <ele>626</ele>
        <time>2026-04-13T14:13:55.000Z</time>
      </trkpt>
      <trkpt lat="42.129574" lon="23.150193">
        <ele>626</ele>
        <time>2026-04-13T14:13:56.000Z</time>
      </trkpt>
      <trkpt lat="42.129573" lon="23.150194">
        <ele>626</ele>
        <time>2026-04-13T14:13:57.000Z</time>
      </trkpt>
      <trkpt lat="42.129572" lon="23.150195">
        <ele>626</ele>
        <time>2026-04-13T14:13:58.000Z</time>
      </trkpt>
      <trkpt lat="42.129571" lon="23.150196">
        <ele>626</ele>
        <time>2026-04-13T14:13:59.000Z</time>
      </trkpt>
      <trkpt lat="42.129571" lon="23.150195">
        <ele>626.1</ele>
        <time>2026-04-13T14:14:00.000Z</time>
      </trkpt>
      <trkpt lat="42.12957" lon="23.150194">
        <ele>626.1</ele>
        <time>2026-04-13T14:14:01.000Z</time>
      </trkpt>
      <trkpt lat="42.12957" lon="23.150195">
        <ele>626.1</ele>
        <time>2026-04-13T14:14:02.000Z</time>
      </trkpt>
      <trkpt lat="42.12957" lon="23.150195">
        <ele>626.1</ele>
        <time>2026-04-13T14:14:03.000Z</time>
      </trkpt>
      <trkpt lat="42.12957" lon="23.150196">
        <ele>626.1</ele>
        <time>2026-04-13T14:14:04.000Z</time>
      </trkpt>
      <trkpt lat="42.129569" lon="23.150196">
        <ele>626.1</ele>
        <time>2026-04-13T14:14:05.000Z</time>
      </trkpt>
      <trkpt lat="42.129569" lon="23.150197">
        <ele>626.1</ele>
        <time>2026-04-13T14:14:06.000Z</time>
      </trkpt>
      <trkpt lat="42.129569" lon="23.150198">
        <ele>626.1</ele>
        <time>2026-04-13T14:14:07.000Z</time>
      </trkpt>
      <trkpt lat="42.129569" lon="23.150198">
        <ele>626.1</ele>
        <time>2026-04-13T14:14:08.000Z</time>
      </trkpt>
      <trkpt lat="42.129568" lon="23.150198">
        <ele>626.1</ele>
        <time>2026-04-13T14:14:09.000Z</time>
      </trkpt>
      <trkpt lat="42.129568" lon="23.150197">
        <ele>626</ele>
        <time>2026-04-13T14:14:10.000Z</time>
      </trkpt>
      <trkpt lat="42.129567" lon="23.150197">
        <ele>626</ele>
        <time>2026-04-13T14:14:11.000Z</time>
      </trkpt>
      <trkpt lat="42.129567" lon="23.150196">
        <ele>626</ele>
        <time>2026-04-13T14:14:12.000Z</time>
      </trkpt>
      <trkpt lat="42.129567" lon="23.150195">
        <ele>626</ele>
        <time>2026-04-13T14:14:13.000Z</time>
      </trkpt>
      <trkpt lat="42.129567" lon="23.150195">
        <ele>626</ele>
        <time>2026-04-13T14:14:14.000Z</time>
      </trkpt>
      <trkpt lat="42.129567" lon="23.150195">
        <ele>626.3</ele>
        <time>2026-04-13T14:14:15.000Z</time>
      </trkpt>
      <trkpt lat="42.129567" lon="23.150195">
        <ele>626.3</ele>
        <time>2026-04-13T14:14:16.000Z</time>
      </trkpt>
      <trkpt lat="42.129566" lon="23.150194">
        <ele>626.3</ele>
        <time>2026-04-13T14:14:17.000Z</time>
      </trkpt>
      <trkpt lat="42.129566" lon="23.150194">
        <ele>626.3</ele>
        <time>2026-04-13T14:14:18.000Z</time>
      </trkpt>
      <trkpt lat="42.129565" lon="23.150194">
        <ele>626.3</ele>
        <time>2026-04-13T14:14:19.000Z</time>
      </trkpt>
      <trkpt lat="42.129564" lon="23.150194">
        <ele>626.7</ele>
        <time>2026-04-13T14:14:20.000Z</time>
      </trkpt>
      <trkpt lat="42.129566" lon="23.150193">
        <ele>626.7</ele>
        <time>2026-04-13T14:14:21.000Z</time>
      </trkpt>
      <trkpt lat="42.129569" lon="23.150194">
        <ele>626.7</ele>
        <time>2026-04-13T14:14:22.000Z</time>
      </trkpt>
      <trkpt lat="42.129572" lon="23.150196">
        <ele>626.7</ele>
        <time>2026-04-13T14:14:23.000Z</time>
      </trkpt>
      <trkpt lat="42.129576" lon="23.150199">
        <ele>626.7</ele>
        <time>2026-04-13T14:14:24.000Z</time>
      </trkpt>
      <trkpt lat="42.129578" lon="23.150202">
        <ele>626.9</ele>
        <time>2026-04-13T14:14:25.000Z</time>
      </trkpt>
      <trkpt lat="42.129578" lon="23.150206">
        <ele>626.9</ele>
        <time>2026-04-13T14:14:26.000Z</time>
      </trkpt>
      <trkpt lat="42.129575" lon="23.150207">
        <ele>626.9</ele>
        <time>2026-04-13T14:14:27.000Z</time>
      </trkpt>
      <trkpt lat="42.129571" lon="23.150206">
        <ele>626.9</ele>
        <time>2026-04-13T14:14:28.000Z</time>
      </trkpt>
      <trkpt lat="42.129565" lon="23.150203">
        <ele>626.9</ele>
        <time>2026-04-13T14:14:29.000Z</time>
      </trkpt>
      <trkpt lat="42.12956" lon="23.150198">
        <ele>627.1</ele>
        <time>2026-04-13T14:14:30.000Z</time>
      </trkpt>
      <trkpt lat="42.129555" lon="23.150194">
        <ele>627.1</ele>
        <time>2026-04-13T14:14:31.000Z</time>
      </trkpt>
      <trkpt lat="42.129552" lon="23.15019">
        <ele>627.1</ele>
        <time>2026-04-13T14:14:32.000Z</time>
      </trkpt>
      <trkpt lat="42.129549" lon="23.150188">
        <ele>627.1</ele>
        <time>2026-04-13T14:14:33.000Z</time>
      </trkpt>
      <trkpt lat="42.129548" lon="23.150187">
        <ele>627.1</ele>
        <time>2026-04-13T14:14:34.000Z</time>
      </trkpt>
      <trkpt lat="42.129547" lon="23.150187">
        <ele>627</ele>
        <time>2026-04-13T14:14:35.000Z</time>
      </trkpt>
      <trkpt lat="42.129547" lon="23.150187">
        <ele>627</ele>
        <time>2026-04-13T14:14:36.000Z</time>
      </trkpt>
      <trkpt lat="42.129547" lon="23.150187">
        <ele>627</ele>
        <time>2026-04-13T14:14:37.000Z</time>
      </trkpt>
      <trkpt lat="42.129547" lon="23.150187">
        <ele>627</ele>
        <time>2026-04-13T14:14:38.000Z</time>
      </trkpt>
      <trkpt lat="42.129546" lon="23.150186">
        <ele>627</ele>
        <time>2026-04-13T14:14:39.000Z</time>
      </trkpt>
      <trkpt lat="42.129546" lon="23.150185">
        <ele>626.9</ele>
        <time>2026-04-13T14:14:40.000Z</time>
      </trkpt>
      <trkpt lat="42.129547" lon="23.150184">
        <ele>626.9</ele>
        <time>2026-04-13T14:14:41.000Z</time>
      </trkpt>
      <trkpt lat="42.129547" lon="23.150183">
        <ele>626.9</ele>
        <time>2026-04-13T14:14:42.000Z</time>
      </trkpt>
      <trkpt lat="42.129547" lon="23.150182">
        <ele>626.9</ele>
        <time>2026-04-13T14:14:43.000Z</time>
      </trkpt>
      <trkpt lat="42.129548" lon="23.150182">
        <ele>626.9</ele>
        <time>2026-04-13T14:14:44.000Z</time>
      </trkpt>
      <trkpt lat="42.129548" lon="23.150182">
        <ele>626.7</ele>
        <time>2026-04-13T14:14:45.000Z</time>
      </trkpt>
      <trkpt lat="42.129549" lon="23.150182">
        <ele>626.7</ele>
        <time>2026-04-13T14:14:46.000Z</time>
      </trkpt>
      <trkpt lat="42.12955" lon="23.150182">
        <ele>626.7</ele>
        <time>2026-04-13T14:14:47.000Z</time>
      </trkpt>
      <trkpt lat="42.12955" lon="23.150182">
        <ele>626.7</ele>
        <time>2026-04-13T14:14:48.000Z</time>
      </trkpt>
      <trkpt lat="42.129551" lon="23.150183">
        <ele>626.7</ele>
        <time>2026-04-13T14:14:49.000Z</time>
      </trkpt>
      <trkpt lat="42.129552" lon="23.150183">
        <ele>626.4</ele>
        <time>2026-04-13T14:14:50.000Z</time>
      </trkpt>
      <trkpt lat="42.129552" lon="23.150184">
        <ele>626.4</ele>
        <time>2026-04-13T14:14:51.000Z</time>
      </trkpt>
      <trkpt lat="42.129553" lon="23.150185">
        <ele>626.4</ele>
        <time>2026-04-13T14:14:52.000Z</time>
      </trkpt>
      <trkpt lat="42.129553" lon="23.150186">
        <ele>626.4</ele>
        <time>2026-04-13T14:14:53.000Z</time>
      </trkpt>
      <trkpt lat="42.129552" lon="23.150187">
        <ele>626.4</ele>
        <time>2026-04-13T14:14:54.000Z</time>
      </trkpt>
      <trkpt lat="42.129552" lon="23.150189">
        <ele>626.3</ele>
        <time>2026-04-13T14:14:55.000Z</time>
      </trkpt>
      <trkpt lat="42.129551" lon="23.15019">
        <ele>626.3</ele>
        <time>2026-04-13T14:14:56.000Z</time>
      </trkpt>
      <trkpt lat="42.12955" lon="23.150192">
        <ele>626.3</ele>
        <time>2026-04-13T14:14:57.000Z</time>
      </trkpt>
      <trkpt lat="42.12955" lon="23.150194">
        <ele>626.3</ele>
        <time>2026-04-13T14:14:58.000Z</time>
      </trkpt>
      <trkpt lat="42.129549" lon="23.150195">
        <ele>626.3</ele>
        <time>2026-04-13T14:14:59.000Z</time>
      </trkpt>
      <trkpt lat="42.129549" lon="23.150197">
        <ele>626.1</ele>
        <time>2026-04-13T14:15:00.000Z</time>
      </trkpt>
      <trkpt lat="42.129548" lon="23.150198">
        <ele>626.1</ele>
        <time>2026-04-13T14:15:01.000Z</time>
      </trkpt>
      <trkpt lat="42.129548" lon="23.1502">
        <ele>626.1</ele>
        <time>2026-04-13T14:15:02.000Z</time>
      </trkpt>
      <trkpt lat="42.129548" lon="23.150202">
        <ele>626.1</ele>
        <time>2026-04-13T14:15:03.000Z</time>
      </trkpt>
      <trkpt lat="42.129548" lon="23.150203">
        <ele>626.1</ele>
        <time>2026-04-13T14:15:04.000Z</time>
      </trkpt>
      <trkpt lat="42.129548" lon="23.150205">
        <ele>626.1</ele>
        <time>2026-04-13T14:15:05.000Z</time>
      </trkpt>
      <trkpt lat="42.129548" lon="23.150206">
        <ele>626.1</ele>
        <time>2026-04-13T14:15:06.000Z</time>
      </trkpt>
      <trkpt lat="42.129549" lon="23.150208">
        <ele>626.1</ele>
        <time>2026-04-13T14:15:07.000Z</time>
      </trkpt>
      <trkpt lat="42.129552" lon="23.150209">
        <ele>626.1</ele>
        <time>2026-04-13T14:15:08.000Z</time>
      </trkpt>
      <trkpt lat="42.129557" lon="23.150211">
        <ele>626.1</ele>
        <time>2026-04-13T14:15:09.000Z</time>
      </trkpt>
      <trkpt lat="42.129564" lon="23.150214">
        <ele>626.3</ele>
        <time>2026-04-13T14:15:10.000Z</time>
      </trkpt>
      <trkpt lat="42.129573" lon="23.150217">
        <ele>626.3</ele>
        <time>2026-04-13T14:15:11.000Z</time>
      </trkpt>
      <trkpt lat="42.129583" lon="23.150221">
        <ele>626.3</ele>
        <time>2026-04-13T14:15:12.000Z</time>
      </trkpt>
      <trkpt lat="42.129592" lon="23.150227">
        <ele>626.3</ele>
        <time>2026-04-13T14:15:13.000Z</time>
      </trkpt>
      <trkpt lat="42.129602" lon="23.150232">
        <ele>626.3</ele>
        <time>2026-04-13T14:15:14.000Z</time>
      </trkpt>
      <trkpt lat="42.129611" lon="23.150238">
        <ele>626.6</ele>
        <time>2026-04-13T14:15:15.000Z</time>
      </trkpt>
      <trkpt lat="42.12962" lon="23.150241">
        <ele>626.6</ele>
        <time>2026-04-13T14:15:16.000Z</time>
      </trkpt>
      <trkpt lat="42.129629" lon="23.150241">
        <ele>626.6</ele>
        <time>2026-04-13T14:15:17.000Z</time>
      </trkpt>
      <trkpt lat="42.129639" lon="23.150237">
        <ele>626.6</ele>
        <time>2026-04-13T14:15:18.000Z</time>
      </trkpt>
      <trkpt lat="42.129649" lon="23.150229">
        <ele>626.6</ele>
        <time>2026-04-13T14:15:19.000Z</time>
      </trkpt>
      <trkpt lat="42.129659" lon="23.150219">
        <ele>626.9</ele>
        <time>2026-04-13T14:15:20.000Z</time>
      </trkpt>
      <trkpt lat="42.129669" lon="23.150211">
        <ele>626.9</ele>
        <time>2026-04-13T14:15:21.000Z</time>
      </trkpt>
      <trkpt lat="42.12968" lon="23.150207">
        <ele>626.9</ele>
        <time>2026-04-13T14:15:22.000Z</time>
      </trkpt>
      <trkpt lat="42.129691" lon="23.150204">
        <ele>626.9</ele>
        <time>2026-04-13T14:15:23.000Z</time>
      </trkpt>
      <trkpt lat="42.129703" lon="23.150207">
        <ele>626.9</ele>
        <time>2026-04-13T14:15:24.000Z</time>
      </trkpt>
      <trkpt lat="42.129717" lon="23.150213">
        <ele>627.2</ele>
        <time>2026-04-13T14:15:25.000Z</time>
      </trkpt>
      <trkpt lat="42.12973" lon="23.150219">
        <ele>627.2</ele>
        <time>2026-04-13T14:15:26.000Z</time>
      </trkpt>
      <trkpt lat="42.129741" lon="23.150226">
        <ele>627.2</ele>
        <time>2026-04-13T14:15:27.000Z</time>
      </trkpt>
      <trkpt lat="42.129751" lon="23.150235">
        <ele>627.2</ele>
        <time>2026-04-13T14:15:28.000Z</time>
      </trkpt>
      <trkpt lat="42.129758" lon="23.150243">
        <ele>627.2</ele>
        <time>2026-04-13T14:15:29.000Z</time>
      </trkpt>
      <trkpt lat="42.129765" lon="23.15025">
        <ele>628.2</ele>
        <time>2026-04-13T14:15:30.000Z</time>
      </trkpt>
      <trkpt lat="42.129771" lon="23.150257">
        <ele>628.2</ele>
        <time>2026-04-13T14:15:31.000Z</time>
      </trkpt>
      <trkpt lat="42.129778" lon="23.150261">
        <ele>628.2</ele>
        <time>2026-04-13T14:15:32.000Z</time>
      </trkpt>
      <trkpt lat="42.129788" lon="23.150265">
        <ele>628.2</ele>
        <time>2026-04-13T14:15:33.000Z</time>
      </trkpt>
      <trkpt lat="42.129797" lon="23.150268">
        <ele>628.2</ele>
        <time>2026-04-13T14:15:34.000Z</time>
      </trkpt>
      <trkpt lat="42.129808" lon="23.15027">
        <ele>629.2</ele>
        <time>2026-04-13T14:15:35.000Z</time>
      </trkpt>
      <trkpt lat="42.129819" lon="23.150271">
        <ele>629.2</ele>
        <time>2026-04-13T14:15:36.000Z</time>
      </trkpt>
      <trkpt lat="42.12983" lon="23.150275">
        <ele>629.2</ele>
        <time>2026-04-13T14:15:37.000Z</time>
      </trkpt>
      <trkpt lat="42.129841" lon="23.150281">
        <ele>629.2</ele>
        <time>2026-04-13T14:15:38.000Z</time>
      </trkpt>
      <trkpt lat="42.129853" lon="23.150289">
        <ele>629.2</ele>
        <time>2026-04-13T14:15:39.000Z</time>
      </trkpt>
      <trkpt lat="42.129864" lon="23.150298">
        <ele>629.5</ele>
        <time>2026-04-13T14:15:40.000Z</time>
      </trkpt>
      <trkpt lat="42.129873" lon="23.150309">
        <ele>629.5</ele>
        <time>2026-04-13T14:15:41.000Z</time>
      </trkpt>
      <trkpt lat="42.129881" lon="23.150316">
        <ele>629.5</ele>
        <time>2026-04-13T14:15:42.000Z</time>
      </trkpt>
      <trkpt lat="42.129888" lon="23.150319">
        <ele>629.5</ele>
        <time>2026-04-13T14:15:43.000Z</time>
      </trkpt>
      <trkpt lat="42.129893" lon="23.150319">
        <ele>629.5</ele>
        <time>2026-04-13T14:15:44.000Z</time>
      </trkpt>
      <trkpt lat="42.129897" lon="23.150317">
        <ele>629.4</ele>
        <time>2026-04-13T14:15:45.000Z</time>
      </trkpt>
      <trkpt lat="42.129902" lon="23.150315">
        <ele>629.4</ele>
        <time>2026-04-13T14:15:46.000Z</time>
      </trkpt>
      <trkpt lat="42.129906" lon="23.150315">
        <ele>629.4</ele>
        <time>2026-04-13T14:15:47.000Z</time>
      </trkpt>
      <trkpt lat="42.129909" lon="23.150316">
        <ele>629.4</ele>
        <time>2026-04-13T14:15:48.000Z</time>
      </trkpt>
      <trkpt lat="42.129912" lon="23.15032">
        <ele>629.4</ele>
        <time>2026-04-13T14:15:49.000Z</time>
      </trkpt>
      <trkpt lat="42.129916" lon="23.150326">
        <ele>628.7</ele>
        <time>2026-04-13T14:15:50.000Z</time>
      </trkpt>
      <trkpt lat="42.12992" lon="23.15033">
        <ele>628.7</ele>
        <time>2026-04-13T14:15:51.000Z</time>
      </trkpt>
      <trkpt lat="42.129925" lon="23.150332">
        <ele>628.7</ele>
        <time>2026-04-13T14:15:52.000Z</time>
      </trkpt>
      <trkpt lat="42.12993" lon="23.150333">
        <ele>628.7</ele>
        <time>2026-04-13T14:15:53.000Z</time>
      </trkpt>
      <trkpt lat="42.129935" lon="23.150331">
        <ele>628.7</ele>
        <time>2026-04-13T14:15:54.000Z</time>
      </trkpt>
      <trkpt lat="42.129941" lon="23.150327">
        <ele>628.4</ele>
        <time>2026-04-13T14:15:55.000Z</time>
      </trkpt>
      <trkpt lat="42.129946" lon="23.150324">
        <ele>628.4</ele>
        <time>2026-04-13T14:15:56.000Z</time>
      </trkpt>
      <trkpt lat="42.129951" lon="23.150322">
        <ele>628.4</ele>
        <time>2026-04-13T14:15:57.000Z</time>
      </trkpt>
      <trkpt lat="42.129956" lon="23.150319">
        <ele>628.4</ele>
        <time>2026-04-13T14:15:58.000Z</time>
      </trkpt>
      <trkpt lat="42.129961" lon="23.150317">
        <ele>628.4</ele>
        <time>2026-04-13T14:15:59.000Z</time>
      </trkpt>
      <trkpt lat="42.129965" lon="23.150314">
        <ele>628</ele>
        <time>2026-04-13T14:16:00.000Z</time>
      </trkpt>
      <trkpt lat="42.129968" lon="23.150311">
        <ele>628</ele>
        <time>2026-04-13T14:16:01.000Z</time>
      </trkpt>
      <trkpt lat="42.12997" lon="23.150305">
        <ele>628</ele>
        <time>2026-04-13T14:16:02.000Z</time>
      </trkpt>
      <trkpt lat="42.129971" lon="23.150298">
        <ele>628</ele>
        <time>2026-04-13T14:16:03.000Z</time>
      </trkpt>
      <trkpt lat="42.129968" lon="23.150291">
        <ele>628</ele>
        <time>2026-04-13T14:16:04.000Z</time>
      </trkpt>
      <trkpt lat="42.129965" lon="23.150282">
        <ele>627.4</ele>
        <time>2026-04-13T14:16:05.000Z</time>
      </trkpt>
      <trkpt lat="42.129961" lon="23.150274">
        <ele>627.4</ele>
        <time>2026-04-13T14:16:06.000Z</time>
      </trkpt>
      <trkpt lat="42.129956" lon="23.150268">
        <ele>627.4</ele>
        <time>2026-04-13T14:16:07.000Z</time>
      </trkpt>
      <trkpt lat="42.129952" lon="23.150264">
        <ele>627.4</ele>
        <time>2026-04-13T14:16:08.000Z</time>
      </trkpt>
      <trkpt lat="42.129948" lon="23.15026">
        <ele>627.4</ele>
        <time>2026-04-13T14:16:09.000Z</time>
      </trkpt>
      <trkpt lat="42.129945" lon="23.150257">
        <ele>626.8</ele>
        <time>2026-04-13T14:16:10.000Z</time>
      </trkpt>
      <trkpt lat="42.129941" lon="23.150253">
        <ele>626.8</ele>
        <time>2026-04-13T14:16:11.000Z</time>
      </trkpt>
      <trkpt lat="42.129939" lon="23.15025">
        <ele>626.8</ele>
        <time>2026-04-13T14:16:12.000Z</time>
      </trkpt>
      <trkpt lat="42.129936" lon="23.150247">
        <ele>626.8</ele>
        <time>2026-04-13T14:16:13.000Z</time>
      </trkpt>
      <trkpt lat="42.129934" lon="23.150243">
        <ele>626.8</ele>
        <time>2026-04-13T14:16:14.000Z</time>
      </trkpt>
      <trkpt lat="42.129934" lon="23.150239">
        <ele>625.4</ele>
        <time>2026-04-13T14:16:15.000Z</time>
      </trkpt>
      <trkpt lat="42.129934" lon="23.150235">
        <ele>625.4</ele>
        <time>2026-04-13T14:16:16.000Z</time>
      </trkpt>
      <trkpt lat="42.129936" lon="23.150231">
        <ele>625.4</ele>
        <time>2026-04-13T14:16:17.000Z</time>
      </trkpt>
      <trkpt lat="42.129939" lon="23.150227">
        <ele>625.4</ele>
        <time>2026-04-13T14:16:18.000Z</time>
      </trkpt>
      <trkpt lat="42.129943" lon="23.150224">
        <ele>625.4</ele>
        <time>2026-04-13T14:16:19.000Z</time>
      </trkpt>
      <trkpt lat="42.129949" lon="23.150221">
        <ele>624</ele>
        <time>2026-04-13T14:16:20.000Z</time>
      </trkpt>
      <trkpt lat="42.129955" lon="23.150219">
        <ele>624</ele>
        <time>2026-04-13T14:16:21.000Z</time>
      </trkpt>
      <trkpt lat="42.129961" lon="23.150217">
        <ele>624</ele>
        <time>2026-04-13T14:16:22.000Z</time>
      </trkpt>
      <trkpt lat="42.129967" lon="23.150215">
        <ele>624</ele>
        <time>2026-04-13T14:16:23.000Z</time>
      </trkpt>
      <trkpt lat="42.129972" lon="23.150214">
        <ele>624</ele>
        <time>2026-04-13T14:16:24.000Z</time>
      </trkpt>
      <trkpt lat="42.129976" lon="23.150213">
        <ele>623.5</ele>
        <time>2026-04-13T14:16:25.000Z</time>
      </trkpt>
      <trkpt lat="42.129981" lon="23.150213">
        <ele>623.5</ele>
        <time>2026-04-13T14:16:26.000Z</time>
      </trkpt>
      <trkpt lat="42.129986" lon="23.150213">
        <ele>623.5</ele>
        <time>2026-04-13T14:16:27.000Z</time>
      </trkpt>
      <trkpt lat="42.129991" lon="23.150213">
        <ele>623.5</ele>
        <time>2026-04-13T14:16:28.000Z</time>
      </trkpt>
      <trkpt lat="42.129997" lon="23.150213">
        <ele>623.5</ele>
        <time>2026-04-13T14:16:29.000Z</time>
      </trkpt>
      <trkpt lat="42.130003" lon="23.150211">
        <ele>622.6</ele>
        <time>2026-04-13T14:16:30.000Z</time>
      </trkpt>
      <trkpt lat="42.130008" lon="23.150209">
        <ele>622.6</ele>
        <time>2026-04-13T14:16:31.000Z</time>
      </trkpt>
      <trkpt lat="42.130012" lon="23.150207">
        <ele>622.6</ele>
        <time>2026-04-13T14:16:32.000Z</time>
      </trkpt>
      <trkpt lat="42.130016" lon="23.150205">
        <ele>622.6</ele>
        <time>2026-04-13T14:16:33.000Z</time>
      </trkpt>
      <trkpt lat="42.130018" lon="23.150204">
        <ele>622.6</ele>
        <time>2026-04-13T14:16:34.000Z</time>
      </trkpt>
      <trkpt lat="42.130018" lon="23.150204">
        <ele>621.9</ele>
        <time>2026-04-13T14:16:35.000Z</time>
      </trkpt>
      <trkpt lat="42.130016" lon="23.150205">
        <ele>621.9</ele>
        <time>2026-04-13T14:16:36.000Z</time>
      </trkpt>
      <trkpt lat="42.130014" lon="23.150207">
        <ele>621.9</ele>
        <time>2026-04-13T14:16:37.000Z</time>
      </trkpt>
      <trkpt lat="42.130012" lon="23.15021">
        <ele>621.9</ele>
        <time>2026-04-13T14:16:38.000Z</time>
      </trkpt>
      <trkpt lat="42.13001" lon="23.150212">
        <ele>621.9</ele>
        <time>2026-04-13T14:16:39.000Z</time>
      </trkpt>
      <trkpt lat="42.13001" lon="23.150213">
        <ele>621.6</ele>
        <time>2026-04-13T14:16:40.000Z</time>
      </trkpt>
      <trkpt lat="42.130011" lon="23.150213">
        <ele>621.6</ele>
        <time>2026-04-13T14:16:41.000Z</time>
      </trkpt>
      <trkpt lat="42.130014" lon="23.150213">
        <ele>621.6</ele>
        <time>2026-04-13T14:16:42.000Z</time>
      </trkpt>
      <trkpt lat="42.130019" lon="23.150211">
        <ele>621.6</ele>
        <time>2026-04-13T14:16:43.000Z</time>
      </trkpt>
      <trkpt lat="42.130026" lon="23.15021">
        <ele>621.6</ele>
        <time>2026-04-13T14:16:44.000Z</time>
      </trkpt>
      <trkpt lat="42.130035" lon="23.150208">
        <ele>621.2</ele>
        <time>2026-04-13T14:16:45.000Z</time>
      </trkpt>
      <trkpt lat="42.130043" lon="23.150207">
        <ele>621.2</ele>
        <time>2026-04-13T14:16:46.000Z</time>
      </trkpt>
      <trkpt lat="42.13005" lon="23.150206">
        <ele>621.2</ele>
        <time>2026-04-13T14:16:47.000Z</time>
      </trkpt>
      <trkpt lat="42.130058" lon="23.150204">
        <ele>621.2</ele>
        <time>2026-04-13T14:16:48.000Z</time>
      </trkpt>
      <trkpt lat="42.130064" lon="23.150202">
        <ele>621.2</ele>
        <time>2026-04-13T14:16:49.000Z</time>
      </trkpt>
      <trkpt lat="42.130069" lon="23.150199">
        <ele>621.1</ele>
        <time>2026-04-13T14:16:50.000Z</time>
      </trkpt>
      <trkpt lat="42.130074" lon="23.150195">
        <ele>621.1</ele>
        <time>2026-04-13T14:16:51.000Z</time>
      </trkpt>
      <trkpt lat="42.130078" lon="23.15019">
        <ele>621.1</ele>
        <time>2026-04-13T14:16:52.000Z</time>
      </trkpt>
      <trkpt lat="42.130082" lon="23.150185">
        <ele>621.1</ele>
        <time>2026-04-13T14:16:53.000Z</time>
      </trkpt>
      <trkpt lat="42.130087" lon="23.15018">
        <ele>621.1</ele>
        <time>2026-04-13T14:16:54.000Z</time>
      </trkpt>
      <trkpt lat="42.130092" lon="23.150174">
        <ele>621.2</ele>
        <time>2026-04-13T14:16:55.000Z</time>
      </trkpt>
      <trkpt lat="42.130098" lon="23.150168">
        <ele>621.2</ele>
        <time>2026-04-13T14:16:56.000Z</time>
      </trkpt>
      <trkpt lat="42.130104" lon="23.150163">
        <ele>621.2</ele>
        <time>2026-04-13T14:16:57.000Z</time>
      </trkpt>
      <trkpt lat="42.130111" lon="23.150159">
        <ele>621.2</ele>
        <time>2026-04-13T14:16:58.000Z</time>
      </trkpt>
      <trkpt lat="42.130119" lon="23.150155">
        <ele>621.2</ele>
        <time>2026-04-13T14:16:59.000Z</time>
      </trkpt>
      <trkpt lat="42.130125" lon="23.150153">
        <ele>620.9</ele>
        <time>2026-04-13T14:17:00.000Z</time>
      </trkpt>
      <trkpt lat="42.130132" lon="23.150151">
        <ele>620.9</ele>
        <time>2026-04-13T14:17:01.000Z</time>
      </trkpt>
      <trkpt lat="42.130138" lon="23.150149">
        <ele>620.9</ele>
        <time>2026-04-13T14:17:02.000Z</time>
      </trkpt>
      <trkpt lat="42.130144" lon="23.150147">
        <ele>620.9</ele>
        <time>2026-04-13T14:17:03.000Z</time>
      </trkpt>
      <trkpt lat="42.130148" lon="23.150143">
        <ele>620.9</ele>
        <time>2026-04-13T14:17:04.000Z</time>
      </trkpt>
      <trkpt lat="42.130152" lon="23.15014">
        <ele>619.8</ele>
        <time>2026-04-13T14:17:05.000Z</time>
      </trkpt>
      <trkpt lat="42.130156" lon="23.150136">
        <ele>619.8</ele>
        <time>2026-04-13T14:17:06.000Z</time>
      </trkpt>
      <trkpt lat="42.13016" lon="23.150132">
        <ele>619.8</ele>
        <time>2026-04-13T14:17:07.000Z</time>
      </trkpt>
      <trkpt lat="42.130165" lon="23.150128">
        <ele>619.8</ele>
        <time>2026-04-13T14:17:08.000Z</time>
      </trkpt>
      <trkpt lat="42.13017" lon="23.150124">
        <ele>619.8</ele>
        <time>2026-04-13T14:17:09.000Z</time>
      </trkpt>
      <trkpt lat="42.130176" lon="23.15012">
        <ele>619.1</ele>
        <time>2026-04-13T14:17:10.000Z</time>
      </trkpt>
      <trkpt lat="42.130183" lon="23.150116">
        <ele>619.1</ele>
        <time>2026-04-13T14:17:11.000Z</time>
      </trkpt>
      <trkpt lat="42.13019" lon="23.150111">
        <ele>619.1</ele>
        <time>2026-04-13T14:17:12.000Z</time>
      </trkpt>
      <trkpt lat="42.130198" lon="23.150105">
        <ele>619.1</ele>
        <time>2026-04-13T14:17:13.000Z</time>
      </trkpt>
      <trkpt lat="42.130205" lon="23.150099">
        <ele>619.1</ele>
        <time>2026-04-13T14:17:14.000Z</time>
      </trkpt>
      <trkpt lat="42.130212" lon="23.150092">
        <ele>617.5</ele>
        <time>2026-04-13T14:17:15.000Z</time>
      </trkpt>
      <trkpt lat="42.130219" lon="23.150084">
        <ele>617.5</ele>
        <time>2026-04-13T14:17:16.000Z</time>
      </trkpt>
      <trkpt lat="42.130226" lon="23.150077">
        <ele>617.5</ele>
        <time>2026-04-13T14:17:17.000Z</time>
      </trkpt>
      <trkpt lat="42.130232" lon="23.15007">
        <ele>617.5</ele>
        <time>2026-04-13T14:17:18.000Z</time>
      </trkpt>
      <trkpt lat="42.13024" lon="23.150063">
        <ele>617.5</ele>
        <time>2026-04-13T14:17:19.000Z</time>
      </trkpt>
      <trkpt lat="42.130248" lon="23.150057">
        <ele>616.1</ele>
        <time>2026-04-13T14:17:20.000Z</time>
      </trkpt>
      <trkpt lat="42.130256" lon="23.150053">
        <ele>616.1</ele>
        <time>2026-04-13T14:17:21.000Z</time>
      </trkpt>
      <trkpt lat="42.130264" lon="23.15005">
        <ele>616.1</ele>
        <time>2026-04-13T14:17:22.000Z</time>
      </trkpt>
      <trkpt lat="42.130271" lon="23.150048">
        <ele>616.1</ele>
        <time>2026-04-13T14:17:23.000Z</time>
      </trkpt>
      <trkpt lat="42.130278" lon="23.150047">
        <ele>616.1</ele>
        <time>2026-04-13T14:17:24.000Z</time>
      </trkpt>
      <trkpt lat="42.130284" lon="23.150046">
        <ele>615.4</ele>
        <time>2026-04-13T14:17:25.000Z</time>
      </trkpt>
      <trkpt lat="42.130289" lon="23.150046">
        <ele>615.4</ele>
        <time>2026-04-13T14:17:26.000Z</time>
      </trkpt>
      <trkpt lat="42.130293" lon="23.150046">
        <ele>615.4</ele>
        <time>2026-04-13T14:17:27.000Z</time>
      </trkpt>
      <trkpt lat="42.130297" lon="23.150046">
        <ele>615.4</ele>
        <time>2026-04-13T14:17:28.000Z</time>
      </trkpt>
      <trkpt lat="42.130301" lon="23.150047">
        <ele>615.4</ele>
        <time>2026-04-13T14:17:29.000Z</time>
      </trkpt>
      <trkpt lat="42.130305" lon="23.150047">
        <ele>614.1</ele>
        <time>2026-04-13T14:17:30.000Z</time>
      </trkpt>
      <trkpt lat="42.130308" lon="23.150047">
        <ele>614.1</ele>
        <time>2026-04-13T14:17:31.000Z</time>
      </trkpt>
      <trkpt lat="42.130311" lon="23.150048">
        <ele>614.1</ele>
        <time>2026-04-13T14:17:32.000Z</time>
      </trkpt>
      <trkpt lat="42.130313" lon="23.150049">
        <ele>614.1</ele>
        <time>2026-04-13T14:17:33.000Z</time>
      </trkpt>
      <trkpt lat="42.130314" lon="23.150049">
        <ele>614.1</ele>
        <time>2026-04-13T14:17:34.000Z</time>
      </trkpt>
      <trkpt lat="42.130314" lon="23.150048">
        <ele>613.2</ele>
        <time>2026-04-13T14:17:35.000Z</time>
      </trkpt>
      <trkpt lat="42.130313" lon="23.150046">
        <ele>613.2</ele>
        <time>2026-04-13T14:17:36.000Z</time>
      </trkpt>
      <trkpt lat="42.130311" lon="23.150043">
        <ele>613.2</ele>
        <time>2026-04-13T14:17:37.000Z</time>
      </trkpt>
      <trkpt lat="42.130309" lon="23.150039">
        <ele>613.2</ele>
        <time>2026-04-13T14:17:38.000Z</time>
      </trkpt>
      <trkpt lat="42.130307" lon="23.150037">
        <ele>613.2</ele>
        <time>2026-04-13T14:17:39.000Z</time>
      </trkpt>
      <trkpt lat="42.130305" lon="23.150035">
        <ele>613</ele>
        <time>2026-04-13T14:17:40.000Z</time>
      </trkpt>
      <trkpt lat="42.130304" lon="23.150034">
        <ele>613</ele>
        <time>2026-04-13T14:17:41.000Z</time>
      </trkpt>
      <trkpt lat="42.130303" lon="23.150034">
        <ele>613</ele>
        <time>2026-04-13T14:17:42.000Z</time>
      </trkpt>
      <trkpt lat="42.130305" lon="23.150031">
        <ele>613</ele>
        <time>2026-04-13T14:17:43.000Z</time>
      </trkpt>
      <trkpt lat="42.130307" lon="23.150027">
        <ele>613</ele>
        <time>2026-04-13T14:17:44.000Z</time>
      </trkpt>
      <trkpt lat="42.130311" lon="23.150022">
        <ele>612.8</ele>
        <time>2026-04-13T14:17:45.000Z</time>
      </trkpt>
      <trkpt lat="42.130315" lon="23.150015">
        <ele>612.8</ele>
        <time>2026-04-13T14:17:46.000Z</time>
      </trkpt>
      <trkpt lat="42.13032" lon="23.150008">
        <ele>612.8</ele>
        <time>2026-04-13T14:17:47.000Z</time>
      </trkpt>
      <trkpt lat="42.130326" lon="23.15">
        <ele>612.8</ele>
        <time>2026-04-13T14:17:48.000Z</time>
      </trkpt>
      <trkpt lat="42.130332" lon="23.149992">
        <ele>612.8</ele>
        <time>2026-04-13T14:17:49.000Z</time>
      </trkpt>
      <trkpt lat="42.13034" lon="23.149984">
        <ele>612.6</ele>
        <time>2026-04-13T14:17:50.000Z</time>
      </trkpt>
      <trkpt lat="42.130348" lon="23.149974">
        <ele>612.6</ele>
        <time>2026-04-13T14:17:51.000Z</time>
      </trkpt>
      <trkpt lat="42.130356" lon="23.149965">
        <ele>612.6</ele>
        <time>2026-04-13T14:17:52.000Z</time>
      </trkpt>
      <trkpt lat="42.130363" lon="23.149955">
        <ele>612.6</ele>
        <time>2026-04-13T14:17:53.000Z</time>
      </trkpt>
      <trkpt lat="42.130371" lon="23.149946">
        <ele>612.6</ele>
        <time>2026-04-13T14:17:54.000Z</time>
      </trkpt>
      <trkpt lat="42.130379" lon="23.149938">
        <ele>612.4</ele>
        <time>2026-04-13T14:17:55.000Z</time>
      </trkpt>
      <trkpt lat="42.130387" lon="23.14993">
        <ele>612.4</ele>
        <time>2026-04-13T14:17:56.000Z</time>
      </trkpt>
      <trkpt lat="42.130397" lon="23.149924">
        <ele>612.4</ele>
        <time>2026-04-13T14:17:57.000Z</time>
      </trkpt>
      <trkpt lat="42.130407" lon="23.149919">
        <ele>612.4</ele>
        <time>2026-04-13T14:17:58.000Z</time>
      </trkpt>
      <trkpt lat="42.130419" lon="23.149917">
        <ele>612.4</ele>
        <time>2026-04-13T14:17:59.000Z</time>
      </trkpt>
      <trkpt lat="42.13043" lon="23.149916">
        <ele>611.5</ele>
        <time>2026-04-13T14:18:00.000Z</time>
      </trkpt>
      <trkpt lat="42.130441" lon="23.149916">
        <ele>611.5</ele>
        <time>2026-04-13T14:18:01.000Z</time>
      </trkpt>
      <trkpt lat="42.130451" lon="23.149917">
        <ele>611.5</ele>
        <time>2026-04-13T14:18:02.000Z</time>
      </trkpt>
      <trkpt lat="42.130461" lon="23.14992">
        <ele>611.5</ele>
        <time>2026-04-13T14:18:03.000Z</time>
      </trkpt>
      <trkpt lat="42.13047" lon="23.149924">
        <ele>611.5</ele>
        <time>2026-04-13T14:18:04.000Z</time>
      </trkpt>
      <trkpt lat="42.130479" lon="23.149929">
        <ele>610.2</ele>
        <time>2026-04-13T14:18:05.000Z</time>
      </trkpt>
      <trkpt lat="42.130486" lon="23.149935">
        <ele>610.2</ele>
        <time>2026-04-13T14:18:06.000Z</time>
      </trkpt>
      <trkpt lat="42.130493" lon="23.149941">
        <ele>610.2</ele>
        <time>2026-04-13T14:18:07.000Z</time>
      </trkpt>
      <trkpt lat="42.1305" lon="23.149947">
        <ele>610.2</ele>
        <time>2026-04-13T14:18:08.000Z</time>
      </trkpt>
      <trkpt lat="42.130505" lon="23.149953">
        <ele>610.2</ele>
        <time>2026-04-13T14:18:09.000Z</time>
      </trkpt>
      <trkpt lat="42.130511" lon="23.149958">
        <ele>609.4</ele>
        <time>2026-04-13T14:18:10.000Z</time>
      </trkpt>
      <trkpt lat="42.130517" lon="23.149962">
        <ele>609.4</ele>
        <time>2026-04-13T14:18:11.000Z</time>
      </trkpt>
      <trkpt lat="42.130524" lon="23.149964">
        <ele>609.4</ele>
        <time>2026-04-13T14:18:12.000Z</time>
      </trkpt>
      <trkpt lat="42.130531" lon="23.149965">
        <ele>609.4</ele>
        <time>2026-04-13T14:18:13.000Z</time>
      </trkpt>
      <trkpt lat="42.130539" lon="23.149964">
        <ele>609.4</ele>
        <time>2026-04-13T14:18:14.000Z</time>
      </trkpt>
      <trkpt lat="42.130547" lon="23.149962">
        <ele>607.9</ele>
        <time>2026-04-13T14:18:15.000Z</time>
      </trkpt>
      <trkpt lat="42.130556" lon="23.149957">
        <ele>607.9</ele>
        <time>2026-04-13T14:18:16.000Z</time>
      </trkpt>
      <trkpt lat="42.130565" lon="23.149953">
        <ele>607.9</ele>
        <time>2026-04-13T14:18:17.000Z</time>
      </trkpt>
      <trkpt lat="42.130575" lon="23.149947">
        <ele>607.9</ele>
        <time>2026-04-13T14:18:18.000Z</time>
      </trkpt>
      <trkpt lat="42.130585" lon="23.149941">
        <ele>607.9</ele>
        <time>2026-04-13T14:18:19.000Z</time>
      </trkpt>
      <trkpt lat="42.130596" lon="23.149936">
        <ele>606.3</ele>
        <time>2026-04-13T14:18:20.000Z</time>
      </trkpt>
      <trkpt lat="42.130606" lon="23.149932">
        <ele>606.3</ele>
        <time>2026-04-13T14:18:21.000Z</time>
      </trkpt>
      <trkpt lat="42.130616" lon="23.149929">
        <ele>606.3</ele>
        <time>2026-04-13T14:18:22.000Z</time>
      </trkpt>
      <trkpt lat="42.130625" lon="23.149928">
        <ele>606.3</ele>
        <time>2026-04-13T14:18:23.000Z</time>
      </trkpt>
      <trkpt lat="42.130635" lon="23.149928">
        <ele>606.3</ele>
        <time>2026-04-13T14:18:24.000Z</time>
      </trkpt>
      <trkpt lat="42.130644" lon="23.149928">
        <ele>605.5</ele>
        <time>2026-04-13T14:18:25.000Z</time>
      </trkpt>
      <trkpt lat="42.130655" lon="23.149929">
        <ele>605.5</ele>
        <time>2026-04-13T14:18:26.000Z</time>
      </trkpt>
      <trkpt lat="42.130666" lon="23.149929">
        <ele>605.5</ele>
        <time>2026-04-13T14:18:27.000Z</time>
      </trkpt>
      <trkpt lat="42.130677" lon="23.149929">
        <ele>605.5</ele>
        <time>2026-04-13T14:18:28.000Z</time>
      </trkpt>
      <trkpt lat="42.130688" lon="23.149928">
        <ele>605.5</ele>
        <time>2026-04-13T14:18:29.000Z</time>
      </trkpt>
      <trkpt lat="42.130699" lon="23.149926">
        <ele>604.4</ele>
        <time>2026-04-13T14:18:30.000Z</time>
      </trkpt>
      <trkpt lat="42.130709" lon="23.149923">
        <ele>604.4</ele>
        <time>2026-04-13T14:18:31.000Z</time>
      </trkpt>
      <trkpt lat="42.13072" lon="23.149921">
        <ele>604.4</ele>
        <time>2026-04-13T14:18:32.000Z</time>
      </trkpt>
      <trkpt lat="42.13073" lon="23.149918">
        <ele>604.4</ele>
        <time>2026-04-13T14:18:33.000Z</time>
      </trkpt>
      <trkpt lat="42.130741" lon="23.149916">
        <ele>604.4</ele>
        <time>2026-04-13T14:18:34.000Z</time>
      </trkpt>
      <trkpt lat="42.130752" lon="23.149913">
        <ele>603.8</ele>
        <time>2026-04-13T14:18:35.000Z</time>
      </trkpt>
      <trkpt lat="42.130764" lon="23.149911">
        <ele>603.8</ele>
        <time>2026-04-13T14:18:36.000Z</time>
      </trkpt>
      <trkpt lat="42.130775" lon="23.149908">
        <ele>603.8</ele>
        <time>2026-04-13T14:18:37.000Z</time>
      </trkpt>
      <trkpt lat="42.130787" lon="23.149905">
        <ele>603.8</ele>
        <time>2026-04-13T14:18:38.000Z</time>
      </trkpt>
      <trkpt lat="42.130798" lon="23.149902">
        <ele>603.8</ele>
        <time>2026-04-13T14:18:39.000Z</time>
      </trkpt>
      <trkpt lat="42.13081" lon="23.149899">
        <ele>603.5</ele>
        <time>2026-04-13T14:18:40.000Z</time>
      </trkpt>
      <trkpt lat="42.130821" lon="23.149897">
        <ele>603.5</ele>
        <time>2026-04-13T14:18:41.000Z</time>
      </trkpt>
      <trkpt lat="42.130832" lon="23.149894">
        <ele>603.5</ele>
        <time>2026-04-13T14:18:42.000Z</time>
      </trkpt>
      <trkpt lat="42.130843" lon="23.149891">
        <ele>603.5</ele>
        <time>2026-04-13T14:18:43.000Z</time>
      </trkpt>
      <trkpt lat="42.130854" lon="23.149887">
        <ele>603.5</ele>
        <time>2026-04-13T14:18:44.000Z</time>
      </trkpt>
      <trkpt lat="42.130864" lon="23.149883">
        <ele>602.8</ele>
        <time>2026-04-13T14:18:45.000Z</time>
      </trkpt>
      <trkpt lat="42.130875" lon="23.149877">
        <ele>602.8</ele>
        <time>2026-04-13T14:18:46.000Z</time>
      </trkpt>
      <trkpt lat="42.130885" lon="23.149871">
        <ele>602.8</ele>
        <time>2026-04-13T14:18:47.000Z</time>
      </trkpt>
      <trkpt lat="42.130894" lon="23.149865">
        <ele>602.8</ele>
        <time>2026-04-13T14:18:48.000Z</time>
      </trkpt>
      <trkpt lat="42.130903" lon="23.14986">
        <ele>602.8</ele>
        <time>2026-04-13T14:18:49.000Z</time>
      </trkpt>
      <trkpt lat="42.130913" lon="23.149855">
        <ele>601.7</ele>
        <time>2026-04-13T14:18:50.000Z</time>
      </trkpt>
      <trkpt lat="42.130924" lon="23.149849">
        <ele>601.7</ele>
        <time>2026-04-13T14:18:51.000Z</time>
      </trkpt>
      <trkpt lat="42.130935" lon="23.149844">
        <ele>601.7</ele>
        <time>2026-04-13T14:18:52.000Z</time>
      </trkpt>
      <trkpt lat="42.130946" lon="23.149839">
        <ele>601.7</ele>
        <time>2026-04-13T14:18:53.000Z</time>
      </trkpt>
      <trkpt lat="42.130958" lon="23.149833">
        <ele>601.7</ele>
        <time>2026-04-13T14:18:54.000Z</time>
      </trkpt>
      <trkpt lat="42.130969" lon="23.149827">
        <ele>601.1</ele>
        <time>2026-04-13T14:18:55.000Z</time>
      </trkpt>
      <trkpt lat="42.130981" lon="23.149821">
        <ele>601.1</ele>
        <time>2026-04-13T14:18:56.000Z</time>
      </trkpt>
      <trkpt lat="42.130992" lon="23.149815">
        <ele>601.1</ele>
        <time>2026-04-13T14:18:57.000Z</time>
      </trkpt>
      <trkpt lat="42.131002" lon="23.149809">
        <ele>601.1</ele>
        <time>2026-04-13T14:18:58.000Z</time>
      </trkpt>
      <trkpt lat="42.131012" lon="23.149804">
        <ele>601.1</ele>
        <time>2026-04-13T14:18:59.000Z</time>
      </trkpt>
      <trkpt lat="42.131021" lon="23.1498">
        <ele>599.9</ele>
        <time>2026-04-13T14:19:00.000Z</time>
      </trkpt>
      <trkpt lat="42.131029" lon="23.149796">
        <ele>599.9</ele>
        <time>2026-04-13T14:19:01.000Z</time>
      </trkpt>
      <trkpt lat="42.131038" lon="23.149793">
        <ele>599.9</ele>
        <time>2026-04-13T14:19:02.000Z</time>
      </trkpt>
      <trkpt lat="42.131048" lon="23.14979">
        <ele>599.9</ele>
        <time>2026-04-13T14:19:03.000Z</time>
      </trkpt>
      <trkpt lat="42.131059" lon="23.149787">
        <ele>599.9</ele>
        <time>2026-04-13T14:19:04.000Z</time>
      </trkpt>
      <trkpt lat="42.13107" lon="23.149783">
        <ele>598.6</ele>
        <time>2026-04-13T14:19:05.000Z</time>
      </trkpt>
      <trkpt lat="42.131082" lon="23.149779">
        <ele>598.6</ele>
        <time>2026-04-13T14:19:06.000Z</time>
      </trkpt>
      <trkpt lat="42.131094" lon="23.149775">
        <ele>598.6</ele>
        <time>2026-04-13T14:19:07.000Z</time>
      </trkpt>
      <trkpt lat="42.131105" lon="23.14977">
        <ele>598.6</ele>
        <time>2026-04-13T14:19:08.000Z</time>
      </trkpt>
      <trkpt lat="42.131116" lon="23.149765">
        <ele>598.6</ele>
        <time>2026-04-13T14:19:09.000Z</time>
      </trkpt>
      <trkpt lat="42.131126" lon="23.14976">
        <ele>597.9</ele>
        <time>2026-04-13T14:19:10.000Z</time>
      </trkpt>
      <trkpt lat="42.131137" lon="23.149754">
        <ele>597.9</ele>
        <time>2026-04-13T14:19:11.000Z</time>
      </trkpt>
      <trkpt lat="42.131148" lon="23.149748">
        <ele>597.9</ele>
        <time>2026-04-13T14:19:12.000Z</time>
      </trkpt>
      <trkpt lat="42.13116" lon="23.149741">
        <ele>597.9</ele>
        <time>2026-04-13T14:19:13.000Z</time>
      </trkpt>
      <trkpt lat="42.131172" lon="23.149735">
        <ele>597.9</ele>
        <time>2026-04-13T14:19:14.000Z</time>
      </trkpt>
      <trkpt lat="42.131184" lon="23.149729">
        <ele>596.2</ele>
        <time>2026-04-13T14:19:15.000Z</time>
      </trkpt>
      <trkpt lat="42.131197" lon="23.149723">
        <ele>596.2</ele>
        <time>2026-04-13T14:19:16.000Z</time>
      </trkpt>
      <trkpt lat="42.131208" lon="23.149717">
        <ele>596.2</ele>
        <time>2026-04-13T14:19:17.000Z</time>
      </trkpt>
      <trkpt lat="42.131219" lon="23.149711">
        <ele>596.2</ele>
        <time>2026-04-13T14:19:18.000Z</time>
      </trkpt>
      <trkpt lat="42.13123" lon="23.149705">
        <ele>596.2</ele>
        <time>2026-04-13T14:19:19.000Z</time>
      </trkpt>
      <trkpt lat="42.131239" lon="23.1497">
        <ele>594.7</ele>
        <time>2026-04-13T14:19:20.000Z</time>
      </trkpt>
      <trkpt lat="42.131249" lon="23.149694">
        <ele>594.7</ele>
        <time>2026-04-13T14:19:21.000Z</time>
      </trkpt>
      <trkpt lat="42.131259" lon="23.149689">
        <ele>594.7</ele>
        <time>2026-04-13T14:19:22.000Z</time>
      </trkpt>
      <trkpt lat="42.13127" lon="23.149684">
        <ele>594.7</ele>
        <time>2026-04-13T14:19:23.000Z</time>
      </trkpt>
      <trkpt lat="42.131281" lon="23.149679">
        <ele>594.7</ele>
        <time>2026-04-13T14:19:24.000Z</time>
      </trkpt>
      <trkpt lat="42.131292" lon="23.149673">
        <ele>594.1</ele>
        <time>2026-04-13T14:19:25.000Z</time>
      </trkpt>
      <trkpt lat="42.131302" lon="23.149665">
        <ele>594.1</ele>
        <time>2026-04-13T14:19:26.000Z</time>
      </trkpt>
      <trkpt lat="42.131312" lon="23.149656">
        <ele>594.1</ele>
        <time>2026-04-13T14:19:27.000Z</time>
      </trkpt>
      <trkpt lat="42.131321" lon="23.149646">
        <ele>594.1</ele>
        <time>2026-04-13T14:19:28.000Z</time>
      </trkpt>
      <trkpt lat="42.13133" lon="23.149636">
        <ele>594.1</ele>
        <time>2026-04-13T14:19:29.000Z</time>
      </trkpt>
      <trkpt lat="42.131338" lon="23.149626">
        <ele>592.9</ele>
        <time>2026-04-13T14:19:30.000Z</time>
      </trkpt>
      <trkpt lat="42.131347" lon="23.149617">
        <ele>592.9</ele>
        <time>2026-04-13T14:19:31.000Z</time>
      </trkpt>
      <trkpt lat="42.131357" lon="23.149609">
        <ele>592.9</ele>
        <time>2026-04-13T14:19:32.000Z</time>
      </trkpt>
      <trkpt lat="42.131367" lon="23.149602">
        <ele>592.9</ele>
        <time>2026-04-13T14:19:33.000Z</time>
      </trkpt>
      <trkpt lat="42.131378" lon="23.149598">
        <ele>592.9</ele>
        <time>2026-04-13T14:19:34.000Z</time>
      </trkpt>
      <trkpt lat="42.131389" lon="23.149595">
        <ele>592.1</ele>
        <time>2026-04-13T14:19:35.000Z</time>
      </trkpt>
      <trkpt lat="42.1314" lon="23.149594">
        <ele>592.1</ele>
        <time>2026-04-13T14:19:36.000Z</time>
      </trkpt>
      <trkpt lat="42.13141" lon="23.149595">
        <ele>592.1</ele>
        <time>2026-04-13T14:19:37.000Z</time>
      </trkpt>
      <trkpt lat="42.131418" lon="23.149598">
        <ele>592.1</ele>
        <time>2026-04-13T14:19:38.000Z</time>
      </trkpt>
      <trkpt lat="42.131424" lon="23.149602">
        <ele>592.1</ele>
        <time>2026-04-13T14:19:39.000Z</time>
      </trkpt>
      <trkpt lat="42.131429" lon="23.149608">
        <ele>591.7</ele>
        <time>2026-04-13T14:19:40.000Z</time>
      </trkpt>
      <trkpt lat="42.131433" lon="23.149614">
        <ele>591.7</ele>
        <time>2026-04-13T14:19:41.000Z</time>
      </trkpt>
      <trkpt lat="42.131436" lon="23.149621">
        <ele>591.7</ele>
        <time>2026-04-13T14:19:42.000Z</time>
      </trkpt>
      <trkpt lat="42.131439" lon="23.149629">
        <ele>591.7</ele>
        <time>2026-04-13T14:19:43.000Z</time>
      </trkpt>
      <trkpt lat="42.131442" lon="23.149637">
        <ele>591.7</ele>
        <time>2026-04-13T14:19:44.000Z</time>
      </trkpt>
      <trkpt lat="42.131444" lon="23.149646">
        <ele>591</ele>
        <time>2026-04-13T14:19:45.000Z</time>
      </trkpt>
      <trkpt lat="42.131446" lon="23.149654">
        <ele>591</ele>
        <time>2026-04-13T14:19:46.000Z</time>
      </trkpt>
      <trkpt lat="42.131447" lon="23.149663">
        <ele>591</ele>
        <time>2026-04-13T14:19:47.000Z</time>
      </trkpt>
      <trkpt lat="42.131447" lon="23.149671">
        <ele>591</ele>
        <time>2026-04-13T14:19:48.000Z</time>
      </trkpt>
      <trkpt lat="42.131447" lon="23.149677">
        <ele>591</ele>
        <time>2026-04-13T14:19:49.000Z</time>
      </trkpt>
      <trkpt lat="42.131446" lon="23.149682">
        <ele>591</ele>
        <time>2026-04-13T14:19:50.000Z</time>
      </trkpt>
      <trkpt lat="42.131445" lon="23.149684">
        <ele>591</ele>
        <time>2026-04-13T14:19:51.000Z</time>
      </trkpt>
      <trkpt lat="42.131445" lon="23.149686">
        <ele>591</ele>
        <time>2026-04-13T14:19:52.000Z</time>
      </trkpt>
      <trkpt lat="42.131444" lon="23.149686">
        <ele>591</ele>
        <time>2026-04-13T14:19:53.000Z</time>
      </trkpt>
      <trkpt lat="42.131444" lon="23.149686">
        <ele>591</ele>
        <time>2026-04-13T14:19:54.000Z</time>
      </trkpt>
      <trkpt lat="42.131444" lon="23.149686">
        <ele>591.5</ele>
        <time>2026-04-13T14:19:55.000Z</time>
      </trkpt>
      <trkpt lat="42.131444" lon="23.149685">
        <ele>591.5</ele>
        <time>2026-04-13T14:19:56.000Z</time>
      </trkpt>
      <trkpt lat="42.131445" lon="23.149683">
        <ele>591.5</ele>
        <time>2026-04-13T14:19:57.000Z</time>
      </trkpt>
      <trkpt lat="42.131447" lon="23.149681">
        <ele>591.5</ele>
        <time>2026-04-13T14:19:58.000Z</time>
      </trkpt>
      <trkpt lat="42.131449" lon="23.14968">
        <ele>591.5</ele>
        <time>2026-04-13T14:19:59.000Z</time>
      </trkpt>
      <trkpt lat="42.131453" lon="23.149679">
        <ele>592.7</ele>
        <time>2026-04-13T14:20:00.000Z</time>
      </trkpt>
      <trkpt lat="42.131457" lon="23.149678">
        <ele>592.7</ele>
        <time>2026-04-13T14:20:01.000Z</time>
      </trkpt>
      <trkpt lat="42.13146" lon="23.149678">
        <ele>592.7</ele>
        <time>2026-04-13T14:20:02.000Z</time>
      </trkpt>
      <trkpt lat="42.131462" lon="23.149678">
        <ele>592.7</ele>
        <time>2026-04-13T14:20:03.000Z</time>
      </trkpt>
      <trkpt lat="42.131463" lon="23.149677">
        <ele>592.7</ele>
        <time>2026-04-13T14:20:04.000Z</time>
      </trkpt>
      <trkpt lat="42.131462" lon="23.149677">
        <ele>593.5</ele>
        <time>2026-04-13T14:20:05.000Z</time>
      </trkpt>
      <trkpt lat="42.131461" lon="23.149675">
        <ele>593.5</ele>
        <time>2026-04-13T14:20:06.000Z</time>
      </trkpt>
      <trkpt lat="42.131459" lon="23.149673">
        <ele>593.5</ele>
        <time>2026-04-13T14:20:07.000Z</time>
      </trkpt>
      <trkpt lat="42.131454" lon="23.149673">
        <ele>593.5</ele>
        <time>2026-04-13T14:20:08.000Z</time>
      </trkpt>
      <trkpt lat="42.131447" lon="23.149672">
        <ele>593.5</ele>
        <time>2026-04-13T14:20:09.000Z</time>
      </trkpt>
      <trkpt lat="42.13144" lon="23.149672">
        <ele>593.7</ele>
        <time>2026-04-13T14:20:10.000Z</time>
      </trkpt>
      <trkpt lat="42.131432" lon="23.149672">
        <ele>593.7</ele>
        <time>2026-04-13T14:20:11.000Z</time>
      </trkpt>
      <trkpt lat="42.131426" lon="23.149673">
        <ele>593.7</ele>
        <time>2026-04-13T14:20:12.000Z</time>
      </trkpt>
      <trkpt lat="42.131421" lon="23.149673">
        <ele>593.7</ele>
        <time>2026-04-13T14:20:13.000Z</time>
      </trkpt>
      <trkpt lat="42.131419" lon="23.149673">
        <ele>593.7</ele>
        <time>2026-04-13T14:20:14.000Z</time>
      </trkpt>
      <trkpt lat="42.131419" lon="23.149672">
        <ele>593.9</ele>
        <time>2026-04-13T14:20:15.000Z</time>
      </trkpt>
      <trkpt lat="42.13142" lon="23.14967">
        <ele>593.9</ele>
        <time>2026-04-13T14:20:16.000Z</time>
      </trkpt>
      <trkpt lat="42.131421" lon="23.149668">
        <ele>593.9</ele>
        <time>2026-04-13T14:20:17.000Z</time>
      </trkpt>
      <trkpt lat="42.131422" lon="23.149665">
        <ele>593.9</ele>
        <time>2026-04-13T14:20:18.000Z</time>
      </trkpt>
      <trkpt lat="42.131424" lon="23.149662">
        <ele>593.9</ele>
        <time>2026-04-13T14:20:19.000Z</time>
      </trkpt>
      <trkpt lat="42.131425" lon="23.149658">
        <ele>594</ele>
        <time>2026-04-13T14:20:20.000Z</time>
      </trkpt>
      <trkpt lat="42.131427" lon="23.149654">
        <ele>594</ele>
        <time>2026-04-13T14:20:21.000Z</time>
      </trkpt>
      <trkpt lat="42.131428" lon="23.14965">
        <ele>594</ele>
        <time>2026-04-13T14:20:22.000Z</time>
      </trkpt>
      <trkpt lat="42.13143" lon="23.149646">
        <ele>594</ele>
        <time>2026-04-13T14:20:23.000Z</time>
      </trkpt>
      <trkpt lat="42.131433" lon="23.149643">
        <ele>594</ele>
        <time>2026-04-13T14:20:24.000Z</time>
      </trkpt>
      <trkpt lat="42.131435" lon="23.149641">
        <ele>594</ele>
        <time>2026-04-13T14:20:25.000Z</time>
      </trkpt>
      <trkpt lat="42.131437" lon="23.149641">
        <ele>594</ele>
        <time>2026-04-13T14:20:26.000Z</time>
      </trkpt>
      <trkpt lat="42.131439" lon="23.149643">
        <ele>594</ele>
        <time>2026-04-13T14:20:27.000Z</time>
      </trkpt>
      <trkpt lat="42.13144" lon="23.149646">
        <ele>594</ele>
        <time>2026-04-13T14:20:28.000Z</time>
      </trkpt>
      <trkpt lat="42.13144" lon="23.14965">
        <ele>594</ele>
        <time>2026-04-13T14:20:29.000Z</time>
      </trkpt>
      <trkpt lat="42.13144" lon="23.149653">
        <ele>594</ele>
        <time>2026-04-13T14:20:30.000Z</time>
      </trkpt>
      <trkpt lat="42.131438" lon="23.149654">
        <ele>594</ele>
        <time>2026-04-13T14:20:31.000Z</time>
      </trkpt>
      <trkpt lat="42.131435" lon="23.149655">
        <ele>594</ele>
        <time>2026-04-13T14:20:32.000Z</time>
      </trkpt>
      <trkpt lat="42.131433" lon="23.149655">
        <ele>594</ele>
        <time>2026-04-13T14:20:33.000Z</time>
      </trkpt>
      <trkpt lat="42.13143" lon="23.149653">
        <ele>594</ele>
        <time>2026-04-13T14:20:34.000Z</time>
      </trkpt>
      <trkpt lat="42.131427" lon="23.149652">
        <ele>594</ele>
        <time>2026-04-13T14:20:35.000Z</time>
      </trkpt>
      <trkpt lat="42.131424" lon="23.14965">
        <ele>594</ele>
        <time>2026-04-13T14:20:36.000Z</time>
      </trkpt>
      <trkpt lat="42.131421" lon="23.149648">
        <ele>594</ele>
        <time>2026-04-13T14:20:37.000Z</time>
      </trkpt>
      <trkpt lat="42.131418" lon="23.149648">
        <ele>594</ele>
        <time>2026-04-13T14:20:38.000Z</time>
      </trkpt>
      <trkpt lat="42.131415" lon="23.149649">
        <ele>594</ele>
        <time>2026-04-13T14:20:39.000Z</time>
      </trkpt>
      <trkpt lat="42.131412" lon="23.149651">
        <ele>594.1</ele>
        <time>2026-04-13T14:20:40.000Z</time>
      </trkpt>
      <trkpt lat="42.13141" lon="23.149654">
        <ele>594.1</ele>
        <time>2026-04-13T14:20:41.000Z</time>
      </trkpt>
      <trkpt lat="42.131408" lon="23.149657">
        <ele>594.1</ele>
        <time>2026-04-13T14:20:42.000Z</time>
      </trkpt>
      <trkpt lat="42.131405" lon="23.149659">
        <ele>594.1</ele>
        <time>2026-04-13T14:20:43.000Z</time>
      </trkpt>
      <trkpt lat="42.131402" lon="23.14966">
        <ele>594.1</ele>
        <time>2026-04-13T14:20:44.000Z</time>
      </trkpt>
      <trkpt lat="42.1314" lon="23.149659">
        <ele>594</ele>
        <time>2026-04-13T14:20:45.000Z</time>
      </trkpt>
      <trkpt lat="42.131399" lon="23.149657">
        <ele>594</ele>
        <time>2026-04-13T14:20:46.000Z</time>
      </trkpt>
      <trkpt lat="42.131399" lon="23.149656">
        <ele>594</ele>
        <time>2026-04-13T14:20:47.000Z</time>
      </trkpt>
      <trkpt lat="42.131399" lon="23.149655">
        <ele>594</ele>
        <time>2026-04-13T14:20:48.000Z</time>
      </trkpt>
      <trkpt lat="42.131401" lon="23.149656">
        <ele>594</ele>
        <time>2026-04-13T14:20:49.000Z</time>
      </trkpt>
      <trkpt lat="42.131402" lon="23.149658">
        <ele>594</ele>
        <time>2026-04-13T14:20:50.000Z</time>
      </trkpt>
      <trkpt lat="42.131403" lon="23.149662">
        <ele>594</ele>
        <time>2026-04-13T14:20:51.000Z</time>
      </trkpt>
      <trkpt lat="42.131405" lon="23.149666">
        <ele>594</ele>
        <time>2026-04-13T14:20:52.000Z</time>
      </trkpt>
      <trkpt lat="42.131407" lon="23.14967">
        <ele>594</ele>
        <time>2026-04-13T14:20:53.000Z</time>
      </trkpt>
      <trkpt lat="42.131409" lon="23.149673">
        <ele>594</ele>
        <time>2026-04-13T14:20:54.000Z</time>
      </trkpt>
      <trkpt lat="42.131412" lon="23.149676">
        <ele>593.9</ele>
        <time>2026-04-13T14:20:55.000Z</time>
      </trkpt>
      <trkpt lat="42.131414" lon="23.149679">
        <ele>593.9</ele>
        <time>2026-04-13T14:20:56.000Z</time>
      </trkpt>
      <trkpt lat="42.131417" lon="23.149682">
        <ele>593.9</ele>
        <time>2026-04-13T14:20:57.000Z</time>
      </trkpt>
      <trkpt lat="42.131418" lon="23.149684">
        <ele>593.9</ele>
        <time>2026-04-13T14:20:58.000Z</time>
      </trkpt>
      <trkpt lat="42.131419" lon="23.149686">
        <ele>593.9</ele>
        <time>2026-04-13T14:20:59.000Z</time>
      </trkpt>
      <trkpt lat="42.131418" lon="23.149686">
        <ele>593.8</ele>
        <time>2026-04-13T14:21:00.000Z</time>
      </trkpt>
      <trkpt lat="42.131416" lon="23.149686">
        <ele>593.8</ele>
        <time>2026-04-13T14:21:01.000Z</time>
      </trkpt>
      <trkpt lat="42.131413" lon="23.149686">
        <ele>593.8</ele>
        <time>2026-04-13T14:21:02.000Z</time>
      </trkpt>
      <trkpt lat="42.131409" lon="23.149686">
        <ele>593.8</ele>
        <time>2026-04-13T14:21:03.000Z</time>
      </trkpt>
      <trkpt lat="42.131406" lon="23.149687">
        <ele>593.8</ele>
        <time>2026-04-13T14:21:04.000Z</time>
      </trkpt>
      <trkpt lat="42.131403" lon="23.149689">
        <ele>593.7</ele>
        <time>2026-04-13T14:21:05.000Z</time>
      </trkpt>
      <trkpt lat="42.1314" lon="23.149689">
        <ele>593.7</ele>
        <time>2026-04-13T14:21:06.000Z</time>
      </trkpt>
      <trkpt lat="42.131397" lon="23.14969">
        <ele>593.7</ele>
        <time>2026-04-13T14:21:07.000Z</time>
      </trkpt>
      <trkpt lat="42.131396" lon="23.14969">
        <ele>593.7</ele>
        <time>2026-04-13T14:21:08.000Z</time>
      </trkpt>
      <trkpt lat="42.131398" lon="23.14969">
        <ele>593.7</ele>
        <time>2026-04-13T14:21:09.000Z</time>
      </trkpt>
      <trkpt lat="42.131401" lon="23.149691">
        <ele>593.7</ele>
        <time>2026-04-13T14:21:10.000Z</time>
      </trkpt>
      <trkpt lat="42.131405" lon="23.149693">
        <ele>593.7</ele>
        <time>2026-04-13T14:21:11.000Z</time>
      </trkpt>
      <trkpt lat="42.131411" lon="23.149696">
        <ele>593.7</ele>
        <time>2026-04-13T14:21:12.000Z</time>
      </trkpt>
      <trkpt lat="42.131416" lon="23.1497">
        <ele>593.7</ele>
        <time>2026-04-13T14:21:13.000Z</time>
      </trkpt>
      <trkpt lat="42.131422" lon="23.149705">
        <ele>593.7</ele>
        <time>2026-04-13T14:21:14.000Z</time>
      </trkpt>
      <trkpt lat="42.131427" lon="23.149713">
        <ele>593.8</ele>
        <time>2026-04-13T14:21:15.000Z</time>
      </trkpt>
      <trkpt lat="42.13143" lon="23.149721">
        <ele>593.8</ele>
        <time>2026-04-13T14:21:16.000Z</time>
      </trkpt>
      <trkpt lat="42.131433" lon="23.149729">
        <ele>593.8</ele>
        <time>2026-04-13T14:21:17.000Z</time>
      </trkpt>
      <trkpt lat="42.131435" lon="23.149737">
        <ele>593.8</ele>
        <time>2026-04-13T14:21:18.000Z</time>
      </trkpt>
      <trkpt lat="42.131435" lon="23.149744">
        <ele>593.8</ele>
        <time>2026-04-13T14:21:19.000Z</time>
      </trkpt>
      <trkpt lat="42.131436" lon="23.149749">
        <ele>593.9</ele>
        <time>2026-04-13T14:21:20.000Z</time>
      </trkpt>
      <trkpt lat="42.131437" lon="23.149754">
        <ele>593.9</ele>
        <time>2026-04-13T14:21:21.000Z</time>
      </trkpt>
      <trkpt lat="42.131438" lon="23.149759">
        <ele>593.9</ele>
        <time>2026-04-13T14:21:22.000Z</time>
      </trkpt>
      <trkpt lat="42.131439" lon="23.149765">
        <ele>593.9</ele>
        <time>2026-04-13T14:21:23.000Z</time>
      </trkpt>
      <trkpt lat="42.131439" lon="23.14977">
        <ele>593.9</ele>
        <time>2026-04-13T14:21:24.000Z</time>
      </trkpt>
      <trkpt lat="42.13144" lon="23.149775">
        <ele>593.9</ele>
        <time>2026-04-13T14:21:25.000Z</time>
      </trkpt>
      <trkpt lat="42.13144" lon="23.149779">
        <ele>593.9</ele>
        <time>2026-04-13T14:21:26.000Z</time>
      </trkpt>
      <trkpt lat="42.131441" lon="23.149784">
        <ele>593.9</ele>
        <time>2026-04-13T14:21:27.000Z</time>
      </trkpt>
      <trkpt lat="42.131441" lon="23.149789">
        <ele>593.9</ele>
        <time>2026-04-13T14:21:28.000Z</time>
      </trkpt>
      <trkpt lat="42.13144" lon="23.149794">
        <ele>593.9</ele>
        <time>2026-04-13T14:21:29.000Z</time>
      </trkpt>
      <trkpt lat="42.131439" lon="23.1498">
        <ele>594.1</ele>
        <time>2026-04-13T14:21:30.000Z</time>
      </trkpt>
      <trkpt lat="42.131438" lon="23.149806">
        <ele>594.1</ele>
        <time>2026-04-13T14:21:31.000Z</time>
      </trkpt>
      <trkpt lat="42.131437" lon="23.149812">
        <ele>594.1</ele>
        <time>2026-04-13T14:21:32.000Z</time>
      </trkpt>
      <trkpt lat="42.131436" lon="23.149816">
        <ele>594.1</ele>
        <time>2026-04-13T14:21:33.000Z</time>
      </trkpt>
      <trkpt lat="42.131436" lon="23.149819">
        <ele>594.1</ele>
        <time>2026-04-13T14:21:34.000Z</time>
      </trkpt>
      <trkpt lat="42.131436" lon="23.149821">
        <ele>594.6</ele>
        <time>2026-04-13T14:21:35.000Z</time>
      </trkpt>
      <trkpt lat="42.131434" lon="23.149822">
        <ele>594.6</ele>
        <time>2026-04-13T14:21:36.000Z</time>
      </trkpt>
      <trkpt lat="42.131431" lon="23.149823">
        <ele>594.6</ele>
        <time>2026-04-13T14:21:37.000Z</time>
      </trkpt>
      <trkpt lat="42.131427" lon="23.149825">
        <ele>594.6</ele>
        <time>2026-04-13T14:21:38.000Z</time>
      </trkpt>
      <trkpt lat="42.131421" lon="23.149827">
        <ele>594.6</ele>
        <time>2026-04-13T14:21:39.000Z</time>
      </trkpt>
      <trkpt lat="42.131413" lon="23.149829">
        <ele>594.9</ele>
        <time>2026-04-13T14:21:40.000Z</time>
      </trkpt>
      <trkpt lat="42.131407" lon="23.14983">
        <ele>594.9</ele>
        <time>2026-04-13T14:21:41.000Z</time>
      </trkpt>
      <trkpt lat="42.1314" lon="23.149831">
        <ele>594.9</ele>
        <time>2026-04-13T14:21:42.000Z</time>
      </trkpt>
      <trkpt lat="42.131393" lon="23.149831">
        <ele>594.9</ele>
        <time>2026-04-13T14:21:43.000Z</time>
      </trkpt>
      <trkpt lat="42.131386" lon="23.149831">
        <ele>594.9</ele>
        <time>2026-04-13T14:21:44.000Z</time>
      </trkpt>
      <trkpt lat="42.131379" lon="23.14983">
        <ele>595.4</ele>
        <time>2026-04-13T14:21:45.000Z</time>
      </trkpt>
      <trkpt lat="42.131372" lon="23.149828">
        <ele>595.4</ele>
        <time>2026-04-13T14:21:46.000Z</time>
      </trkpt>
      <trkpt lat="42.131365" lon="23.149827">
        <ele>595.4</ele>
        <time>2026-04-13T14:21:47.000Z</time>
      </trkpt>
      <trkpt lat="42.131358" lon="23.149825">
        <ele>595.4</ele>
        <time>2026-04-13T14:21:48.000Z</time>
      </trkpt>
      <trkpt lat="42.131352" lon="23.149824">
        <ele>595.4</ele>
        <time>2026-04-13T14:21:49.000Z</time>
      </trkpt>
      <trkpt lat="42.131347" lon="23.149824">
        <ele>596</ele>
        <time>2026-04-13T14:21:50.000Z</time>
      </trkpt>
      <trkpt lat="42.131344" lon="23.149825">
        <ele>596</ele>
        <time>2026-04-13T14:21:51.000Z</time>
      </trkpt>
      <trkpt lat="42.131342" lon="23.149825">
        <ele>596</ele>
        <time>2026-04-13T14:21:52.000Z</time>
      </trkpt>
      <trkpt lat="42.131341" lon="23.149825">
        <ele>596</ele>
        <time>2026-04-13T14:21:53.000Z</time>
      </trkpt>
      <trkpt lat="42.131342" lon="23.149824">
        <ele>596</ele>
        <time>2026-04-13T14:21:54.000Z</time>
      </trkpt>
      <trkpt lat="42.131345" lon="23.149823">
        <ele>596.4</ele>
        <time>2026-04-13T14:21:55.000Z</time>
      </trkpt>
      <trkpt lat="42.131348" lon="23.149821">
        <ele>596.4</ele>
        <time>2026-04-13T14:21:56.000Z</time>
      </trkpt>
      <trkpt lat="42.131353" lon="23.14982">
        <ele>596.4</ele>
        <time>2026-04-13T14:21:57.000Z</time>
      </trkpt>
      <trkpt lat="42.13136" lon="23.149818">
        <ele>596.4</ele>
        <time>2026-04-13T14:21:58.000Z</time>
      </trkpt>
      <trkpt lat="42.131367" lon="23.149816">
        <ele>596.4</ele>
        <time>2026-04-13T14:21:59.000Z</time>
      </trkpt>
      <trkpt lat="42.131375" lon="23.149816">
        <ele>597.1</ele>
        <time>2026-04-13T14:22:00.000Z</time>
      </trkpt>
      <trkpt lat="42.131383" lon="23.149819">
        <ele>597.1</ele>
        <time>2026-04-13T14:22:01.000Z</time>
      </trkpt>
      <trkpt lat="42.13139" lon="23.149824">
        <ele>597.1</ele>
        <time>2026-04-13T14:22:02.000Z</time>
      </trkpt>
      <trkpt lat="42.131396" lon="23.149833">
        <ele>597.1</ele>
        <time>2026-04-13T14:22:03.000Z</time>
      </trkpt>
      <trkpt lat="42.131402" lon="23.149845">
        <ele>597.1</ele>
        <time>2026-04-13T14:22:04.000Z</time>
      </trkpt>
      <trkpt lat="42.131408" lon="23.149858">
        <ele>597</ele>
        <time>2026-04-13T14:22:05.000Z</time>
      </trkpt>
      <trkpt lat="42.131412" lon="23.149872">
        <ele>597</ele>
        <time>2026-04-13T14:22:06.000Z</time>
      </trkpt>
      <trkpt lat="42.131417" lon="23.149886">
        <ele>597</ele>
        <time>2026-04-13T14:22:07.000Z</time>
      </trkpt>
      <trkpt lat="42.131422" lon="23.149899">
        <ele>597</ele>
        <time>2026-04-13T14:22:08.000Z</time>
      </trkpt>
      <trkpt lat="42.131426" lon="23.149913">
        <ele>597</ele>
        <time>2026-04-13T14:22:09.000Z</time>
      </trkpt>
      <trkpt lat="42.131431" lon="23.149926">
        <ele>596.6</ele>
        <time>2026-04-13T14:22:10.000Z</time>
      </trkpt>
      <trkpt lat="42.131436" lon="23.149941">
        <ele>596.6</ele>
        <time>2026-04-13T14:22:11.000Z</time>
      </trkpt>
      <trkpt lat="42.131441" lon="23.149956">
        <ele>596.6</ele>
        <time>2026-04-13T14:22:12.000Z</time>
      </trkpt>
      <trkpt lat="42.131447" lon="23.149972">
        <ele>596.6</ele>
        <time>2026-04-13T14:22:13.000Z</time>
      </trkpt>
      <trkpt lat="42.131452" lon="23.149989">
        <ele>596.6</ele>
        <time>2026-04-13T14:22:14.000Z</time>
      </trkpt>
      <trkpt lat="42.131457" lon="23.150006">
        <ele>595.9</ele>
        <time>2026-04-13T14:22:15.000Z</time>
      </trkpt>
      <trkpt lat="42.131462" lon="23.150023">
        <ele>595.9</ele>
        <time>2026-04-13T14:22:16.000Z</time>
      </trkpt>
      <trkpt lat="42.131467" lon="23.150039">
        <ele>595.9</ele>
        <time>2026-04-13T14:22:17.000Z</time>
      </trkpt>
      <trkpt lat="42.131471" lon="23.150052">
        <ele>595.9</ele>
        <time>2026-04-13T14:22:18.000Z</time>
      </trkpt>
      <trkpt lat="42.131474" lon="23.150062">
        <ele>595.9</ele>
        <time>2026-04-13T14:22:19.000Z</time>
      </trkpt>
      <trkpt lat="42.131476" lon="23.150069">
        <ele>595.6</ele>
        <time>2026-04-13T14:22:20.000Z</time>
      </trkpt>
      <trkpt lat="42.131476" lon="23.150072">
        <ele>595.6</ele>
        <time>2026-04-13T14:22:21.000Z</time>
      </trkpt>
      <trkpt lat="42.131477" lon="23.150073">
        <ele>595.6</ele>
        <time>2026-04-13T14:22:22.000Z</time>
      </trkpt>
      <trkpt lat="42.131477" lon="23.150073">
        <ele>595.6</ele>
        <time>2026-04-13T14:22:23.000Z</time>
      </trkpt>
      <trkpt lat="42.131477" lon="23.150073">
        <ele>595.6</ele>
        <time>2026-04-13T14:22:24.000Z</time>
      </trkpt>
      <trkpt lat="42.131478" lon="23.150073">
        <ele>595.7</ele>
        <time>2026-04-13T14:22:25.000Z</time>
      </trkpt>
      <trkpt lat="42.131479" lon="23.150073">
        <ele>595.7</ele>
        <time>2026-04-13T14:22:26.000Z</time>
      </trkpt>
      <trkpt lat="42.13148" lon="23.150073">
        <ele>595.7</ele>
        <time>2026-04-13T14:22:27.000Z</time>
      </trkpt>
      <trkpt lat="42.13148" lon="23.150074">
        <ele>595.7</ele>
        <time>2026-04-13T14:22:28.000Z</time>
      </trkpt>
      <trkpt lat="42.131481" lon="23.150075">
        <ele>595.7</ele>
        <time>2026-04-13T14:22:29.000Z</time>
      </trkpt>
      <trkpt lat="42.131481" lon="23.150078">
        <ele>596</ele>
        <time>2026-04-13T14:22:30.000Z</time>
      </trkpt>
      <trkpt lat="42.131481" lon="23.150082">
        <ele>596</ele>
        <time>2026-04-13T14:22:31.000Z</time>
      </trkpt>
      <trkpt lat="42.131481" lon="23.150087">
        <ele>596</ele>
        <time>2026-04-13T14:22:32.000Z</time>
      </trkpt>
      <trkpt lat="42.131481" lon="23.150094">
        <ele>596</ele>
        <time>2026-04-13T14:22:33.000Z</time>
      </trkpt>
      <trkpt lat="42.131481" lon="23.150103">
        <ele>596</ele>
        <time>2026-04-13T14:22:34.000Z</time>
      </trkpt>
      <trkpt lat="42.131481" lon="23.150111">
        <ele>596.1</ele>
        <time>2026-04-13T14:22:35.000Z</time>
      </trkpt>
      <trkpt lat="42.131482" lon="23.150119">
        <ele>596.1</ele>
        <time>2026-04-13T14:22:36.000Z</time>
      </trkpt>
      <trkpt lat="42.131485" lon="23.150125">
        <ele>596.1</ele>
        <time>2026-04-13T14:22:37.000Z</time>
      </trkpt>
      <trkpt lat="42.131488" lon="23.15013">
        <ele>596.1</ele>
        <time>2026-04-13T14:22:38.000Z</time>
      </trkpt>
      <trkpt lat="42.131492" lon="23.150132">
        <ele>596.1</ele>
        <time>2026-04-13T14:22:39.000Z</time>
      </trkpt>
      <trkpt lat="42.131495" lon="23.150134">
        <ele>596</ele>
        <time>2026-04-13T14:22:40.000Z</time>
      </trkpt>
      <trkpt lat="42.131496" lon="23.150135">
        <ele>596</ele>
        <time>2026-04-13T14:22:41.000Z</time>
      </trkpt>
      <trkpt lat="42.131497" lon="23.150135">
        <ele>596</ele>
        <time>2026-04-13T14:22:42.000Z</time>
      </trkpt>
      <trkpt lat="42.131496" lon="23.150135">
        <ele>596</ele>
        <time>2026-04-13T14:22:43.000Z</time>
      </trkpt>
      <trkpt lat="42.131496" lon="23.150133">
        <ele>596</ele>
        <time>2026-04-13T14:22:44.000Z</time>
      </trkpt>
      <trkpt lat="42.131495" lon="23.150131">
        <ele>596.1</ele>
        <time>2026-04-13T14:22:45.000Z</time>
      </trkpt>
      <trkpt lat="42.131494" lon="23.150129">
        <ele>596.1</ele>
        <time>2026-04-13T14:22:46.000Z</time>
      </trkpt>
      <trkpt lat="42.131493" lon="23.150126">
        <ele>596.1</ele>
        <time>2026-04-13T14:22:47.000Z</time>
      </trkpt>
      <trkpt lat="42.131491" lon="23.150123">
        <ele>596.1</ele>
        <time>2026-04-13T14:22:48.000Z</time>
      </trkpt>
      <trkpt lat="42.13149" lon="23.15012">
        <ele>596.1</ele>
        <time>2026-04-13T14:22:49.000Z</time>
      </trkpt>
      <trkpt lat="42.131489" lon="23.150116">
        <ele>596</ele>
        <time>2026-04-13T14:22:50.000Z</time>
      </trkpt>
      <trkpt lat="42.131487" lon="23.150113">
        <ele>596</ele>
        <time>2026-04-13T14:22:51.000Z</time>
      </trkpt>
      <trkpt lat="42.131485" lon="23.150109">
        <ele>596</ele>
        <time>2026-04-13T14:22:52.000Z</time>
      </trkpt>
      <trkpt lat="42.131484" lon="23.150105">
        <ele>596</ele>
        <time>2026-04-13T14:22:53.000Z</time>
      </trkpt>
      <trkpt lat="42.131482" lon="23.150102">
        <ele>596</ele>
        <time>2026-04-13T14:22:54.000Z</time>
      </trkpt>
      <trkpt lat="42.131481" lon="23.150098">
        <ele>596</ele>
        <time>2026-04-13T14:22:55.000Z</time>
      </trkpt>
      <trkpt lat="42.131479" lon="23.150094">
        <ele>596</ele>
        <time>2026-04-13T14:22:56.000Z</time>
      </trkpt>
      <trkpt lat="42.131477" lon="23.15009">
        <ele>596</ele>
        <time>2026-04-13T14:22:57.000Z</time>
      </trkpt>
      <trkpt lat="42.131476" lon="23.150087">
        <ele>596</ele>
        <time>2026-04-13T14:22:58.000Z</time>
      </trkpt>
      <trkpt lat="42.131474" lon="23.150083">
        <ele>596</ele>
        <time>2026-04-13T14:22:59.000Z</time>
      </trkpt>
      <trkpt lat="42.131473" lon="23.150079">
        <ele>595.9</ele>
        <time>2026-04-13T14:23:00.000Z</time>
      </trkpt>
      <trkpt lat="42.131471" lon="23.150075">
        <ele>595.9</ele>
        <time>2026-04-13T14:23:01.000Z</time>
      </trkpt>
      <trkpt lat="42.131469" lon="23.150072">
        <ele>595.9</ele>
        <time>2026-04-13T14:23:02.000Z</time>
      </trkpt>
      <trkpt lat="42.131468" lon="23.150068">
        <ele>595.9</ele>
        <time>2026-04-13T14:23:03.000Z</time>
      </trkpt>
      <trkpt lat="42.131467" lon="23.150065">
        <ele>595.9</ele>
        <time>2026-04-13T14:23:04.000Z</time>
      </trkpt>
      <trkpt lat="42.131466" lon="23.150064">
        <ele>596.1</ele>
        <time>2026-04-13T14:23:05.000Z</time>
      </trkpt>
      <trkpt lat="42.131466" lon="23.150064">
        <ele>596.1</ele>
        <time>2026-04-13T14:23:06.000Z</time>
      </trkpt>
      <trkpt lat="42.131467" lon="23.150065">
        <ele>596.1</ele>
        <time>2026-04-13T14:23:07.000Z</time>
      </trkpt>
      <trkpt lat="42.131469" lon="23.150068">
        <ele>596.1</ele>
        <time>2026-04-13T14:23:08.000Z</time>
      </trkpt>
      <trkpt lat="42.131472" lon="23.15007">
        <ele>596.1</ele>
        <time>2026-04-13T14:23:09.000Z</time>
      </trkpt>
      <trkpt lat="42.131475" lon="23.150071">
        <ele>596.1</ele>
        <time>2026-04-13T14:23:10.000Z</time>
      </trkpt>
      <trkpt lat="42.131477" lon="23.150072">
        <ele>596.1</ele>
        <time>2026-04-13T14:23:11.000Z</time>
      </trkpt>
      <trkpt lat="42.13148" lon="23.150072">
        <ele>596.1</ele>
        <time>2026-04-13T14:23:12.000Z</time>
      </trkpt>
      <trkpt lat="42.131483" lon="23.150071">
        <ele>596.1</ele>
        <time>2026-04-13T14:23:13.000Z</time>
      </trkpt>
      <trkpt lat="42.131485" lon="23.150069">
        <ele>596.1</ele>
        <time>2026-04-13T14:23:14.000Z</time>
      </trkpt>
      <trkpt lat="42.131488" lon="23.150069">
        <ele>596.2</ele>
        <time>2026-04-13T14:23:15.000Z</time>
      </trkpt>
      <trkpt lat="42.13149" lon="23.150069">
        <ele>596.2</ele>
        <time>2026-04-13T14:23:16.000Z</time>
      </trkpt>
      <trkpt lat="42.131491" lon="23.15007">
        <ele>596.2</ele>
        <time>2026-04-13T14:23:17.000Z</time>
      </trkpt>
      <trkpt lat="42.131492" lon="23.150072">
        <ele>596.2</ele>
        <time>2026-04-13T14:23:18.000Z</time>
      </trkpt>
      <trkpt lat="42.131492" lon="23.150075">
        <ele>596.2</ele>
        <time>2026-04-13T14:23:19.000Z</time>
      </trkpt>
      <trkpt lat="42.131491" lon="23.150079">
        <ele>596.3</ele>
        <time>2026-04-13T14:23:20.000Z</time>
      </trkpt>
      <trkpt lat="42.131489" lon="23.150082">
        <ele>596.3</ele>
        <time>2026-04-13T14:23:21.000Z</time>
      </trkpt>
      <trkpt lat="42.131488" lon="23.150085">
        <ele>596.3</ele>
        <time>2026-04-13T14:23:22.000Z</time>
      </trkpt>
      <trkpt lat="42.131487" lon="23.150086">
        <ele>596.3</ele>
        <time>2026-04-13T14:23:23.000Z</time>
      </trkpt>
      <trkpt lat="42.131486" lon="23.150085">
        <ele>596.3</ele>
        <time>2026-04-13T14:23:24.000Z</time>
      </trkpt>
      <trkpt lat="42.131485" lon="23.150083">
        <ele>596.2</ele>
        <time>2026-04-13T14:23:25.000Z</time>
      </trkpt>
      <trkpt lat="42.131484" lon="23.150078">
        <ele>596.2</ele>
        <time>2026-04-13T14:23:26.000Z</time>
      </trkpt>
      <trkpt lat="42.131483" lon="23.15007">
        <ele>596.2</ele>
        <time>2026-04-13T14:23:27.000Z</time>
      </trkpt>
      <trkpt lat="42.131481" lon="23.15006">
        <ele>596.2</ele>
        <time>2026-04-13T14:23:28.000Z</time>
      </trkpt>
      <trkpt lat="42.131479" lon="23.150049">
        <ele>596.2</ele>
        <time>2026-04-13T14:23:29.000Z</time>
      </trkpt>
      <trkpt lat="42.131477" lon="23.150036">
        <ele>596</ele>
        <time>2026-04-13T14:23:30.000Z</time>
      </trkpt>
      <trkpt lat="42.131474" lon="23.150023">
        <ele>596</ele>
        <time>2026-04-13T14:23:31.000Z</time>
      </trkpt>
      <trkpt lat="42.13147" lon="23.15001">
        <ele>596</ele>
        <time>2026-04-13T14:23:32.000Z</time>
      </trkpt>
      <trkpt lat="42.131466" lon="23.149998">
        <ele>596</ele>
        <time>2026-04-13T14:23:33.000Z</time>
      </trkpt>
      <trkpt lat="42.13146" lon="23.149985">
        <ele>596</ele>
        <time>2026-04-13T14:23:34.000Z</time>
      </trkpt>
      <trkpt lat="42.131454" lon="23.149972">
        <ele>595.9</ele>
        <time>2026-04-13T14:23:35.000Z</time>
      </trkpt>
      <trkpt lat="42.131449" lon="23.149958">
        <ele>595.9</ele>
        <time>2026-04-13T14:23:36.000Z</time>
      </trkpt>
      <trkpt lat="42.131445" lon="23.149942">
        <ele>595.9</ele>
        <time>2026-04-13T14:23:37.000Z</time>
      </trkpt>
      <trkpt lat="42.131441" lon="23.149926">
        <ele>595.9</ele>
        <time>2026-04-13T14:23:38.000Z</time>
      </trkpt>
      <trkpt lat="42.131439" lon="23.149911">
        <ele>595.9</ele>
        <time>2026-04-13T14:23:39.000Z</time>
      </trkpt>
      <trkpt lat="42.131438" lon="23.149896">
        <ele>595.9</ele>
        <time>2026-04-13T14:23:40.000Z</time>
      </trkpt>
      <trkpt lat="42.131437" lon="23.149882">
        <ele>595.9</ele>
        <time>2026-04-13T14:23:41.000Z</time>
      </trkpt>
      <trkpt lat="42.131435" lon="23.149868">
        <ele>595.9</ele>
        <time>2026-04-13T14:23:42.000Z</time>
      </trkpt>
      <trkpt lat="42.131434" lon="23.149853">
        <ele>595.9</ele>
        <time>2026-04-13T14:23:43.000Z</time>
      </trkpt>
      <trkpt lat="42.131431" lon="23.149837">
        <ele>595.9</ele>
        <time>2026-04-13T14:23:44.000Z</time>
      </trkpt>
      <trkpt lat="42.131428" lon="23.149822">
        <ele>595.9</ele>
        <time>2026-04-13T14:23:45.000Z</time>
      </trkpt>
      <trkpt lat="42.131424" lon="23.149808">
        <ele>595.9</ele>
        <time>2026-04-13T14:23:46.000Z</time>
      </trkpt>
      <trkpt lat="42.131419" lon="23.149797">
        <ele>595.9</ele>
        <time>2026-04-13T14:23:47.000Z</time>
      </trkpt>
      <trkpt lat="42.131414" lon="23.149787">
        <ele>595.9</ele>
        <time>2026-04-13T14:23:48.000Z</time>
      </trkpt>
      <trkpt lat="42.131411" lon="23.149781">
        <ele>595.9</ele>
        <time>2026-04-13T14:23:49.000Z</time>
      </trkpt>
      <trkpt lat="42.131409" lon="23.149778">
        <ele>595.5</ele>
        <time>2026-04-13T14:23:50.000Z</time>
      </trkpt>
      <trkpt lat="42.131408" lon="23.149776">
        <ele>595.5</ele>
        <time>2026-04-13T14:23:51.000Z</time>
      </trkpt>
      <trkpt lat="42.131409" lon="23.149774">
        <ele>595.5</ele>
        <time>2026-04-13T14:23:52.000Z</time>
      </trkpt>
      <trkpt lat="42.131411" lon="23.149772">
        <ele>595.5</ele>
        <time>2026-04-13T14:23:53.000Z</time>
      </trkpt>
      <trkpt lat="42.131414" lon="23.14977">
        <ele>595.5</ele>
        <time>2026-04-13T14:23:54.000Z</time>
      </trkpt>
      <trkpt lat="42.131418" lon="23.149768">
        <ele>595.2</ele>
        <time>2026-04-13T14:23:55.000Z</time>
      </trkpt>
      <trkpt lat="42.131423" lon="23.149767">
        <ele>595.2</ele>
        <time>2026-04-13T14:23:56.000Z</time>
      </trkpt>
      <trkpt lat="42.131429" lon="23.149768">
        <ele>595.2</ele>
        <time>2026-04-13T14:23:57.000Z</time>
      </trkpt>
      <trkpt lat="42.131434" lon="23.14977">
        <ele>595.2</ele>
        <time>2026-04-13T14:23:58.000Z</time>
      </trkpt>
      <trkpt lat="42.131439" lon="23.149774">
        <ele>595.2</ele>
        <time>2026-04-13T14:23:59.000Z</time>
      </trkpt>
      <trkpt lat="42.131442" lon="23.149779">
        <ele>595.1</ele>
        <time>2026-04-13T14:24:00.000Z</time>
      </trkpt>
      <trkpt lat="42.131443" lon="23.149784">
        <ele>595.1</ele>
        <time>2026-04-13T14:24:01.000Z</time>
      </trkpt>
      <trkpt lat="42.131443" lon="23.149789">
        <ele>595.1</ele>
        <time>2026-04-13T14:24:02.000Z</time>
      </trkpt>
      <trkpt lat="42.131442" lon="23.149794">
        <ele>595.1</ele>
        <time>2026-04-13T14:24:03.000Z</time>
      </trkpt>
      <trkpt lat="42.13144" lon="23.149797">
        <ele>595.1</ele>
        <time>2026-04-13T14:24:04.000Z</time>
      </trkpt>
      <trkpt lat="42.131439" lon="23.149798">
        <ele>595.1</ele>
        <time>2026-04-13T14:24:05.000Z</time>
      </trkpt>
      <trkpt lat="42.131441" lon="23.149797">
        <ele>595.1</ele>
        <time>2026-04-13T14:24:06.000Z</time>
      </trkpt>
      <trkpt lat="42.131443" lon="23.149793">
        <ele>595.1</ele>
        <time>2026-04-13T14:24:07.000Z</time>
      </trkpt>
      <trkpt lat="42.131446" lon="23.149787">
        <ele>595.1</ele>
        <time>2026-04-13T14:24:08.000Z</time>
      </trkpt>
      <trkpt lat="42.131449" lon="23.149779">
        <ele>595.1</ele>
        <time>2026-04-13T14:24:09.000Z</time>
      </trkpt>
      <trkpt lat="42.131453" lon="23.149769">
        <ele>595.2</ele>
        <time>2026-04-13T14:24:10.000Z</time>
      </trkpt>
      <trkpt lat="42.131456" lon="23.149756">
        <ele>595.2</ele>
        <time>2026-04-13T14:24:11.000Z</time>
      </trkpt>
      <trkpt lat="42.131457" lon="23.149741">
        <ele>595.2</ele>
        <time>2026-04-13T14:24:12.000Z</time>
      </trkpt>
      <trkpt lat="42.131458" lon="23.149724">
        <ele>595.2</ele>
        <time>2026-04-13T14:24:13.000Z</time>
      </trkpt>
      <trkpt lat="42.131456" lon="23.149707">
        <ele>595.2</ele>
        <time>2026-04-13T14:24:14.000Z</time>
      </trkpt>
      <trkpt lat="42.131454" lon="23.149691">
        <ele>595</ele>
        <time>2026-04-13T14:24:15.000Z</time>
      </trkpt>
      <trkpt lat="42.131451" lon="23.149677">
        <ele>595</ele>
        <time>2026-04-13T14:24:16.000Z</time>
      </trkpt>
      <trkpt lat="42.131448" lon="23.149664">
        <ele>595</ele>
        <time>2026-04-13T14:24:17.000Z</time>
      </trkpt>
      <trkpt lat="42.131447" lon="23.149651">
        <ele>595</ele>
        <time>2026-04-13T14:24:18.000Z</time>
      </trkpt>
      <trkpt lat="42.131446" lon="23.149639">
        <ele>595</ele>
        <time>2026-04-13T14:24:19.000Z</time>
      </trkpt>
      <trkpt lat="42.131448" lon="23.149627">
        <ele>594.4</ele>
        <time>2026-04-13T14:24:20.000Z</time>
      </trkpt>
      <trkpt lat="42.131452" lon="23.149617">
        <ele>594.4</ele>
        <time>2026-04-13T14:24:21.000Z</time>
      </trkpt>
      <trkpt lat="42.131457" lon="23.149608">
        <ele>594.4</ele>
        <time>2026-04-13T14:24:22.000Z</time>
      </trkpt>
      <trkpt lat="42.131463" lon="23.1496">
        <ele>594.4</ele>
        <time>2026-04-13T14:24:23.000Z</time>
      </trkpt>
      <trkpt lat="42.13147" lon="23.149592">
        <ele>594.4</ele>
        <time>2026-04-13T14:24:24.000Z</time>
      </trkpt>
      <trkpt lat="42.131476" lon="23.149583">
        <ele>593.9</ele>
        <time>2026-04-13T14:24:25.000Z</time>
      </trkpt>
      <trkpt lat="42.131484" lon="23.149576">
        <ele>593.9</ele>
        <time>2026-04-13T14:24:26.000Z</time>
      </trkpt>
      <trkpt lat="42.131491" lon="23.14957">
        <ele>593.9</ele>
        <time>2026-04-13T14:24:27.000Z</time>
      </trkpt>
      <trkpt lat="42.131498" lon="23.149565">
        <ele>593.9</ele>
        <time>2026-04-13T14:24:28.000Z</time>
      </trkpt>
      <trkpt lat="42.131503" lon="23.149562">
        <ele>593.9</ele>
        <time>2026-04-13T14:24:29.000Z</time>
      </trkpt>
      <trkpt lat="42.131506" lon="23.149561">
        <ele>592.7</ele>
        <time>2026-04-13T14:24:30.000Z</time>
      </trkpt>
      <trkpt lat="42.131506" lon="23.149559">
        <ele>592.7</ele>
        <time>2026-04-13T14:24:31.000Z</time>
      </trkpt>
      <trkpt lat="42.131505" lon="23.149557">
        <ele>592.7</ele>
        <time>2026-04-13T14:24:32.000Z</time>
      </trkpt>
      <trkpt lat="42.131502" lon="23.149554">
        <ele>592.7</ele>
        <time>2026-04-13T14:24:33.000Z</time>
      </trkpt>
      <trkpt lat="42.131499" lon="23.149549">
        <ele>592.7</ele>
        <time>2026-04-13T14:24:34.000Z</time>
      </trkpt>
      <trkpt lat="42.131496" lon="23.149546">
        <ele>591.6</ele>
        <time>2026-04-13T14:24:35.000Z</time>
      </trkpt>
      <trkpt lat="42.131493" lon="23.149544">
        <ele>591.6</ele>
        <time>2026-04-13T14:24:36.000Z</time>
      </trkpt>
      <trkpt lat="42.131492" lon="23.149543">
        <ele>591.6</ele>
        <time>2026-04-13T14:24:37.000Z</time>
      </trkpt>
      <trkpt lat="42.131491" lon="23.149542">
        <ele>591.6</ele>
        <time>2026-04-13T14:24:38.000Z</time>
      </trkpt>
      <trkpt lat="42.131492" lon="23.149542">
        <ele>591.6</ele>
        <time>2026-04-13T14:24:39.000Z</time>
      </trkpt>
      <trkpt lat="42.131495" lon="23.149541">
        <ele>591.2</ele>
        <time>2026-04-13T14:24:40.000Z</time>
      </trkpt>
      <trkpt lat="42.1315" lon="23.149539">
        <ele>591.2</ele>
        <time>2026-04-13T14:24:41.000Z</time>
      </trkpt>
      <trkpt lat="42.131506" lon="23.149537">
        <ele>591.2</ele>
        <time>2026-04-13T14:24:42.000Z</time>
      </trkpt>
      <trkpt lat="42.131514" lon="23.149536">
        <ele>591.2</ele>
        <time>2026-04-13T14:24:43.000Z</time>
      </trkpt>
      <trkpt lat="42.131523" lon="23.149534">
        <ele>591.2</ele>
        <time>2026-04-13T14:24:44.000Z</time>
      </trkpt>
      <trkpt lat="42.131531" lon="23.149533">
        <ele>590.8</ele>
        <time>2026-04-13T14:24:45.000Z</time>
      </trkpt>
      <trkpt lat="42.13154" lon="23.149531">
        <ele>590.8</ele>
        <time>2026-04-13T14:24:46.000Z</time>
      </trkpt>
      <trkpt lat="42.131548" lon="23.14953">
        <ele>590.8</ele>
        <time>2026-04-13T14:24:47.000Z</time>
      </trkpt>
      <trkpt lat="42.131555" lon="23.149529">
        <ele>590.8</ele>
        <time>2026-04-13T14:24:48.000Z</time>
      </trkpt>
      <trkpt lat="42.13156" lon="23.14953">
        <ele>590.8</ele>
        <time>2026-04-13T14:24:49.000Z</time>
      </trkpt>
      <trkpt lat="42.131563" lon="23.149533">
        <ele>590.5</ele>
        <time>2026-04-13T14:24:50.000Z</time>
      </trkpt>
      <trkpt lat="42.131565" lon="23.149539">
        <ele>590.5</ele>
        <time>2026-04-13T14:24:51.000Z</time>
      </trkpt>
      <trkpt lat="42.131565" lon="23.149546">
        <ele>590.5</ele>
        <time>2026-04-13T14:24:52.000Z</time>
      </trkpt>
      <trkpt lat="42.131564" lon="23.149556">
        <ele>590.5</ele>
        <time>2026-04-13T14:24:53.000Z</time>
      </trkpt>
      <trkpt lat="42.131563" lon="23.149568">
        <ele>590.5</ele>
        <time>2026-04-13T14:24:54.000Z</time>
      </trkpt>
      <trkpt lat="42.131563" lon="23.14958">
        <ele>590.2</ele>
        <time>2026-04-13T14:24:55.000Z</time>
      </trkpt>
      <trkpt lat="42.131562" lon="23.149593">
        <ele>590.2</ele>
        <time>2026-04-13T14:24:56.000Z</time>
      </trkpt>
      <trkpt lat="42.131562" lon="23.149606">
        <ele>590.2</ele>
        <time>2026-04-13T14:24:57.000Z</time>
      </trkpt>
      <trkpt lat="42.131561" lon="23.14962">
        <ele>590.2</ele>
        <time>2026-04-13T14:24:58.000Z</time>
      </trkpt>
      <trkpt lat="42.131561" lon="23.149633">
        <ele>590.2</ele>
        <time>2026-04-13T14:24:59.000Z</time>
      </trkpt>
      <trkpt lat="42.131561" lon="23.149647">
        <ele>589.2</ele>
        <time>2026-04-13T14:25:00.000Z</time>
      </trkpt>
      <trkpt lat="42.131562" lon="23.149661">
        <ele>589.2</ele>
        <time>2026-04-13T14:25:01.000Z</time>
      </trkpt>
      <trkpt lat="42.131564" lon="23.149677">
        <ele>589.2</ele>
        <time>2026-04-13T14:25:02.000Z</time>
      </trkpt>
      <trkpt lat="42.131566" lon="23.149693">
        <ele>589.2</ele>
        <time>2026-04-13T14:25:03.000Z</time>
      </trkpt>
      <trkpt lat="42.131568" lon="23.14971">
        <ele>589.2</ele>
        <time>2026-04-13T14:25:04.000Z</time>
      </trkpt>
      <trkpt lat="42.131569" lon="23.149727">
        <ele>588.1</ele>
        <time>2026-04-13T14:25:05.000Z</time>
      </trkpt>
      <trkpt lat="42.131569" lon="23.149743">
        <ele>588.1</ele>
        <time>2026-04-13T14:25:06.000Z</time>
      </trkpt>
      <trkpt lat="42.131567" lon="23.149759">
        <ele>588.1</ele>
        <time>2026-04-13T14:25:07.000Z</time>
      </trkpt>
      <trkpt lat="42.131563" lon="23.149774">
        <ele>588.1</ele>
        <time>2026-04-13T14:25:08.000Z</time>
      </trkpt>
      <trkpt lat="42.131557" lon="23.149788">
        <ele>588.1</ele>
        <time>2026-04-13T14:25:09.000Z</time>
      </trkpt>
      <trkpt lat="42.131551" lon="23.149802">
        <ele>587.7</ele>
        <time>2026-04-13T14:25:10.000Z</time>
      </trkpt>
      <trkpt lat="42.131544" lon="23.149817">
        <ele>587.7</ele>
        <time>2026-04-13T14:25:11.000Z</time>
      </trkpt>
      <trkpt lat="42.131539" lon="23.14983">
        <ele>587.7</ele>
        <time>2026-04-13T14:25:12.000Z</time>
      </trkpt>
      <trkpt lat="42.131535" lon="23.149843">
        <ele>587.7</ele>
        <time>2026-04-13T14:25:13.000Z</time>
      </trkpt>
      <trkpt lat="42.131534" lon="23.149855">
        <ele>587.7</ele>
        <time>2026-04-13T14:25:14.000Z</time>
      </trkpt>
      <trkpt lat="42.131537" lon="23.149866">
        <ele>586.9</ele>
        <time>2026-04-13T14:25:15.000Z</time>
      </trkpt>
      <trkpt lat="42.131542" lon="23.149876">
        <ele>586.9</ele>
        <time>2026-04-13T14:25:16.000Z</time>
      </trkpt>
      <trkpt lat="42.13155" lon="23.149885">
        <ele>586.9</ele>
        <time>2026-04-13T14:25:17.000Z</time>
      </trkpt>
      <trkpt lat="42.13156" lon="23.149894">
        <ele>586.9</ele>
        <time>2026-04-13T14:25:18.000Z</time>
      </trkpt>
      <trkpt lat="42.13157" lon="23.149903">
        <ele>586.9</ele>
        <time>2026-04-13T14:25:19.000Z</time>
      </trkpt>
      <trkpt lat="42.13158" lon="23.149912">
        <ele>586.1</ele>
        <time>2026-04-13T14:25:20.000Z</time>
      </trkpt>
      <trkpt lat="42.13159" lon="23.149923">
        <ele>586.1</ele>
        <time>2026-04-13T14:25:21.000Z</time>
      </trkpt>
      <trkpt lat="42.1316" lon="23.149937">
        <ele>586.1</ele>
        <time>2026-04-13T14:25:22.000Z</time>
      </trkpt>
      <trkpt lat="42.131607" lon="23.149951">
        <ele>586.1</ele>
        <time>2026-04-13T14:25:23.000Z</time>
      </trkpt>
      <trkpt lat="42.131613" lon="23.149968">
        <ele>586.1</ele>
        <time>2026-04-13T14:25:24.000Z</time>
      </trkpt>
      <trkpt lat="42.131619" lon="23.149985">
        <ele>585.8</ele>
        <time>2026-04-13T14:25:25.000Z</time>
      </trkpt>
      <trkpt lat="42.131623" lon="23.150003">
        <ele>585.8</ele>
        <time>2026-04-13T14:25:26.000Z</time>
      </trkpt>
      <trkpt lat="42.131628" lon="23.150021">
        <ele>585.8</ele>
        <time>2026-04-13T14:25:27.000Z</time>
      </trkpt>
      <trkpt lat="42.131634" lon="23.150039">
        <ele>585.8</ele>
        <time>2026-04-13T14:25:28.000Z</time>
      </trkpt>
      <trkpt lat="42.131639" lon="23.150056">
        <ele>585.8</ele>
        <time>2026-04-13T14:25:29.000Z</time>
      </trkpt>
      <trkpt lat="42.131646" lon="23.150071">
        <ele>585.1</ele>
        <time>2026-04-13T14:25:30.000Z</time>
      </trkpt>
      <trkpt lat="42.131652" lon="23.150086">
        <ele>585.1</ele>
        <time>2026-04-13T14:25:31.000Z</time>
      </trkpt>
      <trkpt lat="42.131658" lon="23.1501">
        <ele>585.1</ele>
        <time>2026-04-13T14:25:32.000Z</time>
      </trkpt>
      <trkpt lat="42.131664" lon="23.150113">
        <ele>585.1</ele>
        <time>2026-04-13T14:25:33.000Z</time>
      </trkpt>
      <trkpt lat="42.131669" lon="23.150127">
        <ele>585.1</ele>
        <time>2026-04-13T14:25:34.000Z</time>
      </trkpt>
      <trkpt lat="42.131674" lon="23.150143">
        <ele>584</ele>
        <time>2026-04-13T14:25:35.000Z</time>
      </trkpt>
      <trkpt lat="42.131677" lon="23.150159">
        <ele>584</ele>
        <time>2026-04-13T14:25:36.000Z</time>
      </trkpt>
      <trkpt lat="42.131681" lon="23.150175">
        <ele>584</ele>
        <time>2026-04-13T14:25:37.000Z</time>
      </trkpt>
      <trkpt lat="42.131684" lon="23.150191">
        <ele>584</ele>
        <time>2026-04-13T14:25:38.000Z</time>
      </trkpt>
      <trkpt lat="42.131686" lon="23.150208">
        <ele>584</ele>
        <time>2026-04-13T14:25:39.000Z</time>
      </trkpt>
      <trkpt lat="42.131689" lon="23.150224">
        <ele>583.4</ele>
        <time>2026-04-13T14:25:40.000Z</time>
      </trkpt>
      <trkpt lat="42.131692" lon="23.15024">
        <ele>583.4</ele>
        <time>2026-04-13T14:25:41.000Z</time>
      </trkpt>
      <trkpt lat="42.131694" lon="23.150256">
        <ele>583.4</ele>
        <time>2026-04-13T14:25:42.000Z</time>
      </trkpt>
      <trkpt lat="42.131695" lon="23.150271">
        <ele>583.4</ele>
        <time>2026-04-13T14:25:43.000Z</time>
      </trkpt>
      <trkpt lat="42.131696" lon="23.150287">
        <ele>583.4</ele>
        <time>2026-04-13T14:25:44.000Z</time>
      </trkpt>
      <trkpt lat="42.131698" lon="23.150302">
        <ele>582.1</ele>
        <time>2026-04-13T14:25:45.000Z</time>
      </trkpt>
      <trkpt lat="42.131701" lon="23.150316">
        <ele>582.1</ele>
        <time>2026-04-13T14:25:46.000Z</time>
      </trkpt>
      <trkpt lat="42.131704" lon="23.150332">
        <ele>582.1</ele>
        <time>2026-04-13T14:25:47.000Z</time>
      </trkpt>
      <trkpt lat="42.131708" lon="23.150348">
        <ele>582.1</ele>
        <time>2026-04-13T14:25:48.000Z</time>
      </trkpt>
      <trkpt lat="42.131713" lon="23.150364">
        <ele>582.1</ele>
        <time>2026-04-13T14:25:49.000Z</time>
      </trkpt>
      <trkpt lat="42.131717" lon="23.150381">
        <ele>580.8</ele>
        <time>2026-04-13T14:25:50.000Z</time>
      </trkpt>
      <trkpt lat="42.13172" lon="23.150397">
        <ele>580.8</ele>
        <time>2026-04-13T14:25:51.000Z</time>
      </trkpt>
      <trkpt lat="42.131722" lon="23.150413">
        <ele>580.8</ele>
        <time>2026-04-13T14:25:52.000Z</time>
      </trkpt>
      <trkpt lat="42.131723" lon="23.150428">
        <ele>580.8</ele>
        <time>2026-04-13T14:25:53.000Z</time>
      </trkpt>
      <trkpt lat="42.131725" lon="23.150442">
        <ele>580.8</ele>
        <time>2026-04-13T14:25:54.000Z</time>
      </trkpt>
      <trkpt lat="42.131726" lon="23.150455">
        <ele>580.2</ele>
        <time>2026-04-13T14:25:55.000Z</time>
      </trkpt>
      <trkpt lat="42.131727" lon="23.150468">
        <ele>580.2</ele>
        <time>2026-04-13T14:25:56.000Z</time>
      </trkpt>
      <trkpt lat="42.131727" lon="23.150482">
        <ele>580.2</ele>
        <time>2026-04-13T14:25:57.000Z</time>
      </trkpt>
      <trkpt lat="42.131727" lon="23.150495">
        <ele>580.2</ele>
        <time>2026-04-13T14:25:58.000Z</time>
      </trkpt>
      <trkpt lat="42.131726" lon="23.150508">
        <ele>580.2</ele>
        <time>2026-04-13T14:25:59.000Z</time>
      </trkpt>
      <trkpt lat="42.131725" lon="23.150521">
        <ele>579.7</ele>
        <time>2026-04-13T14:26:00.000Z</time>
      </trkpt>
      <trkpt lat="42.131725" lon="23.150533">
        <ele>579.7</ele>
        <time>2026-04-13T14:26:01.000Z</time>
      </trkpt>
      <trkpt lat="42.131725" lon="23.150545">
        <ele>579.7</ele>
        <time>2026-04-13T14:26:02.000Z</time>
      </trkpt>
      <trkpt lat="42.131726" lon="23.150557">
        <ele>579.7</ele>
        <time>2026-04-13T14:26:03.000Z</time>
      </trkpt>
      <trkpt lat="42.131727" lon="23.15057">
        <ele>579.7</ele>
        <time>2026-04-13T14:26:04.000Z</time>
      </trkpt>
      <trkpt lat="42.131729" lon="23.150584">
        <ele>580.2</ele>
        <time>2026-04-13T14:26:05.000Z</time>
      </trkpt>
      <trkpt lat="42.13173" lon="23.150598">
        <ele>580.2</ele>
        <time>2026-04-13T14:26:06.000Z</time>
      </trkpt>
      <trkpt lat="42.131731" lon="23.150612">
        <ele>580.2</ele>
        <time>2026-04-13T14:26:07.000Z</time>
      </trkpt>
      <trkpt lat="42.131732" lon="23.150626">
        <ele>580.2</ele>
        <time>2026-04-13T14:26:08.000Z</time>
      </trkpt>
      <trkpt lat="42.131732" lon="23.150641">
        <ele>580.2</ele>
        <time>2026-04-13T14:26:09.000Z</time>
      </trkpt>
      <trkpt lat="42.131732" lon="23.150655">
        <ele>580.6</ele>
        <time>2026-04-13T14:26:10.000Z</time>
      </trkpt>
      <trkpt lat="42.131733" lon="23.15067">
        <ele>580.6</ele>
        <time>2026-04-13T14:26:11.000Z</time>
      </trkpt>
      <trkpt lat="42.131734" lon="23.150687">
        <ele>580.6</ele>
        <time>2026-04-13T14:26:12.000Z</time>
      </trkpt>
      <trkpt lat="42.131736" lon="23.150704">
        <ele>580.6</ele>
        <time>2026-04-13T14:26:13.000Z</time>
      </trkpt>
      <trkpt lat="42.131737" lon="23.150722">
        <ele>580.6</ele>
        <time>2026-04-13T14:26:14.000Z</time>
      </trkpt>
      <trkpt lat="42.131739" lon="23.150739">
        <ele>581.1</ele>
        <time>2026-04-13T14:26:15.000Z</time>
      </trkpt>
      <trkpt lat="42.131741" lon="23.150758">
        <ele>581.1</ele>
        <time>2026-04-13T14:26:16.000Z</time>
      </trkpt>
      <trkpt lat="42.131742" lon="23.150776">
        <ele>581.1</ele>
        <time>2026-04-13T14:26:17.000Z</time>
      </trkpt>
      <trkpt lat="42.131742" lon="23.150795">
        <ele>581.1</ele>
        <time>2026-04-13T14:26:18.000Z</time>
      </trkpt>
      <trkpt lat="42.131741" lon="23.150814">
        <ele>581.1</ele>
        <time>2026-04-13T14:26:19.000Z</time>
      </trkpt>
      <trkpt lat="42.131739" lon="23.150833">
        <ele>580.8</ele>
        <time>2026-04-13T14:26:20.000Z</time>
      </trkpt>
      <trkpt lat="42.131735" lon="23.150851">
        <ele>580.8</ele>
        <time>2026-04-13T14:26:21.000Z</time>
      </trkpt>
      <trkpt lat="42.131731" lon="23.150867">
        <ele>580.8</ele>
        <time>2026-04-13T14:26:22.000Z</time>
      </trkpt>
      <trkpt lat="42.131725" lon="23.150881">
        <ele>580.8</ele>
        <time>2026-04-13T14:26:23.000Z</time>
      </trkpt>
      <trkpt lat="42.131719" lon="23.150894">
        <ele>580.8</ele>
        <time>2026-04-13T14:26:24.000Z</time>
      </trkpt>
      <trkpt lat="42.131713" lon="23.150905">
        <ele>580.3</ele>
        <time>2026-04-13T14:26:25.000Z</time>
      </trkpt>
      <trkpt lat="42.131707" lon="23.150916">
        <ele>580.3</ele>
        <time>2026-04-13T14:26:26.000Z</time>
      </trkpt>
      <trkpt lat="42.131702" lon="23.150926">
        <ele>580.3</ele>
        <time>2026-04-13T14:26:27.000Z</time>
      </trkpt>
      <trkpt lat="42.131696" lon="23.150935">
        <ele>580.3</ele>
        <time>2026-04-13T14:26:28.000Z</time>
      </trkpt>
      <trkpt lat="42.13169" lon="23.150944">
        <ele>580.3</ele>
        <time>2026-04-13T14:26:29.000Z</time>
      </trkpt>
      <trkpt lat="42.131684" lon="23.150955">
        <ele>579.6</ele>
        <time>2026-04-13T14:26:30.000Z</time>
      </trkpt>
      <trkpt lat="42.131678" lon="23.150966">
        <ele>579.6</ele>
        <time>2026-04-13T14:26:31.000Z</time>
      </trkpt>
      <trkpt lat="42.131671" lon="23.150978">
        <ele>579.6</ele>
        <time>2026-04-13T14:26:32.000Z</time>
      </trkpt>
      <trkpt lat="42.131666" lon="23.150991">
        <ele>579.6</ele>
        <time>2026-04-13T14:26:33.000Z</time>
      </trkpt>
      <trkpt lat="42.131661" lon="23.151005">
        <ele>579.6</ele>
        <time>2026-04-13T14:26:34.000Z</time>
      </trkpt>
      <trkpt lat="42.131657" lon="23.151018">
        <ele>579.8</ele>
        <time>2026-04-13T14:26:35.000Z</time>
      </trkpt>
      <trkpt lat="42.131654" lon="23.151032">
        <ele>579.8</ele>
        <time>2026-04-13T14:26:36.000Z</time>
      </trkpt>
      <trkpt lat="42.131652" lon="23.151046">
        <ele>579.8</ele>
        <time>2026-04-13T14:26:37.000Z</time>
      </trkpt>
      <trkpt lat="42.13165" lon="23.151061">
        <ele>579.8</ele>
        <time>2026-04-13T14:26:38.000Z</time>
      </trkpt>
      <trkpt lat="42.131648" lon="23.151076">
        <ele>579.8</ele>
        <time>2026-04-13T14:26:39.000Z</time>
      </trkpt>
      <trkpt lat="42.131647" lon="23.151091">
        <ele>580.3</ele>
        <time>2026-04-13T14:26:40.000Z</time>
      </trkpt>
      <trkpt lat="42.131645" lon="23.151107">
        <ele>580.3</ele>
        <time>2026-04-13T14:26:41.000Z</time>
      </trkpt>
      <trkpt lat="42.131643" lon="23.151123">
        <ele>580.3</ele>
        <time>2026-04-13T14:26:42.000Z</time>
      </trkpt>
      <trkpt lat="42.131642" lon="23.151139">
        <ele>580.3</ele>
        <time>2026-04-13T14:26:43.000Z</time>
      </trkpt>
      <trkpt lat="42.131642" lon="23.151156">
        <ele>580.3</ele>
        <time>2026-04-13T14:26:44.000Z</time>
      </trkpt>
      <trkpt lat="42.131642" lon="23.151171">
        <ele>581.1</ele>
        <time>2026-04-13T14:26:45.000Z</time>
      </trkpt>
      <trkpt lat="42.131642" lon="23.151185">
        <ele>581.1</ele>
        <time>2026-04-13T14:26:46.000Z</time>
      </trkpt>
      <trkpt lat="42.131641" lon="23.151199">
        <ele>581.1</ele>
        <time>2026-04-13T14:26:47.000Z</time>
      </trkpt>
      <trkpt lat="42.13164" lon="23.151212">
        <ele>581.1</ele>
        <time>2026-04-13T14:26:48.000Z</time>
      </trkpt>
      <trkpt lat="42.131637" lon="23.151224">
        <ele>581.1</ele>
        <time>2026-04-13T14:26:49.000Z</time>
      </trkpt>
      <trkpt lat="42.131633" lon="23.151237">
        <ele>580.8</ele>
        <time>2026-04-13T14:26:50.000Z</time>
      </trkpt>
      <trkpt lat="42.131629" lon="23.151251">
        <ele>580.8</ele>
        <time>2026-04-13T14:26:51.000Z</time>
      </trkpt>
      <trkpt lat="42.131624" lon="23.151265">
        <ele>580.8</ele>
        <time>2026-04-13T14:26:52.000Z</time>
      </trkpt>
      <trkpt lat="42.131619" lon="23.15128">
        <ele>580.8</ele>
        <time>2026-04-13T14:26:53.000Z</time>
      </trkpt>
      <trkpt lat="42.131615" lon="23.151295">
        <ele>580.8</ele>
        <time>2026-04-13T14:26:54.000Z</time>
      </trkpt>
      <trkpt lat="42.13161" lon="23.15131">
        <ele>580</ele>
        <time>2026-04-13T14:26:55.000Z</time>
      </trkpt>
      <trkpt lat="42.131606" lon="23.151325">
        <ele>580</ele>
        <time>2026-04-13T14:26:56.000Z</time>
      </trkpt>
      <trkpt lat="42.1316" lon="23.15134">
        <ele>580</ele>
        <time>2026-04-13T14:26:57.000Z</time>
      </trkpt>
      <trkpt lat="42.131595" lon="23.151356">
        <ele>580</ele>
        <time>2026-04-13T14:26:58.000Z</time>
      </trkpt>
      <trkpt lat="42.131589" lon="23.151372">
        <ele>580</ele>
        <time>2026-04-13T14:26:59.000Z</time>
      </trkpt>
      <trkpt lat="42.131585" lon="23.151389">
        <ele>578.1</ele>
        <time>2026-04-13T14:27:00.000Z</time>
      </trkpt>
      <trkpt lat="42.13158" lon="23.151406">
        <ele>578.1</ele>
        <time>2026-04-13T14:27:01.000Z</time>
      </trkpt>
      <trkpt lat="42.131577" lon="23.151423">
        <ele>578.1</ele>
        <time>2026-04-13T14:27:02.000Z</time>
      </trkpt>
      <trkpt lat="42.131575" lon="23.151441">
        <ele>578.1</ele>
        <time>2026-04-13T14:27:03.000Z</time>
      </trkpt>
      <trkpt lat="42.131573" lon="23.151458">
        <ele>578.1</ele>
        <time>2026-04-13T14:27:04.000Z</time>
      </trkpt>
      <trkpt lat="42.131572" lon="23.151476">
        <ele>576.2</ele>
        <time>2026-04-13T14:27:05.000Z</time>
      </trkpt>
      <trkpt lat="42.131572" lon="23.151494">
        <ele>576.2</ele>
        <time>2026-04-13T14:27:06.000Z</time>
      </trkpt>
      <trkpt lat="42.131573" lon="23.151511">
        <ele>576.2</ele>
        <time>2026-04-13T14:27:07.000Z</time>
      </trkpt>
      <trkpt lat="42.131575" lon="23.15153">
        <ele>576.2</ele>
        <time>2026-04-13T14:27:08.000Z</time>
      </trkpt>
      <trkpt lat="42.131578" lon="23.151546">
        <ele>576.2</ele>
        <time>2026-04-13T14:27:09.000Z</time>
      </trkpt>
      <trkpt lat="42.131582" lon="23.151562">
        <ele>575.4</ele>
        <time>2026-04-13T14:27:10.000Z</time>
      </trkpt>
      <trkpt lat="42.131586" lon="23.151575">
        <ele>575.4</ele>
        <time>2026-04-13T14:27:11.000Z</time>
      </trkpt>
      <trkpt lat="42.13159" lon="23.151585">
        <ele>575.4</ele>
        <time>2026-04-13T14:27:12.000Z</time>
      </trkpt>
      <trkpt lat="42.131592" lon="23.151591">
        <ele>575.4</ele>
        <time>2026-04-13T14:27:13.000Z</time>
      </trkpt>
      <trkpt lat="42.131594" lon="23.151593">
        <ele>575.4</ele>
        <time>2026-04-13T14:27:14.000Z</time>
      </trkpt>
      <trkpt lat="42.131595" lon="23.151594">
        <ele>574</ele>
        <time>2026-04-13T14:27:15.000Z</time>
      </trkpt>
      <trkpt lat="42.131595" lon="23.151594">
        <ele>574</ele>
        <time>2026-04-13T14:27:16.000Z</time>
      </trkpt>
      <trkpt lat="42.131596" lon="23.151594">
        <ele>574</ele>
        <time>2026-04-13T14:27:17.000Z</time>
      </trkpt>
      <trkpt lat="42.131597" lon="23.151594">
        <ele>574</ele>
        <time>2026-04-13T14:27:18.000Z</time>
      </trkpt>
      <trkpt lat="42.131597" lon="23.151594">
        <ele>574</ele>
        <time>2026-04-13T14:27:19.000Z</time>
      </trkpt>
      <trkpt lat="42.131598" lon="23.151595">
        <ele>573.1</ele>
        <time>2026-04-13T14:27:20.000Z</time>
      </trkpt>
      <trkpt lat="42.131599" lon="23.151597">
        <ele>573.1</ele>
        <time>2026-04-13T14:27:21.000Z</time>
      </trkpt>
      <trkpt lat="42.131599" lon="23.151599">
        <ele>573.1</ele>
        <time>2026-04-13T14:27:22.000Z</time>
      </trkpt>
      <trkpt lat="42.131599" lon="23.151603">
        <ele>573.1</ele>
        <time>2026-04-13T14:27:23.000Z</time>
      </trkpt>
      <trkpt lat="42.131599" lon="23.151608">
        <ele>573.1</ele>
        <time>2026-04-13T14:27:24.000Z</time>
      </trkpt>
      <trkpt lat="42.131599" lon="23.151614">
        <ele>572.9</ele>
        <time>2026-04-13T14:27:25.000Z</time>
      </trkpt>
      <trkpt lat="42.131599" lon="23.151621">
        <ele>572.9</ele>
        <time>2026-04-13T14:27:26.000Z</time>
      </trkpt>
      <trkpt lat="42.131598" lon="23.151629">
        <ele>572.9</ele>
        <time>2026-04-13T14:27:27.000Z</time>
      </trkpt>
      <trkpt lat="42.131597" lon="23.151633">
        <ele>572.9</ele>
        <time>2026-04-13T14:27:28.000Z</time>
      </trkpt>
      <trkpt lat="42.131595" lon="23.151636">
        <ele>572.9</ele>
        <time>2026-04-13T14:27:29.000Z</time>
      </trkpt>
      <trkpt lat="42.131593" lon="23.151637">
        <ele>573</ele>
        <time>2026-04-13T14:27:30.000Z</time>
      </trkpt>
      <trkpt lat="42.13159" lon="23.151638">
        <ele>573</ele>
        <time>2026-04-13T14:27:31.000Z</time>
      </trkpt>
      <trkpt lat="42.131587" lon="23.151636">
        <ele>573</ele>
        <time>2026-04-13T14:27:32.000Z</time>
      </trkpt>
      <trkpt lat="42.131587" lon="23.151636">
        <ele>573</ele>
        <time>2026-04-13T14:27:33.000Z</time>
      </trkpt>
      <trkpt lat="42.131588" lon="23.151636">
        <ele>573</ele>
        <time>2026-04-13T14:27:34.000Z</time>
      </trkpt>
      <trkpt lat="42.131591" lon="23.151637">
        <ele>573.1</ele>
        <time>2026-04-13T14:27:35.000Z</time>
      </trkpt>
      <trkpt lat="42.131595" lon="23.151639">
        <ele>573.1</ele>
        <time>2026-04-13T14:27:36.000Z</time>
      </trkpt>
      <trkpt lat="42.1316" lon="23.151643">
        <ele>573.1</ele>
        <time>2026-04-13T14:27:37.000Z</time>
      </trkpt>
      <trkpt lat="42.131603" lon="23.151649">
        <ele>573.1</ele>
        <time>2026-04-13T14:27:38.000Z</time>
      </trkpt>
      <trkpt lat="42.131606" lon="23.151657">
        <ele>573.1</ele>
        <time>2026-04-13T14:27:39.000Z</time>
      </trkpt>
      <trkpt lat="42.131608" lon="23.151667">
        <ele>573.1</ele>
        <time>2026-04-13T14:27:40.000Z</time>
      </trkpt>
      <trkpt lat="42.131609" lon="23.151678">
        <ele>573.1</ele>
        <time>2026-04-13T14:27:41.000Z</time>
      </trkpt>
      <trkpt lat="42.13161" lon="23.15169">
        <ele>573.1</ele>
        <time>2026-04-13T14:27:42.000Z</time>
      </trkpt>
      <trkpt lat="42.131613" lon="23.151703">
        <ele>573.1</ele>
        <time>2026-04-13T14:27:43.000Z</time>
      </trkpt>
      <trkpt lat="42.131616" lon="23.151717">
        <ele>573.1</ele>
        <time>2026-04-13T14:27:44.000Z</time>
      </trkpt>
      <trkpt lat="42.13162" lon="23.151731">
        <ele>573</ele>
        <time>2026-04-13T14:27:45.000Z</time>
      </trkpt>
      <trkpt lat="42.131626" lon="23.151745">
        <ele>573</ele>
        <time>2026-04-13T14:27:46.000Z</time>
      </trkpt>
      <trkpt lat="42.131633" lon="23.15176">
        <ele>573</ele>
        <time>2026-04-13T14:27:47.000Z</time>
      </trkpt>
      <trkpt lat="42.131639" lon="23.151775">
        <ele>573</ele>
        <time>2026-04-13T14:27:48.000Z</time>
      </trkpt>
      <trkpt lat="42.131644" lon="23.151791">
        <ele>573</ele>
        <time>2026-04-13T14:27:49.000Z</time>
      </trkpt>
      <trkpt lat="42.131648" lon="23.151808">
        <ele>572.5</ele>
        <time>2026-04-13T14:27:50.000Z</time>
      </trkpt>
      <trkpt lat="42.131651" lon="23.151824">
        <ele>572.5</ele>
        <time>2026-04-13T14:27:51.000Z</time>
      </trkpt>
      <trkpt lat="42.131654" lon="23.151841">
        <ele>572.5</ele>
        <time>2026-04-13T14:27:52.000Z</time>
      </trkpt>
      <trkpt lat="42.131657" lon="23.151855">
        <ele>572.5</ele>
        <time>2026-04-13T14:27:53.000Z</time>
      </trkpt>
      <trkpt lat="42.131659" lon="23.151868">
        <ele>572.5</ele>
        <time>2026-04-13T14:27:54.000Z</time>
      </trkpt>
      <trkpt lat="42.131661" lon="23.151881">
        <ele>572.1</ele>
        <time>2026-04-13T14:27:55.000Z</time>
      </trkpt>
      <trkpt lat="42.131663" lon="23.151893">
        <ele>572.1</ele>
        <time>2026-04-13T14:27:56.000Z</time>
      </trkpt>
      <trkpt lat="42.131665" lon="23.151904">
        <ele>572.1</ele>
        <time>2026-04-13T14:27:57.000Z</time>
      </trkpt>
      <trkpt lat="42.131668" lon="23.151916">
        <ele>572.1</ele>
        <time>2026-04-13T14:27:58.000Z</time>
      </trkpt>
      <trkpt lat="42.131672" lon="23.151927">
        <ele>572.1</ele>
        <time>2026-04-13T14:27:59.000Z</time>
      </trkpt>
      <trkpt lat="42.131677" lon="23.151938">
        <ele>570.9</ele>
        <time>2026-04-13T14:28:00.000Z</time>
      </trkpt>
      <trkpt lat="42.131683" lon="23.151947">
        <ele>570.9</ele>
        <time>2026-04-13T14:28:01.000Z</time>
      </trkpt>
      <trkpt lat="42.131691" lon="23.151955">
        <ele>570.9</ele>
        <time>2026-04-13T14:28:02.000Z</time>
      </trkpt>
      <trkpt lat="42.131699" lon="23.151962">
        <ele>570.9</ele>
        <time>2026-04-13T14:28:03.000Z</time>
      </trkpt>
      <trkpt lat="42.131707" lon="23.151964">
        <ele>570.9</ele>
        <time>2026-04-13T14:28:04.000Z</time>
      </trkpt>
      <trkpt lat="42.131713" lon="23.151962">
        <ele>569.5</ele>
        <time>2026-04-13T14:28:05.000Z</time>
      </trkpt>
      <trkpt lat="42.131717" lon="23.151957">
        <ele>569.5</ele>
        <time>2026-04-13T14:28:06.000Z</time>
      </trkpt>
      <trkpt lat="42.131717" lon="23.15195">
        <ele>569.5</ele>
        <time>2026-04-13T14:28:07.000Z</time>
      </trkpt>
      <trkpt lat="42.131717" lon="23.151939">
        <ele>569.5</ele>
        <time>2026-04-13T14:28:08.000Z</time>
      </trkpt>
      <trkpt lat="42.131715" lon="23.151929">
        <ele>569.5</ele>
        <time>2026-04-13T14:28:09.000Z</time>
      </trkpt>
      <trkpt lat="42.131714" lon="23.151919">
        <ele>568.8</ele>
        <time>2026-04-13T14:28:10.000Z</time>
      </trkpt>
      <trkpt lat="42.131715" lon="23.151909">
        <ele>568.8</ele>
        <time>2026-04-13T14:28:11.000Z</time>
      </trkpt>
      <trkpt lat="42.131717" lon="23.151898">
        <ele>568.8</ele>
        <time>2026-04-13T14:28:12.000Z</time>
      </trkpt>
      <trkpt lat="42.131721" lon="23.151889">
        <ele>568.8</ele>
        <time>2026-04-13T14:28:13.000Z</time>
      </trkpt>
      <trkpt lat="42.131727" lon="23.15188">
        <ele>568.8</ele>
        <time>2026-04-13T14:28:14.000Z</time>
      </trkpt>
      <trkpt lat="42.131734" lon="23.151872">
        <ele>567.2</ele>
        <time>2026-04-13T14:28:15.000Z</time>
      </trkpt>
      <trkpt lat="42.131742" lon="23.151868">
        <ele>567.2</ele>
        <time>2026-04-13T14:28:16.000Z</time>
      </trkpt>
      <trkpt lat="42.131749" lon="23.151868">
        <ele>567.2</ele>
        <time>2026-04-13T14:28:17.000Z</time>
      </trkpt>
      <trkpt lat="42.131755" lon="23.151871">
        <ele>567.2</ele>
        <time>2026-04-13T14:28:18.000Z</time>
      </trkpt>
      <trkpt lat="42.131759" lon="23.151877">
        <ele>567.2</ele>
        <time>2026-04-13T14:28:19.000Z</time>
      </trkpt>
      <trkpt lat="42.131762" lon="23.151886">
        <ele>565.4</ele>
        <time>2026-04-13T14:28:20.000Z</time>
      </trkpt>
      <trkpt lat="42.131766" lon="23.151895">
        <ele>565.4</ele>
        <time>2026-04-13T14:28:21.000Z</time>
      </trkpt>
      <trkpt lat="42.131771" lon="23.151902">
        <ele>565.4</ele>
        <time>2026-04-13T14:28:22.000Z</time>
      </trkpt>
      <trkpt lat="42.131776" lon="23.15191">
        <ele>565.4</ele>
        <time>2026-04-13T14:28:23.000Z</time>
      </trkpt>
      <trkpt lat="42.131783" lon="23.151918">
        <ele>565.4</ele>
        <time>2026-04-13T14:28:24.000Z</time>
      </trkpt>
      <trkpt lat="42.13179" lon="23.151924">
        <ele>564.5</ele>
        <time>2026-04-13T14:28:25.000Z</time>
      </trkpt>
      <trkpt lat="42.131798" lon="23.15193">
        <ele>564.5</ele>
        <time>2026-04-13T14:28:26.000Z</time>
      </trkpt>
      <trkpt lat="42.131806" lon="23.151936">
        <ele>564.5</ele>
        <time>2026-04-13T14:28:27.000Z</time>
      </trkpt>
      <trkpt lat="42.131814" lon="23.151941">
        <ele>564.5</ele>
        <time>2026-04-13T14:28:28.000Z</time>
      </trkpt>
      <trkpt lat="42.131823" lon="23.151947">
        <ele>564.5</ele>
        <time>2026-04-13T14:28:29.000Z</time>
      </trkpt>
      <trkpt lat="42.131832" lon="23.151956">
        <ele>562.8</ele>
        <time>2026-04-13T14:28:30.000Z</time>
      </trkpt>
      <trkpt lat="42.131839" lon="23.151966">
        <ele>562.8</ele>
        <time>2026-04-13T14:28:31.000Z</time>
      </trkpt>
      <trkpt lat="42.131844" lon="23.151979">
        <ele>562.8</ele>
        <time>2026-04-13T14:28:32.000Z</time>
      </trkpt>
      <trkpt lat="42.131848" lon="23.151993">
        <ele>562.8</ele>
        <time>2026-04-13T14:28:33.000Z</time>
      </trkpt>
      <trkpt lat="42.13185" lon="23.15201">
        <ele>562.8</ele>
        <time>2026-04-13T14:28:34.000Z</time>
      </trkpt>
      <trkpt lat="42.131851" lon="23.152026">
        <ele>561.5</ele>
        <time>2026-04-13T14:28:35.000Z</time>
      </trkpt>
      <trkpt lat="42.13185" lon="23.152043">
        <ele>561.5</ele>
        <time>2026-04-13T14:28:36.000Z</time>
      </trkpt>
      <trkpt lat="42.131849" lon="23.15206">
        <ele>561.5</ele>
        <time>2026-04-13T14:28:37.000Z</time>
      </trkpt>
      <trkpt lat="42.131849" lon="23.152076">
        <ele>561.5</ele>
        <time>2026-04-13T14:28:38.000Z</time>
      </trkpt>
      <trkpt lat="42.131849" lon="23.152091">
        <ele>561.5</ele>
        <time>2026-04-13T14:28:39.000Z</time>
      </trkpt>
      <trkpt lat="42.131849" lon="23.152107">
        <ele>561</ele>
        <time>2026-04-13T14:28:40.000Z</time>
      </trkpt>
      <trkpt lat="42.131849" lon="23.152122">
        <ele>561</ele>
        <time>2026-04-13T14:28:41.000Z</time>
      </trkpt>
      <trkpt lat="42.13185" lon="23.152138">
        <ele>561</ele>
        <time>2026-04-13T14:28:42.000Z</time>
      </trkpt>
      <trkpt lat="42.131851" lon="23.152153">
        <ele>561</ele>
        <time>2026-04-13T14:28:43.000Z</time>
      </trkpt>
      <trkpt lat="42.131852" lon="23.152168">
        <ele>561</ele>
        <time>2026-04-13T14:28:44.000Z</time>
      </trkpt>
      <trkpt lat="42.131854" lon="23.152183">
        <ele>560.6</ele>
        <time>2026-04-13T14:28:45.000Z</time>
      </trkpt>
      <trkpt lat="42.131855" lon="23.152198">
        <ele>560.6</ele>
        <time>2026-04-13T14:28:46.000Z</time>
      </trkpt>
      <trkpt lat="42.131856" lon="23.152212">
        <ele>560.6</ele>
        <time>2026-04-13T14:28:47.000Z</time>
      </trkpt>
      <trkpt lat="42.131857" lon="23.152226">
        <ele>560.6</ele>
        <time>2026-04-13T14:28:48.000Z</time>
      </trkpt>
      <trkpt lat="42.131858" lon="23.152239">
        <ele>560.6</ele>
        <time>2026-04-13T14:28:49.000Z</time>
      </trkpt>
      <trkpt lat="42.131859" lon="23.152252">
        <ele>560.7</ele>
        <time>2026-04-13T14:28:50.000Z</time>
      </trkpt>
    </trkseg>
  </trk>
</gpx>
